<?xml version='1.0' encoding='UTF-8'?><gpx version="1.1" creator="JPX - https://github.com/jenetics/jpx" xmlns="http://www.topografix.com/GPX/1/1"><trk><trkseg><trkpt lat="44.7988798" lon="10.3134944"><ele>59.0</ele><time>2026-04-20T12:48:16.282Z</time></trkpt><trkpt lat="44.7989623" lon="10.3135338"><ele>59.00000000000001</ele><time>2026-04-20T12:48:19.282Z</time></trkpt><trkpt lat="44.7990484" lon="10.3135419"><ele>59.00000000000001</ele><time>2026-04-20T12:48:21.282Z</time></trkpt><trkpt lat="44.7991629" lon="10.3135406"><ele>59.0</ele><time>2026-04-20T12:48:23.283Z</time></trkpt><trkpt lat="44.799233" lon="10.3135428"><ele>59.0</ele><time>2026-04-20T12:48:24.282Z</time></trkpt><trkpt lat="44.7993288" lon="10.3135403"><ele>59.400000000000006</ele><time>2026-04-20T12:48:26.283Z</time></trkpt><trkpt lat="44.7994296" lon="10.3135345"><ele>59.800000000000004</ele><time>2026-04-20T12:48:28.283Z</time></trkpt><trkpt lat="44.7995372" lon="10.3135675"><ele>60.199999999999996</ele><time>2026-04-20T12:48:30.283Z</time></trkpt><trkpt lat="44.7996155" lon="10.3136267"><ele>60.599999999999994</ele><time>2026-04-20T12:48:32.283Z</time></trkpt><trkpt lat="44.7996832" lon="10.31371"><ele>61.0</ele><time>2026-04-20T12:48:34.283Z</time></trkpt><trkpt lat="44.7997386" lon="10.3138055"><ele>60.99999999999999</ele><time>2026-04-20T12:48:36.283Z</time></trkpt><trkpt lat="44.7997799" lon="10.3139119"><ele>61.0</ele><time>2026-04-20T12:48:39.282Z</time></trkpt><trkpt lat="44.7998564" lon="10.3138943"><ele>61.0</ele><time>2026-04-20T12:48:46.282Z</time></trkpt><trkpt lat="44.7999046" lon="10.3138323"><ele>61.0</ele><time>2026-04-20T12:48:48.283Z</time></trkpt><trkpt lat="44.7999462" lon="10.3137539"><ele>60.99999999999999</ele><time>2026-04-20T12:48:50.282Z</time></trkpt><trkpt lat="44.8000111" lon="10.3136997"><ele>61.0</ele><time>2026-04-20T12:48:52.282Z</time></trkpt><trkpt lat="44.8001585" lon="10.3136799"><ele>61.33333333333333</ele><time>2026-04-20T12:48:54.282Z</time></trkpt><trkpt lat="44.8002305" lon="10.3136654"><ele>61.666666666666664</ele><time>2026-04-20T12:48:56.282Z</time></trkpt><trkpt lat="44.8003312" lon="10.3136727"><ele>62.0</ele><time>2026-04-20T12:48:59.283Z</time></trkpt><trkpt lat="44.8003846" lon="10.3137598"><ele>62.33333333333333</ele><time>2026-04-20T12:49:02.282Z</time></trkpt><trkpt lat="44.8004382" lon="10.3138548"><ele>62.666666666666664</ele><time>2026-04-20T12:49:10.282Z</time></trkpt><trkpt lat="44.8004795" lon="10.3139367"><ele>63.0</ele><time>2026-04-20T12:49:12.282Z</time></trkpt><trkpt lat="44.800567" lon="10.3141187"><ele>63.0</ele><time>2026-04-20T12:49:15.282Z</time></trkpt><trkpt lat="44.800619" lon="10.3142483"><ele>63.0</ele><time>2026-04-20T12:49:17.282Z</time></trkpt><trkpt lat="44.8006695" lon="10.3143775"><ele>63.0</ele><time>2026-04-20T12:49:19.282Z</time></trkpt><trkpt lat="44.8007282" lon="10.3144988"><ele>63.0</ele><time>2026-04-20T12:49:21.282Z</time></trkpt><trkpt lat="44.8008023" lon="10.314618"><ele>63.0</ele><time>2026-04-20T12:49:23.283Z</time></trkpt><trkpt lat="44.8008646" lon="10.314764"><ele>63.0</ele><time>2026-04-20T12:49:25.282Z</time></trkpt><trkpt lat="44.8009281" lon="10.314894"><ele>63.0</ele><time>2026-04-20T12:49:27.283Z</time></trkpt><trkpt lat="44.8009743" lon="10.3150434"><ele>63.0</ele><time>2026-04-20T12:49:29.282Z</time></trkpt><trkpt lat="44.8010202" lon="10.3151893"><ele>63.0</ele><time>2026-04-20T12:49:31.283Z</time></trkpt><trkpt lat="44.8010603" lon="10.3153374"><ele>62.8</ele><time>2026-04-20T12:49:33.283Z</time></trkpt><trkpt lat="44.8011276" lon="10.3154596"><ele>62.599999999999994</ele><time>2026-04-20T12:49:35.283Z</time></trkpt><trkpt lat="44.801172" lon="10.3155885"><ele>62.400000000000006</ele><time>2026-04-20T12:49:37.283Z</time></trkpt><trkpt lat="44.8012207" lon="10.3157319"><ele>62.2</ele><time>2026-04-20T12:49:39.282Z</time></trkpt><trkpt lat="44.8012784" lon="10.3158754"><ele>62.0</ele><time>2026-04-20T12:49:41.282Z</time></trkpt><trkpt lat="44.8013456" lon="10.3160126"><ele>62.0</ele><time>2026-04-20T12:49:43.283Z</time></trkpt><trkpt lat="44.8014122" lon="10.3161481"><ele>62.0</ele><time>2026-04-20T12:49:45.282Z</time></trkpt><trkpt lat="44.8014459" lon="10.3162727"><ele>62.0</ele><time>2026-04-20T12:49:47.283Z</time></trkpt><trkpt lat="44.8014919" lon="10.3164126"><ele>62.0</ele><time>2026-04-20T12:49:49.283Z</time></trkpt><trkpt lat="44.8015045" lon="10.3165606"><ele>62.0</ele><time>2026-04-20T12:49:51.282Z</time></trkpt><trkpt lat="44.8015362" lon="10.3166988"><ele>61.8</ele><time>2026-04-20T12:49:53.283Z</time></trkpt><trkpt lat="44.8015454" lon="10.3168107"><ele>61.6</ele><time>2026-04-20T12:49:55.282Z</time></trkpt><trkpt lat="44.8015663" lon="10.31693"><ele>61.39999999999999</ele><time>2026-04-20T12:49:58.283Z</time></trkpt><trkpt lat="44.801586" lon="10.3170683"><ele>61.199999999999996</ele><time>2026-04-20T12:50:00.282Z</time></trkpt><trkpt lat="44.8016272" lon="10.3171996"><ele>61.0</ele><time>2026-04-20T12:50:02.283Z</time></trkpt><trkpt lat="44.8016452" lon="10.3173558"><ele>61.0</ele><time>2026-04-20T12:50:04.283Z</time></trkpt><trkpt lat="44.801691" lon="10.317561"><ele>60.99999999999999</ele><time>2026-04-20T12:50:07.282Z</time></trkpt><trkpt lat="44.8016966" lon="10.3177155"><ele>60.99999999999999</ele><time>2026-04-20T12:50:09.283Z</time></trkpt><trkpt lat="44.8017263" lon="10.3178227"><ele>61.0</ele><time>2026-04-20T12:50:11.283Z</time></trkpt><trkpt lat="44.8017338" lon="10.3179668"><ele>61.0</ele><time>2026-04-20T12:50:13.282Z</time></trkpt><trkpt lat="44.8017309" lon="10.3181439"><ele>61.0</ele><time>2026-04-20T12:50:15.282Z</time></trkpt><trkpt lat="44.8017446" lon="10.3182868"><ele>60.99999999999999</ele><time>2026-04-20T12:50:17.282Z</time></trkpt><trkpt lat="44.8017486" lon="10.3184083"><ele>60.99999999999999</ele><time>2026-04-20T12:50:19.282Z</time></trkpt><trkpt lat="44.8017644" lon="10.3185438"><ele>61.0</ele><time>2026-04-20T12:50:21.282Z</time></trkpt><trkpt lat="44.801769" lon="10.3187018"><ele>61.0</ele><time>2026-04-20T12:50:23.283Z</time></trkpt><trkpt lat="44.8017825" lon="10.318846"><ele>60.99999999999999</ele><time>2026-04-20T12:50:25.283Z</time></trkpt><trkpt lat="44.8017731" lon="10.3189614"><ele>61.0</ele><time>2026-04-20T12:50:27.283Z</time></trkpt><trkpt lat="44.8018315" lon="10.3190768"><ele>61.0</ele><time>2026-04-20T12:50:29.282Z</time></trkpt><trkpt lat="44.8018342" lon="10.3191907"><ele>61.0</ele><time>2026-04-20T12:50:31.282Z</time></trkpt><trkpt lat="44.8018211" lon="10.319291"><ele>60.99999999999999</ele><time>2026-04-20T12:50:33.282Z</time></trkpt><trkpt lat="44.8018482" lon="10.3194082"><ele>61.0</ele><time>2026-04-20T12:50:35.283Z</time></trkpt><trkpt lat="44.8018651" lon="10.3195242"><ele>61.0</ele><time>2026-04-20T12:50:37.283Z</time></trkpt><trkpt lat="44.8018976" lon="10.3196328"><ele>60.99999999999999</ele><time>2026-04-20T12:50:39.283Z</time></trkpt><trkpt lat="44.8019315" lon="10.3197391"><ele>60.99999999999999</ele><time>2026-04-20T12:50:41.282Z</time></trkpt><trkpt lat="44.8019587" lon="10.3198747"><ele>61.0</ele><time>2026-04-20T12:50:43.283Z</time></trkpt><trkpt lat="44.8019863" lon="10.320001"><ele>61.0</ele><time>2026-04-20T12:50:45.282Z</time></trkpt><trkpt lat="44.8020284" lon="10.32012"><ele>61.199999999999996</ele><time>2026-04-20T12:50:47.282Z</time></trkpt><trkpt lat="44.8020602" lon="10.3202399"><ele>61.39999999999999</ele><time>2026-04-20T12:50:49.282Z</time></trkpt><trkpt lat="44.8020847" lon="10.3203843"><ele>61.6</ele><time>2026-04-20T12:50:51.283Z</time></trkpt><trkpt lat="44.8021439" lon="10.3205107"><ele>61.8</ele><time>2026-04-20T12:50:53.282Z</time></trkpt><trkpt lat="44.8021926" lon="10.3206512"><ele>62.0</ele><time>2026-04-20T12:50:55.283Z</time></trkpt><trkpt lat="44.8022214" lon="10.3207855"><ele>62.00000000000001</ele><time>2026-04-20T12:50:57.283Z</time></trkpt><trkpt lat="44.8022835" lon="10.3209105"><ele>62.0</ele><time>2026-04-20T12:50:59.282Z</time></trkpt><trkpt lat="44.8023616" lon="10.3209594"><ele>62.0</ele><time>2026-04-20T12:51:00.282Z</time></trkpt><trkpt lat="44.8023927" lon="10.3210517"><ele>62.0</ele><time>2026-04-20T12:51:02.282Z</time></trkpt><trkpt lat="44.8024523" lon="10.3211031"><ele>62.00000000000001</ele><time>2026-04-20T12:51:03.283Z</time></trkpt><trkpt lat="44.8025036" lon="10.3211825"><ele>62.0</ele><time>2026-04-20T12:51:05.282Z</time></trkpt><trkpt lat="44.8025775" lon="10.3212354"><ele>62.0</ele><time>2026-04-20T12:51:07.282Z</time></trkpt><trkpt lat="44.8026717" lon="10.3213139"><ele>62.0</ele><time>2026-04-20T12:51:09.282Z</time></trkpt><trkpt lat="44.8028016" lon="10.3213801"><ele>62.0</ele><time>2026-04-20T12:51:11.283Z</time></trkpt><trkpt lat="44.8028582" lon="10.3214247"><ele>62.0</ele><time>2026-04-20T12:51:12.282Z</time></trkpt><trkpt lat="44.8028028" lon="10.3214912"><ele>62.0</ele><time>2026-04-20T12:51:13.282Z</time></trkpt><trkpt lat="44.8027652" lon="10.321599"><ele>62.00000000000001</ele><time>2026-04-20T12:51:15.282Z</time></trkpt><trkpt lat="44.8027541" lon="10.3217044"><ele>62.0</ele><time>2026-04-20T12:51:17.282Z</time></trkpt><trkpt lat="44.8026853" lon="10.3217966"><ele>62.0</ele><time>2026-04-20T12:51:19.283Z</time></trkpt><trkpt lat="44.8026773" lon="10.3218862"><ele>62.0</ele><time>2026-04-20T12:51:21.283Z</time></trkpt><trkpt lat="44.8026329" lon="10.3220052"><ele>62.00000000000001</ele><time>2026-04-20T12:51:23.282Z</time></trkpt><trkpt lat="44.8026156" lon="10.3221414"><ele>62.0</ele><time>2026-04-20T12:51:26.282Z</time></trkpt><trkpt lat="44.8026117" lon="10.322258"><ele>62.0</ele><time>2026-04-20T12:51:29.282Z</time></trkpt><trkpt lat="44.8025886" lon="10.3223928"><ele>62.0</ele><time>2026-04-20T12:51:32.283Z</time></trkpt><trkpt lat="44.8025505" lon="10.3225256"><ele>62.0</ele><time>2026-04-20T12:51:34.283Z</time></trkpt><trkpt lat="44.8025161" lon="10.3226695"><ele>62.0</ele><time>2026-04-20T12:51:36.282Z</time></trkpt><trkpt lat="44.8024997" lon="10.3228201"><ele>62.0</ele><time>2026-04-20T12:51:38.283Z</time></trkpt><trkpt lat="44.8024801" lon="10.3229605"><ele>61.2</ele><time>2026-04-20T12:51:40.283Z</time></trkpt><trkpt lat="44.8024475" lon="10.3230963"><ele>60.400000000000006</ele><time>2026-04-20T12:51:42.283Z</time></trkpt><trkpt lat="44.8024163" lon="10.3232251"><ele>59.599999999999994</ele><time>2026-04-20T12:51:44.282Z</time></trkpt><trkpt lat="44.8023792" lon="10.3233583"><ele>58.8</ele><time>2026-04-20T12:51:46.282Z</time></trkpt><trkpt lat="44.8023471" lon="10.323482"><ele>58.0</ele><time>2026-04-20T12:51:48.283Z</time></trkpt><trkpt lat="44.8023251" lon="10.3235666"><ele>57.99999999999999</ele><time>2026-04-20T12:51:50.282Z</time></trkpt><trkpt lat="44.8022878" lon="10.323756"><ele>58.0</ele><time>2026-04-20T12:51:53.283Z</time></trkpt><trkpt lat="44.8022673" lon="10.3238767"><ele>58.0</ele><time>2026-04-20T12:51:55.283Z</time></trkpt><trkpt lat="44.8022573" lon="10.3239782"><ele>58.0</ele><time>2026-04-20T12:51:57.283Z</time></trkpt><trkpt lat="44.8022291" lon="10.3240589"><ele>57.99999999999999</ele><time>2026-04-20T12:51:59.282Z</time></trkpt><trkpt lat="44.8022716" lon="10.3241402"><ele>58.0</ele><time>2026-04-20T12:52:31.282Z</time></trkpt><trkpt lat="44.8023322" lon="10.3241939"><ele>57.99999999999999</ele><time>2026-04-20T12:52:33.283Z</time></trkpt><trkpt lat="44.8023993" lon="10.3242634"><ele>58.0</ele><time>2026-04-20T12:52:35.282Z</time></trkpt><trkpt lat="44.8024757" lon="10.3242884"><ele>58.0</ele><time>2026-04-20T12:52:37.282Z</time></trkpt><trkpt lat="44.8025479" lon="10.324277"><ele>58.0</ele><time>2026-04-20T12:52:39.283Z</time></trkpt><trkpt lat="44.8026237" lon="10.3242923"><ele>57.99999999999999</ele><time>2026-04-20T12:52:41.283Z</time></trkpt><trkpt lat="44.8027049" lon="10.3243069"><ele>58.0</ele><time>2026-04-20T12:52:43.282Z</time></trkpt><trkpt lat="44.8027721" lon="10.3243186"><ele>58.00000000000001</ele><time>2026-04-20T12:52:45.283Z</time></trkpt><trkpt lat="44.8028353" lon="10.3243352"><ele>58.0</ele><time>2026-04-20T12:52:47.283Z</time></trkpt><trkpt lat="44.8028977" lon="10.3243553"><ele>58.00000000000001</ele><time>2026-04-20T12:52:49.282Z</time></trkpt><trkpt lat="44.8029799" lon="10.3243862"><ele>58.00000000000001</ele><time>2026-04-20T12:52:52.283Z</time></trkpt><trkpt lat="44.8030527" lon="10.3243994"><ele>58.0</ele><time>2026-04-20T12:52:57.282Z</time></trkpt><trkpt lat="44.8031199" lon="10.3244015"><ele>58.00000000000001</ele><time>2026-04-20T12:53:01.283Z</time></trkpt><trkpt lat="44.8031833" lon="10.324431"><ele>58.00000000000001</ele><time>2026-04-20T12:53:05.283Z</time></trkpt><trkpt lat="44.8032449" lon="10.3244726"><ele>58.00000000000001</ele><time>2026-04-20T12:53:14.283Z</time></trkpt><trkpt lat="44.8033095" lon="10.3244892"><ele>58.0</ele><time>2026-04-20T12:53:20.282Z</time></trkpt><trkpt lat="44.8033773" lon="10.3244957"><ele>58.00000000000001</ele><time>2026-04-20T12:53:27.283Z</time></trkpt><trkpt lat="44.8034442" lon="10.3245203"><ele>58.00000000000001</ele><time>2026-04-20T12:53:33.283Z</time></trkpt><trkpt lat="44.8035111" lon="10.3245421"><ele>58.0</ele><time>2026-04-20T12:53:37.283Z</time></trkpt><trkpt lat="44.8035872" lon="10.3245752"><ele>58.00000000000001</ele><time>2026-04-20T12:53:42.282Z</time></trkpt><trkpt lat="44.8036767" lon="10.3246016"><ele>58.00000000000001</ele><time>2026-04-20T12:53:45.282Z</time></trkpt><trkpt lat="44.8037457" lon="10.3246238"><ele>58.0</ele><time>2026-04-20T12:53:47.282Z</time></trkpt><trkpt lat="44.8038248" lon="10.3246593"><ele>58.0</ele><time>2026-04-20T12:53:49.283Z</time></trkpt><trkpt lat="44.803922" lon="10.3247011"><ele>58.0</ele><time>2026-04-20T12:53:51.282Z</time></trkpt><trkpt lat="44.8040158" lon="10.3247162"><ele>58.0</ele><time>2026-04-20T12:53:53.282Z</time></trkpt><trkpt lat="44.8040983" lon="10.3247611"><ele>58.0</ele><time>2026-04-20T12:53:55.282Z</time></trkpt><trkpt lat="44.8042069" lon="10.3247692"><ele>58.0</ele><time>2026-04-20T12:53:57.283Z</time></trkpt><trkpt lat="44.8043167" lon="10.3247947"><ele>58.0</ele><time>2026-04-20T12:53:59.282Z</time></trkpt><trkpt lat="44.8043937" lon="10.3248127"><ele>58.0</ele><time>2026-04-20T12:54:01.283Z</time></trkpt><trkpt lat="44.8044729" lon="10.3248354"><ele>58.0</ele><time>2026-04-20T12:55:25.282Z</time></trkpt><trkpt lat="44.8045791" lon="10.324904"><ele>58.0</ele><time>2026-04-20T12:55:30.283Z</time></trkpt><trkpt lat="44.8046467" lon="10.324936"><ele>57.99999999999999</ele><time>2026-04-20T12:55:33.282Z</time></trkpt><trkpt lat="44.8047079" lon="10.3249708"><ele>58.0</ele><time>2026-04-20T12:55:36.282Z</time></trkpt><trkpt lat="44.8047914" lon="10.3249848"><ele>58.0</ele><time>2026-04-20T12:55:38.282Z</time></trkpt><trkpt lat="44.8048725" lon="10.325006"><ele>58.0</ele><time>2026-04-20T12:55:40.283Z</time></trkpt><trkpt lat="44.8049463" lon="10.3250264"><ele>57.99999999999999</ele><time>2026-04-20T12:55:42.283Z</time></trkpt><trkpt lat="44.8050183" lon="10.3250521"><ele>58.0</ele><time>2026-04-20T12:55:44.282Z</time></trkpt><trkpt lat="44.8050921" lon="10.3250791"><ele>57.49999999999999</ele><time>2026-04-20T12:55:47.282Z</time></trkpt><trkpt lat="44.8051683" lon="10.3251248"><ele>57.0</ele><time>2026-04-20T12:55:51.283Z</time></trkpt><trkpt lat="44.8052342" lon="10.3251427"><ele>56.5</ele><time>2026-04-20T12:55:53.282Z</time></trkpt><trkpt lat="44.8053082" lon="10.3251928"><ele>56.0</ele><time>2026-04-20T12:55:56.282Z</time></trkpt><trkpt lat="44.8053793" lon="10.3252505"><ele>55.49999999999999</ele><time>2026-04-20T12:55:59.283Z</time></trkpt><trkpt lat="44.8054555" lon="10.3252931"><ele>55.0</ele><time>2026-04-20T12:56:01.282Z</time></trkpt><trkpt lat="44.8055364" lon="10.3253143"><ele>54.99999999999999</ele><time>2026-04-20T12:56:03.282Z</time></trkpt><trkpt lat="44.8056135" lon="10.3253495"><ele>55.0</ele><time>2026-04-20T12:56:05.283Z</time></trkpt><trkpt lat="44.8056779" lon="10.3254024"><ele>55.0</ele><time>2026-04-20T12:56:09.283Z</time></trkpt><trkpt lat="44.8057456" lon="10.3254278"><ele>55.0</ele><time>2026-04-20T12:56:13.283Z</time></trkpt><trkpt lat="44.8058104" lon="10.3254607"><ele>55.0</ele><time>2026-04-20T12:56:18.283Z</time></trkpt><trkpt lat="44.8058667" lon="10.3255017"><ele>54.99999999999999</ele><time>2026-04-20T12:56:22.283Z</time></trkpt><trkpt lat="44.8058572" lon="10.3256055"><ele>55.0</ele><time>2026-04-20T12:56:26.282Z</time></trkpt><trkpt lat="44.805996" lon="10.3257374"><ele>55.6</ele><time>2026-04-20T12:56:30.282Z</time></trkpt><trkpt lat="44.8060959" lon="10.3258069"><ele>56.2</ele><time>2026-04-20T12:56:32.283Z</time></trkpt><trkpt lat="44.8061738" lon="10.3259081"><ele>56.8</ele><time>2026-04-20T12:56:34.283Z</time></trkpt><trkpt lat="44.8062408" lon="10.3259902"><ele>57.4</ele><time>2026-04-20T12:56:36.283Z</time></trkpt><trkpt lat="44.8062944" lon="10.32604"><ele>58.0</ele><time>2026-04-20T12:56:37.283Z</time></trkpt><trkpt lat="44.806402" lon="10.3261054"><ele>58.0</ele><time>2026-04-20T12:56:39.283Z</time></trkpt><trkpt lat="44.8065062" lon="10.3261533"><ele>58.0</ele><time>2026-04-20T12:56:41.283Z</time></trkpt><trkpt lat="44.8066148" lon="10.3261933"><ele>58.0</ele><time>2026-04-20T12:56:43.282Z</time></trkpt><trkpt lat="44.8067281" lon="10.3262709"><ele>58.0</ele><time>2026-04-20T12:56:45.283Z</time></trkpt><trkpt lat="44.8068273" lon="10.3263303"><ele>57.8</ele><time>2026-04-20T12:56:47.282Z</time></trkpt><trkpt lat="44.8069295" lon="10.3263706"><ele>57.599999999999994</ele><time>2026-04-20T12:56:49.282Z</time></trkpt><trkpt lat="44.8070509" lon="10.3264565"><ele>57.400000000000006</ele><time>2026-04-20T12:56:51.282Z</time></trkpt><trkpt lat="44.8071428" lon="10.3265219"><ele>57.2</ele><time>2026-04-20T12:56:53.282Z</time></trkpt><trkpt lat="44.8072113" lon="10.3265758"><ele>57.0</ele><time>2026-04-20T12:56:54.282Z</time></trkpt><trkpt lat="44.8072801" lon="10.3266151"><ele>57.8</ele><time>2026-04-20T12:56:55.283Z</time></trkpt><trkpt lat="44.8073897" lon="10.3266825"><ele>58.6</ele><time>2026-04-20T12:56:57.282Z</time></trkpt><trkpt lat="44.807497" lon="10.3267605"><ele>59.39999999999999</ele><time>2026-04-20T12:56:59.282Z</time></trkpt><trkpt lat="44.8076164" lon="10.3268446"><ele>60.199999999999996</ele><time>2026-04-20T12:57:01.282Z</time></trkpt><trkpt lat="44.8076852" lon="10.3268658"><ele>61.0</ele><time>2026-04-20T12:57:02.282Z</time></trkpt><trkpt lat="44.8077985" lon="10.3269082"><ele>61.0</ele><time>2026-04-20T12:57:04.283Z</time></trkpt><trkpt lat="44.8079293" lon="10.3269977"><ele>61.0</ele><time>2026-04-20T12:57:06.282Z</time></trkpt><trkpt lat="44.8080481" lon="10.3270671"><ele>61.0</ele><time>2026-04-20T12:57:08.283Z</time></trkpt><trkpt lat="44.8081561" lon="10.3271067"><ele>61.0</ele><time>2026-04-20T12:57:10.282Z</time></trkpt><trkpt lat="44.8082369" lon="10.3271643"><ele>60.99999999999999</ele><time>2026-04-20T12:57:12.283Z</time></trkpt><trkpt lat="44.8083031" lon="10.3271858"><ele>61.0</ele><time>2026-04-20T12:57:13.282Z</time></trkpt><trkpt lat="44.8084169" lon="10.3272472"><ele>61.0</ele><time>2026-04-20T12:57:15.283Z</time></trkpt><trkpt lat="44.8084925" lon="10.3272771"><ele>61.0</ele><time>2026-04-20T12:57:16.283Z</time></trkpt><trkpt lat="44.8085791" lon="10.3273189"><ele>60.99999999999999</ele><time>2026-04-20T12:57:18.283Z</time></trkpt><trkpt lat="44.8086367" lon="10.3273599"><ele>61.0</ele><time>2026-04-20T12:57:19.283Z</time></trkpt><trkpt lat="44.8087044" lon="10.3274171"><ele>60.83333333333333</ele><time>2026-04-20T12:57:22.283Z</time></trkpt><trkpt lat="44.8087272" lon="10.3275074"><ele>60.666666666666664</ele><time>2026-04-20T12:57:25.283Z</time></trkpt><trkpt lat="44.8087175" lon="10.3276461"><ele>60.5</ele><time>2026-04-20T12:57:28.282Z</time></trkpt><trkpt lat="44.8087009" lon="10.3277459"><ele>60.33333333333333</ele><time>2026-04-20T12:57:30.283Z</time></trkpt><trkpt lat="44.8086764" lon="10.3278539"><ele>60.166666666666664</ele><time>2026-04-20T12:57:33.283Z</time></trkpt><trkpt lat="44.8086604" lon="10.3279807"><ele>60.0</ele><time>2026-04-20T12:57:36.283Z</time></trkpt><trkpt lat="44.8086739" lon="10.3280737"><ele>59.833333333333336</ele><time>2026-04-20T12:57:38.282Z</time></trkpt><trkpt lat="44.8086601" lon="10.3281984"><ele>59.66666666666667</ele><time>2026-04-20T12:57:41.282Z</time></trkpt><trkpt lat="44.8086527" lon="10.3283044"><ele>59.5</ele><time>2026-04-20T12:57:43.283Z</time></trkpt><trkpt lat="44.8086493" lon="10.3283953"><ele>59.333333333333336</ele><time>2026-04-20T12:57:45.282Z</time></trkpt><trkpt lat="44.8086562" lon="10.3285012"><ele>59.16666666666667</ele><time>2026-04-20T12:57:47.283Z</time></trkpt><trkpt lat="44.8086491" lon="10.3286139"><ele>59.0</ele><time>2026-04-20T12:57:49.283Z</time></trkpt><trkpt lat="44.8086387" lon="10.3287363"><ele>59.0</ele><time>2026-04-20T12:57:51.282Z</time></trkpt><trkpt lat="44.8086457" lon="10.3288732"><ele>59.00000000000001</ele><time>2026-04-20T12:57:53.282Z</time></trkpt><trkpt lat="44.8086527" lon="10.3290037"><ele>59.00000000000001</ele><time>2026-04-20T12:57:55.283Z</time></trkpt><trkpt lat="44.8086386" lon="10.3291913"><ele>59.0</ele><time>2026-04-20T12:57:57.283Z</time></trkpt><trkpt lat="44.8086324" lon="10.3292963"><ele>59.0</ele><time>2026-04-20T12:57:59.283Z</time></trkpt><trkpt lat="44.8086056" lon="10.3294326"><ele>59.333333333333336</ele><time>2026-04-20T12:58:01.282Z</time></trkpt><trkpt lat="44.8085735" lon="10.3295471"><ele>59.66666666666667</ele><time>2026-04-20T12:58:03.283Z</time></trkpt><trkpt lat="44.8085731" lon="10.3296391"><ele>60.0</ele><time>2026-04-20T12:58:05.282Z</time></trkpt><trkpt lat="44.8086305" lon="10.3296769"><ele>60.33333333333333</ele><time>2026-04-20T12:58:07.282Z</time></trkpt><trkpt lat="44.8087148" lon="10.3297355"><ele>60.666666666666664</ele><time>2026-04-20T12:58:10.283Z</time></trkpt><trkpt lat="44.8088067" lon="10.329761"><ele>61.0</ele><time>2026-04-20T12:58:13.282Z</time></trkpt><trkpt lat="44.8088741" lon="10.3297917"><ele>61.166666666666664</ele><time>2026-04-20T12:58:15.282Z</time></trkpt><trkpt lat="44.8089343" lon="10.3298282"><ele>61.33333333333333</ele><time>2026-04-20T12:58:19.282Z</time></trkpt><trkpt lat="44.8090031" lon="10.3298659"><ele>61.5</ele><time>2026-04-20T12:58:23.282Z</time></trkpt><trkpt lat="44.8090628" lon="10.3298349"><ele>61.66666666666667</ele><time>2026-04-20T12:58:31.282Z</time></trkpt><trkpt lat="44.8091067" lon="10.3297484"><ele>61.833333333333336</ele><time>2026-04-20T12:58:36.283Z</time></trkpt><trkpt lat="44.8091831" lon="10.3297769"><ele>62.0</ele><time>2026-04-20T12:58:38.283Z</time></trkpt><trkpt lat="44.8092769" lon="10.3298052"><ele>60.8</ele><time>2026-04-20T12:58:40.282Z</time></trkpt><trkpt lat="44.8093389" lon="10.3299196"><ele>59.6</ele><time>2026-04-20T12:58:42.283Z</time></trkpt><trkpt lat="44.8094151" lon="10.3300326"><ele>58.39999999999999</ele><time>2026-04-20T12:58:44.282Z</time></trkpt><trkpt lat="44.809532" lon="10.3300482"><ele>57.199999999999996</ele><time>2026-04-20T12:58:46.282Z</time></trkpt><trkpt lat="44.8096107" lon="10.3300914"><ele>56.0</ele><time>2026-04-20T12:58:48.282Z</time></trkpt><trkpt lat="44.8100171" lon="10.3302686"><ele>56.0</ele><time>2026-04-20T12:58:55.364Z</time></trkpt><trkpt lat="44.8101173" lon="10.3302821"><ele>55.99999999999999</ele><time>2026-04-20T12:58:56.402Z</time></trkpt><trkpt lat="44.8102368" lon="10.330307"><ele>55.99999999999999</ele><time>2026-04-20T12:58:58.335Z</time></trkpt><trkpt lat="44.8103438" lon="10.3303296"><ele>56.0</ele><time>2026-04-20T12:58:59.385Z</time></trkpt><trkpt lat="44.8104374" lon="10.3303301"><ele>56.0</ele><time>2026-04-20T12:59:00.387Z</time></trkpt><trkpt lat="44.8105457" lon="10.3303635"><ele>56.00000000000001</ele><time>2026-04-20T12:59:02.387Z</time></trkpt><trkpt lat="44.8106104" lon="10.3304035"><ele>56.0</ele><time>2026-04-20T12:59:04.387Z</time></trkpt><trkpt lat="44.8106849" lon="10.3303971"><ele>56.0</ele><time>2026-04-20T12:59:07.387Z</time></trkpt><trkpt lat="44.8107528" lon="10.3304543"><ele>56.0</ele><time>2026-04-20T12:59:10.388Z</time></trkpt><trkpt lat="44.810823" lon="10.3304686"><ele>56.00000000000001</ele><time>2026-04-20T12:59:12.388Z</time></trkpt><trkpt lat="44.810907" lon="10.3304931"><ele>56.0</ele><time>2026-04-20T12:59:14.387Z</time></trkpt><trkpt lat="44.8109837" lon="10.3305147"><ele>55.66666666666667</ele><time>2026-04-20T12:59:16.327Z</time></trkpt><trkpt lat="44.8110589" lon="10.3305388"><ele>55.333333333333336</ele><time>2026-04-20T12:59:18.387Z</time></trkpt><trkpt lat="44.8111299" lon="10.3305578"><ele>55.0</ele><time>2026-04-20T12:59:20.387Z</time></trkpt><trkpt lat="44.8112106" lon="10.3305569"><ele>54.66666666666667</ele><time>2026-04-20T12:59:22.388Z</time></trkpt><trkpt lat="44.8112831" lon="10.3305396"><ele>54.333333333333336</ele><time>2026-04-20T12:59:24.388Z</time></trkpt><trkpt lat="44.8113577" lon="10.3305406"><ele>54.0</ele><time>2026-04-20T12:59:26.388Z</time></trkpt><trkpt lat="44.811428" lon="10.3305588"><ele>53.833333333333336</ele><time>2026-04-20T12:59:28.387Z</time></trkpt><trkpt lat="44.8115085" lon="10.3305839"><ele>53.66666666666667</ele><time>2026-04-20T12:59:30.387Z</time></trkpt><trkpt lat="44.8115933" lon="10.3305925"><ele>53.5</ele><time>2026-04-20T12:59:32.312Z</time></trkpt><trkpt lat="44.811658" lon="10.3305974"><ele>53.333333333333336</ele><time>2026-04-20T12:59:34.387Z</time></trkpt><trkpt lat="44.8117467" lon="10.3306268"><ele>53.16666666666667</ele><time>2026-04-20T12:59:36.387Z</time></trkpt><trkpt lat="44.8118186" lon="10.3306713"><ele>53.0</ele><time>2026-04-20T12:59:39.388Z</time></trkpt><trkpt lat="44.8118783" lon="10.3307017"><ele>53.4</ele><time>2026-04-20T12:59:41.388Z</time></trkpt><trkpt lat="44.8119842" lon="10.3307364"><ele>53.8</ele><time>2026-04-20T12:59:44.387Z</time></trkpt><trkpt lat="44.812122" lon="10.3307545"><ele>54.2</ele><time>2026-04-20T12:59:45.388Z</time></trkpt><trkpt lat="44.8122008" lon="10.3307403"><ele>54.6</ele><time>2026-04-20T12:59:47.388Z</time></trkpt><trkpt lat="44.8122785" lon="10.3307296"><ele>55.0</ele><time>2026-04-20T12:59:49.324Z</time></trkpt><trkpt lat="44.8123559" lon="10.3307362"><ele>54.99999999999999</ele><time>2026-04-20T12:59:51.388Z</time></trkpt><trkpt lat="44.8124251" lon="10.3307586"><ele>55.0</ele><time>2026-04-20T12:59:53.388Z</time></trkpt><trkpt lat="44.8125085" lon="10.3307442"><ele>55.0</ele><time>2026-04-20T12:59:56.323Z</time></trkpt><trkpt lat="44.8125743" lon="10.3307585"><ele>55.0</ele><time>2026-04-20T12:59:58.388Z</time></trkpt><trkpt lat="44.8126586" lon="10.3307843"><ele>54.99999999999999</ele><time>2026-04-20T13:00:01.387Z</time></trkpt><trkpt lat="44.8127383" lon="10.3308064"><ele>55.0</ele><time>2026-04-20T13:00:03.315Z</time></trkpt><trkpt lat="44.8128089" lon="10.330824"><ele>55.14285714285714</ele><time>2026-04-20T13:00:05.323Z</time></trkpt><trkpt lat="44.8128802" lon="10.3308352"><ele>55.285714285714285</ele><time>2026-04-20T13:00:07.318Z</time></trkpt><trkpt lat="44.8129538" lon="10.330853"><ele>55.42857142857143</ele><time>2026-04-20T13:00:09.325Z</time></trkpt><trkpt lat="44.8130343" lon="10.3308729"><ele>55.57142857142857</ele><time>2026-04-20T13:00:11.388Z</time></trkpt><trkpt lat="44.8131141" lon="10.3308944"><ele>55.714285714285715</ele><time>2026-04-20T13:00:13.388Z</time></trkpt><trkpt lat="44.8131771" lon="10.3309108"><ele>55.857142857142854</ele><time>2026-04-20T13:00:15.388Z</time></trkpt><trkpt lat="44.8132432" lon="10.3309098"><ele>56.0</ele><time>2026-04-20T13:00:19.387Z</time></trkpt><trkpt lat="44.8133058" lon="10.3308239"><ele>56.00000000000001</ele><time>2026-04-20T13:00:22.388Z</time></trkpt><trkpt lat="44.8133591" lon="10.3307623"><ele>56.0</ele><time>2026-04-20T13:00:24.322Z</time></trkpt><trkpt lat="44.8134518" lon="10.3307641"><ele>56.0</ele><time>2026-04-20T13:00:26.387Z</time></trkpt><trkpt lat="44.8135504" lon="10.3307856"><ele>56.0</ele><time>2026-04-20T13:00:28.334Z</time></trkpt><trkpt lat="44.8136196" lon="10.330803"><ele>56.00000000000001</ele><time>2026-04-20T13:00:30.387Z</time></trkpt><trkpt lat="44.8136961" lon="10.3308468"><ele>56.0</ele><time>2026-04-20T13:00:32.388Z</time></trkpt><trkpt lat="44.813777" lon="10.3309159"><ele>55.57142857142857</ele><time>2026-04-20T13:00:34.387Z</time></trkpt><trkpt lat="44.8138351" lon="10.3310053"><ele>55.14285714285714</ele><time>2026-04-20T13:00:36.321Z</time></trkpt><trkpt lat="44.8138863" lon="10.3310655"><ele>54.714285714285715</ele><time>2026-04-20T13:00:39.387Z</time></trkpt><trkpt lat="44.8139703" lon="10.3311142"><ele>54.285714285714285</ele><time>2026-04-20T13:00:42.353Z</time></trkpt><trkpt lat="44.8139972" lon="10.3312072"><ele>53.857142857142854</ele><time>2026-04-20T13:00:44.319Z</time></trkpt><trkpt lat="44.8139868" lon="10.3312953"><ele>53.42857142857143</ele><time>2026-04-20T13:00:47.324Z</time></trkpt><trkpt lat="44.8139661" lon="10.3313896"><ele>53.0</ele><time>2026-04-20T13:01:42.327Z</time></trkpt><trkpt lat="44.8139797" lon="10.3315116"><ele>53.00000000000001</ele><time>2026-04-20T13:01:45.388Z</time></trkpt><trkpt lat="44.8139766" lon="10.3316775"><ele>53.0</ele><time>2026-04-20T13:01:48.388Z</time></trkpt><trkpt lat="44.813967" lon="10.331782"><ele>53.0</ele><time>2026-04-20T13:01:50.383Z</time></trkpt><trkpt lat="44.8139428" lon="10.331878"><ele>53.0</ele><time>2026-04-20T13:01:52.322Z</time></trkpt><trkpt lat="44.8139208" lon="10.3319814"><ele>53.00000000000001</ele><time>2026-04-20T13:01:54.324Z</time></trkpt><trkpt lat="44.8138961" lon="10.3320713"><ele>53.0</ele><time>2026-04-20T13:01:56.338Z</time></trkpt><trkpt lat="44.8138683" lon="10.332192"><ele>53.0</ele><time>2026-04-20T13:01:59.327Z</time></trkpt><trkpt lat="44.813857" lon="10.3322949"><ele>53.0</ele><time>2026-04-20T13:02:02.333Z</time></trkpt><trkpt lat="44.8138456" lon="10.3323963"><ele>53.0</ele><time>2026-04-20T13:02:07.323Z</time></trkpt><trkpt lat="44.8138166" lon="10.3324974"><ele>53.0</ele><time>2026-04-20T13:02:12.388Z</time></trkpt><trkpt lat="44.8137905" lon="10.3325989"><ele>53.0</ele><time>2026-04-20T13:02:16.387Z</time></trkpt><trkpt lat="44.8137604" lon="10.3326773"><ele>53.0</ele><time>2026-04-20T13:02:19.387Z</time></trkpt><trkpt lat="44.8137384" lon="10.3327775"><ele>53.0</ele><time>2026-04-20T13:02:23.388Z</time></trkpt><trkpt lat="44.8136986" lon="10.3328772"><ele>53.00000000000001</ele><time>2026-04-20T13:02:31.327Z</time></trkpt><trkpt lat="44.8136752" lon="10.3329916"><ele>53.0</ele><time>2026-04-20T13:02:33.387Z</time></trkpt><trkpt lat="44.8136761" lon="10.3331153"><ele>53.0</ele><time>2026-04-20T13:02:35.387Z</time></trkpt><trkpt lat="44.81367" lon="10.33324"><ele>53.0</ele><time>2026-04-20T13:02:37.336Z</time></trkpt><trkpt lat="44.8136508" lon="10.3333664"><ele>53.00000000000001</ele><time>2026-04-20T13:02:39.325Z</time></trkpt><trkpt lat="44.8136485" lon="10.3334609"><ele>53.0</ele><time>2026-04-20T13:02:40.323Z</time></trkpt><trkpt lat="44.8136405" lon="10.3335894"><ele>53.2</ele><time>2026-04-20T13:02:42.388Z</time></trkpt><trkpt lat="44.813641" lon="10.3337262"><ele>53.4</ele><time>2026-04-20T13:02:44.388Z</time></trkpt><trkpt lat="44.8136089" lon="10.333869"><ele>53.60000000000001</ele><time>2026-04-20T13:02:46.387Z</time></trkpt><trkpt lat="44.8135807" lon="10.3340109"><ele>53.800000000000004</ele><time>2026-04-20T13:02:48.32Z</time></trkpt><trkpt lat="44.8135595" lon="10.3341693"><ele>54.0</ele><time>2026-04-20T13:02:50.388Z</time></trkpt><trkpt lat="44.8135288" lon="10.3343008"><ele>53.666666666666664</ele><time>2026-04-20T13:02:52.321Z</time></trkpt><trkpt lat="44.8135059" lon="10.3344211"><ele>53.33333333333333</ele><time>2026-04-20T13:02:54.387Z</time></trkpt><trkpt lat="44.8134743" lon="10.334508"><ele>53.0</ele><time>2026-04-20T13:02:55.387Z</time></trkpt><trkpt lat="44.8134661" lon="10.334609"><ele>52.666666666666664</ele><time>2026-04-20T13:02:57.388Z</time></trkpt><trkpt lat="44.8134548" lon="10.3347074"><ele>52.33333333333333</ele><time>2026-04-20T13:02:59.387Z</time></trkpt><trkpt lat="44.8134058" lon="10.3348512"><ele>52.0</ele><time>2026-04-20T13:03:01.387Z</time></trkpt><trkpt lat="44.8133683" lon="10.3349949"><ele>51.8</ele><time>2026-04-20T13:03:03.387Z</time></trkpt><trkpt lat="44.8133061" lon="10.335153"><ele>51.6</ele><time>2026-04-20T13:03:05.316Z</time></trkpt><trkpt lat="44.8132787" lon="10.3352429"><ele>51.4</ele><time>2026-04-20T13:03:06.311Z</time></trkpt><trkpt lat="44.8132434" lon="10.3353781"><ele>51.199999999999996</ele><time>2026-04-20T13:03:08.316Z</time></trkpt><trkpt lat="44.8132088" lon="10.3355214"><ele>51.0</ele><time>2026-04-20T13:03:10.315Z</time></trkpt><trkpt lat="44.8131839" lon="10.3356574"><ele>51.0</ele><time>2026-04-20T13:03:12.321Z</time></trkpt><trkpt lat="44.8131586" lon="10.3357804"><ele>51.0</ele><time>2026-04-20T13:03:14.318Z</time></trkpt><trkpt lat="44.8131465" lon="10.3359005"><ele>51.0</ele><time>2026-04-20T13:03:16.317Z</time></trkpt><trkpt lat="44.8131266" lon="10.3360227"><ele>51.0</ele><time>2026-04-20T13:03:18.388Z</time></trkpt><trkpt lat="44.8130879" lon="10.3361624"><ele>51.0</ele><time>2026-04-20T13:03:20.381Z</time></trkpt><trkpt lat="44.8130561" lon="10.3363061"><ele>51.199999999999996</ele><time>2026-04-20T13:03:22.388Z</time></trkpt><trkpt lat="44.8130235" lon="10.3364421"><ele>51.4</ele><time>2026-04-20T13:03:24.388Z</time></trkpt><trkpt lat="44.8129948" lon="10.3366091"><ele>51.6</ele><time>2026-04-20T13:03:26.387Z</time></trkpt><trkpt lat="44.8129709" lon="10.3367431"><ele>51.8</ele><time>2026-04-20T13:03:28.388Z</time></trkpt><trkpt lat="44.8129329" lon="10.3368808"><ele>52.0</ele><time>2026-04-20T13:03:30.388Z</time></trkpt><trkpt lat="44.8129197" lon="10.3369765"><ele>52.0</ele><time>2026-04-20T13:03:32.388Z</time></trkpt><trkpt lat="44.8129806" lon="10.3370114"><ele>52.0</ele><time>2026-04-20T13:03:34.388Z</time></trkpt><trkpt lat="44.8130466" lon="10.3370044"><ele>52.0</ele><time>2026-04-20T13:03:36.388Z</time></trkpt><trkpt lat="44.8130757" lon="10.3371023"><ele>52.0</ele><time>2026-04-20T13:03:40.322Z</time></trkpt><trkpt lat="44.8130343" lon="10.3371934"><ele>52.0</ele><time>2026-04-20T13:03:43.322Z</time></trkpt><trkpt lat="44.8129681" lon="10.3372437"><ele>52.0</ele><time>2026-04-20T13:03:47.323Z</time></trkpt><trkpt lat="44.8129162" lon="10.3373019"><ele>52.0</ele><time>2026-04-20T13:03:52.387Z</time></trkpt><trkpt lat="44.812847" lon="10.3374224"><ele>51.666666666666664</ele><time>2026-04-20T13:04:18.388Z</time></trkpt><trkpt lat="44.8128232" lon="10.3375175"><ele>51.33333333333333</ele><time>2026-04-20T13:04:20.359Z</time></trkpt><trkpt lat="44.8127931" lon="10.3376244"><ele>51.0</ele><time>2026-04-20T13:04:22.34Z</time></trkpt><trkpt lat="44.8127791" lon="10.3377479"><ele>50.66666666666667</ele><time>2026-04-20T13:04:24.388Z</time></trkpt><trkpt lat="44.8127457" lon="10.3378731"><ele>50.333333333333336</ele><time>2026-04-20T13:04:26.387Z</time></trkpt><trkpt lat="44.8127315" lon="10.3379836"><ele>50.0</ele><time>2026-04-20T13:04:27.387Z</time></trkpt><trkpt lat="44.8127329" lon="10.3380851"><ele>50.0</ele><time>2026-04-20T13:04:29.312Z</time></trkpt><trkpt lat="44.8126939" lon="10.3382033"><ele>50.0</ele><time>2026-04-20T13:04:31.387Z</time></trkpt><trkpt lat="44.8126377" lon="10.3383739"><ele>50.0</ele><time>2026-04-20T13:04:33.387Z</time></trkpt><trkpt lat="44.812601" lon="10.3385167"><ele>50.0</ele><time>2026-04-20T13:04:35.388Z</time></trkpt><trkpt lat="44.8125782" lon="10.3386798"><ele>50.0</ele><time>2026-04-20T13:04:37.387Z</time></trkpt><trkpt lat="44.8125375" lon="10.3387954"><ele>50.0</ele><time>2026-04-20T13:04:39.388Z</time></trkpt><trkpt lat="44.8125219" lon="10.3389392"><ele>50.0</ele><time>2026-04-20T13:04:41.387Z</time></trkpt><trkpt lat="44.8124882" lon="10.3390978"><ele>50.0</ele><time>2026-04-20T13:04:43.388Z</time></trkpt><trkpt lat="44.8124518" lon="10.3392179"><ele>50.0</ele><time>2026-04-20T13:04:45.388Z</time></trkpt><trkpt lat="44.8124189" lon="10.3393537"><ele>49.8</ele><time>2026-04-20T13:04:47.388Z</time></trkpt><trkpt lat="44.8123874" lon="10.3394848"><ele>49.6</ele><time>2026-04-20T13:04:49.321Z</time></trkpt><trkpt lat="44.8123473" lon="10.3396331"><ele>49.400000000000006</ele><time>2026-04-20T13:04:51.318Z</time></trkpt><trkpt lat="44.8123214" lon="10.3397753"><ele>49.2</ele><time>2026-04-20T13:04:53.318Z</time></trkpt><trkpt lat="44.8122971" lon="10.3399085"><ele>49.0</ele><time>2026-04-20T13:04:55.359Z</time></trkpt><trkpt lat="44.8122611" lon="10.3400582"><ele>48.6</ele><time>2026-04-20T13:04:57.388Z</time></trkpt><trkpt lat="44.8122275" lon="10.3402281"><ele>48.2</ele><time>2026-04-20T13:04:59.387Z</time></trkpt><trkpt lat="44.8121981" lon="10.3403652"><ele>47.800000000000004</ele><time>2026-04-20T13:05:01.329Z</time></trkpt><trkpt lat="44.8121901" lon="10.3405181"><ele>47.400000000000006</ele><time>2026-04-20T13:05:03.387Z</time></trkpt><trkpt lat="44.8121695" lon="10.3406692"><ele>47.0</ele><time>2026-04-20T13:05:05.366Z</time></trkpt><trkpt lat="44.8121353" lon="10.3408196"><ele>47.0</ele><time>2026-04-20T13:05:07.387Z</time></trkpt><trkpt lat="44.8120959" lon="10.3409614"><ele>47.0</ele><time>2026-04-20T13:05:09.387Z</time></trkpt><trkpt lat="44.812102" lon="10.3410981"><ele>47.0</ele><time>2026-04-20T13:05:11.388Z</time></trkpt><trkpt lat="44.812061" lon="10.3411932"><ele>47.0</ele><time>2026-04-20T13:05:13.388Z</time></trkpt><trkpt lat="44.8121101" lon="10.3412554"><ele>47.0</ele><time>2026-04-20T13:05:15.322Z</time></trkpt><trkpt lat="44.8122033" lon="10.341352"><ele>47.0</ele><time>2026-04-20T13:05:18.322Z</time></trkpt><trkpt lat="44.8122666" lon="10.3413939"><ele>47.0</ele><time>2026-04-20T13:05:20.324Z</time></trkpt><trkpt lat="44.8123337" lon="10.3414244"><ele>47.0</ele><time>2026-04-20T13:05:22.309Z</time></trkpt><trkpt lat="44.812469" lon="10.3414973"><ele>47.0</ele><time>2026-04-20T13:05:26.33Z</time></trkpt><trkpt lat="44.8125358" lon="10.3415319"><ele>47.0</ele><time>2026-04-20T13:05:28.336Z</time></trkpt><trkpt lat="44.8126079" lon="10.3415602"><ele>47.0</ele><time>2026-04-20T13:05:30.31Z</time></trkpt><trkpt lat="44.8126797" lon="10.3415889"><ele>47.0</ele><time>2026-04-20T13:05:32.317Z</time></trkpt><trkpt lat="44.8127546" lon="10.34163"><ele>47.0</ele><time>2026-04-20T13:05:34.327Z</time></trkpt><trkpt lat="44.8128319" lon="10.341668"><ele>47.0</ele><time>2026-04-20T13:05:36.323Z</time></trkpt><trkpt lat="44.8129042" lon="10.341705"><ele>47.0</ele><time>2026-04-20T13:05:38.327Z</time></trkpt><trkpt lat="44.812979" lon="10.341749"><ele>47.0</ele><time>2026-04-20T13:05:40.387Z</time></trkpt><trkpt lat="44.8130476" lon="10.34178"><ele>47.0</ele><time>2026-04-20T13:05:42.308Z</time></trkpt><trkpt lat="44.8131355" lon="10.341814"><ele>47.0</ele><time>2026-04-20T13:05:45.388Z</time></trkpt><trkpt lat="44.8132522" lon="10.3418487"><ele>47.0</ele><time>2026-04-20T13:05:48.321Z</time></trkpt><trkpt lat="44.8133386" lon="10.3418828"><ele>47.0</ele><time>2026-04-20T13:05:50.33Z</time></trkpt><trkpt lat="44.8134279" lon="10.3419177"><ele>47.0</ele><time>2026-04-20T13:05:52.325Z</time></trkpt><trkpt lat="44.8135126" lon="10.3420056"><ele>47.0</ele><time>2026-04-20T13:05:54.32Z</time></trkpt><trkpt lat="44.8134852" lon="10.3421097"><ele>47.0</ele><time>2026-04-20T13:05:56.32Z</time></trkpt><trkpt lat="44.8134671" lon="10.3422153"><ele>47.0</ele><time>2026-04-20T13:05:58.311Z</time></trkpt><trkpt lat="44.8134446" lon="10.3423489"><ele>47.0</ele><time>2026-04-20T13:06:00.322Z</time></trkpt><trkpt lat="44.8134178" lon="10.3424951"><ele>47.0</ele><time>2026-04-20T13:06:02.308Z</time></trkpt><trkpt lat="44.8133919" lon="10.3426704"><ele>47.0</ele><time>2026-04-20T13:06:05.322Z</time></trkpt><trkpt lat="44.8133432" lon="10.342813"><ele>47.0</ele><time>2026-04-20T13:06:07.313Z</time></trkpt><trkpt lat="44.8132976" lon="10.3429479"><ele>47.0</ele><time>2026-04-20T13:06:09.308Z</time></trkpt><trkpt lat="44.8132706" lon="10.3430669"><ele>47.0</ele><time>2026-04-20T13:06:10.387Z</time></trkpt><trkpt lat="44.8132416" lon="10.3431614"><ele>47.0</ele><time>2026-04-20T13:06:12.332Z</time></trkpt><trkpt lat="44.8131854" lon="10.3432243"><ele>47.0</ele><time>2026-04-20T13:06:14.343Z</time></trkpt><trkpt lat="44.8131443" lon="10.343375"><ele>47.0</ele><time>2026-04-20T13:06:16.331Z</time></trkpt><trkpt lat="44.8131764" lon="10.3434544"><ele>47.0</ele><time>2026-04-20T13:06:18.324Z</time></trkpt><trkpt lat="44.8131448" lon="10.3435842"><ele>47.0</ele><time>2026-04-20T13:06:20.352Z</time></trkpt><trkpt lat="44.813139" lon="10.3437304"><ele>47.0</ele><time>2026-04-20T13:06:22.332Z</time></trkpt><trkpt lat="44.8131168" lon="10.3438536"><ele>47.0</ele><time>2026-04-20T13:06:24.329Z</time></trkpt><trkpt lat="44.8130897" lon="10.3440146"><ele>47.0</ele><time>2026-04-20T13:06:26.32Z</time></trkpt><trkpt lat="44.8130558" lon="10.3442343"><ele>47.0</ele><time>2026-04-20T13:06:28.333Z</time></trkpt><trkpt lat="44.8130735" lon="10.3443895"><ele>47.0</ele><time>2026-04-20T13:06:30.324Z</time></trkpt><trkpt lat="44.8130409" lon="10.3445265"><ele>47.0</ele><time>2026-04-20T13:06:32.337Z</time></trkpt><trkpt lat="44.8129902" lon="10.3446709"><ele>46.8</ele><time>2026-04-20T13:06:34.33Z</time></trkpt><trkpt lat="44.8129459" lon="10.3448041"><ele>46.6</ele><time>2026-04-20T13:06:36.319Z</time></trkpt><trkpt lat="44.8129147" lon="10.3448916"><ele>46.4</ele><time>2026-04-20T13:06:38.324Z</time></trkpt><trkpt lat="44.8128867" lon="10.3450427"><ele>46.199999999999996</ele><time>2026-04-20T13:06:40.33Z</time></trkpt><trkpt lat="44.8128657" lon="10.3452019"><ele>46.0</ele><time>2026-04-20T13:06:42.33Z</time></trkpt><trkpt lat="44.8128311" lon="10.3453281"><ele>46.0</ele><time>2026-04-20T13:06:44.33Z</time></trkpt><trkpt lat="44.8127932" lon="10.3454672"><ele>46.0</ele><time>2026-04-20T13:06:46.336Z</time></trkpt><trkpt lat="44.8127665" lon="10.3456157"><ele>46.0</ele><time>2026-04-20T13:06:48.327Z</time></trkpt><trkpt lat="44.812738" lon="10.3457356"><ele>46.0</ele><time>2026-04-20T13:06:50.331Z</time></trkpt><trkpt lat="44.8126667" lon="10.3457638"><ele>46.0</ele><time>2026-04-20T13:06:53.325Z</time></trkpt><trkpt lat="44.8125986" lon="10.3457454"><ele>46.0</ele><time>2026-04-20T13:06:55.332Z</time></trkpt><trkpt lat="44.8125367" lon="10.3456654"><ele>45.833333333333336</ele><time>2026-04-20T13:06:57.323Z</time></trkpt><trkpt lat="44.8124835" lon="10.3455852"><ele>45.66666666666667</ele><time>2026-04-20T13:06:59.324Z</time></trkpt><trkpt lat="44.8124342" lon="10.3455184"><ele>45.5</ele><time>2026-04-20T13:07:01.334Z</time></trkpt><trkpt lat="44.8123939" lon="10.3454247"><ele>45.333333333333336</ele><time>2026-04-20T13:07:04.33Z</time></trkpt><trkpt lat="44.8124093" lon="10.3455406"><ele>45.166666666666664</ele><time>2026-04-20T13:07:09.328Z</time></trkpt><trkpt lat="44.8124265" lon="10.3456389"><ele>45.0</ele><time>2026-04-20T13:07:11.331Z</time></trkpt><trkpt lat="44.8124072" lon="10.3457362"><ele>45.0</ele><time>2026-04-20T13:07:13.324Z</time></trkpt><trkpt lat="44.812373" lon="10.3458671"><ele>45.0</ele><time>2026-04-20T13:07:16.325Z</time></trkpt><trkpt lat="44.8123502" lon="10.3459733"><ele>45.0</ele><time>2026-04-20T13:07:18.322Z</time></trkpt><trkpt lat="44.812333" lon="10.3460707"><ele>45.0</ele><time>2026-04-20T13:07:20.329Z</time></trkpt><trkpt lat="44.8123094" lon="10.3461637"><ele>45.0</ele><time>2026-04-20T13:07:22.323Z</time></trkpt><trkpt lat="44.8122865" lon="10.3462582"><ele>45.0</ele><time>2026-04-20T13:07:24.327Z</time></trkpt><trkpt lat="44.8122673" lon="10.3463598"><ele>44.833333333333336</ele><time>2026-04-20T13:07:26.321Z</time></trkpt><trkpt lat="44.8122524" lon="10.3464566"><ele>44.666666666666664</ele><time>2026-04-20T13:07:28.311Z</time></trkpt><trkpt lat="44.8122206" lon="10.3465909"><ele>44.5</ele><time>2026-04-20T13:07:30.322Z</time></trkpt><trkpt lat="44.812205" lon="10.3467137"><ele>44.33333333333333</ele><time>2026-04-20T13:07:32.326Z</time></trkpt><trkpt lat="44.8121971" lon="10.3468024"><ele>44.166666666666664</ele><time>2026-04-20T13:07:33.325Z</time></trkpt><trkpt lat="44.8121846" lon="10.3469447"><ele>44.0</ele><time>2026-04-20T13:07:35.322Z</time></trkpt><trkpt lat="44.8121907" lon="10.3470658"><ele>44.0</ele><time>2026-04-20T13:07:37.324Z</time></trkpt><trkpt lat="44.8121892" lon="10.3471869"><ele>44.0</ele><time>2026-04-20T13:07:38.319Z</time></trkpt><trkpt lat="44.8122543" lon="10.3472596"><ele>44.0</ele><time>2026-04-20T13:07:40.323Z</time></trkpt><trkpt lat="44.8124792" lon="10.3471923"><ele>44.0</ele><time>2026-04-20T13:07:45.32Z</time></trkpt><trkpt lat="44.8125774" lon="10.3471756"><ele>44.400000000000006</ele><time>2026-04-20T13:07:47.325Z</time></trkpt><trkpt lat="44.8126945" lon="10.3471839"><ele>44.8</ele><time>2026-04-20T13:07:49.322Z</time></trkpt><trkpt lat="44.812759" lon="10.3471831"><ele>45.2</ele><time>2026-04-20T13:07:50.319Z</time></trkpt><trkpt lat="44.8128672" lon="10.3471749"><ele>45.599999999999994</ele><time>2026-04-20T13:07:52.319Z</time></trkpt><trkpt lat="44.8129892" lon="10.3471836"><ele>46.0</ele><time>2026-04-20T13:07:54.323Z</time></trkpt><trkpt lat="44.8131078" lon="10.3471916"><ele>46.0</ele><time>2026-04-20T13:07:56.316Z</time></trkpt><trkpt lat="44.813226" lon="10.3471857"><ele>46.0</ele><time>2026-04-20T13:07:58.32Z</time></trkpt><trkpt lat="44.813344" lon="10.3471789"><ele>46.0</ele><time>2026-04-20T13:08:00.317Z</time></trkpt><trkpt lat="44.8134585" lon="10.3471841"><ele>46.0</ele><time>2026-04-20T13:08:02.324Z</time></trkpt><trkpt lat="44.8135234" lon="10.3471897"><ele>46.0</ele><time>2026-04-20T13:08:03.32Z</time></trkpt><trkpt lat="44.8136232" lon="10.3472004"><ele>45.8</ele><time>2026-04-20T13:08:05.327Z</time></trkpt><trkpt lat="44.813717" lon="10.3472178"><ele>45.599999999999994</ele><time>2026-04-20T13:08:07.322Z</time></trkpt><trkpt lat="44.8138131" lon="10.3472137"><ele>45.4</ele><time>2026-04-20T13:08:09.323Z</time></trkpt><trkpt lat="44.8138784" lon="10.3471992"><ele>45.2</ele><time>2026-04-20T13:08:10.327Z</time></trkpt><trkpt lat="44.8139766" lon="10.3472263"><ele>45.0</ele><time>2026-04-20T13:08:12.339Z</time></trkpt><trkpt lat="44.8140855" lon="10.347236"><ele>45.0</ele><time>2026-04-20T13:08:14.321Z</time></trkpt><trkpt lat="44.814204" lon="10.3472322"><ele>45.0</ele><time>2026-04-20T13:08:16.328Z</time></trkpt><trkpt lat="44.8142732" lon="10.3472428"><ele>45.0</ele><time>2026-04-20T13:08:17.324Z</time></trkpt><trkpt lat="44.8143398" lon="10.3472509"><ele>45.0</ele><time>2026-04-20T13:08:18.326Z</time></trkpt><trkpt lat="44.8144431" lon="10.3472764"><ele>45.0</ele><time>2026-04-20T13:08:20.322Z</time></trkpt><trkpt lat="44.8145296" lon="10.3473357"><ele>45.6</ele><time>2026-04-20T13:08:22.318Z</time></trkpt><trkpt lat="44.814634" lon="10.3473937"><ele>46.2</ele><time>2026-04-20T13:08:24.326Z</time></trkpt><trkpt lat="44.8146961" lon="10.3474298"><ele>46.8</ele><time>2026-04-20T13:08:25.328Z</time></trkpt><trkpt lat="44.8148035" lon="10.3475155"><ele>47.4</ele><time>2026-04-20T13:08:27.326Z</time></trkpt><trkpt lat="44.8149012" lon="10.3476037"><ele>48.0</ele><time>2026-04-20T13:08:29.323Z</time></trkpt><trkpt lat="44.8150124" lon="10.3476909"><ele>48.0</ele><time>2026-04-20T13:08:31.326Z</time></trkpt><trkpt lat="44.8150649" lon="10.3477537"><ele>48.0</ele><time>2026-04-20T13:08:32.325Z</time></trkpt><trkpt lat="44.815132" lon="10.3478125"><ele>48.0</ele><time>2026-04-20T13:08:33.318Z</time></trkpt><trkpt lat="44.8152193" lon="10.3479369"><ele>48.0</ele><time>2026-04-20T13:08:35.324Z</time></trkpt><trkpt lat="44.8152998" lon="10.3480573"><ele>48.0</ele><time>2026-04-20T13:08:37.327Z</time></trkpt><trkpt lat="44.8153515" lon="10.3481163"><ele>47.4</ele><time>2026-04-20T13:08:38.322Z</time></trkpt><trkpt lat="44.8154278" lon="10.3482704"><ele>46.8</ele><time>2026-04-20T13:08:40.325Z</time></trkpt><trkpt lat="44.8155007" lon="10.3484136"><ele>46.2</ele><time>2026-04-20T13:08:42.317Z</time></trkpt><trkpt lat="44.8155343" lon="10.3484942"><ele>45.6</ele><time>2026-04-20T13:08:43.322Z</time></trkpt><trkpt lat="44.8155745" lon="10.3485637"><ele>45.0</ele><time>2026-04-20T13:08:44.322Z</time></trkpt><trkpt lat="44.8156194" lon="10.348641"><ele>45.0</ele><time>2026-04-20T13:08:45.33Z</time></trkpt><trkpt lat="44.815661" lon="10.348716"><ele>45.0</ele><time>2026-04-20T13:08:46.328Z</time></trkpt><trkpt lat="44.8156993" lon="10.3487877"><ele>45.0</ele><time>2026-04-20T13:08:47.32Z</time></trkpt><trkpt lat="44.8157396" lon="10.3488651"><ele>45.0</ele><time>2026-04-20T13:08:48.329Z</time></trkpt><trkpt lat="44.815788" lon="10.3489389"><ele>45.0</ele><time>2026-04-20T13:08:49.32Z</time></trkpt><trkpt lat="44.8158752" lon="10.3490891"><ele>45.0</ele><time>2026-04-20T13:08:51.321Z</time></trkpt><trkpt lat="44.8159075" lon="10.3491719"><ele>44.8</ele><time>2026-04-20T13:08:52.316Z</time></trkpt><trkpt lat="44.8159566" lon="10.3492471"><ele>44.6</ele><time>2026-04-20T13:08:53.324Z</time></trkpt><trkpt lat="44.8159944" lon="10.349326"><ele>44.400000000000006</ele><time>2026-04-20T13:08:54.327Z</time></trkpt><trkpt lat="44.816036" lon="10.3494052"><ele>44.2</ele><time>2026-04-20T13:08:55.319Z</time></trkpt><trkpt lat="44.8161088" lon="10.3495523"><ele>44.0</ele><time>2026-04-20T13:08:57.323Z</time></trkpt><trkpt lat="44.8161775" lon="10.3497017"><ele>43.83333333333333</ele><time>2026-04-20T13:08:59.325Z</time></trkpt><trkpt lat="44.8162426" lon="10.3498576"><ele>43.666666666666664</ele><time>2026-04-20T13:09:01.326Z</time></trkpt><trkpt lat="44.816282" lon="10.3499312"><ele>43.5</ele><time>2026-04-20T13:09:02.325Z</time></trkpt><trkpt lat="44.8163223" lon="10.3500065"><ele>43.333333333333336</ele><time>2026-04-20T13:09:03.317Z</time></trkpt><trkpt lat="44.8163527" lon="10.3500902"><ele>43.16666666666667</ele><time>2026-04-20T13:09:04.317Z</time></trkpt><trkpt lat="44.8163798" lon="10.3501734"><ele>43.0</ele><time>2026-04-20T13:09:05.321Z</time></trkpt><trkpt lat="44.8164148" lon="10.3502546"><ele>43.0</ele><time>2026-04-20T13:09:06.323Z</time></trkpt><trkpt lat="44.8164426" lon="10.3503383"><ele>43.0</ele><time>2026-04-20T13:09:07.326Z</time></trkpt><trkpt lat="44.81647" lon="10.3504187"><ele>43.0</ele><time>2026-04-20T13:09:08.322Z</time></trkpt><trkpt lat="44.8164954" lon="10.3505081"><ele>43.0</ele><time>2026-04-20T13:09:09.325Z</time></trkpt><trkpt lat="44.816525" lon="10.3505868"><ele>43.0</ele><time>2026-04-20T13:09:10.328Z</time></trkpt><trkpt lat="44.8165791" lon="10.3507461"><ele>43.0</ele><time>2026-04-20T13:09:12.321Z</time></trkpt><trkpt lat="44.816617" lon="10.3509093"><ele>43.0</ele><time>2026-04-20T13:09:14.314Z</time></trkpt><trkpt lat="44.8166767" lon="10.3510247"><ele>43.0</ele><time>2026-04-20T13:09:16.324Z</time></trkpt><trkpt lat="44.8167061" lon="10.3511286"><ele>43.0</ele><time>2026-04-20T13:09:17.325Z</time></trkpt><trkpt lat="44.8167703" lon="10.3512728"><ele>43.0</ele><time>2026-04-20T13:09:19.32Z</time></trkpt><trkpt lat="44.816844" lon="10.3514222"><ele>43.0</ele><time>2026-04-20T13:09:21.325Z</time></trkpt><trkpt lat="44.8168723" lon="10.3515082"><ele>42.66666666666667</ele><time>2026-04-20T13:09:22.31Z</time></trkpt><trkpt lat="44.8169045" lon="10.3516022"><ele>42.333333333333336</ele><time>2026-04-20T13:09:23.324Z</time></trkpt><trkpt lat="44.8169315" lon="10.3516825"><ele>42.0</ele><time>2026-04-20T13:09:24.329Z</time></trkpt><trkpt lat="44.8169609" lon="10.3517679"><ele>41.666666666666664</ele><time>2026-04-20T13:09:25.314Z</time></trkpt><trkpt lat="44.8170221" lon="10.3519334"><ele>41.33333333333333</ele><time>2026-04-20T13:09:27.323Z</time></trkpt><trkpt lat="44.8170489" lon="10.3520146"><ele>41.0</ele><time>2026-04-20T13:09:28.311Z</time></trkpt><trkpt lat="44.8171033" lon="10.3521549"><ele>41.4</ele><time>2026-04-20T13:09:30.325Z</time></trkpt><trkpt lat="44.8171547" lon="10.3523232"><ele>41.8</ele><time>2026-04-20T13:09:32.325Z</time></trkpt><trkpt lat="44.8171817" lon="10.3524231"><ele>42.199999999999996</ele><time>2026-04-20T13:09:33.324Z</time></trkpt><trkpt lat="44.8171938" lon="10.35254"><ele>42.599999999999994</ele><time>2026-04-20T13:09:34.318Z</time></trkpt><trkpt lat="44.8172435" lon="10.3526907"><ele>43.0</ele><time>2026-04-20T13:09:36.327Z</time></trkpt><trkpt lat="44.817281" lon="10.3528592"><ele>43.0</ele><time>2026-04-20T13:09:38.323Z</time></trkpt><trkpt lat="44.8173107" lon="10.3529729"><ele>43.0</ele><time>2026-04-20T13:09:40.325Z</time></trkpt><trkpt lat="44.8173392" lon="10.3530882"><ele>43.0</ele><time>2026-04-20T13:09:43.319Z</time></trkpt><trkpt lat="44.8173584" lon="10.3531995"><ele>43.0</ele><time>2026-04-20T13:09:45.325Z</time></trkpt><trkpt lat="44.8173775" lon="10.3533299"><ele>43.0</ele><time>2026-04-20T13:09:47.32Z</time></trkpt><trkpt lat="44.8174033" lon="10.3534799"><ele>43.0</ele><time>2026-04-20T13:09:49.322Z</time></trkpt><trkpt lat="44.8174332" lon="10.3536346"><ele>43.0</ele><time>2026-04-20T13:09:51.324Z</time></trkpt><trkpt lat="44.8174611" lon="10.3537974"><ele>43.0</ele><time>2026-04-20T13:09:53.33Z</time></trkpt><trkpt lat="44.8174758" lon="10.353896"><ele>43.0</ele><time>2026-04-20T13:09:54.323Z</time></trkpt><trkpt lat="44.8174885" lon="10.3539868"><ele>43.0</ele><time>2026-04-20T13:09:55.317Z</time></trkpt><trkpt lat="44.8175207" lon="10.3541545"><ele>43.0</ele><time>2026-04-20T13:09:57.323Z</time></trkpt><trkpt lat="44.8175496" lon="10.3543142"><ele>43.0</ele><time>2026-04-20T13:09:59.324Z</time></trkpt><trkpt lat="44.8175871" lon="10.3544719"><ele>43.0</ele><time>2026-04-20T13:10:01.318Z</time></trkpt><trkpt lat="44.8176807" lon="10.3545659"><ele>43.0</ele><time>2026-04-20T13:10:03.319Z</time></trkpt><trkpt lat="44.8177902" lon="10.3546197"><ele>42.8</ele><time>2026-04-20T13:10:05.342Z</time></trkpt><trkpt lat="44.8179024" lon="10.3546549"><ele>42.599999999999994</ele><time>2026-04-20T13:10:07.328Z</time></trkpt><trkpt lat="44.8179842" lon="10.3547267"><ele>42.400000000000006</ele><time>2026-04-20T13:10:09.325Z</time></trkpt><trkpt lat="44.8179746" lon="10.3548554"><ele>42.2</ele><time>2026-04-20T13:10:13.317Z</time></trkpt><trkpt lat="44.817928" lon="10.3549603"><ele>42.0</ele><time>2026-04-20T13:10:15.319Z</time></trkpt><trkpt lat="44.8178289" lon="10.3549968"><ele>42.0</ele><time>2026-04-20T13:10:17.322Z</time></trkpt><trkpt lat="44.8177491" lon="10.3550778"><ele>42.0</ele><time>2026-04-20T13:10:19.32Z</time></trkpt><trkpt lat="44.8177241" lon="10.3552146"><ele>42.0</ele><time>2026-04-20T13:10:21.323Z</time></trkpt><trkpt lat="44.8177368" lon="10.3553663"><ele>42.0</ele><time>2026-04-20T13:10:23.323Z</time></trkpt><trkpt lat="44.8177642" lon="10.3555064"><ele>42.0</ele><time>2026-04-20T13:10:25.32Z</time></trkpt><trkpt lat="44.8177932" lon="10.3556623"><ele>42.25</ele><time>2026-04-20T13:10:27.321Z</time></trkpt><trkpt lat="44.8178194" lon="10.3558284"><ele>42.5</ele><time>2026-04-20T13:10:29.315Z</time></trkpt><trkpt lat="44.8178508" lon="10.3559919"><ele>42.75</ele><time>2026-04-20T13:10:31.329Z</time></trkpt><trkpt lat="44.817878" lon="10.3561449"><ele>43.0</ele><time>2026-04-20T13:10:33.317Z</time></trkpt><trkpt lat="44.8179089" lon="10.3563037"><ele>42.599999999999994</ele><time>2026-04-20T13:10:35.323Z</time></trkpt><trkpt lat="44.8179491" lon="10.3564567"><ele>42.199999999999996</ele><time>2026-04-20T13:10:37.323Z</time></trkpt><trkpt lat="44.8179626" lon="10.3565444"><ele>41.8</ele><time>2026-04-20T13:10:38.328Z</time></trkpt><trkpt lat="44.817981" lon="10.3566361"><ele>41.4</ele><time>2026-04-20T13:10:39.325Z</time></trkpt><trkpt lat="44.8180139" lon="10.3567986"><ele>41.0</ele><time>2026-04-20T13:10:41.317Z</time></trkpt><trkpt lat="44.8180418" lon="10.3569662"><ele>41.0</ele><time>2026-04-20T13:10:43.321Z</time></trkpt><trkpt lat="44.8180599" lon="10.3570515"><ele>41.0</ele><time>2026-04-20T13:10:44.32Z</time></trkpt><trkpt lat="44.8180895" lon="10.3572204"><ele>41.0</ele><time>2026-04-20T13:10:46.323Z</time></trkpt><trkpt lat="44.818123" lon="10.3573795"><ele>41.0</ele><time>2026-04-20T13:10:48.35Z</time></trkpt><trkpt lat="44.818134" lon="10.3574723"><ele>41.0</ele><time>2026-04-20T13:10:49.321Z</time></trkpt><trkpt lat="44.8181675" lon="10.3576276"><ele>40.83333333333333</ele><time>2026-04-20T13:10:51.314Z</time></trkpt><trkpt lat="44.8182231" lon="10.3577377"><ele>40.666666666666664</ele><time>2026-04-20T13:10:53.323Z</time></trkpt><trkpt lat="44.8182358" lon="10.3579323"><ele>40.5</ele><time>2026-04-20T13:10:55.324Z</time></trkpt><trkpt lat="44.8182574" lon="10.3580238"><ele>40.333333333333336</ele><time>2026-04-20T13:10:56.324Z</time></trkpt><trkpt lat="44.8182588" lon="10.3581178"><ele>40.16666666666667</ele><time>2026-04-20T13:10:57.325Z</time></trkpt><trkpt lat="44.8182933" lon="10.3582015"><ele>40.0</ele><time>2026-04-20T13:10:58.322Z</time></trkpt><trkpt lat="44.8183562" lon="10.3583435"><ele>40.0</ele><time>2026-04-20T13:11:00.322Z</time></trkpt><trkpt lat="44.8183704" lon="10.3585103"><ele>40.0</ele><time>2026-04-20T13:11:02.315Z</time></trkpt><trkpt lat="44.8183798" lon="10.358602"><ele>40.0</ele><time>2026-04-20T13:11:03.318Z</time></trkpt><trkpt lat="44.8184105" lon="10.3587743"><ele>40.0</ele><time>2026-04-20T13:11:05.325Z</time></trkpt><trkpt lat="44.8184355" lon="10.3588627"><ele>40.0</ele><time>2026-04-20T13:11:06.32Z</time></trkpt><trkpt lat="44.818448" lon="10.3589532"><ele>40.0</ele><time>2026-04-20T13:11:07.324Z</time></trkpt><trkpt lat="44.8184751" lon="10.3591368"><ele>40.0</ele><time>2026-04-20T13:11:09.318Z</time></trkpt><trkpt lat="44.8185009" lon="10.3593148"><ele>40.0</ele><time>2026-04-20T13:11:11.321Z</time></trkpt><trkpt lat="44.8185125" lon="10.3594054"><ele>40.0</ele><time>2026-04-20T13:11:12.322Z</time></trkpt><trkpt lat="44.8185384" lon="10.3595821"><ele>40.0</ele><time>2026-04-20T13:11:14.327Z</time></trkpt><trkpt lat="44.8185672" lon="10.3597519"><ele>40.0</ele><time>2026-04-20T13:11:16.322Z</time></trkpt><trkpt lat="44.8185982" lon="10.3599117"><ele>40.0</ele><time>2026-04-20T13:11:18.32Z</time></trkpt><trkpt lat="44.8186104" lon="10.3600048"><ele>40.0</ele><time>2026-04-20T13:11:19.329Z</time></trkpt><trkpt lat="44.8186313" lon="10.3601743"><ele>40.0</ele><time>2026-04-20T13:11:21.322Z</time></trkpt><trkpt lat="44.8186499" lon="10.3603415"><ele>40.0</ele><time>2026-04-20T13:11:23.319Z</time></trkpt><trkpt lat="44.8186777" lon="10.3605037"><ele>40.0</ele><time>2026-04-20T13:11:25.319Z</time></trkpt><trkpt lat="44.8187053" lon="10.3606701"><ele>39.0</ele><time>2026-04-20T13:11:27.32Z</time></trkpt><trkpt lat="44.8187323" lon="10.3608474"><ele>38.0</ele><time>2026-04-20T13:11:29.329Z</time></trkpt><trkpt lat="44.8187602" lon="10.361009"><ele>37.0</ele><time>2026-04-20T13:11:31.318Z</time></trkpt><trkpt lat="44.8187916" lon="10.3611628"><ele>36.0</ele><time>2026-04-20T13:11:33.326Z</time></trkpt><trkpt lat="44.8188321" lon="10.3613152"><ele>36.25</ele><time>2026-04-20T13:11:35.317Z</time></trkpt><trkpt lat="44.8189081" lon="10.3614455"><ele>36.5</ele><time>2026-04-20T13:11:37.332Z</time></trkpt><trkpt lat="44.8190033" lon="10.3615555"><ele>36.75</ele><time>2026-04-20T13:11:39.314Z</time></trkpt><trkpt lat="44.8190866" lon="10.3616812"><ele>37.0</ele><time>2026-04-20T13:11:41.321Z</time></trkpt><trkpt lat="44.8191819" lon="10.3617785"><ele>37.0</ele><time>2026-04-20T13:11:43.317Z</time></trkpt><trkpt lat="44.819221" lon="10.3618916"><ele>37.0</ele><time>2026-04-20T13:11:45.33Z</time></trkpt><trkpt lat="44.8192072" lon="10.3620365"><ele>37.0</ele><time>2026-04-20T13:11:47.32Z</time></trkpt><trkpt lat="44.8190777" lon="10.3620782"><ele>37.0</ele><time>2026-04-20T13:11:49.322Z</time></trkpt><trkpt lat="44.8189887" lon="10.3622036"><ele>37.6</ele><time>2026-04-20T13:11:51.333Z</time></trkpt><trkpt lat="44.8189959" lon="10.3623601"><ele>38.2</ele><time>2026-04-20T13:11:53.317Z</time></trkpt><trkpt lat="44.8190224" lon="10.3625366"><ele>38.8</ele><time>2026-04-20T13:11:55.324Z</time></trkpt><trkpt lat="44.8190223" lon="10.3626328"><ele>39.4</ele><time>2026-04-20T13:11:56.322Z</time></trkpt><trkpt lat="44.8190233" lon="10.36282"><ele>40.0</ele><time>2026-04-20T13:11:58.318Z</time></trkpt><trkpt lat="44.8190163" lon="10.3629282"><ele>40.2</ele><time>2026-04-20T13:11:59.329Z</time></trkpt><trkpt lat="44.8190403" lon="10.36309"><ele>40.4</ele><time>2026-04-20T13:12:01.327Z</time></trkpt><trkpt lat="44.8190733" lon="10.3632338"><ele>40.599999999999994</ele><time>2026-04-20T13:12:03.322Z</time></trkpt><trkpt lat="44.8190986" lon="10.3633164"><ele>40.8</ele><time>2026-04-20T13:12:04.327Z</time></trkpt><trkpt lat="44.8191161" lon="10.3634034"><ele>41.0</ele><time>2026-04-20T13:12:05.329Z</time></trkpt><trkpt lat="44.819139" lon="10.3635531"><ele>41.0</ele><time>2026-04-20T13:12:07.318Z</time></trkpt><trkpt lat="44.8191549" lon="10.3636421"><ele>41.0</ele><time>2026-04-20T13:12:08.32Z</time></trkpt><trkpt lat="44.819235" lon="10.3637484"><ele>41.0</ele><time>2026-04-20T13:12:10.325Z</time></trkpt><trkpt lat="44.8192983" lon="10.3637687"><ele>41.0</ele><time>2026-04-20T13:12:11.326Z</time></trkpt><trkpt lat="44.8193619" lon="10.3637826"><ele>41.0</ele><time>2026-04-20T13:12:12.319Z</time></trkpt><trkpt lat="44.8194839" lon="10.3638328"><ele>41.0</ele><time>2026-04-20T13:12:14.333Z</time></trkpt><trkpt lat="44.8195937" lon="10.3638703"><ele>40.33333333333333</ele><time>2026-04-20T13:12:16.324Z</time></trkpt><trkpt lat="44.819656" lon="10.3638961"><ele>39.666666666666664</ele><time>2026-04-20T13:12:17.323Z</time></trkpt><trkpt lat="44.8197238" lon="10.3639282"><ele>39.0</ele><time>2026-04-20T13:12:18.325Z</time></trkpt><trkpt lat="44.8198598" lon="10.3639726"><ele>38.333333333333336</ele><time>2026-04-20T13:12:20.329Z</time></trkpt><trkpt lat="44.8199305" lon="10.3639968"><ele>37.66666666666667</ele><time>2026-04-20T13:12:21.324Z</time></trkpt><trkpt lat="44.8200125" lon="10.3640246"><ele>37.0</ele><time>2026-04-20T13:12:22.319Z</time></trkpt><trkpt lat="44.8200995" lon="10.3640603"><ele>37.16666666666667</ele><time>2026-04-20T13:12:23.321Z</time></trkpt><trkpt lat="44.8201796" lon="10.3640906"><ele>37.333333333333336</ele><time>2026-04-20T13:12:24.319Z</time></trkpt><trkpt lat="44.8202518" lon="10.3641146"><ele>37.5</ele><time>2026-04-20T13:12:25.327Z</time></trkpt><trkpt lat="44.8203261" lon="10.3641418"><ele>37.666666666666664</ele><time>2026-04-20T13:12:26.325Z</time></trkpt><trkpt lat="44.8204022" lon="10.3641617"><ele>37.83333333333333</ele><time>2026-04-20T13:12:27.326Z</time></trkpt><trkpt lat="44.8204751" lon="10.3641971"><ele>38.0</ele><time>2026-04-20T13:12:28.327Z</time></trkpt><trkpt lat="44.8205829" lon="10.3642392"><ele>38.0</ele><time>2026-04-20T13:12:30.316Z</time></trkpt><trkpt lat="44.8206876" lon="10.364296"><ele>38.0</ele><time>2026-04-20T13:12:32.322Z</time></trkpt><trkpt lat="44.8207767" lon="10.3643336"><ele>38.0</ele><time>2026-04-20T13:12:34.327Z</time></trkpt><trkpt lat="44.8208317" lon="10.3643916"><ele>38.0</ele><time>2026-04-20T13:12:36.322Z</time></trkpt><trkpt lat="44.8207834" lon="10.3644817"><ele>38.0</ele><time>2026-04-20T13:12:39.321Z</time></trkpt><trkpt lat="44.8207057" lon="10.3644457"><ele>38.0</ele><time>2026-04-20T13:12:41.316Z</time></trkpt><trkpt lat="44.8206213" lon="10.3644329"><ele>38.0</ele><time>2026-04-20T13:12:43.318Z</time></trkpt><trkpt lat="44.8205302" lon="10.364392"><ele>38.0</ele><time>2026-04-20T13:12:45.318Z</time></trkpt><trkpt lat="44.8204327" lon="10.364364"><ele>38.0</ele><time>2026-04-20T13:12:47.322Z</time></trkpt><trkpt lat="44.8203529" lon="10.3644285"><ele>38.0</ele><time>2026-04-20T13:12:49.322Z</time></trkpt><trkpt lat="44.8203158" lon="10.3645461"><ele>38.0</ele><time>2026-04-20T13:12:51.32Z</time></trkpt><trkpt lat="44.8202935" lon="10.3646859"><ele>38.0</ele><time>2026-04-20T13:12:53.322Z</time></trkpt><trkpt lat="44.8202743" lon="10.3648237"><ele>38.0</ele><time>2026-04-20T13:12:55.322Z</time></trkpt><trkpt lat="44.8202586" lon="10.3649865"><ele>38.0</ele><time>2026-04-20T13:12:57.337Z</time></trkpt><trkpt lat="44.820242" lon="10.3651361"><ele>38.0</ele><time>2026-04-20T13:12:59.32Z</time></trkpt><trkpt lat="44.8202384" lon="10.3652819"><ele>38.0</ele><time>2026-04-20T13:13:01.323Z</time></trkpt><trkpt lat="44.8202231" lon="10.3654261"><ele>38.0</ele><time>2026-04-20T13:13:03.355Z</time></trkpt><trkpt lat="44.820192" lon="10.3655701"><ele>38.0</ele><time>2026-04-20T13:13:05.34Z</time></trkpt><trkpt lat="44.8201731" lon="10.365719"><ele>38.0</ele><time>2026-04-20T13:13:07.336Z</time></trkpt><trkpt lat="44.8201605" lon="10.3658837"><ele>38.0</ele><time>2026-04-20T13:13:09.334Z</time></trkpt><trkpt lat="44.8201405" lon="10.3660615"><ele>37.6</ele><time>2026-04-20T13:13:11.329Z</time></trkpt><trkpt lat="44.8201121" lon="10.3662398"><ele>37.199999999999996</ele><time>2026-04-20T13:13:13.326Z</time></trkpt><trkpt lat="44.820092" lon="10.3664199"><ele>36.8</ele><time>2026-04-20T13:13:15.321Z</time></trkpt><trkpt lat="44.8200798" lon="10.3665244"><ele>36.4</ele><time>2026-04-20T13:13:16.324Z</time></trkpt><trkpt lat="44.8200786" lon="10.3666151"><ele>36.0</ele><time>2026-04-20T13:13:17.326Z</time></trkpt><trkpt lat="44.8200575" lon="10.3667806"><ele>36.8</ele><time>2026-04-20T13:13:19.324Z</time></trkpt><trkpt lat="44.8200445" lon="10.366953"><ele>37.6</ele><time>2026-04-20T13:13:21.324Z</time></trkpt><trkpt lat="44.8200257" lon="10.3671292"><ele>38.4</ele><time>2026-04-20T13:13:23.327Z</time></trkpt><trkpt lat="44.820009" lon="10.367219"><ele>39.2</ele><time>2026-04-20T13:13:24.327Z</time></trkpt><trkpt lat="44.8200001" lon="10.3673788"><ele>40.0</ele><time>2026-04-20T13:13:26.321Z</time></trkpt><trkpt lat="44.8199831" lon="10.3675451"><ele>40.0</ele><time>2026-04-20T13:13:28.321Z</time></trkpt><trkpt lat="44.8199674" lon="10.3676853"><ele>40.0</ele><time>2026-04-20T13:13:30.323Z</time></trkpt><trkpt lat="44.8199557" lon="10.3678628"><ele>40.0</ele><time>2026-04-20T13:13:32.321Z</time></trkpt><trkpt lat="44.8199524" lon="10.3679575"><ele>40.0</ele><time>2026-04-20T13:13:33.32Z</time></trkpt><trkpt lat="44.8199694" lon="10.3680861"><ele>40.0</ele><time>2026-04-20T13:13:35.388Z</time></trkpt><trkpt lat="44.819962" lon="10.3681767"><ele>40.0</ele><time>2026-04-20T13:13:36.388Z</time></trkpt><trkpt lat="44.8199583" lon="10.3682774"><ele>40.0</ele><time>2026-04-20T13:13:37.388Z</time></trkpt><trkpt lat="44.8199704" lon="10.3684438"><ele>40.0</ele><time>2026-04-20T13:13:39.388Z</time></trkpt><trkpt lat="44.8199822" lon="10.3686062"><ele>40.0</ele><time>2026-04-20T13:13:41.388Z</time></trkpt><trkpt lat="44.8199747" lon="10.3686988"><ele>40.0</ele><time>2026-04-20T13:13:42.388Z</time></trkpt><trkpt lat="44.8199756" lon="10.3688725"><ele>39.8</ele><time>2026-04-20T13:13:44.322Z</time></trkpt><trkpt lat="44.8199897" lon="10.3690184"><ele>39.6</ele><time>2026-04-20T13:13:46.388Z</time></trkpt><trkpt lat="44.8199924" lon="10.3691123"><ele>39.4</ele><time>2026-04-20T13:13:47.387Z</time></trkpt><trkpt lat="44.8200024" lon="10.369279"><ele>39.2</ele><time>2026-04-20T13:13:49.388Z</time></trkpt><trkpt lat="44.8200195" lon="10.3694377"><ele>39.0</ele><time>2026-04-20T13:13:51.322Z</time></trkpt><trkpt lat="44.8200363" lon="10.3695303"><ele>39.25</ele><time>2026-04-20T13:13:52.388Z</time></trkpt><trkpt lat="44.8200553" lon="10.3697236"><ele>39.5</ele><time>2026-04-20T13:13:54.387Z</time></trkpt><trkpt lat="44.8200822" lon="10.3698238"><ele>39.75</ele><time>2026-04-20T13:13:56.329Z</time></trkpt><trkpt lat="44.820105" lon="10.370004"><ele>40.0</ele><time>2026-04-20T13:13:58.387Z</time></trkpt><trkpt lat="44.820119" lon="10.3701772"><ele>39.6</ele><time>2026-04-20T13:14:00.388Z</time></trkpt><trkpt lat="44.8201573" lon="10.3703416"><ele>39.2</ele><time>2026-04-20T13:14:02.387Z</time></trkpt><trkpt lat="44.8201862" lon="10.3704718"><ele>38.8</ele><time>2026-04-20T13:14:04.388Z</time></trkpt><trkpt lat="44.8201943" lon="10.3705635"><ele>38.4</ele><time>2026-04-20T13:14:05.387Z</time></trkpt><trkpt lat="44.8202146" lon="10.3706537"><ele>38.0</ele><time>2026-04-20T13:14:06.387Z</time></trkpt><trkpt lat="44.8202571" lon="10.3707892"><ele>37.857142857142854</ele><time>2026-04-20T13:14:08.388Z</time></trkpt><trkpt lat="44.8202733" lon="10.3708786"><ele>37.714285714285715</ele><time>2026-04-20T13:14:09.387Z</time></trkpt><trkpt lat="44.8202951" lon="10.3709945"><ele>37.57142857142857</ele><time>2026-04-20T13:14:11.327Z</time></trkpt><trkpt lat="44.8203107" lon="10.3710815"><ele>37.42857142857143</ele><time>2026-04-20T13:14:12.325Z</time></trkpt><trkpt lat="44.8203375" lon="10.3711813"><ele>37.285714285714285</ele><time>2026-04-20T13:14:13.387Z</time></trkpt><trkpt lat="44.8203425" lon="10.3712818"><ele>37.142857142857146</ele><time>2026-04-20T13:14:14.319Z</time></trkpt><trkpt lat="44.8203641" lon="10.3713866"><ele>37.0</ele><time>2026-04-20T13:14:15.387Z</time></trkpt><trkpt lat="44.8203803" lon="10.371493"><ele>37.333333333333336</ele><time>2026-04-20T13:14:16.387Z</time></trkpt><trkpt lat="44.8204058" lon="10.3715818"><ele>37.66666666666667</ele><time>2026-04-20T13:14:17.388Z</time></trkpt><trkpt lat="44.8204211" lon="10.3717098"><ele>38.0</ele><time>2026-04-20T13:14:19.388Z</time></trkpt><trkpt lat="44.8204046" lon="10.3718081"><ele>38.333333333333336</ele><time>2026-04-20T13:14:22.387Z</time></trkpt><trkpt lat="44.8204213" lon="10.3719618"><ele>38.666666666666664</ele><time>2026-04-20T13:14:24.388Z</time></trkpt><trkpt lat="44.820416" lon="10.3720599"><ele>39.0</ele><time>2026-04-20T13:14:25.387Z</time></trkpt><trkpt lat="44.8204299" lon="10.3721928"><ele>39.0</ele><time>2026-04-20T13:14:27.388Z</time></trkpt><trkpt lat="44.8204324" lon="10.3723391"><ele>39.0</ele><time>2026-04-20T13:14:29.388Z</time></trkpt><trkpt lat="44.8204424" lon="10.3724753"><ele>39.0</ele><time>2026-04-20T13:14:31.325Z</time></trkpt><trkpt lat="44.8204665" lon="10.372609"><ele>39.0</ele><time>2026-04-20T13:14:33.387Z</time></trkpt><trkpt lat="44.8204745" lon="10.372755"><ele>39.0</ele><time>2026-04-20T13:14:35.382Z</time></trkpt><trkpt lat="44.8204923" lon="10.3729048"><ele>39.2</ele><time>2026-04-20T13:14:37.387Z</time></trkpt><trkpt lat="44.820518" lon="10.3730568"><ele>39.4</ele><time>2026-04-20T13:14:39.388Z</time></trkpt><trkpt lat="44.8205416" lon="10.3732104"><ele>39.6</ele><time>2026-04-20T13:14:41.387Z</time></trkpt><trkpt lat="44.8205835" lon="10.3733669"><ele>39.8</ele><time>2026-04-20T13:14:43.387Z</time></trkpt><trkpt lat="44.820623" lon="10.3734975"><ele>40.0</ele><time>2026-04-20T13:14:45.388Z</time></trkpt><trkpt lat="44.8206704" lon="10.3736178"><ele>40.0</ele><time>2026-04-20T13:14:47.388Z</time></trkpt><trkpt lat="44.8206903" lon="10.3737068"><ele>40.0</ele><time>2026-04-20T13:14:48.387Z</time></trkpt><trkpt lat="44.8207176" lon="10.3737887"><ele>40.0</ele><time>2026-04-20T13:14:49.388Z</time></trkpt><trkpt lat="44.8207765" lon="10.373929"><ele>40.0</ele><time>2026-04-20T13:14:51.388Z</time></trkpt><trkpt lat="44.820814" lon="10.3740747"><ele>40.0</ele><time>2026-04-20T13:14:53.388Z</time></trkpt><trkpt lat="44.820857" lon="10.3741625"><ele>40.0</ele><time>2026-04-20T13:14:55.387Z</time></trkpt><trkpt lat="44.8208881" lon="10.374312"><ele>40.0</ele><time>2026-04-20T13:14:57.388Z</time></trkpt><trkpt lat="44.820916" lon="10.3744685"><ele>40.0</ele><time>2026-04-20T13:14:59.388Z</time></trkpt><trkpt lat="44.8209295" lon="10.3745767"><ele>40.0</ele><time>2026-04-20T13:15:01.324Z</time></trkpt><trkpt lat="44.8209621" lon="10.3747039"><ele>40.0</ele><time>2026-04-20T13:15:03.387Z</time></trkpt><trkpt lat="44.8210092" lon="10.3748476"><ele>40.0</ele><time>2026-04-20T13:15:05.324Z</time></trkpt><trkpt lat="44.8210536" lon="10.3749669"><ele>39.66666666666667</ele><time>2026-04-20T13:15:07.387Z</time></trkpt><trkpt lat="44.8210849" lon="10.3750873"><ele>39.333333333333336</ele><time>2026-04-20T13:15:08.388Z</time></trkpt><trkpt lat="44.8211329" lon="10.3751923"><ele>39.0</ele><time>2026-04-20T13:15:09.387Z</time></trkpt><trkpt lat="44.8211846" lon="10.375244"><ele>38.666666666666664</ele><time>2026-04-20T13:15:10.388Z</time></trkpt><trkpt lat="44.8212284" lon="10.3753117"><ele>38.33333333333333</ele><time>2026-04-20T13:15:11.387Z</time></trkpt><trkpt lat="44.82131" lon="10.3754465"><ele>38.0</ele><time>2026-04-20T13:15:13.321Z</time></trkpt><trkpt lat="44.8213509" lon="10.3755144"><ele>39.0</ele><time>2026-04-20T13:15:14.387Z</time></trkpt><trkpt lat="44.8213711" lon="10.375684"><ele>40.0</ele><time>2026-04-20T13:15:16.388Z</time></trkpt><trkpt lat="44.8213749" lon="10.3758597"><ele>41.0</ele><time>2026-04-20T13:15:18.387Z</time></trkpt><trkpt lat="44.8213922" lon="10.3760142"><ele>42.0</ele><time>2026-04-20T13:15:20.388Z</time></trkpt><trkpt lat="44.8213962" lon="10.3761137"><ele>43.0</ele><time>2026-04-20T13:15:21.388Z</time></trkpt><trkpt lat="44.821439" lon="10.376267"><ele>42.599999999999994</ele><time>2026-04-20T13:15:23.388Z</time></trkpt><trkpt lat="44.8214866" lon="10.376407"><ele>42.199999999999996</ele><time>2026-04-20T13:15:25.387Z</time></trkpt><trkpt lat="44.8215427" lon="10.3765478"><ele>41.8</ele><time>2026-04-20T13:15:27.312Z</time></trkpt><trkpt lat="44.8215739" lon="10.3766396"><ele>41.4</ele><time>2026-04-20T13:15:28.375Z</time></trkpt><trkpt lat="44.8216157" lon="10.3767712"><ele>41.0</ele><time>2026-04-20T13:15:30.309Z</time></trkpt><trkpt lat="44.8216528" lon="10.3768835"><ele>41.0</ele><time>2026-04-20T13:15:31.335Z</time></trkpt><trkpt lat="44.8217058" lon="10.3770357"><ele>41.0</ele><time>2026-04-20T13:15:33.328Z</time></trkpt><trkpt lat="44.8217593" lon="10.3771914"><ele>41.0</ele><time>2026-04-20T13:15:35.327Z</time></trkpt><trkpt lat="44.8218133" lon="10.3773403"><ele>41.0</ele><time>2026-04-20T13:15:37.338Z</time></trkpt><trkpt lat="44.8218422" lon="10.3774207"><ele>41.0</ele><time>2026-04-20T13:15:38.341Z</time></trkpt><trkpt lat="44.8218992" lon="10.3775807"><ele>41.25</ele><time>2026-04-20T13:15:40.387Z</time></trkpt><trkpt lat="44.8219601" lon="10.3777377"><ele>41.5</ele><time>2026-04-20T13:15:42.387Z</time></trkpt><trkpt lat="44.8220182" lon="10.3778884"><ele>41.75</ele><time>2026-04-20T13:15:44.387Z</time></trkpt><trkpt lat="44.8220737" lon="10.3780432"><ele>42.0</ele><time>2026-04-20T13:15:46.387Z</time></trkpt><trkpt lat="44.8221347" lon="10.3781943"><ele>42.0</ele><time>2026-04-20T13:15:48.388Z</time></trkpt><trkpt lat="44.8222002" lon="10.3783386"><ele>42.0</ele><time>2026-04-20T13:15:50.387Z</time></trkpt><trkpt lat="44.8222389" lon="10.3784162"><ele>42.0</ele><time>2026-04-20T13:15:51.388Z</time></trkpt><trkpt lat="44.8222776" lon="10.3784899"><ele>42.0</ele><time>2026-04-20T13:15:52.387Z</time></trkpt><trkpt lat="44.8223555" lon="10.378607"><ele>42.0</ele><time>2026-04-20T13:15:54.321Z</time></trkpt><trkpt lat="44.822421" lon="10.3786694"><ele>42.0</ele><time>2026-04-20T13:15:56.387Z</time></trkpt><trkpt lat="44.8224622" lon="10.3787576"><ele>42.0</ele><time>2026-04-20T13:16:00.355Z</time></trkpt><trkpt lat="44.8225209" lon="10.3788325"><ele>42.0</ele><time>2026-04-20T13:16:03.388Z</time></trkpt><trkpt lat="44.8225905" lon="10.3788935"><ele>42.0</ele><time>2026-04-20T13:16:06.319Z</time></trkpt><trkpt lat="44.8226745" lon="10.3789311"><ele>42.0</ele><time>2026-04-20T13:16:09.325Z</time></trkpt><trkpt lat="44.8227429" lon="10.3789665"><ele>42.0</ele><time>2026-04-20T13:17:01.322Z</time></trkpt><trkpt lat="44.8228039" lon="10.3790054"><ele>42.0</ele><time>2026-04-20T13:17:05.327Z</time></trkpt><trkpt lat="44.8228705" lon="10.379054"><ele>41.5</ele><time>2026-04-20T13:17:08.326Z</time></trkpt><trkpt lat="44.8229223" lon="10.3791174"><ele>41.0</ele><time>2026-04-20T13:17:11.325Z</time></trkpt><trkpt lat="44.8229434" lon="10.3792413"><ele>40.5</ele><time>2026-04-20T13:17:56.323Z</time></trkpt><trkpt lat="44.8229766" lon="10.3793514"><ele>40.0</ele><time>2026-04-20T13:17:59.31Z</time></trkpt><trkpt lat="44.8229893" lon="10.3794448"><ele>39.5</ele><time>2026-04-20T13:18:01.325Z</time></trkpt><trkpt lat="44.8229677" lon="10.3795414"><ele>39.0</ele><time>2026-04-20T13:18:02.326Z</time></trkpt><trkpt lat="44.8229219" lon="10.3796494"><ele>39.2</ele><time>2026-04-20T13:18:04.329Z</time></trkpt><trkpt lat="44.8228902" lon="10.3797839"><ele>39.4</ele><time>2026-04-20T13:18:06.326Z</time></trkpt><trkpt lat="44.8228576" lon="10.3799313"><ele>39.6</ele><time>2026-04-20T13:18:08.327Z</time></trkpt><trkpt lat="44.8228051" lon="10.3800073"><ele>39.8</ele><time>2026-04-20T13:18:10.329Z</time></trkpt><trkpt lat="44.8227649" lon="10.3801623"><ele>40.0</ele><time>2026-04-20T13:18:12.327Z</time></trkpt><trkpt lat="44.8227714" lon="10.3802553"><ele>40.0</ele><time>2026-04-20T13:18:14.324Z</time></trkpt><trkpt lat="44.8228059" lon="10.3803981"><ele>40.0</ele><time>2026-04-20T13:18:16.333Z</time></trkpt><trkpt lat="44.822843" lon="10.3804891"><ele>40.0</ele><time>2026-04-20T13:18:17.33Z</time></trkpt><trkpt lat="44.8228792" lon="10.3805668"><ele>40.0</ele><time>2026-04-20T13:18:18.329Z</time></trkpt><trkpt lat="44.8229637" lon="10.3806957"><ele>40.0</ele><time>2026-04-20T13:18:20.327Z</time></trkpt><trkpt lat="44.8229977" lon="10.3807742"><ele>40.0</ele><time>2026-04-20T13:18:21.328Z</time></trkpt><trkpt lat="44.8230536" lon="10.3809021"><ele>39.833333333333336</ele><time>2026-04-20T13:18:23.326Z</time></trkpt><trkpt lat="44.8230782" lon="10.3809942"><ele>39.66666666666667</ele><time>2026-04-20T13:18:24.324Z</time></trkpt><trkpt lat="44.8230981" lon="10.3810819"><ele>39.5</ele><time>2026-04-20T13:18:25.326Z</time></trkpt><trkpt lat="44.823123" lon="10.3811877"><ele>39.333333333333336</ele><time>2026-04-20T13:18:26.324Z</time></trkpt><trkpt lat="44.8231703" lon="10.3813343"><ele>39.166666666666664</ele><time>2026-04-20T13:18:28.316Z</time></trkpt><trkpt lat="44.8231939" lon="10.3814401"><ele>39.0</ele><time>2026-04-20T13:18:29.32Z</time></trkpt><trkpt lat="44.8232203" lon="10.3815249"><ele>38.6</ele><time>2026-04-20T13:18:30.326Z</time></trkpt><trkpt lat="44.823267" lon="10.3816321"><ele>38.2</ele><time>2026-04-20T13:18:32.33Z</time></trkpt><trkpt lat="44.8233077" lon="10.3817183"><ele>37.800000000000004</ele><time>2026-04-20T13:18:33.327Z</time></trkpt><trkpt lat="44.8233388" lon="10.381796"><ele>37.4</ele><time>2026-04-20T13:18:34.329Z</time></trkpt><trkpt lat="44.8234095" lon="10.3819288"><ele>37.0</ele><time>2026-04-20T13:18:36.328Z</time></trkpt><trkpt lat="44.8234654" lon="10.3820842"><ele>37.8</ele><time>2026-04-20T13:18:38.324Z</time></trkpt><trkpt lat="44.8235006" lon="10.3821601"><ele>38.6</ele><time>2026-04-20T13:18:39.387Z</time></trkpt><trkpt lat="44.823536" lon="10.38224"><ele>39.4</ele><time>2026-04-20T13:18:40.335Z</time></trkpt><trkpt lat="44.8236062" lon="10.3823604"><ele>40.199999999999996</ele><time>2026-04-20T13:18:42.388Z</time></trkpt><trkpt lat="44.8236671" lon="10.3825045"><ele>41.0</ele><time>2026-04-20T13:18:44.315Z</time></trkpt><trkpt lat="44.8237338" lon="10.3826075"><ele>41.0</ele><time>2026-04-20T13:18:46.387Z</time></trkpt><trkpt lat="44.8237756" lon="10.382689"><ele>41.0</ele><time>2026-04-20T13:18:47.388Z</time></trkpt><trkpt lat="44.8238294" lon="10.382816"><ele>41.0</ele><time>2026-04-20T13:18:49.387Z</time></trkpt><trkpt lat="44.8238955" lon="10.382975"><ele>41.0</ele><time>2026-04-20T13:18:51.323Z</time></trkpt><trkpt lat="44.8239454" lon="10.3830594"><ele>41.0</ele><time>2026-04-20T13:18:52.325Z</time></trkpt><trkpt lat="44.8239753" lon="10.3831386"><ele>41.0</ele><time>2026-04-20T13:18:53.388Z</time></trkpt><trkpt lat="44.8240441" lon="10.3833082"><ele>40.199999999999996</ele><time>2026-04-20T13:18:55.387Z</time></trkpt><trkpt lat="44.8240759" lon="10.3833855"><ele>39.4</ele><time>2026-04-20T13:18:56.388Z</time></trkpt><trkpt lat="44.8241388" lon="10.3835132"><ele>38.6</ele><time>2026-04-20T13:18:58.322Z</time></trkpt><trkpt lat="44.8241587" lon="10.3836014"><ele>37.8</ele><time>2026-04-20T13:18:59.388Z</time></trkpt><trkpt lat="44.8241759" lon="10.3837542"><ele>37.0</ele><time>2026-04-20T13:19:01.324Z</time></trkpt><trkpt lat="44.8242127" lon="10.3838914"><ele>37.0</ele><time>2026-04-20T13:19:03.313Z</time></trkpt><trkpt lat="44.824269" lon="10.3840291"><ele>37.0</ele><time>2026-04-20T13:19:05.388Z</time></trkpt><trkpt lat="44.8243408" lon="10.3841859"><ele>37.0</ele><time>2026-04-20T13:19:07.388Z</time></trkpt><trkpt lat="44.8244031" lon="10.3843321"><ele>37.0</ele><time>2026-04-20T13:19:09.311Z</time></trkpt><trkpt lat="44.8244575" lon="10.3844872"><ele>38.333333333333336</ele><time>2026-04-20T13:19:11.376Z</time></trkpt><trkpt lat="44.8244516" lon="10.3846013"><ele>39.666666666666664</ele><time>2026-04-20T13:19:12.388Z</time></trkpt><trkpt lat="44.8244976" lon="10.3847578"><ele>41.0</ele><time>2026-04-20T13:19:14.326Z</time></trkpt><trkpt lat="44.8245944" lon="10.3851861"><ele>40.8</ele><time>2026-04-20T13:19:23.276Z</time></trkpt><trkpt lat="44.824672" lon="10.3852376"><ele>40.599999999999994</ele><time>2026-04-20T13:19:24.277Z</time></trkpt><trkpt lat="44.8247132" lon="10.3853506"><ele>40.4</ele><time>2026-04-20T13:19:26.28Z</time></trkpt><trkpt lat="44.8247746" lon="10.3854812"><ele>40.2</ele><time>2026-04-20T13:19:28.276Z</time></trkpt><trkpt lat="44.8248264" lon="10.3855643"><ele>40.0</ele><time>2026-04-20T13:19:29.276Z</time></trkpt><trkpt lat="44.8248989" lon="10.385714"><ele>40.0</ele><time>2026-04-20T13:19:31.276Z</time></trkpt><trkpt lat="44.8249623" lon="10.3858719"><ele>40.0</ele><time>2026-04-20T13:19:33.276Z</time></trkpt><trkpt lat="44.8250034" lon="10.3859508"><ele>40.0</ele><time>2026-04-20T13:19:34.276Z</time></trkpt><trkpt lat="44.8250664" lon="10.3860936"><ele>40.0</ele><time>2026-04-20T13:19:36.276Z</time></trkpt><trkpt lat="44.8250882" lon="10.3861818"><ele>40.0</ele><time>2026-04-20T13:19:37.276Z</time></trkpt><trkpt lat="44.82512" lon="10.3862658"><ele>39.714285714285715</ele><time>2026-04-20T13:19:38.275Z</time></trkpt><trkpt lat="44.825189" lon="10.3864008"><ele>39.42857142857143</ele><time>2026-04-20T13:19:40.275Z</time></trkpt><trkpt lat="44.825222" lon="10.3864887"><ele>39.14285714285714</ele><time>2026-04-20T13:19:41.276Z</time></trkpt><trkpt lat="44.825253" lon="10.386566"><ele>38.85714285714286</ele><time>2026-04-20T13:19:42.275Z</time></trkpt><trkpt lat="44.8252917" lon="10.3866411"><ele>38.57142857142858</ele><time>2026-04-20T13:19:43.275Z</time></trkpt><trkpt lat="44.8253191" lon="10.3867231"><ele>38.285714285714285</ele><time>2026-04-20T13:19:44.275Z</time></trkpt><trkpt lat="44.8253514" lon="10.3867998"><ele>38.0</ele><time>2026-04-20T13:19:45.275Z</time></trkpt><trkpt lat="44.8254268" lon="10.3869494"><ele>38.0</ele><time>2026-04-20T13:19:47.276Z</time></trkpt><trkpt lat="44.8254601" lon="10.3870298"><ele>38.0</ele><time>2026-04-20T13:19:48.276Z</time></trkpt><trkpt lat="44.8254729" lon="10.3871224"><ele>38.0</ele><time>2026-04-20T13:19:49.276Z</time></trkpt><trkpt lat="44.8254995" lon="10.3872069"><ele>38.0</ele><time>2026-04-20T13:19:50.276Z</time></trkpt><trkpt lat="44.8255977" lon="10.3873487"><ele>38.0</ele><time>2026-04-20T13:19:52.275Z</time></trkpt><trkpt lat="44.8256261" lon="10.3874284"><ele>38.0</ele><time>2026-04-20T13:19:53.275Z</time></trkpt><trkpt lat="44.8256812" lon="10.3875709"><ele>38.0</ele><time>2026-04-20T13:19:55.276Z</time></trkpt><trkpt lat="44.8257234" lon="10.3876465"><ele>38.0</ele><time>2026-04-20T13:19:56.276Z</time></trkpt><trkpt lat="44.8257787" lon="10.3877967"><ele>38.0</ele><time>2026-04-20T13:19:58.275Z</time></trkpt><trkpt lat="44.8258121" lon="10.3878751"><ele>38.0</ele><time>2026-04-20T13:19:59.276Z</time></trkpt><trkpt lat="44.8258781" lon="10.3880183"><ele>38.0</ele><time>2026-04-20T13:20:01.275Z</time></trkpt><trkpt lat="44.8259717" lon="10.3881269"><ele>37.8</ele><time>2026-04-20T13:20:03.276Z</time></trkpt><trkpt lat="44.8260614" lon="10.388091"><ele>37.599999999999994</ele><time>2026-04-20T13:20:05.275Z</time></trkpt><trkpt lat="44.8261779" lon="10.3879861"><ele>37.400000000000006</ele><time>2026-04-20T13:20:07.275Z</time></trkpt><trkpt lat="44.8262781" lon="10.3878909"><ele>37.2</ele><time>2026-04-20T13:20:09.276Z</time></trkpt><trkpt lat="44.8263391" lon="10.3878415"><ele>37.0</ele><time>2026-04-20T13:20:10.276Z</time></trkpt><trkpt lat="44.8263966" lon="10.3877901"><ele>37.0</ele><time>2026-04-20T13:20:11.275Z</time></trkpt><trkpt lat="44.8264954" lon="10.3877054"><ele>37.0</ele><time>2026-04-20T13:20:13.276Z</time></trkpt><trkpt lat="44.8265675" lon="10.3876547"><ele>37.0</ele><time>2026-04-20T13:20:14.275Z</time></trkpt><trkpt lat="44.8266315" lon="10.3876617"><ele>37.0</ele><time>2026-04-20T13:20:15.275Z</time></trkpt><trkpt lat="44.8266735" lon="10.3877965"><ele>37.0</ele><time>2026-04-20T13:20:17.276Z</time></trkpt><trkpt lat="44.8267191" lon="10.387882"><ele>37.0</ele><time>2026-04-20T13:20:20.276Z</time></trkpt><trkpt lat="44.8267558" lon="10.3879918"><ele>36.833333333333336</ele><time>2026-04-20T13:20:23.275Z</time></trkpt><trkpt lat="44.826781" lon="10.388099"><ele>36.66666666666667</ele><time>2026-04-20T13:20:25.276Z</time></trkpt><trkpt lat="44.826733" lon="10.388202"><ele>36.5</ele><time>2026-04-20T13:20:27.276Z</time></trkpt><trkpt lat="44.8266375" lon="10.3882434"><ele>36.333333333333336</ele><time>2026-04-20T13:20:29.275Z</time></trkpt><trkpt lat="44.8265693" lon="10.3883286"><ele>36.166666666666664</ele><time>2026-04-20T13:20:30.276Z</time></trkpt><trkpt lat="44.8265081" lon="10.3883777"><ele>36.0</ele><time>2026-04-20T13:20:32.275Z</time></trkpt><trkpt lat="44.8265135" lon="10.3884988"><ele>36.0</ele><time>2026-04-20T13:20:34.275Z</time></trkpt><trkpt lat="44.8264944" lon="10.3886095"><ele>36.0</ele><time>2026-04-20T13:20:37.275Z</time></trkpt><trkpt lat="44.8264347" lon="10.3886765"><ele>36.0</ele><time>2026-04-20T13:20:39.275Z</time></trkpt><trkpt lat="44.8263489" lon="10.3887562"><ele>36.0</ele><time>2026-04-20T13:20:41.275Z</time></trkpt><trkpt lat="44.8262781" lon="10.3887877"><ele>36.0</ele><time>2026-04-20T13:20:43.276Z</time></trkpt><trkpt lat="44.8262497" lon="10.3888891"><ele>36.0</ele><time>2026-04-20T13:20:46.275Z</time></trkpt><trkpt lat="44.8263026" lon="10.3890164"><ele>36.166666666666664</ele><time>2026-04-20T13:20:49.276Z</time></trkpt><trkpt lat="44.8263484" lon="10.3891107"><ele>36.333333333333336</ele><time>2026-04-20T13:20:52.276Z</time></trkpt><trkpt lat="44.8263986" lon="10.389222"><ele>36.5</ele><time>2026-04-20T13:20:55.275Z</time></trkpt><trkpt lat="44.8264383" lon="10.3893002"><ele>36.66666666666667</ele><time>2026-04-20T13:20:57.275Z</time></trkpt><trkpt lat="44.8264701" lon="10.3893781"><ele>36.833333333333336</ele><time>2026-04-20T13:20:59.276Z</time></trkpt><trkpt lat="44.8265182" lon="10.3894959"><ele>37.0</ele><time>2026-04-20T13:21:02.275Z</time></trkpt><trkpt lat="44.8265459" lon="10.3895819"><ele>37.0</ele><time>2026-04-20T13:21:04.275Z</time></trkpt><trkpt lat="44.826584" lon="10.3896721"><ele>37.0</ele><time>2026-04-20T13:21:06.275Z</time></trkpt><trkpt lat="44.8266292" lon="10.3897668"><ele>37.0</ele><time>2026-04-20T13:21:08.275Z</time></trkpt><trkpt lat="44.8266751" lon="10.3898427"><ele>37.0</ele><time>2026-04-20T13:21:10.275Z</time></trkpt><trkpt lat="44.8267327" lon="10.3899682"><ele>37.0</ele><time>2026-04-20T13:21:12.275Z</time></trkpt><trkpt lat="44.8267712" lon="10.3900654"><ele>37.0</ele><time>2026-04-20T13:21:13.275Z</time></trkpt><trkpt lat="44.8268194" lon="10.3901811"><ele>37.0</ele><time>2026-04-20T13:21:15.275Z</time></trkpt><trkpt lat="44.8268835" lon="10.3902889"><ele>37.0</ele><time>2026-04-20T13:21:18.276Z</time></trkpt><trkpt lat="44.8269257" lon="10.390403"><ele>37.0</ele><time>2026-04-20T13:21:20.275Z</time></trkpt><trkpt lat="44.8270028" lon="10.3904929"><ele>37.0</ele><time>2026-04-20T13:21:22.275Z</time></trkpt><trkpt lat="44.8270414" lon="10.3906091"><ele>37.0</ele><time>2026-04-20T13:21:24.275Z</time></trkpt><trkpt lat="44.8271057" lon="10.3907499"><ele>37.0</ele><time>2026-04-20T13:21:26.276Z</time></trkpt><trkpt lat="44.8271435" lon="10.3908225"><ele>37.0</ele><time>2026-04-20T13:21:27.276Z</time></trkpt><trkpt lat="44.827142" lon="10.3909331"><ele>37.0</ele><time>2026-04-20T13:21:28.275Z</time></trkpt><trkpt lat="44.8271986" lon="10.391077"><ele>37.0</ele><time>2026-04-20T13:21:30.275Z</time></trkpt><trkpt lat="44.8272718" lon="10.3912126"><ele>37.0</ele><time>2026-04-20T13:21:32.276Z</time></trkpt><trkpt lat="44.8273232" lon="10.3913705"><ele>37.0</ele><time>2026-04-20T13:21:34.276Z</time></trkpt><trkpt lat="44.8273442" lon="10.3914651"><ele>37.0</ele><time>2026-04-20T13:21:35.275Z</time></trkpt><trkpt lat="44.8274087" lon="10.3915569"><ele>37.0</ele><time>2026-04-20T13:21:37.275Z</time></trkpt><trkpt lat="44.827449" lon="10.3916909"><ele>37.0</ele><time>2026-04-20T13:21:39.276Z</time></trkpt><trkpt lat="44.8275164" lon="10.3918287"><ele>37.0</ele><time>2026-04-20T13:21:41.276Z</time></trkpt><trkpt lat="44.8275783" lon="10.3919438"><ele>37.0</ele><time>2026-04-20T13:21:43.276Z</time></trkpt><trkpt lat="44.8276217" lon="10.392089"><ele>37.0</ele><time>2026-04-20T13:21:45.276Z</time></trkpt><trkpt lat="44.8276645" lon="10.3922247"><ele>37.0</ele><time>2026-04-20T13:21:47.276Z</time></trkpt><trkpt lat="44.8277096" lon="10.3923786"><ele>37.0</ele><time>2026-04-20T13:21:49.275Z</time></trkpt><trkpt lat="44.8277697" lon="10.3925116"><ele>37.0</ele><time>2026-04-20T13:21:51.275Z</time></trkpt><trkpt lat="44.827789" lon="10.3926125"><ele>37.16666666666667</ele><time>2026-04-20T13:21:53.275Z</time></trkpt><trkpt lat="44.8278573" lon="10.3927106"><ele>37.333333333333336</ele><time>2026-04-20T13:21:55.275Z</time></trkpt><trkpt lat="44.8279039" lon="10.3928142"><ele>37.5</ele><time>2026-04-20T13:21:57.275Z</time></trkpt><trkpt lat="44.8279519" lon="10.3927127"><ele>37.666666666666664</ele><time>2026-04-20T13:22:01.275Z</time></trkpt><trkpt lat="44.8280098" lon="10.3927822"><ele>37.83333333333333</ele><time>2026-04-20T13:22:04.275Z</time></trkpt><trkpt lat="44.8280509" lon="10.3926898"><ele>38.0</ele><time>2026-04-20T13:22:14.276Z</time></trkpt><trkpt lat="44.828069" lon="10.3925995"><ele>38.0</ele><time>2026-04-20T13:22:16.276Z</time></trkpt><trkpt lat="44.8280885" lon="10.3925026"><ele>38.0</ele><time>2026-04-20T13:22:18.276Z</time></trkpt><trkpt lat="44.8280999" lon="10.3924024"><ele>38.0</ele><time>2026-04-20T13:22:20.276Z</time></trkpt><trkpt lat="44.8281099" lon="10.39228"><ele>38.0</ele><time>2026-04-20T13:22:22.275Z</time></trkpt><trkpt lat="44.8281286" lon="10.3921618"><ele>38.0</ele><time>2026-04-20T13:22:24.276Z</time></trkpt><trkpt lat="44.8281603" lon="10.3920545"><ele>38.0</ele><time>2026-04-20T13:22:26.276Z</time></trkpt><trkpt lat="44.8281884" lon="10.3919447"><ele>38.199999999999996</ele><time>2026-04-20T13:22:28.275Z</time></trkpt><trkpt lat="44.8282113" lon="10.391823"><ele>38.4</ele><time>2026-04-20T13:22:30.276Z</time></trkpt><trkpt lat="44.8282565" lon="10.3917278"><ele>38.599999999999994</ele><time>2026-04-20T13:22:32.276Z</time></trkpt><trkpt lat="44.8283641" lon="10.3917912"><ele>38.8</ele><time>2026-04-20T13:22:34.275Z</time></trkpt><trkpt lat="44.8284574" lon="10.3918295"><ele>39.0</ele><time>2026-04-20T13:22:36.276Z</time></trkpt><trkpt lat="44.8285548" lon="10.3918753"><ele>38.4</ele><time>2026-04-20T13:22:38.275Z</time></trkpt><trkpt lat="44.8286585" lon="10.3919307"><ele>37.8</ele><time>2026-04-20T13:22:40.275Z</time></trkpt><trkpt lat="44.8287534" lon="10.3919833"><ele>37.2</ele><time>2026-04-20T13:22:42.275Z</time></trkpt><trkpt lat="44.8288788" lon="10.3920155"><ele>36.6</ele><time>2026-04-20T13:22:44.275Z</time></trkpt><trkpt lat="44.8289441" lon="10.3920314"><ele>36.0</ele><time>2026-04-20T13:22:45.275Z</time></trkpt><trkpt lat="44.8290542" lon="10.3920784"><ele>36.0</ele><time>2026-04-20T13:22:47.275Z</time></trkpt><trkpt lat="44.8291467" lon="10.3921352"><ele>36.0</ele><time>2026-04-20T13:22:49.275Z</time></trkpt><trkpt lat="44.8292557" lon="10.3921442"><ele>36.0</ele><time>2026-04-20T13:22:50.275Z</time></trkpt><trkpt lat="44.8293358" lon="10.3922137"><ele>36.0</ele><time>2026-04-20T13:22:52.275Z</time></trkpt><trkpt lat="44.8294005" lon="10.3922384"><ele>36.0</ele><time>2026-04-20T13:22:54.275Z</time></trkpt><trkpt lat="44.8294648" lon="10.3922916"><ele>36.0</ele><time>2026-04-20T13:22:56.276Z</time></trkpt><trkpt lat="44.829457" lon="10.3923836"><ele>36.0</ele><time>2026-04-20T13:22:59.275Z</time></trkpt><trkpt lat="44.829447" lon="10.3924739"><ele>36.0</ele><time>2026-04-20T13:23:01.276Z</time></trkpt><trkpt lat="44.829459" lon="10.3926028"><ele>36.0</ele><time>2026-04-20T13:23:03.276Z</time></trkpt><trkpt lat="44.8294388" lon="10.3927329"><ele>36.0</ele><time>2026-04-20T13:23:05.275Z</time></trkpt><trkpt lat="44.8293669" lon="10.3929296"><ele>36.0</ele><time>2026-04-20T13:23:07.275Z</time></trkpt><trkpt lat="44.8293285" lon="10.3930228"><ele>36.4</ele><time>2026-04-20T13:23:08.275Z</time></trkpt><trkpt lat="44.8293027" lon="10.3931974"><ele>36.8</ele><time>2026-04-20T13:23:10.276Z</time></trkpt><trkpt lat="44.829263" lon="10.3932683"><ele>37.199999999999996</ele><time>2026-04-20T13:23:11.275Z</time></trkpt><trkpt lat="44.829239" lon="10.3933906"><ele>37.6</ele><time>2026-04-20T13:23:13.276Z</time></trkpt><trkpt lat="44.829227" lon="10.3935239"><ele>38.0</ele><time>2026-04-20T13:23:15.276Z</time></trkpt><trkpt lat="44.8291849" lon="10.3936696"><ele>38.0</ele><time>2026-04-20T13:23:17.276Z</time></trkpt><trkpt lat="44.8291431" lon="10.393831"><ele>38.0</ele><time>2026-04-20T13:23:19.275Z</time></trkpt><trkpt lat="44.8291241" lon="10.3939658"><ele>38.0</ele><time>2026-04-20T13:23:21.276Z</time></trkpt><trkpt lat="44.829089" lon="10.3941133"><ele>38.0</ele><time>2026-04-20T13:23:23.275Z</time></trkpt><trkpt lat="44.8290632" lon="10.3942254"><ele>38.0</ele><time>2026-04-20T13:23:24.275Z</time></trkpt><trkpt lat="44.8290488" lon="10.3943262"><ele>38.0</ele><time>2026-04-20T13:23:26.276Z</time></trkpt><trkpt lat="44.8290156" lon="10.3944648"><ele>38.0</ele><time>2026-04-20T13:23:28.275Z</time></trkpt><trkpt lat="44.8289828" lon="10.3945711"><ele>38.0</ele><time>2026-04-20T13:23:30.275Z</time></trkpt><trkpt lat="44.8289667" lon="10.3946671"><ele>38.0</ele><time>2026-04-20T13:23:32.275Z</time></trkpt><trkpt lat="44.8290493" lon="10.3947609"><ele>38.0</ele><time>2026-04-20T13:23:35.276Z</time></trkpt><trkpt lat="44.8291281" lon="10.3947691"><ele>38.0</ele><time>2026-04-20T13:23:37.276Z</time></trkpt><trkpt lat="44.8292153" lon="10.3947988"><ele>38.0</ele><time>2026-04-20T13:23:39.275Z</time></trkpt><trkpt lat="44.8292997" lon="10.3948307"><ele>38.0</ele><time>2026-04-20T13:23:41.275Z</time></trkpt><trkpt lat="44.8293816" lon="10.3948711"><ele>38.0</ele><time>2026-04-20T13:23:43.275Z</time></trkpt><trkpt lat="44.8294743" lon="10.3949205"><ele>38.0</ele><time>2026-04-20T13:23:45.275Z</time></trkpt><trkpt lat="44.8296041" lon="10.3950122"><ele>38.0</ele><time>2026-04-20T13:23:48.275Z</time></trkpt><trkpt lat="44.8296962" lon="10.3950535"><ele>38.0</ele><time>2026-04-20T13:23:50.275Z</time></trkpt><trkpt lat="44.829782" lon="10.3951002"><ele>38.0</ele><time>2026-04-20T13:23:52.275Z</time></trkpt><trkpt lat="44.8298721" lon="10.3951093"><ele>38.0</ele><time>2026-04-20T13:23:55.275Z</time></trkpt><trkpt lat="44.829945" lon="10.3950038"><ele>38.0</ele><time>2026-04-20T13:23:58.276Z</time></trkpt><trkpt lat="44.8299613" lon="10.3948785"><ele>38.0</ele><time>2026-04-20T13:24:00.275Z</time></trkpt><trkpt lat="44.8300068" lon="10.3947538"><ele>38.0</ele><time>2026-04-20T13:24:02.276Z</time></trkpt><trkpt lat="44.8300445" lon="10.3946163"><ele>38.0</ele><time>2026-04-20T13:24:04.275Z</time></trkpt><trkpt lat="44.8300753" lon="10.3944674"><ele>38.0</ele><time>2026-04-20T13:24:06.275Z</time></trkpt><trkpt lat="44.8300999" lon="10.3943778"><ele>38.0</ele><time>2026-04-20T13:24:07.276Z</time></trkpt><trkpt lat="44.8301201" lon="10.3942653"><ele>38.0</ele><time>2026-04-20T13:24:09.275Z</time></trkpt><trkpt lat="44.8301508" lon="10.3941814"><ele>38.0</ele><time>2026-04-20T13:24:11.275Z</time></trkpt><trkpt lat="44.830199" lon="10.394019"><ele>38.0</ele><time>2026-04-20T13:24:13.276Z</time></trkpt><trkpt lat="44.8302224" lon="10.3938617"><ele>38.0</ele><time>2026-04-20T13:24:15.276Z</time></trkpt><trkpt lat="44.830271" lon="10.3937065"><ele>38.0</ele><time>2026-04-20T13:24:17.276Z</time></trkpt><trkpt lat="44.8303399" lon="10.3935364"><ele>38.0</ele><time>2026-04-20T13:24:19.276Z</time></trkpt><trkpt lat="44.8303669" lon="10.3934558"><ele>38.0</ele><time>2026-04-20T13:24:20.275Z</time></trkpt><trkpt lat="44.8303861" lon="10.393338"><ele>37.57142857142857</ele><time>2026-04-20T13:24:22.276Z</time></trkpt><trkpt lat="44.8303681" lon="10.3932346"><ele>37.142857142857146</ele><time>2026-04-20T13:24:23.275Z</time></trkpt><trkpt lat="44.8303729" lon="10.3931271"><ele>36.714285714285715</ele><time>2026-04-20T13:24:25.276Z</time></trkpt><trkpt lat="44.830427" lon="10.3930639"><ele>36.285714285714285</ele><time>2026-04-20T13:24:27.276Z</time></trkpt><trkpt lat="44.830499" lon="10.3930689"><ele>35.85714285714286</ele><time>2026-04-20T13:24:29.276Z</time></trkpt><trkpt lat="44.830567" lon="10.3931065"><ele>35.42857142857143</ele><time>2026-04-20T13:24:31.276Z</time></trkpt><trkpt lat="44.8306415" lon="10.393139"><ele>35.0</ele><time>2026-04-20T13:24:33.275Z</time></trkpt><trkpt lat="44.8307197" lon="10.3931688"><ele>35.0</ele><time>2026-04-20T13:24:35.276Z</time></trkpt><trkpt lat="44.8307937" lon="10.3931866"><ele>35.0</ele><time>2026-04-20T13:24:37.276Z</time></trkpt><trkpt lat="44.83087" lon="10.39326"><ele>35.0</ele><time>2026-04-20T13:24:39.276Z</time></trkpt><trkpt lat="44.830955" lon="10.3932862"><ele>35.0</ele><time>2026-04-20T13:24:41.276Z</time></trkpt><trkpt lat="44.8310201" lon="10.393353"><ele>35.0</ele><time>2026-04-20T13:24:43.275Z</time></trkpt><trkpt lat="44.8310877" lon="10.393376"><ele>35.0</ele><time>2026-04-20T13:24:44.275Z</time></trkpt><trkpt lat="44.8311479" lon="10.3934044"><ele>35.4</ele><time>2026-04-20T13:24:45.275Z</time></trkpt><trkpt lat="44.8312558" lon="10.3934454"><ele>35.8</ele><time>2026-04-20T13:24:47.275Z</time></trkpt><trkpt lat="44.8313428" lon="10.3934814"><ele>36.2</ele><time>2026-04-20T13:24:49.275Z</time></trkpt><trkpt lat="44.8314449" lon="10.3935219"><ele>36.6</ele><time>2026-04-20T13:24:51.276Z</time></trkpt><trkpt lat="44.8315337" lon="10.393561"><ele>37.0</ele><time>2026-04-20T13:24:53.275Z</time></trkpt><trkpt lat="44.8316113" lon="10.3935914"><ele>37.0</ele><time>2026-04-20T13:24:55.275Z</time></trkpt><trkpt lat="44.8316726" lon="10.3936257"><ele>37.0</ele><time>2026-04-20T13:24:57.275Z</time></trkpt><trkpt lat="44.8317385" lon="10.3936881"><ele>37.0</ele><time>2026-04-20T13:25:00.275Z</time></trkpt><trkpt lat="44.831718" lon="10.3937753"><ele>37.0</ele><time>2026-04-20T13:25:04.276Z</time></trkpt><trkpt lat="44.8316853" lon="10.3938764"><ele>37.0</ele><time>2026-04-20T13:25:06.275Z</time></trkpt><trkpt lat="44.8316582" lon="10.3939834"><ele>37.0</ele><time>2026-04-20T13:25:08.275Z</time></trkpt><trkpt lat="44.8316334" lon="10.3940789"><ele>37.0</ele><time>2026-04-20T13:25:10.275Z</time></trkpt><trkpt lat="44.8316133" lon="10.3942136"><ele>36.833333333333336</ele><time>2026-04-20T13:25:12.275Z</time></trkpt><trkpt lat="44.8315914" lon="10.3943123"><ele>36.66666666666667</ele><time>2026-04-20T13:25:14.275Z</time></trkpt><trkpt lat="44.8315692" lon="10.3944084"><ele>36.5</ele><time>2026-04-20T13:25:16.275Z</time></trkpt><trkpt lat="44.8315455" lon="10.3944927"><ele>36.333333333333336</ele><time>2026-04-20T13:25:18.275Z</time></trkpt><trkpt lat="44.8315214" lon="10.3945892"><ele>36.166666666666664</ele><time>2026-04-20T13:25:20.275Z</time></trkpt><trkpt lat="44.8314971" lon="10.3947026"><ele>36.0</ele><time>2026-04-20T13:25:22.276Z</time></trkpt><trkpt lat="44.8314692" lon="10.3948177"><ele>35.666666666666664</ele><time>2026-04-20T13:25:24.275Z</time></trkpt><trkpt lat="44.8314402" lon="10.3949302"><ele>35.333333333333336</ele><time>2026-04-20T13:25:26.275Z</time></trkpt><trkpt lat="44.83141" lon="10.3950541"><ele>35.0</ele><time>2026-04-20T13:25:28.276Z</time></trkpt><trkpt lat="44.8313848" lon="10.3951534"><ele>34.66666666666667</ele><time>2026-04-20T13:25:30.275Z</time></trkpt><trkpt lat="44.8313734" lon="10.395246"><ele>34.333333333333336</ele><time>2026-04-20T13:25:32.276Z</time></trkpt><trkpt lat="44.8313367" lon="10.3953737"><ele>34.0</ele><time>2026-04-20T13:25:35.275Z</time></trkpt><trkpt lat="44.8313181" lon="10.3954756"><ele>34.16666666666667</ele><time>2026-04-20T13:25:37.275Z</time></trkpt><trkpt lat="44.8312932" lon="10.3955638"><ele>34.333333333333336</ele><time>2026-04-20T13:25:39.275Z</time></trkpt><trkpt lat="44.8313007" lon="10.3956639"><ele>34.5</ele><time>2026-04-20T13:25:43.276Z</time></trkpt><trkpt lat="44.8313034" lon="10.3957572"><ele>34.666666666666664</ele><time>2026-04-20T13:25:46.276Z</time></trkpt><trkpt lat="44.831358" lon="10.3958565"><ele>34.83333333333333</ele><time>2026-04-20T13:25:49.276Z</time></trkpt><trkpt lat="44.8314364" lon="10.3958919"><ele>35.0</ele><time>2026-04-20T13:25:51.276Z</time></trkpt><trkpt lat="44.8315378" lon="10.3959243"><ele>35.0</ele><time>2026-04-20T13:25:53.276Z</time></trkpt><trkpt lat="44.8316453" lon="10.3959837"><ele>35.0</ele><time>2026-04-20T13:25:55.276Z</time></trkpt><trkpt lat="44.8317508" lon="10.3960101"><ele>35.0</ele><time>2026-04-20T13:25:57.275Z</time></trkpt><trkpt lat="44.8318423" lon="10.3960745"><ele>35.0</ele><time>2026-04-20T13:25:59.275Z</time></trkpt><trkpt lat="44.8319644" lon="10.3961099"><ele>35.0</ele><time>2026-04-20T13:26:01.276Z</time></trkpt><trkpt lat="44.8320757" lon="10.396151"><ele>35.0</ele><time>2026-04-20T13:26:03.276Z</time></trkpt><trkpt lat="44.8321713" lon="10.3961818"><ele>35.0</ele><time>2026-04-20T13:26:05.275Z</time></trkpt><trkpt lat="44.8322589" lon="10.3961872"><ele>35.0</ele><time>2026-04-20T13:26:07.275Z</time></trkpt><trkpt lat="44.8323278" lon="10.3962383"><ele>35.0</ele><time>2026-04-20T13:26:09.276Z</time></trkpt><trkpt lat="44.8324121" lon="10.3963486"><ele>35.33333333333333</ele><time>2026-04-20T13:26:11.276Z</time></trkpt><trkpt lat="44.8324922" lon="10.3963996"><ele>35.666666666666664</ele><time>2026-04-20T13:26:14.276Z</time></trkpt><trkpt lat="44.8325613" lon="10.3964604"><ele>36.0</ele><time>2026-04-20T13:26:17.275Z</time></trkpt><trkpt lat="44.8326449" lon="10.3965239"><ele>36.333333333333336</ele><time>2026-04-20T13:26:20.275Z</time></trkpt><trkpt lat="44.8327073" lon="10.396508"><ele>36.66666666666667</ele><time>2026-04-20T13:26:22.276Z</time></trkpt><trkpt lat="44.8327847" lon="10.3965354"><ele>37.0</ele><time>2026-04-20T13:26:24.275Z</time></trkpt><trkpt lat="44.8328686" lon="10.3965892"><ele>37.0</ele><time>2026-04-20T13:26:26.275Z</time></trkpt><trkpt lat="44.8329396" lon="10.3966365"><ele>37.0</ele><time>2026-04-20T13:26:27.275Z</time></trkpt><trkpt lat="44.8330507" lon="10.3966644"><ele>37.0</ele><time>2026-04-20T13:26:29.275Z</time></trkpt><trkpt lat="44.8331143" lon="10.3966841"><ele>37.0</ele><time>2026-04-20T13:26:30.276Z</time></trkpt><trkpt lat="44.8332291" lon="10.3967305"><ele>37.0</ele><time>2026-04-20T13:26:32.275Z</time></trkpt><trkpt lat="44.8333479" lon="10.396765"><ele>37.0</ele><time>2026-04-20T13:26:34.276Z</time></trkpt><trkpt lat="44.8334676" lon="10.3967952"><ele>37.0</ele><time>2026-04-20T13:26:36.275Z</time></trkpt><trkpt lat="44.8335337" lon="10.3968116"><ele>37.0</ele><time>2026-04-20T13:26:37.276Z</time></trkpt><trkpt lat="44.8335947" lon="10.3968461"><ele>37.0</ele><time>2026-04-20T13:26:38.275Z</time></trkpt><trkpt lat="44.8337081" lon="10.3968946"><ele>37.0</ele><time>2026-04-20T13:26:40.275Z</time></trkpt><trkpt lat="44.8338169" lon="10.3969559"><ele>37.0</ele><time>2026-04-20T13:26:42.275Z</time></trkpt><trkpt lat="44.8339369" lon="10.3970042"><ele>37.0</ele><time>2026-04-20T13:26:44.276Z</time></trkpt><trkpt lat="44.8340438" lon="10.3970659"><ele>37.0</ele><time>2026-04-20T13:26:46.275Z</time></trkpt><trkpt lat="44.8341428" lon="10.39713"><ele>37.0</ele><time>2026-04-20T13:26:48.276Z</time></trkpt><trkpt lat="44.8342576" lon="10.397184"><ele>36.4</ele><time>2026-04-20T13:26:50.275Z</time></trkpt><trkpt lat="44.8343611" lon="10.3972559"><ele>35.800000000000004</ele><time>2026-04-20T13:26:52.275Z</time></trkpt><trkpt lat="44.8344262" lon="10.3972897"><ele>35.2</ele><time>2026-04-20T13:26:53.276Z</time></trkpt><trkpt lat="44.8345449" lon="10.3973407"><ele>34.6</ele><time>2026-04-20T13:26:55.276Z</time></trkpt><trkpt lat="44.8346529" lon="10.3974066"><ele>34.0</ele><time>2026-04-20T13:26:57.275Z</time></trkpt><trkpt lat="44.8347911" lon="10.3974472"><ele>34.0</ele><time>2026-04-20T13:26:59.276Z</time></trkpt><trkpt lat="44.8348821" lon="10.3974665"><ele>34.0</ele><time>2026-04-20T13:27:01.276Z</time></trkpt><trkpt lat="44.8349548" lon="10.3974921"><ele>34.0</ele><time>2026-04-20T13:27:02.276Z</time></trkpt><trkpt lat="44.8350018" lon="10.397555"><ele>34.0</ele><time>2026-04-20T13:27:03.275Z</time></trkpt><trkpt lat="44.8350971" lon="10.3976052"><ele>34.0</ele><time>2026-04-20T13:27:05.275Z</time></trkpt><trkpt lat="44.8351871" lon="10.3976322"><ele>34.0</ele><time>2026-04-20T13:27:07.275Z</time></trkpt><trkpt lat="44.8352652" lon="10.3976952"><ele>34.0</ele><time>2026-04-20T13:27:09.275Z</time></trkpt><trkpt lat="44.8353285" lon="10.397735"><ele>34.0</ele><time>2026-04-20T13:27:10.276Z</time></trkpt><trkpt lat="44.8354285" lon="10.39776"><ele>34.0</ele><time>2026-04-20T13:27:12.276Z</time></trkpt><trkpt lat="44.8354902" lon="10.3977876"><ele>34.0</ele><time>2026-04-20T13:27:13.276Z</time></trkpt><trkpt lat="44.8355528" lon="10.39782"><ele>34.0</ele><time>2026-04-20T13:27:14.275Z</time></trkpt><trkpt lat="44.8356559" lon="10.3978962"><ele>34.0</ele><time>2026-04-20T13:27:16.276Z</time></trkpt><trkpt lat="44.8357604" lon="10.3980035"><ele>34.0</ele><time>2026-04-20T13:27:18.276Z</time></trkpt><trkpt lat="44.835825" lon="10.3980306"><ele>34.0</ele><time>2026-04-20T13:27:19.276Z</time></trkpt><trkpt lat="44.8358751" lon="10.3981191"><ele>34.0</ele><time>2026-04-20T13:27:20.275Z</time></trkpt><trkpt lat="44.8359198" lon="10.3981858"><ele>34.0</ele><time>2026-04-20T13:27:21.275Z</time></trkpt><trkpt lat="44.835994" lon="10.3983035"><ele>34.0</ele><time>2026-04-20T13:27:23.276Z</time></trkpt><trkpt lat="44.8360727" lon="10.3983904"><ele>34.0</ele><time>2026-04-20T13:27:25.275Z</time></trkpt><trkpt lat="44.8361392" lon="10.3984545"><ele>33.8</ele><time>2026-04-20T13:27:26.275Z</time></trkpt><trkpt lat="44.8362004" lon="10.3985344"><ele>33.599999999999994</ele><time>2026-04-20T13:27:27.275Z</time></trkpt><trkpt lat="44.8362491" lon="10.3985998"><ele>33.4</ele><time>2026-04-20T13:27:28.276Z</time></trkpt><trkpt lat="44.8362904" lon="10.3986972"><ele>33.199999999999996</ele><time>2026-04-20T13:27:29.276Z</time></trkpt><trkpt lat="44.8363514" lon="10.3988046"><ele>33.0</ele><time>2026-04-20T13:27:31.276Z</time></trkpt><trkpt lat="44.8364418" lon="10.3989276"><ele>33.0</ele><time>2026-04-20T13:27:33.275Z</time></trkpt><trkpt lat="44.8365058" lon="10.3990355"><ele>33.0</ele><time>2026-04-20T13:27:35.276Z</time></trkpt><trkpt lat="44.8365915" lon="10.399159"><ele>33.0</ele><time>2026-04-20T13:27:37.276Z</time></trkpt><trkpt lat="44.8366807" lon="10.3992863"><ele>33.0</ele><time>2026-04-20T13:27:39.276Z</time></trkpt><trkpt lat="44.8367707" lon="10.3994102"><ele>32.8</ele><time>2026-04-20T13:27:41.276Z</time></trkpt><trkpt lat="44.8368602" lon="10.3995324"><ele>32.599999999999994</ele><time>2026-04-20T13:27:43.276Z</time></trkpt><trkpt lat="44.8369054" lon="10.3995944"><ele>32.400000000000006</ele><time>2026-04-20T13:27:44.275Z</time></trkpt><trkpt lat="44.8369952" lon="10.3997105"><ele>32.2</ele><time>2026-04-20T13:27:46.275Z</time></trkpt><trkpt lat="44.8370447" lon="10.3997734"><ele>32.0</ele><time>2026-04-20T13:27:47.276Z</time></trkpt><trkpt lat="44.8371339" lon="10.3998923"><ele>32.4</ele><time>2026-04-20T13:27:49.276Z</time></trkpt><trkpt lat="44.8371803" lon="10.3999542"><ele>32.800000000000004</ele><time>2026-04-20T13:27:50.275Z</time></trkpt><trkpt lat="44.8372738" lon="10.4000756"><ele>33.2</ele><time>2026-04-20T13:27:52.275Z</time></trkpt><trkpt lat="44.8373666" lon="10.4001806"><ele>33.6</ele><time>2026-04-20T13:27:54.276Z</time></trkpt><trkpt lat="44.8374125" lon="10.4002424"><ele>34.0</ele><time>2026-04-20T13:27:55.276Z</time></trkpt><trkpt lat="44.8375032" lon="10.4003575"><ele>34.0</ele><time>2026-04-20T13:27:57.276Z</time></trkpt><trkpt lat="44.83757" lon="10.4004504"><ele>34.0</ele><time>2026-04-20T13:27:59.275Z</time></trkpt><trkpt lat="44.8376483" lon="10.4005655"><ele>34.0</ele><time>2026-04-20T13:28:01.276Z</time></trkpt><trkpt lat="44.8377068" lon="10.4006305"><ele>34.0</ele><time>2026-04-20T13:28:02.276Z</time></trkpt><trkpt lat="44.8378037" lon="10.4007854"><ele>34.0</ele><time>2026-04-20T13:28:04.275Z</time></trkpt><trkpt lat="44.8378941" lon="10.4008773"><ele>34.0</ele><time>2026-04-20T13:28:06.276Z</time></trkpt><trkpt lat="44.8379585" lon="10.4009389"><ele>34.0</ele><time>2026-04-20T13:28:07.276Z</time></trkpt><trkpt lat="44.8380443" lon="10.4010239"><ele>34.0</ele><time>2026-04-20T13:28:09.276Z</time></trkpt><trkpt lat="44.8380909" lon="10.4010949"><ele>34.0</ele><time>2026-04-20T13:28:10.275Z</time></trkpt><trkpt lat="44.8381362" lon="10.4011612"><ele>34.0</ele><time>2026-04-20T13:28:11.275Z</time></trkpt><trkpt lat="44.8381821" lon="10.4012352"><ele>34.0</ele><time>2026-04-20T13:28:12.275Z</time></trkpt><trkpt lat="44.8382769" lon="10.4013582"><ele>34.0</ele><time>2026-04-20T13:28:14.276Z</time></trkpt><trkpt lat="44.8383282" lon="10.4014722"><ele>34.0</ele><time>2026-04-20T13:28:16.276Z</time></trkpt><trkpt lat="44.8384245" lon="10.4015663"><ele>34.0</ele><time>2026-04-20T13:28:18.275Z</time></trkpt><trkpt lat="44.8385457" lon="10.4017139"><ele>34.0</ele><time>2026-04-20T13:28:20.275Z</time></trkpt><trkpt lat="44.8386254" lon="10.4018442"><ele>33.5</ele><time>2026-04-20T13:28:22.276Z</time></trkpt><trkpt lat="44.8387054" lon="10.4019552"><ele>33.0</ele><time>2026-04-20T13:28:24.275Z</time></trkpt><trkpt lat="44.8388318" lon="10.4021306"><ele>32.5</ele><time>2026-04-20T13:28:27.275Z</time></trkpt><trkpt lat="44.8389204" lon="10.402246"><ele>32.0</ele><time>2026-04-20T13:28:29.275Z</time></trkpt><trkpt lat="44.8389663" lon="10.4023268"><ele>32.0</ele><time>2026-04-20T13:28:30.276Z</time></trkpt><trkpt lat="44.8390522" lon="10.4024392"><ele>32.0</ele><time>2026-04-20T13:28:32.276Z</time></trkpt><trkpt lat="44.8390941" lon="10.402508"><ele>32.0</ele><time>2026-04-20T13:28:33.276Z</time></trkpt><trkpt lat="44.8391724" lon="10.4026279"><ele>32.0</ele><time>2026-04-20T13:28:35.275Z</time></trkpt><trkpt lat="44.8392593" lon="10.4027379"><ele>32.0</ele><time>2026-04-20T13:28:37.275Z</time></trkpt><trkpt lat="44.8393443" lon="10.4028582"><ele>31.333333333333332</ele><time>2026-04-20T13:28:39.276Z</time></trkpt><trkpt lat="44.8394325" lon="10.4029776"><ele>30.666666666666664</ele><time>2026-04-20T13:28:41.275Z</time></trkpt><trkpt lat="44.8394803" lon="10.4030475"><ele>30.0</ele><time>2026-04-20T13:28:42.275Z</time></trkpt><trkpt lat="44.8395252" lon="10.4031124"><ele>29.333333333333336</ele><time>2026-04-20T13:28:43.276Z</time></trkpt><trkpt lat="44.8396218" lon="10.4031677"><ele>28.666666666666668</ele><time>2026-04-20T13:28:45.276Z</time></trkpt><trkpt lat="44.8396641" lon="10.4032513"><ele>28.0</ele><time>2026-04-20T13:28:46.275Z</time></trkpt><trkpt lat="44.8397629" lon="10.4033192"><ele>28.0</ele><time>2026-04-20T13:28:48.275Z</time></trkpt><trkpt lat="44.8398184" lon="10.4033638"><ele>27.999999999999996</ele><time>2026-04-20T13:28:49.276Z</time></trkpt><trkpt lat="44.8398993" lon="10.4035056"><ele>27.999999999999996</ele><time>2026-04-20T13:28:51.275Z</time></trkpt><trkpt lat="44.8399759" lon="10.4036133"><ele>28.0</ele><time>2026-04-20T13:28:53.275Z</time></trkpt><trkpt lat="44.8400303" lon="10.4037244"><ele>28.0</ele><time>2026-04-20T13:28:55.276Z</time></trkpt><trkpt lat="44.84011" lon="10.4038422"><ele>28.599999999999998</ele><time>2026-04-20T13:28:57.275Z</time></trkpt><trkpt lat="44.840163" lon="10.4039213"><ele>29.199999999999996</ele><time>2026-04-20T13:28:58.275Z</time></trkpt><trkpt lat="44.8402504" lon="10.4040307"><ele>29.8</ele><time>2026-04-20T13:29:00.275Z</time></trkpt><trkpt lat="44.8403114" lon="10.4041663"><ele>30.4</ele><time>2026-04-20T13:29:02.276Z</time></trkpt><trkpt lat="44.8403595" lon="10.4042245"><ele>31.0</ele><time>2026-04-20T13:29:03.275Z</time></trkpt><trkpt lat="44.8404419" lon="10.4043161"><ele>31.0</ele><time>2026-04-20T13:29:05.275Z</time></trkpt><trkpt lat="44.8405188" lon="10.4044485"><ele>31.0</ele><time>2026-04-20T13:29:07.275Z</time></trkpt><trkpt lat="44.8405926" lon="10.4044845"><ele>31.0</ele><time>2026-04-20T13:29:09.275Z</time></trkpt><trkpt lat="44.8406808" lon="10.4046058"><ele>31.0</ele><time>2026-04-20T13:29:11.275Z</time></trkpt><trkpt lat="44.8407534" lon="10.4047589"><ele>31.200000000000003</ele><time>2026-04-20T13:29:13.276Z</time></trkpt><trkpt lat="44.8408362" lon="10.4048763"><ele>31.400000000000002</ele><time>2026-04-20T13:29:15.276Z</time></trkpt><trkpt lat="44.8409183" lon="10.4049678"><ele>31.6</ele><time>2026-04-20T13:29:17.275Z</time></trkpt><trkpt lat="44.8409736" lon="10.4050962"><ele>31.8</ele><time>2026-04-20T13:29:18.276Z</time></trkpt><trkpt lat="44.8410447" lon="10.4051906"><ele>32.0</ele><time>2026-04-20T13:29:20.276Z</time></trkpt><trkpt lat="44.8411209" lon="10.4052717"><ele>32.0</ele><time>2026-04-20T13:29:22.275Z</time></trkpt><trkpt lat="44.8413024" lon="10.405491"><ele>32.0</ele><time>2026-04-20T13:29:32.275Z</time></trkpt><trkpt lat="44.8413632" lon="10.4055941"><ele>32.0</ele><time>2026-04-20T13:29:34.276Z</time></trkpt><trkpt lat="44.8414443" lon="10.4056217"><ele>32.0</ele><time>2026-04-20T13:29:36.276Z</time></trkpt><trkpt lat="44.841536" lon="10.4057311"><ele>31.999999999999996</ele><time>2026-04-20T13:29:38.276Z</time></trkpt><trkpt lat="44.8416082" lon="10.4058171"><ele>32.0</ele><time>2026-04-20T13:29:39.276Z</time></trkpt><trkpt lat="44.8416579" lon="10.4058851"><ele>32.0</ele><time>2026-04-20T13:29:40.275Z</time></trkpt><trkpt lat="44.8417461" lon="10.406009"><ele>32.0</ele><time>2026-04-20T13:29:42.276Z</time></trkpt><trkpt lat="44.8417926" lon="10.4060703"><ele>31.999999999999996</ele><time>2026-04-20T13:29:43.276Z</time></trkpt><trkpt lat="44.8418466" lon="10.4061421"><ele>32.0</ele><time>2026-04-20T13:29:44.275Z</time></trkpt><trkpt lat="44.8418973" lon="10.4062"><ele>32.0</ele><time>2026-04-20T13:29:45.276Z</time></trkpt><trkpt lat="44.8419456" lon="10.4063142"><ele>32.0</ele><time>2026-04-20T13:29:46.275Z</time></trkpt><trkpt lat="44.8419934" lon="10.4063791"><ele>32.0</ele><time>2026-04-20T13:29:47.275Z</time></trkpt><trkpt lat="44.8420486" lon="10.4064818"><ele>32.0</ele><time>2026-04-20T13:29:48.275Z</time></trkpt><trkpt lat="44.8421841" lon="10.4066543"><ele>32.0</ele><time>2026-04-20T13:29:51.275Z</time></trkpt><trkpt lat="44.8422308" lon="10.4067204"><ele>31.999999999999996</ele><time>2026-04-20T13:29:52.276Z</time></trkpt><trkpt lat="44.8422809" lon="10.4067822"><ele>32.0</ele><time>2026-04-20T13:29:53.275Z</time></trkpt><trkpt lat="44.8423293" lon="10.406843"><ele>32.0</ele><time>2026-04-20T13:29:54.276Z</time></trkpt><trkpt lat="44.84241" lon="10.4069695"><ele>32.0</ele><time>2026-04-20T13:29:56.276Z</time></trkpt><trkpt lat="44.8424655" lon="10.4070271"><ele>31.999999999999996</ele><time>2026-04-20T13:29:57.276Z</time></trkpt><trkpt lat="44.8425251" lon="10.4070971"><ele>32.0</ele><time>2026-04-20T13:29:58.275Z</time></trkpt><trkpt lat="44.8425662" lon="10.4071854"><ele>32.0</ele><time>2026-04-20T13:29:59.275Z</time></trkpt><trkpt lat="44.8426141" lon="10.4072621"><ele>31.999999999999996</ele><time>2026-04-20T13:30:00.276Z</time></trkpt><trkpt lat="44.8426599" lon="10.407324"><ele>32.0</ele><time>2026-04-20T13:30:01.276Z</time></trkpt><trkpt lat="44.8427089" lon="10.4073938"><ele>32.0</ele><time>2026-04-20T13:30:02.276Z</time></trkpt><trkpt lat="44.8427563" lon="10.4074619"><ele>31.999999999999996</ele><time>2026-04-20T13:30:03.276Z</time></trkpt><trkpt lat="44.8428058" lon="10.407535"><ele>32.0</ele><time>2026-04-20T13:30:04.275Z</time></trkpt><trkpt lat="44.8428515" lon="10.4076005"><ele>32.0</ele><time>2026-04-20T13:30:05.275Z</time></trkpt><trkpt lat="44.8428943" lon="10.4076667"><ele>31.999999999999996</ele><time>2026-04-20T13:30:06.275Z</time></trkpt><trkpt lat="44.842947" lon="10.4077283"><ele>32.0</ele><time>2026-04-20T13:30:07.275Z</time></trkpt><trkpt lat="44.843033" lon="10.4078577"><ele>32.0</ele><time>2026-04-20T13:30:09.275Z</time></trkpt><trkpt lat="44.8430801" lon="10.4079344"><ele>32.0</ele><time>2026-04-20T13:30:10.275Z</time></trkpt><trkpt lat="44.8431276" lon="10.4079977"><ele>31.999999999999996</ele><time>2026-04-20T13:30:11.276Z</time></trkpt><trkpt lat="44.8431774" lon="10.4080837"><ele>32.0</ele><time>2026-04-20T13:30:12.275Z</time></trkpt><trkpt lat="44.8432694" lon="10.4081992"><ele>32.0</ele><time>2026-04-20T13:30:14.275Z</time></trkpt><trkpt lat="44.8433492" lon="10.4083182"><ele>32.0</ele><time>2026-04-20T13:30:16.276Z</time></trkpt><trkpt lat="44.8433983" lon="10.4083931"><ele>32.0</ele><time>2026-04-20T13:30:17.276Z</time></trkpt><trkpt lat="44.8434772" lon="10.4085262"><ele>32.0</ele><time>2026-04-20T13:30:19.276Z</time></trkpt><trkpt lat="44.8435646" lon="10.4086124"><ele>32.0</ele><time>2026-04-20T13:30:21.275Z</time></trkpt><trkpt lat="44.8436407" lon="10.4087207"><ele>32.166666666666664</ele><time>2026-04-20T13:30:23.275Z</time></trkpt><trkpt lat="44.8436981" lon="10.4087814"><ele>32.33333333333333</ele><time>2026-04-20T13:30:24.276Z</time></trkpt><trkpt lat="44.8437495" lon="10.4088418"><ele>32.5</ele><time>2026-04-20T13:30:25.275Z</time></trkpt><trkpt lat="44.8438627" lon="10.4089539"><ele>32.666666666666664</ele><time>2026-04-20T13:30:27.275Z</time></trkpt><trkpt lat="44.8439142" lon="10.4090227"><ele>32.833333333333336</ele><time>2026-04-20T13:30:28.275Z</time></trkpt><trkpt lat="44.8439605" lon="10.4090867"><ele>33.0</ele><time>2026-04-20T13:30:29.276Z</time></trkpt><trkpt lat="44.8440102" lon="10.4091555"><ele>33.0</ele><time>2026-04-20T13:30:30.276Z</time></trkpt><trkpt lat="44.8440626" lon="10.4092211"><ele>33.0</ele><time>2026-04-20T13:30:31.275Z</time></trkpt><trkpt lat="44.8441078" lon="10.4092855"><ele>33.0</ele><time>2026-04-20T13:30:32.276Z</time></trkpt><trkpt lat="44.8441552" lon="10.4093715"><ele>33.0</ele><time>2026-04-20T13:30:33.275Z</time></trkpt><trkpt lat="44.8442021" lon="10.409431"><ele>33.0</ele><time>2026-04-20T13:30:34.276Z</time></trkpt><trkpt lat="44.8442494" lon="10.409497"><ele>33.0</ele><time>2026-04-20T13:30:35.275Z</time></trkpt><trkpt lat="44.8442972" lon="10.4095628"><ele>33.0</ele><time>2026-04-20T13:30:36.276Z</time></trkpt><trkpt lat="44.8443429" lon="10.40963"><ele>33.0</ele><time>2026-04-20T13:30:37.275Z</time></trkpt><trkpt lat="44.8444331" lon="10.4097565"><ele>33.0</ele><time>2026-04-20T13:30:39.276Z</time></trkpt><trkpt lat="44.8445279" lon="10.4098823"><ele>33.0</ele><time>2026-04-20T13:30:41.276Z</time></trkpt><trkpt lat="44.8445742" lon="10.4099435"><ele>33.0</ele><time>2026-04-20T13:30:42.275Z</time></trkpt><trkpt lat="44.8446604" lon="10.4100575"><ele>33.0</ele><time>2026-04-20T13:30:44.276Z</time></trkpt><trkpt lat="44.844703" lon="10.4101234"><ele>33.0</ele><time>2026-04-20T13:30:45.275Z</time></trkpt><trkpt lat="44.8447885" lon="10.4102028"><ele>33.0</ele><time>2026-04-20T13:30:47.276Z</time></trkpt><trkpt lat="44.8448806" lon="10.4102774"><ele>33.0</ele><time>2026-04-20T13:30:49.275Z</time></trkpt><trkpt lat="44.844968" lon="10.4103516"><ele>33.0</ele><time>2026-04-20T13:30:51.276Z</time></trkpt><trkpt lat="44.8450192" lon="10.4104065"><ele>33.0</ele><time>2026-04-20T13:30:53.276Z</time></trkpt><trkpt lat="44.8449833" lon="10.4104813"><ele>33.0</ele><time>2026-04-20T13:31:01.275Z</time></trkpt><trkpt lat="44.8448914" lon="10.4104556"><ele>32.5</ele><time>2026-04-20T13:31:04.275Z</time></trkpt><trkpt lat="44.8448296" lon="10.4105269"><ele>32.0</ele><time>2026-04-20T13:31:07.276Z</time></trkpt><trkpt lat="44.8448286" lon="10.410639"><ele>31.5</ele><time>2026-04-20T13:31:09.276Z</time></trkpt><trkpt lat="44.8448258" lon="10.4107743"><ele>31.0</ele><time>2026-04-20T13:31:11.275Z</time></trkpt><trkpt lat="44.8448264" lon="10.4108955"><ele>30.5</ele><time>2026-04-20T13:31:13.275Z</time></trkpt><trkpt lat="44.8448184" lon="10.4110215"><ele>30.0</ele><time>2026-04-20T13:31:15.275Z</time></trkpt><trkpt lat="44.8448315" lon="10.4111828"><ele>30.0</ele><time>2026-04-20T13:31:17.275Z</time></trkpt><trkpt lat="44.8448523" lon="10.4113235"><ele>30.0</ele><time>2026-04-20T13:31:19.275Z</time></trkpt><trkpt lat="44.8448469" lon="10.4114633"><ele>30.0</ele><time>2026-04-20T13:31:21.276Z</time></trkpt><trkpt lat="44.8448363" lon="10.4115871"><ele>30.0</ele><time>2026-04-20T13:31:22.276Z</time></trkpt><trkpt lat="44.8448222" lon="10.4117093"><ele>30.0</ele><time>2026-04-20T13:31:23.275Z</time></trkpt><trkpt lat="44.8448129" lon="10.411813"><ele>30.0</ele><time>2026-04-20T13:31:24.275Z</time></trkpt><trkpt lat="44.8448079" lon="10.411908"><ele>30.0</ele><time>2026-04-20T13:31:25.275Z</time></trkpt><trkpt lat="44.8448159" lon="10.412008"><ele>30.0</ele><time>2026-04-20T13:31:26.276Z</time></trkpt><trkpt lat="44.8448142" lon="10.4121007"><ele>30.0</ele><time>2026-04-20T13:31:27.276Z</time></trkpt><trkpt lat="44.8448022" lon="10.4122648"><ele>30.0</ele><time>2026-04-20T13:31:29.276Z</time></trkpt><trkpt lat="44.8447873" lon="10.412395"><ele>30.0</ele><time>2026-04-20T13:31:30.275Z</time></trkpt><trkpt lat="44.8448014" lon="10.4125702"><ele>30.0</ele><time>2026-04-20T13:31:32.275Z</time></trkpt><trkpt lat="44.844798" lon="10.4126649"><ele>30.0</ele><time>2026-04-20T13:31:33.276Z</time></trkpt><trkpt lat="44.8447799" lon="10.4127523"><ele>30.0</ele><time>2026-04-20T13:31:34.276Z</time></trkpt><trkpt lat="44.8447629" lon="10.4128387"><ele>30.0</ele><time>2026-04-20T13:31:35.275Z</time></trkpt><trkpt lat="44.8447513" lon="10.4130654"><ele>30.0</ele><time>2026-04-20T13:31:37.275Z</time></trkpt><trkpt lat="44.8447276" lon="10.4132179"><ele>29.833333333333332</ele><time>2026-04-20T13:31:39.275Z</time></trkpt><trkpt lat="44.8447573" lon="10.4133533"><ele>29.666666666666664</ele><time>2026-04-20T13:31:41.276Z</time></trkpt><trkpt lat="44.8447443" lon="10.4134689"><ele>29.5</ele><time>2026-04-20T13:31:42.275Z</time></trkpt><trkpt lat="44.8447432" lon="10.413562"><ele>29.333333333333332</ele><time>2026-04-20T13:31:43.276Z</time></trkpt><trkpt lat="44.8447661" lon="10.4136623"><ele>29.166666666666664</ele><time>2026-04-20T13:31:44.275Z</time></trkpt><trkpt lat="44.8447406" lon="10.4137544"><ele>29.0</ele><time>2026-04-20T13:31:45.275Z</time></trkpt><trkpt lat="44.844766" lon="10.4138427"><ele>28.833333333333332</ele><time>2026-04-20T13:31:46.275Z</time></trkpt><trkpt lat="44.8447679" lon="10.4139417"><ele>28.666666666666664</ele><time>2026-04-20T13:31:47.276Z</time></trkpt><trkpt lat="44.8447567" lon="10.4140541"><ele>28.5</ele><time>2026-04-20T13:31:48.275Z</time></trkpt><trkpt lat="44.8447513" lon="10.4141685"><ele>28.333333333333336</ele><time>2026-04-20T13:31:49.276Z</time></trkpt><trkpt lat="44.8447626" lon="10.4143072"><ele>28.166666666666668</ele><time>2026-04-20T13:31:51.276Z</time></trkpt><trkpt lat="44.8447588" lon="10.4143991"><ele>28.0</ele><time>2026-04-20T13:31:52.275Z</time></trkpt><trkpt lat="44.8447603" lon="10.4145055"><ele>28.0</ele><time>2026-04-20T13:31:55.276Z</time></trkpt><trkpt lat="44.8447549" lon="10.4145999"><ele>27.999999999999996</ele><time>2026-04-20T13:31:56.276Z</time></trkpt><trkpt lat="44.8447157" lon="10.414755"><ele>27.999999999999996</ele><time>2026-04-20T13:31:58.275Z</time></trkpt><trkpt lat="44.8447137" lon="10.4149261"><ele>28.0</ele><time>2026-04-20T13:32:00.276Z</time></trkpt><trkpt lat="44.8447207" lon="10.4150376"><ele>28.0</ele><time>2026-04-20T13:32:01.275Z</time></trkpt><trkpt lat="44.8447188" lon="10.4151463"><ele>28.166666666666668</ele><time>2026-04-20T13:32:02.276Z</time></trkpt><trkpt lat="44.8447258" lon="10.4152524"><ele>28.333333333333336</ele><time>2026-04-20T13:32:03.275Z</time></trkpt><trkpt lat="44.8447249" lon="10.4153436"><ele>28.5</ele><time>2026-04-20T13:32:04.275Z</time></trkpt><trkpt lat="44.8447179" lon="10.4154359"><ele>28.666666666666664</ele><time>2026-04-20T13:32:05.275Z</time></trkpt><trkpt lat="44.84472" lon="10.4156123"><ele>28.833333333333332</ele><time>2026-04-20T13:32:07.275Z</time></trkpt><trkpt lat="44.8447204" lon="10.415705"><ele>29.0</ele><time>2026-04-20T13:32:08.275Z</time></trkpt><trkpt lat="44.8447238" lon="10.4157951"><ele>29.2</ele><time>2026-04-20T13:32:09.276Z</time></trkpt><trkpt lat="44.8447295" lon="10.4158863"><ele>29.4</ele><time>2026-04-20T13:32:10.275Z</time></trkpt><trkpt lat="44.8447735" lon="10.4160572"><ele>29.6</ele><time>2026-04-20T13:32:12.275Z</time></trkpt><trkpt lat="44.8448011" lon="10.4162268"><ele>29.8</ele><time>2026-04-20T13:32:14.275Z</time></trkpt><trkpt lat="44.8448178" lon="10.4163128"><ele>30.0</ele><time>2026-04-20T13:32:15.275Z</time></trkpt><trkpt lat="44.8448474" lon="10.4164629"><ele>30.2</ele><time>2026-04-20T13:32:17.275Z</time></trkpt><trkpt lat="44.8448734" lon="10.4166457"><ele>30.4</ele><time>2026-04-20T13:32:19.275Z</time></trkpt><trkpt lat="44.8449255" lon="10.4167766"><ele>30.6</ele><time>2026-04-20T13:32:21.276Z</time></trkpt><trkpt lat="44.8449422" lon="10.4168678"><ele>30.8</ele><time>2026-04-20T13:32:22.276Z</time></trkpt><trkpt lat="44.8449656" lon="10.4169576"><ele>31.0</ele><time>2026-04-20T13:32:23.275Z</time></trkpt><trkpt lat="44.8450106" lon="10.4170974"><ele>31.0</ele><time>2026-04-20T13:32:25.275Z</time></trkpt><trkpt lat="44.8450348" lon="10.4172462"><ele>31.0</ele><time>2026-04-20T13:32:27.276Z</time></trkpt><trkpt lat="44.8450846" lon="10.4174446"><ele>31.0</ele><time>2026-04-20T13:32:29.275Z</time></trkpt><trkpt lat="44.8451048" lon="10.4175311"><ele>31.0</ele><time>2026-04-20T13:32:30.276Z</time></trkpt><trkpt lat="44.8451383" lon="10.4176373"><ele>31.0</ele><time>2026-04-20T13:32:31.275Z</time></trkpt><trkpt lat="44.8451566" lon="10.4177301"><ele>31.166666666666668</ele><time>2026-04-20T13:32:32.275Z</time></trkpt><trkpt lat="44.8451765" lon="10.4178168"><ele>31.333333333333336</ele><time>2026-04-20T13:32:33.276Z</time></trkpt><trkpt lat="44.8452138" lon="10.4179356"><ele>31.5</ele><time>2026-04-20T13:32:34.276Z</time></trkpt><trkpt lat="44.8452382" lon="10.4181009"><ele>31.666666666666664</ele><time>2026-04-20T13:32:36.275Z</time></trkpt><trkpt lat="44.8452681" lon="10.418192"><ele>31.833333333333332</ele><time>2026-04-20T13:32:37.276Z</time></trkpt><trkpt lat="44.8452895" lon="10.4183109"><ele>32.0</ele><time>2026-04-20T13:32:38.276Z</time></trkpt><trkpt lat="44.8453157" lon="10.4184087"><ele>31.999999999999996</ele><time>2026-04-20T13:32:39.276Z</time></trkpt><trkpt lat="44.8453401" lon="10.418499"><ele>32.0</ele><time>2026-04-20T13:32:40.275Z</time></trkpt><trkpt lat="44.8453794" lon="10.418659"><ele>32.0</ele><time>2026-04-20T13:32:42.276Z</time></trkpt><trkpt lat="44.8454018" lon="10.4187559"><ele>32.0</ele><time>2026-04-20T13:32:43.276Z</time></trkpt><trkpt lat="44.8454394" lon="10.4188475"><ele>31.999999999999996</ele><time>2026-04-20T13:32:44.275Z</time></trkpt><trkpt lat="44.8454592" lon="10.4189345"><ele>32.0</ele><time>2026-04-20T13:32:45.276Z</time></trkpt><trkpt lat="44.8454724" lon="10.4190615"><ele>31.833333333333332</ele><time>2026-04-20T13:32:46.276Z</time></trkpt><trkpt lat="44.8455275" lon="10.4192237"><ele>31.666666666666664</ele><time>2026-04-20T13:32:48.276Z</time></trkpt><trkpt lat="44.845554" lon="10.4193122"><ele>31.5</ele><time>2026-04-20T13:32:49.275Z</time></trkpt><trkpt lat="44.8455803" lon="10.4194144"><ele>31.333333333333336</ele><time>2026-04-20T13:32:50.275Z</time></trkpt><trkpt lat="44.8456009" lon="10.4195051"><ele>31.166666666666668</ele><time>2026-04-20T13:32:51.275Z</time></trkpt><trkpt lat="44.8456468" lon="10.4196411"><ele>31.0</ele><time>2026-04-20T13:32:53.275Z</time></trkpt><trkpt lat="44.8456658" lon="10.4197291"><ele>31.000000000000004</ele><time>2026-04-20T13:32:54.275Z</time></trkpt><trkpt lat="44.8456918" lon="10.4198918"><ele>31.0</ele><time>2026-04-20T13:32:56.275Z</time></trkpt><trkpt lat="44.8457473" lon="10.419992"><ele>31.0</ele><time>2026-04-20T13:32:57.276Z</time></trkpt><trkpt lat="44.8457732" lon="10.4200772"><ele>31.0</ele><time>2026-04-20T13:32:58.275Z</time></trkpt><trkpt lat="44.8457652" lon="10.4201764"><ele>31.000000000000004</ele><time>2026-04-20T13:32:59.275Z</time></trkpt><trkpt lat="44.84577" lon="10.4203002"><ele>31.0</ele><time>2026-04-20T13:33:01.276Z</time></trkpt><trkpt lat="44.84579" lon="10.4205653"><ele>31.0</ele><time>2026-04-20T13:33:03.275Z</time></trkpt><trkpt lat="44.8457755" lon="10.4206625"><ele>31.000000000000004</ele><time>2026-04-20T13:33:04.275Z</time></trkpt><trkpt lat="44.8457605" lon="10.4207634"><ele>31.0</ele><time>2026-04-20T13:33:05.276Z</time></trkpt><trkpt lat="44.8457465" lon="10.4208659"><ele>31.0</ele><time>2026-04-20T13:33:06.276Z</time></trkpt><trkpt lat="44.845732" lon="10.4209689"><ele>31.000000000000004</ele><time>2026-04-20T13:33:07.275Z</time></trkpt><trkpt lat="44.8457131" lon="10.4210652"><ele>31.0</ele><time>2026-04-20T13:33:08.276Z</time></trkpt><trkpt lat="44.8456931" lon="10.4211696"><ele>31.0</ele><time>2026-04-20T13:33:09.275Z</time></trkpt><trkpt lat="44.8456708" lon="10.4212741"><ele>30.857142857142858</ele><time>2026-04-20T13:33:10.276Z</time></trkpt><trkpt lat="44.845646" lon="10.4213683"><ele>30.714285714285715</ele><time>2026-04-20T13:33:11.276Z</time></trkpt><trkpt lat="44.84563" lon="10.4214569"><ele>30.571428571428573</ele><time>2026-04-20T13:33:12.276Z</time></trkpt><trkpt lat="44.8456086" lon="10.4215528"><ele>30.42857142857143</ele><time>2026-04-20T13:33:13.275Z</time></trkpt><trkpt lat="44.8455902" lon="10.4216462"><ele>30.285714285714285</ele><time>2026-04-20T13:33:14.275Z</time></trkpt><trkpt lat="44.8455708" lon="10.4217374"><ele>30.142857142857146</ele><time>2026-04-20T13:33:15.276Z</time></trkpt><trkpt lat="44.8455514" lon="10.4218286"><ele>30.0</ele><time>2026-04-20T13:33:16.276Z</time></trkpt><trkpt lat="44.8455277" lon="10.4219219"><ele>30.0</ele><time>2026-04-20T13:33:17.276Z</time></trkpt><trkpt lat="44.8455124" lon="10.4220081"><ele>30.0</ele><time>2026-04-20T13:33:18.276Z</time></trkpt><trkpt lat="44.8454915" lon="10.422097"><ele>30.0</ele><time>2026-04-20T13:33:19.276Z</time></trkpt><trkpt lat="44.845452" lon="10.4222487"><ele>30.0</ele><time>2026-04-20T13:33:21.275Z</time></trkpt><trkpt lat="44.845417" lon="10.422447"><ele>30.0</ele><time>2026-04-20T13:33:23.275Z</time></trkpt><trkpt lat="44.8453991" lon="10.4225356"><ele>30.0</ele><time>2026-04-20T13:33:24.275Z</time></trkpt><trkpt lat="44.8453786" lon="10.4226547"><ele>30.0</ele><time>2026-04-20T13:33:25.276Z</time></trkpt><trkpt lat="44.8453568" lon="10.4227417"><ele>30.0</ele><time>2026-04-20T13:33:26.275Z</time></trkpt><trkpt lat="44.8453593" lon="10.4228507"><ele>30.0</ele><time>2026-04-20T13:33:27.276Z</time></trkpt><trkpt lat="44.8453342" lon="10.4230304"><ele>30.0</ele><time>2026-04-20T13:33:29.276Z</time></trkpt><trkpt lat="44.8453125" lon="10.423122"><ele>30.0</ele><time>2026-04-20T13:33:30.276Z</time></trkpt><trkpt lat="44.8452768" lon="10.4232762"><ele>30.0</ele><time>2026-04-20T13:33:32.276Z</time></trkpt><trkpt lat="44.8452442" lon="10.4234433"><ele>30.0</ele><time>2026-04-20T13:33:34.275Z</time></trkpt><trkpt lat="44.8452258" lon="10.4235568"><ele>30.0</ele><time>2026-04-20T13:33:35.276Z</time></trkpt><trkpt lat="44.8452082" lon="10.4236461"><ele>30.0</ele><time>2026-04-20T13:33:36.275Z</time></trkpt><trkpt lat="44.8451615" lon="10.423808"><ele>30.0</ele><time>2026-04-20T13:33:38.276Z</time></trkpt><trkpt lat="44.8451125" lon="10.4239193"><ele>29.8</ele><time>2026-04-20T13:33:39.276Z</time></trkpt><trkpt lat="44.8450887" lon="10.4240095"><ele>29.6</ele><time>2026-04-20T13:33:40.276Z</time></trkpt><trkpt lat="44.8450721" lon="10.4241245"><ele>29.4</ele><time>2026-04-20T13:33:42.275Z</time></trkpt><trkpt lat="44.845048" lon="10.4242117"><ele>29.2</ele><time>2026-04-20T13:33:43.276Z</time></trkpt><trkpt lat="44.8450197" lon="10.4243467"><ele>29.0</ele><time>2026-04-20T13:33:45.276Z</time></trkpt><trkpt lat="44.8449432" lon="10.4248506"><ele>28.999999999999996</ele><time>2026-04-20T13:33:55.276Z</time></trkpt><trkpt lat="44.8449207" lon="10.4249429"><ele>29.0</ele><time>2026-04-20T13:33:57.276Z</time></trkpt><trkpt lat="44.8448955" lon="10.4250615"><ele>29.0</ele><time>2026-04-20T13:34:00.276Z</time></trkpt><trkpt lat="44.8448773" lon="10.4251518"><ele>29.0</ele><time>2026-04-20T13:34:02.276Z</time></trkpt><trkpt lat="44.8448455" lon="10.4252732"><ele>28.999999999999996</ele><time>2026-04-20T13:34:05.276Z</time></trkpt><trkpt lat="44.8448189" lon="10.4253686"><ele>29.0</ele><time>2026-04-20T13:34:07.275Z</time></trkpt><trkpt lat="44.8447961" lon="10.4254635"><ele>29.4</ele><time>2026-04-20T13:34:09.275Z</time></trkpt><trkpt lat="44.8447757" lon="10.4255489"><ele>29.799999999999997</ele><time>2026-04-20T13:34:11.275Z</time></trkpt><trkpt lat="44.8447624" lon="10.4256458"><ele>30.200000000000003</ele><time>2026-04-20T13:34:13.275Z</time></trkpt><trkpt lat="44.844736" lon="10.4257813"><ele>30.6</ele><time>2026-04-20T13:34:16.276Z</time></trkpt><trkpt lat="44.8446988" lon="10.4259879"><ele>31.0</ele><time>2026-04-20T13:34:20.276Z</time></trkpt><trkpt lat="44.8446746" lon="10.4261425"><ele>31.000000000000004</ele><time>2026-04-20T13:34:23.275Z</time></trkpt><trkpt lat="44.8446571" lon="10.4262556"><ele>31.0</ele><time>2026-04-20T13:34:25.276Z</time></trkpt><trkpt lat="44.8446377" lon="10.4263723"><ele>31.0</ele><time>2026-04-20T13:34:27.275Z</time></trkpt><trkpt lat="44.8446262" lon="10.426515"><ele>31.0</ele><time>2026-04-20T13:34:29.275Z</time></trkpt><trkpt lat="44.8446144" lon="10.4266343"><ele>31.000000000000004</ele><time>2026-04-20T13:34:31.275Z</time></trkpt><trkpt lat="44.8446065" lon="10.4267333"><ele>31.0</ele><time>2026-04-20T13:34:33.276Z</time></trkpt><trkpt lat="44.8445917" lon="10.4268676"><ele>30.8</ele><time>2026-04-20T13:34:35.276Z</time></trkpt><trkpt lat="44.8445819" lon="10.4269993"><ele>30.6</ele><time>2026-04-20T13:34:37.276Z</time></trkpt><trkpt lat="44.8445772" lon="10.4271324"><ele>30.4</ele><time>2026-04-20T13:34:39.275Z</time></trkpt><trkpt lat="44.8445649" lon="10.4272784"><ele>30.2</ele><time>2026-04-20T13:34:41.276Z</time></trkpt><trkpt lat="44.8445632" lon="10.4274057"><ele>30.0</ele><time>2026-04-20T13:34:43.275Z</time></trkpt><trkpt lat="44.8445525" lon="10.4275392"><ele>30.0</ele><time>2026-04-20T13:34:45.276Z</time></trkpt><trkpt lat="44.8445408" lon="10.4276533"><ele>30.0</ele><time>2026-04-20T13:34:47.275Z</time></trkpt><trkpt lat="44.8445334" lon="10.4277863"><ele>30.0</ele><time>2026-04-20T13:34:49.276Z</time></trkpt><trkpt lat="44.8445402" lon="10.4278883"><ele>30.0</ele><time>2026-04-20T13:34:51.275Z</time></trkpt><trkpt lat="44.8445379" lon="10.4280278"><ele>30.0</ele><time>2026-04-20T13:34:53.275Z</time></trkpt><trkpt lat="44.8445344" lon="10.4281529"><ele>30.0</ele><time>2026-04-20T13:34:55.276Z</time></trkpt><trkpt lat="44.8445264" lon="10.4283633"><ele>29.8</ele><time>2026-04-20T13:34:58.276Z</time></trkpt><trkpt lat="44.8445126" lon="10.4284942"><ele>29.6</ele><time>2026-04-20T13:35:00.276Z</time></trkpt><trkpt lat="44.8445014" lon="10.4287063"><ele>29.4</ele><time>2026-04-20T13:35:03.276Z</time></trkpt><trkpt lat="44.8445126" lon="10.4287997"><ele>29.2</ele><time>2026-04-20T13:35:05.275Z</time></trkpt><trkpt lat="44.8445087" lon="10.4288944"><ele>29.0</ele><time>2026-04-20T13:35:06.275Z</time></trkpt><trkpt lat="44.8445151" lon="10.4290355"><ele>29.0</ele><time>2026-04-20T13:35:08.276Z</time></trkpt><trkpt lat="44.844522" lon="10.4291663"><ele>29.0</ele><time>2026-04-20T13:35:10.276Z</time></trkpt><trkpt lat="44.8445231" lon="10.4292999"><ele>29.0</ele><time>2026-04-20T13:35:12.275Z</time></trkpt><trkpt lat="44.8445092" lon="10.429419"><ele>29.0</ele><time>2026-04-20T13:35:14.276Z</time></trkpt><trkpt lat="44.8444838" lon="10.4295358"><ele>29.0</ele><time>2026-04-20T13:35:16.275Z</time></trkpt><trkpt lat="44.8444631" lon="10.4296671"><ele>29.2</ele><time>2026-04-20T13:35:18.276Z</time></trkpt><trkpt lat="44.8444476" lon="10.4298314"><ele>29.4</ele><time>2026-04-20T13:35:20.275Z</time></trkpt><trkpt lat="44.8444299" lon="10.4299694"><ele>29.6</ele><time>2026-04-20T13:35:22.276Z</time></trkpt><trkpt lat="44.8444227" lon="10.4301235"><ele>29.8</ele><time>2026-04-20T13:35:24.275Z</time></trkpt><trkpt lat="44.8444091" lon="10.4302377"><ele>30.0</ele><time>2026-04-20T13:35:26.275Z</time></trkpt><trkpt lat="44.8443939" lon="10.4303611"><ele>30.0</ele><time>2026-04-20T13:35:28.276Z</time></trkpt><trkpt lat="44.8443668" lon="10.4306188"><ele>30.0</ele><time>2026-04-20T13:35:32.275Z</time></trkpt><trkpt lat="44.8443658" lon="10.4308035"><ele>30.0</ele><time>2026-04-20T13:35:35.276Z</time></trkpt><trkpt lat="44.8443817" lon="10.4309152"><ele>30.0</ele><time>2026-04-20T13:35:37.276Z</time></trkpt><trkpt lat="44.844412" lon="10.4310196"><ele>30.0</ele><time>2026-04-20T13:35:39.275Z</time></trkpt><trkpt lat="44.8444653" lon="10.4311092"><ele>30.0</ele><time>2026-04-20T13:35:41.275Z</time></trkpt><trkpt lat="44.8445256" lon="10.431181"><ele>30.0</ele><time>2026-04-20T13:35:43.276Z</time></trkpt><trkpt lat="44.8445781" lon="10.4312332"><ele>30.0</ele><time>2026-04-20T13:35:45.275Z</time></trkpt><trkpt lat="44.8446098" lon="10.4313252"><ele>30.0</ele><time>2026-04-20T13:35:55.276Z</time></trkpt><trkpt lat="44.8445733" lon="10.4314516"><ele>30.0</ele><time>2026-04-20T13:35:58.276Z</time></trkpt><trkpt lat="44.8444951" lon="10.4315097"><ele>29.833333333333332</ele><time>2026-04-20T13:36:00.276Z</time></trkpt><trkpt lat="44.8444122" lon="10.4315213"><ele>29.666666666666664</ele><time>2026-04-20T13:36:02.275Z</time></trkpt><trkpt lat="44.8443356" lon="10.4315316"><ele>29.5</ele><time>2026-04-20T13:36:04.276Z</time></trkpt><trkpt lat="44.8442674" lon="10.4315461"><ele>29.333333333333332</ele><time>2026-04-20T13:36:06.276Z</time></trkpt><trkpt lat="44.8441987" lon="10.4315878"><ele>29.166666666666664</ele><time>2026-04-20T13:36:08.275Z</time></trkpt><trkpt lat="44.8441289" lon="10.431666"><ele>29.0</ele><time>2026-04-20T13:36:11.276Z</time></trkpt><trkpt lat="44.8440963" lon="10.4317575"><ele>29.285714285714292</ele><time>2026-04-20T13:36:14.276Z</time></trkpt><trkpt lat="44.8440799" lon="10.4318489"><ele>29.571428571428573</ele><time>2026-04-20T13:36:16.275Z</time></trkpt><trkpt lat="44.8440665" lon="10.4319406"><ele>29.85714285714286</ele><time>2026-04-20T13:36:18.276Z</time></trkpt><trkpt lat="44.8440507" lon="10.4320406"><ele>30.142857142857146</ele><time>2026-04-20T13:36:20.276Z</time></trkpt><trkpt lat="44.8440316" lon="10.4321338"><ele>30.42857142857143</ele><time>2026-04-20T13:36:22.276Z</time></trkpt><trkpt lat="44.8439946" lon="10.4322119"><ele>30.714285714285715</ele><time>2026-04-20T13:36:24.275Z</time></trkpt><trkpt lat="44.8439558" lon="10.4322994"><ele>31.0</ele><time>2026-04-20T13:36:26.276Z</time></trkpt><trkpt lat="44.8439288" lon="10.4324037"><ele>31.0</ele><time>2026-04-20T13:36:28.276Z</time></trkpt><trkpt lat="44.8439047" lon="10.4325022"><ele>31.0</ele><time>2026-04-20T13:36:30.275Z</time></trkpt><trkpt lat="44.8438643" lon="10.4326833"><ele>31.0</ele><time>2026-04-20T13:36:33.276Z</time></trkpt><trkpt lat="44.8438452" lon="10.4328037"><ele>31.0</ele><time>2026-04-20T13:36:35.276Z</time></trkpt><trkpt lat="44.8438178" lon="10.4329344"><ele>31.0</ele><time>2026-04-20T13:36:37.275Z</time></trkpt><trkpt lat="44.8437829" lon="10.4330542"><ele>31.000000000000004</ele><time>2026-04-20T13:36:39.276Z</time></trkpt><trkpt lat="44.8437678" lon="10.4331668"><ele>31.0</ele><time>2026-04-20T13:36:41.276Z</time></trkpt><trkpt lat="44.8437426" lon="10.4332882"><ele>31.0</ele><time>2026-04-20T13:36:43.276Z</time></trkpt><trkpt lat="44.8437181" lon="10.4334083"><ele>31.0</ele><time>2026-04-20T13:36:45.276Z</time></trkpt><trkpt lat="44.8437041" lon="10.4335224"><ele>31.000000000000004</ele><time>2026-04-20T13:36:47.275Z</time></trkpt><trkpt lat="44.8436915" lon="10.4336152"><ele>31.0</ele><time>2026-04-20T13:36:49.275Z</time></trkpt><trkpt lat="44.8436651" lon="10.4337175"><ele>31.333333333333336</ele><time>2026-04-20T13:36:51.276Z</time></trkpt><trkpt lat="44.8436514" lon="10.4338178"><ele>31.666666666666668</ele><time>2026-04-20T13:36:53.275Z</time></trkpt><trkpt lat="44.8436689" lon="10.4339155"><ele>32.0</ele><time>2026-04-20T13:36:55.276Z</time></trkpt><trkpt lat="44.843713" lon="10.4339984"><ele>32.333333333333336</ele><time>2026-04-20T13:36:57.276Z</time></trkpt><trkpt lat="44.8437839" lon="10.434047"><ele>32.666666666666664</ele><time>2026-04-20T13:36:59.276Z</time></trkpt><trkpt lat="44.8438641" lon="10.4340702"><ele>33.0</ele><time>2026-04-20T13:37:01.275Z</time></trkpt><trkpt lat="44.8439364" lon="10.4340864"><ele>33.0</ele><time>2026-04-20T13:37:03.276Z</time></trkpt><trkpt lat="44.8440055" lon="10.4341045"><ele>33.0</ele><time>2026-04-20T13:37:05.275Z</time></trkpt><trkpt lat="44.844072" lon="10.4341265"><ele>33.0</ele><time>2026-04-20T13:37:07.275Z</time></trkpt><trkpt lat="44.844134" lon="10.4341495"><ele>33.0</ele><time>2026-04-20T13:37:09.276Z</time></trkpt><trkpt lat="44.8441995" lon="10.4341838"><ele>33.0</ele><time>2026-04-20T13:37:11.276Z</time></trkpt><trkpt lat="44.8442872" lon="10.4342074"><ele>33.0</ele><time>2026-04-20T13:37:14.275Z</time></trkpt><trkpt lat="44.8443565" lon="10.4342196"><ele>33.0</ele><time>2026-04-20T13:37:16.275Z</time></trkpt><trkpt lat="44.844446" lon="10.4342441"><ele>32.666666666666664</ele><time>2026-04-20T13:37:18.276Z</time></trkpt><trkpt lat="44.844531" lon="10.4342684"><ele>32.333333333333336</ele><time>2026-04-20T13:37:20.275Z</time></trkpt><trkpt lat="44.844629" lon="10.4342814"><ele>32.0</ele><time>2026-04-20T13:37:22.276Z</time></trkpt><trkpt lat="44.8447036" lon="10.4343071"><ele>31.666666666666668</ele><time>2026-04-20T13:37:24.275Z</time></trkpt><trkpt lat="44.8447734" lon="10.434342"><ele>31.333333333333336</ele><time>2026-04-20T13:37:26.275Z</time></trkpt><trkpt lat="44.8448414" lon="10.4343819"><ele>31.0</ele><time>2026-04-20T13:37:28.276Z</time></trkpt><trkpt lat="44.8449149" lon="10.4344103"><ele>31.000000000000004</ele><time>2026-04-20T13:37:30.275Z</time></trkpt><trkpt lat="44.844983" lon="10.4344422"><ele>31.0</ele><time>2026-04-20T13:37:32.275Z</time></trkpt><trkpt lat="44.8450534" lon="10.4344705"><ele>31.0</ele><time>2026-04-20T13:37:34.275Z</time></trkpt><trkpt lat="44.8451251" lon="10.4344929"><ele>31.0</ele><time>2026-04-20T13:37:36.275Z</time></trkpt><trkpt lat="44.8451858" lon="10.4345445"><ele>31.000000000000004</ele><time>2026-04-20T13:37:38.275Z</time></trkpt><trkpt lat="44.8452602" lon="10.4345947"><ele>31.0</ele><time>2026-04-20T13:37:40.275Z</time></trkpt><trkpt lat="44.845341" lon="10.4346571"><ele>31.0</ele><time>2026-04-20T13:37:42.276Z</time></trkpt><trkpt lat="44.8454064" lon="10.4347206"><ele>31.0</ele><time>2026-04-20T13:37:44.275Z</time></trkpt><trkpt lat="44.8455218" lon="10.434797"><ele>31.0</ele><time>2026-04-20T13:37:47.275Z</time></trkpt><trkpt lat="44.8456009" lon="10.4348315"><ele>31.0</ele><time>2026-04-20T13:37:49.276Z</time></trkpt><trkpt lat="44.845673" lon="10.4348786"><ele>31.0</ele><time>2026-04-20T13:37:51.276Z</time></trkpt><trkpt lat="44.8457343" lon="10.4349549"><ele>31.000000000000004</ele><time>2026-04-20T13:37:53.276Z</time></trkpt><trkpt lat="44.8457712" lon="10.4350758"><ele>31.0</ele><time>2026-04-20T13:37:56.276Z</time></trkpt><trkpt lat="44.8457613" lon="10.4351677"><ele>31.0</ele><time>2026-04-20T13:37:58.276Z</time></trkpt><trkpt lat="44.8457311" lon="10.4352615"><ele>31.0</ele><time>2026-04-20T13:38:00.275Z</time></trkpt><trkpt lat="44.8456702" lon="10.43539"><ele>31.000000000000004</ele><time>2026-04-20T13:38:02.276Z</time></trkpt><trkpt lat="44.8456388" lon="10.4355106"><ele>31.0</ele><time>2026-04-20T13:38:04.275Z</time></trkpt><trkpt lat="44.8456273" lon="10.435602"><ele>30.8</ele><time>2026-04-20T13:38:05.275Z</time></trkpt><trkpt lat="44.8456169" lon="10.4357561"><ele>30.6</ele><time>2026-04-20T13:38:07.275Z</time></trkpt><trkpt lat="44.8455925" lon="10.4358801"><ele>30.4</ele><time>2026-04-20T13:38:09.275Z</time></trkpt><trkpt lat="44.8455942" lon="10.4360279"><ele>30.2</ele><time>2026-04-20T13:38:11.275Z</time></trkpt><trkpt lat="44.8455703" lon="10.4361843"><ele>30.0</ele><time>2026-04-20T13:38:13.275Z</time></trkpt><trkpt lat="44.8455431" lon="10.4363392"><ele>30.4</ele><time>2026-04-20T13:38:15.276Z</time></trkpt><trkpt lat="44.8455324" lon="10.4364586"><ele>30.8</ele><time>2026-04-20T13:38:17.276Z</time></trkpt><trkpt lat="44.8454995" lon="10.4366092"><ele>31.200000000000003</ele><time>2026-04-20T13:38:19.275Z</time></trkpt><trkpt lat="44.8454766" lon="10.4367539"><ele>31.6</ele><time>2026-04-20T13:38:22.276Z</time></trkpt><trkpt lat="44.8454592" lon="10.4368906"><ele>32.0</ele><time>2026-04-20T13:38:24.275Z</time></trkpt><trkpt lat="44.8454338" lon="10.4370121"><ele>31.999999999999996</ele><time>2026-04-20T13:38:26.275Z</time></trkpt><trkpt lat="44.8454059" lon="10.437146"><ele>32.0</ele><time>2026-04-20T13:38:28.275Z</time></trkpt><trkpt lat="44.8453903" lon="10.4372674"><ele>32.0</ele><time>2026-04-20T13:38:30.276Z</time></trkpt><trkpt lat="44.845362" lon="10.4373702"><ele>32.0</ele><time>2026-04-20T13:38:32.275Z</time></trkpt><trkpt lat="44.8453395" lon="10.4374727"><ele>31.999999999999996</ele><time>2026-04-20T13:38:34.275Z</time></trkpt><trkpt lat="44.8453097" lon="10.4375519"><ele>32.0</ele><time>2026-04-20T13:38:36.276Z</time></trkpt><trkpt lat="44.845294" lon="10.4376517"><ele>31.999999999999996</ele><time>2026-04-20T13:38:38.276Z</time></trkpt><trkpt lat="44.8452748" lon="10.437744"><ele>32.0</ele><time>2026-04-20T13:38:40.275Z</time></trkpt><trkpt lat="44.8452828" lon="10.4378485"><ele>32.0</ele><time>2026-04-20T13:38:43.275Z</time></trkpt><trkpt lat="44.8453416" lon="10.4377401"><ele>32.0</ele><time>2026-04-20T13:38:46.276Z</time></trkpt><trkpt lat="44.8453696" lon="10.4376427"><ele>31.999999999999996</ele><time>2026-04-20T13:38:48.275Z</time></trkpt><trkpt lat="44.8454526" lon="10.4376181"><ele>32.0</ele><time>2026-04-20T13:38:50.275Z</time></trkpt><trkpt lat="44.8455626" lon="10.4376577"><ele>32.0</ele><time>2026-04-20T13:38:52.275Z</time></trkpt><trkpt lat="44.8456948" lon="10.437729"><ele>32.0</ele><time>2026-04-20T13:38:54.275Z</time></trkpt><trkpt lat="44.8457924" lon="10.4377661"><ele>32.0</ele><time>2026-04-20T13:38:56.275Z</time></trkpt><trkpt lat="44.8458936" lon="10.437808"><ele>32.0</ele><time>2026-04-20T13:38:58.275Z</time></trkpt><trkpt lat="44.845983" lon="10.437847"><ele>32.0</ele><time>2026-04-20T13:39:00.276Z</time></trkpt><trkpt lat="44.8460758" lon="10.4378801"><ele>32.0</ele><time>2026-04-20T13:39:02.276Z</time></trkpt><trkpt lat="44.8461793" lon="10.4379111"><ele>32.0</ele><time>2026-04-20T13:39:04.276Z</time></trkpt><trkpt lat="44.8462761" lon="10.4379583"><ele>32.0</ele><time>2026-04-20T13:39:06.276Z</time></trkpt><trkpt lat="44.8463755" lon="10.4379985"><ele>32.0</ele><time>2026-04-20T13:39:08.275Z</time></trkpt><trkpt lat="44.8464698" lon="10.4380414"><ele>32.0</ele><time>2026-04-20T13:39:10.276Z</time></trkpt><trkpt lat="44.8465736" lon="10.4380894"><ele>31.999999999999996</ele><time>2026-04-20T13:39:12.276Z</time></trkpt><trkpt lat="44.8466659" lon="10.4381066"><ele>32.0</ele><time>2026-04-20T13:39:14.276Z</time></trkpt><trkpt lat="44.8467265" lon="10.4381552"><ele>32.0</ele><time>2026-04-20T13:39:15.275Z</time></trkpt><trkpt lat="44.8467918" lon="10.4381805"><ele>32.0</ele><time>2026-04-20T13:39:16.275Z</time></trkpt><trkpt lat="44.8468836" lon="10.4382425"><ele>31.999999999999996</ele><time>2026-04-20T13:39:18.275Z</time></trkpt><trkpt lat="44.8469853" lon="10.4383138"><ele>32.0</ele><time>2026-04-20T13:39:20.275Z</time></trkpt><trkpt lat="44.8470553" lon="10.438394"><ele>32.0</ele><time>2026-04-20T13:39:23.275Z</time></trkpt><trkpt lat="44.8470801" lon="10.4384981"><ele>32.0</ele><time>2026-04-20T13:39:25.276Z</time></trkpt><trkpt lat="44.847069" lon="10.4386265"><ele>32.0</ele><time>2026-04-20T13:39:27.276Z</time></trkpt><trkpt lat="44.847026" lon="10.4387593"><ele>32.0</ele><time>2026-04-20T13:39:29.276Z</time></trkpt><trkpt lat="44.8470125" lon="10.4389158"><ele>32.0</ele><time>2026-04-20T13:39:31.276Z</time></trkpt><trkpt lat="44.8470163" lon="10.4390401"><ele>32.0</ele><time>2026-04-20T13:39:32.275Z</time></trkpt><trkpt lat="44.8470786" lon="10.4390921"><ele>32.0</ele><time>2026-04-20T13:39:34.275Z</time></trkpt><trkpt lat="44.847153" lon="10.4391142"><ele>32.0</ele><time>2026-04-20T13:39:36.275Z</time></trkpt><trkpt lat="44.8473159" lon="10.4391238"><ele>32.0</ele><time>2026-04-20T13:39:39.276Z</time></trkpt><trkpt lat="44.8474078" lon="10.4391658"><ele>32.0</ele><time>2026-04-20T13:39:41.276Z</time></trkpt><trkpt lat="44.8475085" lon="10.4391937"><ele>32.0</ele><time>2026-04-20T13:39:43.276Z</time></trkpt><trkpt lat="44.8475984" lon="10.4392308"><ele>32.0</ele><time>2026-04-20T13:39:45.276Z</time></trkpt><trkpt lat="44.8476999" lon="10.4392583"><ele>32.0</ele><time>2026-04-20T13:39:47.276Z</time></trkpt><trkpt lat="44.8477959" lon="10.4392976"><ele>32.0</ele><time>2026-04-20T13:39:49.275Z</time></trkpt><trkpt lat="44.8479488" lon="10.439437"><ele>32.0</ele><time>2026-04-20T13:39:54.275Z</time></trkpt><trkpt lat="44.8478892" lon="10.4396208"><ele>32.0</ele><time>2026-04-20T13:39:57.276Z</time></trkpt><trkpt lat="44.8478637" lon="10.4397514"><ele>32.0</ele><time>2026-04-20T13:39:59.275Z</time></trkpt><trkpt lat="44.8478319" lon="10.4398795"><ele>32.0</ele><time>2026-04-20T13:40:01.276Z</time></trkpt><trkpt lat="44.8477987" lon="10.4400059"><ele>32.0</ele><time>2026-04-20T13:40:03.275Z</time></trkpt><trkpt lat="44.8477684" lon="10.4401525"><ele>32.0</ele><time>2026-04-20T13:40:05.275Z</time></trkpt><trkpt lat="44.8477153" lon="10.4402895"><ele>32.0</ele><time>2026-04-20T13:40:07.276Z</time></trkpt><trkpt lat="44.8476782" lon="10.440429"><ele>32.0</ele><time>2026-04-20T13:40:09.276Z</time></trkpt><trkpt lat="44.8476669" lon="10.4405605"><ele>32.0</ele><time>2026-04-20T13:40:11.275Z</time></trkpt><trkpt lat="44.8476746" lon="10.4406964"><ele>32.0</ele><time>2026-04-20T13:40:13.276Z</time></trkpt><trkpt lat="44.8476482" lon="10.4408465"><ele>32.0</ele><time>2026-04-20T13:40:15.276Z</time></trkpt><trkpt lat="44.8476361" lon="10.4410075"><ele>32.0</ele><time>2026-04-20T13:40:17.275Z</time></trkpt><trkpt lat="44.8476127" lon="10.4411426"><ele>32.0</ele><time>2026-04-20T13:40:18.275Z</time></trkpt><trkpt lat="44.8475744" lon="10.4412576"><ele>32.0</ele><time>2026-04-20T13:40:20.276Z</time></trkpt><trkpt lat="44.8475437" lon="10.4414038"><ele>32.0</ele><time>2026-04-20T13:40:22.275Z</time></trkpt><trkpt lat="44.8475076" lon="10.4415465"><ele>32.2</ele><time>2026-04-20T13:40:24.276Z</time></trkpt><trkpt lat="44.8474776" lon="10.4416924"><ele>32.400000000000006</ele><time>2026-04-20T13:40:26.275Z</time></trkpt><trkpt lat="44.8474396" lon="10.4418424"><ele>32.599999999999994</ele><time>2026-04-20T13:40:28.275Z</time></trkpt><trkpt lat="44.8473995" lon="10.4419775"><ele>32.8</ele><time>2026-04-20T13:40:30.276Z</time></trkpt><trkpt lat="44.8473623" lon="10.4421403"><ele>33.0</ele><time>2026-04-20T13:40:32.276Z</time></trkpt><trkpt lat="44.8473342" lon="10.442272"><ele>33.0</ele><time>2026-04-20T13:40:34.275Z</time></trkpt><trkpt lat="44.8472987" lon="10.4424169"><ele>33.0</ele><time>2026-04-20T13:40:36.276Z</time></trkpt><trkpt lat="44.847271" lon="10.4425678"><ele>33.0</ele><time>2026-04-20T13:40:38.276Z</time></trkpt><trkpt lat="44.8472474" lon="10.4427146"><ele>33.0</ele><time>2026-04-20T13:40:40.275Z</time></trkpt><trkpt lat="44.8472168" lon="10.4428769"><ele>33.0</ele><time>2026-04-20T13:40:42.276Z</time></trkpt><trkpt lat="44.847185" lon="10.4430306"><ele>33.0</ele><time>2026-04-20T13:40:44.275Z</time></trkpt><trkpt lat="44.8471646" lon="10.4431981"><ele>33.0</ele><time>2026-04-20T13:40:46.276Z</time></trkpt><trkpt lat="44.8471345" lon="10.4433378"><ele>33.0</ele><time>2026-04-20T13:40:48.276Z</time></trkpt><trkpt lat="44.847103" lon="10.4434938"><ele>33.0</ele><time>2026-04-20T13:40:50.275Z</time></trkpt><trkpt lat="44.8470831" lon="10.4435871"><ele>33.0</ele><time>2026-04-20T13:40:51.275Z</time></trkpt><trkpt lat="44.8470382" lon="10.443739"><ele>33.4</ele><time>2026-04-20T13:40:53.275Z</time></trkpt><trkpt lat="44.8470288" lon="10.4438907"><ele>33.8</ele><time>2026-04-20T13:40:55.275Z</time></trkpt><trkpt lat="44.8469935" lon="10.4440406"><ele>34.2</ele><time>2026-04-20T13:40:57.275Z</time></trkpt><trkpt lat="44.8469604" lon="10.4441824"><ele>34.6</ele><time>2026-04-20T13:40:59.275Z</time></trkpt><trkpt lat="44.8469388" lon="10.4443407"><ele>35.0</ele><time>2026-04-20T13:41:01.275Z</time></trkpt><trkpt lat="44.8469227" lon="10.4444625"><ele>35.0</ele><time>2026-04-20T13:41:03.276Z</time></trkpt><trkpt lat="44.8468956" lon="10.4445876"><ele>35.0</ele><time>2026-04-20T13:41:05.276Z</time></trkpt><trkpt lat="44.8468651" lon="10.4447037"><ele>35.0</ele><time>2026-04-20T13:41:07.276Z</time></trkpt><trkpt lat="44.8468609" lon="10.4448134"><ele>35.0</ele><time>2026-04-20T13:41:09.275Z</time></trkpt><trkpt lat="44.846834" lon="10.4450212"><ele>35.0</ele><time>2026-04-20T13:41:12.276Z</time></trkpt><trkpt lat="44.8468276" lon="10.4451735"><ele>35.0</ele><time>2026-04-20T13:41:14.275Z</time></trkpt><trkpt lat="44.8468004" lon="10.4453198"><ele>35.0</ele><time>2026-04-20T13:41:16.276Z</time></trkpt><trkpt lat="44.8467785" lon="10.4454847"><ele>35.0</ele><time>2026-04-20T13:41:18.276Z</time></trkpt><trkpt lat="44.8467561" lon="10.4455972"><ele>35.0</ele><time>2026-04-20T13:41:20.275Z</time></trkpt><trkpt lat="44.8467417" lon="10.4457468"><ele>35.0</ele><time>2026-04-20T13:41:22.276Z</time></trkpt><trkpt lat="44.846718" lon="10.4458917"><ele>34.8</ele><time>2026-04-20T13:41:24.275Z</time></trkpt><trkpt lat="44.8466852" lon="10.4459943"><ele>34.6</ele><time>2026-04-20T13:41:26.276Z</time></trkpt><trkpt lat="44.8466543" lon="10.4461452"><ele>34.4</ele><time>2026-04-20T13:41:28.275Z</time></trkpt><trkpt lat="44.8466412" lon="10.4463065"><ele>34.2</ele><time>2026-04-20T13:41:30.276Z</time></trkpt><trkpt lat="44.8466167" lon="10.4464389"><ele>34.0</ele><time>2026-04-20T13:41:32.276Z</time></trkpt><trkpt lat="44.8465833" lon="10.4465585"><ele>34.0</ele><time>2026-04-20T13:41:34.275Z</time></trkpt><trkpt lat="44.8465667" lon="10.4466499"><ele>34.0</ele><time>2026-04-20T13:41:36.276Z</time></trkpt><trkpt lat="44.8465296" lon="10.4468606"><ele>34.0</ele><time>2026-04-20T13:41:39.276Z</time></trkpt><trkpt lat="44.8465042" lon="10.4469779"><ele>34.0</ele><time>2026-04-20T13:41:41.276Z</time></trkpt><trkpt lat="44.8464862" lon="10.4471013"><ele>34.0</ele><time>2026-04-20T13:41:43.276Z</time></trkpt><trkpt lat="44.8464626" lon="10.4472453"><ele>34.4</ele><time>2026-04-20T13:41:45.276Z</time></trkpt><trkpt lat="44.8464515" lon="10.4473808"><ele>34.8</ele><time>2026-04-20T13:41:47.276Z</time></trkpt><trkpt lat="44.84644" lon="10.4475113"><ele>35.2</ele><time>2026-04-20T13:41:49.275Z</time></trkpt><trkpt lat="44.8464278" lon="10.447607"><ele>35.6</ele><time>2026-04-20T13:41:51.275Z</time></trkpt><trkpt lat="44.8464079" lon="10.4477301"><ele>36.0</ele><time>2026-04-20T13:41:53.275Z</time></trkpt><trkpt lat="44.8463798" lon="10.4478721"><ele>36.0</ele><time>2026-04-20T13:41:55.275Z</time></trkpt><trkpt lat="44.8463611" lon="10.4479873"><ele>36.0</ele><time>2026-04-20T13:41:57.275Z</time></trkpt><trkpt lat="44.8463458" lon="10.4481005"><ele>36.0</ele><time>2026-04-20T13:41:59.275Z</time></trkpt><trkpt lat="44.8462902" lon="10.4482154"><ele>36.0</ele><time>2026-04-20T13:42:02.275Z</time></trkpt><trkpt lat="44.8462136" lon="10.44833"><ele>36.0</ele><time>2026-04-20T13:42:04.275Z</time></trkpt><trkpt lat="44.8461805" lon="10.4484186"><ele>36.0</ele><time>2026-04-20T13:42:07.276Z</time></trkpt><trkpt lat="44.8461232" lon="10.4484568"><ele>36.0</ele><time>2026-04-20T13:43:08.276Z</time></trkpt><trkpt lat="44.8460622" lon="10.4484832"><ele>36.0</ele><time>2026-04-20T13:43:20.276Z</time></trkpt><trkpt lat="44.8460761" lon="10.4485963"><ele>36.0</ele><time>2026-04-20T13:43:26.275Z</time></trkpt><trkpt lat="44.8460546" lon="10.448718"><ele>36.0</ele><time>2026-04-20T13:43:28.276Z</time></trkpt><trkpt lat="44.8460214" lon="10.4488297"><ele>36.0</ele><time>2026-04-20T13:43:30.275Z</time></trkpt><trkpt lat="44.8459979" lon="10.4489454"><ele>36.0</ele><time>2026-04-20T13:43:32.276Z</time></trkpt><trkpt lat="44.8459707" lon="10.4490578"><ele>35.833333333333336</ele><time>2026-04-20T13:43:34.276Z</time></trkpt><trkpt lat="44.8459434" lon="10.4491766"><ele>35.666666666666664</ele><time>2026-04-20T13:43:36.275Z</time></trkpt><trkpt lat="44.8459194" lon="10.4493007"><ele>35.5</ele><time>2026-04-20T13:43:38.276Z</time></trkpt><trkpt lat="44.845902" lon="10.4494064"><ele>35.33333333333333</ele><time>2026-04-20T13:43:40.276Z</time></trkpt><trkpt lat="44.8458909" lon="10.4495012"><ele>35.166666666666664</ele><time>2026-04-20T13:43:42.275Z</time></trkpt><trkpt lat="44.8458718" lon="10.4495914"><ele>35.0</ele><time>2026-04-20T13:43:46.276Z</time></trkpt><trkpt lat="44.8458328" lon="10.4496611"><ele>35.33333333333333</ele><time>2026-04-20T13:43:49.275Z</time></trkpt><trkpt lat="44.845797" lon="10.4497662"><ele>35.666666666666664</ele><time>2026-04-20T13:43:52.276Z</time></trkpt><trkpt lat="44.8457758" lon="10.4498772"><ele>36.0</ele><time>2026-04-20T13:43:54.275Z</time></trkpt><trkpt lat="44.8457597" lon="10.4499771"><ele>36.333333333333336</ele><time>2026-04-20T13:43:56.275Z</time></trkpt><trkpt lat="44.8457405" lon="10.4500853"><ele>36.66666666666667</ele><time>2026-04-20T13:43:58.276Z</time></trkpt><trkpt lat="44.8457202" lon="10.4501834"><ele>37.0</ele><time>2026-04-20T13:44:00.275Z</time></trkpt><trkpt lat="44.8457029" lon="10.450274"><ele>37.0</ele><time>2026-04-20T13:44:02.276Z</time></trkpt><trkpt lat="44.8456774" lon="10.4504174"><ele>37.0</ele><time>2026-04-20T13:44:06.275Z</time></trkpt><trkpt lat="44.8456622" lon="10.4505314"><ele>37.0</ele><time>2026-04-20T13:44:09.275Z</time></trkpt><trkpt lat="44.84565" lon="10.4506544"><ele>37.0</ele><time>2026-04-20T13:44:12.275Z</time></trkpt><trkpt lat="44.8456375" lon="10.4507516"><ele>37.0</ele><time>2026-04-20T13:44:14.276Z</time></trkpt><trkpt lat="44.8456265" lon="10.4508429"><ele>37.0</ele><time>2026-04-20T13:44:16.276Z</time></trkpt><trkpt lat="44.8456104" lon="10.4509445"><ele>37.0</ele><time>2026-04-20T13:44:18.275Z</time></trkpt><trkpt lat="44.8455946" lon="10.4510501"><ele>37.0</ele><time>2026-04-20T13:44:20.275Z</time></trkpt><trkpt lat="44.8455746" lon="10.4511606"><ele>37.0</ele><time>2026-04-20T13:44:22.276Z</time></trkpt><trkpt lat="44.8455457" lon="10.4513191"><ele>37.0</ele><time>2026-04-20T13:44:25.275Z</time></trkpt><trkpt lat="44.8455158" lon="10.4514275"><ele>37.0</ele><time>2026-04-20T13:44:27.276Z</time></trkpt><trkpt lat="44.8454795" lon="10.4515177"><ele>37.0</ele><time>2026-04-20T13:44:30.276Z</time></trkpt><trkpt lat="44.8454323" lon="10.4516052"><ele>36.833333333333336</ele><time>2026-04-20T13:44:49.275Z</time></trkpt><trkpt lat="44.845369" lon="10.4516981"><ele>36.66666666666667</ele><time>2026-04-20T13:44:52.275Z</time></trkpt><trkpt lat="44.845305" lon="10.4517399"><ele>36.5</ele><time>2026-04-20T13:44:54.276Z</time></trkpt><trkpt lat="44.8452406" lon="10.4517642"><ele>36.333333333333336</ele><time>2026-04-20T13:44:57.276Z</time></trkpt><trkpt lat="44.8451785" lon="10.4518131"><ele>36.166666666666664</ele><time>2026-04-20T13:45:01.276Z</time></trkpt><trkpt lat="44.8451155" lon="10.4518656"><ele>36.0</ele><time>2026-04-20T13:45:04.275Z</time></trkpt><trkpt lat="44.8450261" lon="10.4519115"><ele>35.85714285714286</ele><time>2026-04-20T13:45:07.276Z</time></trkpt><trkpt lat="44.8449624" lon="10.4519408"><ele>35.714285714285715</ele><time>2026-04-20T13:45:09.276Z</time></trkpt><trkpt lat="44.8448884" lon="10.4519716"><ele>35.57142857142857</ele><time>2026-04-20T13:45:13.275Z</time></trkpt><trkpt lat="44.8448211" lon="10.4519843"><ele>35.42857142857143</ele><time>2026-04-20T13:45:16.276Z</time></trkpt><trkpt lat="44.8447533" lon="10.4520001"><ele>35.285714285714285</ele><time>2026-04-20T13:45:18.275Z</time></trkpt><trkpt lat="44.8446835" lon="10.4520287"><ele>35.142857142857146</ele><time>2026-04-20T13:45:20.275Z</time></trkpt><trkpt lat="44.844602" lon="10.4520684"><ele>35.0</ele><time>2026-04-20T13:45:22.276Z</time></trkpt><trkpt lat="44.8445293" lon="10.4521057"><ele>35.0</ele><time>2026-04-20T13:45:24.276Z</time></trkpt><trkpt lat="44.8444203" lon="10.4521452"><ele>35.0</ele><time>2026-04-20T13:45:27.276Z</time></trkpt><trkpt lat="44.8443454" lon="10.4521758"><ele>35.0</ele><time>2026-04-20T13:45:29.275Z</time></trkpt><trkpt lat="44.8442803" lon="10.4521917"><ele>35.0</ele><time>2026-04-20T13:45:31.275Z</time></trkpt><trkpt lat="44.8441825" lon="10.4522059"><ele>35.0</ele><time>2026-04-20T13:45:34.275Z</time></trkpt><trkpt lat="44.8441174" lon="10.4522347"><ele>35.0</ele><time>2026-04-20T13:45:36.276Z</time></trkpt><trkpt lat="44.8440289" lon="10.4522691"><ele>35.142857142857146</ele><time>2026-04-20T13:45:39.276Z</time></trkpt><trkpt lat="44.843952" lon="10.4522825"><ele>35.285714285714285</ele><time>2026-04-20T13:45:42.275Z</time></trkpt><trkpt lat="44.8439143" lon="10.4523742"><ele>35.42857142857143</ele><time>2026-04-20T13:46:11.275Z</time></trkpt><trkpt lat="44.8438729" lon="10.452445"><ele>35.57142857142857</ele><time>2026-04-20T13:46:15.275Z</time></trkpt><trkpt lat="44.8438415" lon="10.4525272"><ele>35.714285714285715</ele><time>2026-04-20T13:46:19.276Z</time></trkpt><trkpt lat="44.8438646" lon="10.4526283"><ele>35.85714285714286</ele><time>2026-04-20T13:46:22.276Z</time></trkpt><trkpt lat="44.8438682" lon="10.4527191"><ele>36.0</ele><time>2026-04-20T13:46:24.275Z</time></trkpt><trkpt lat="44.8438719" lon="10.4528165"><ele>36.0</ele><time>2026-04-20T13:46:26.275Z</time></trkpt><trkpt lat="44.8438783" lon="10.4529376"><ele>36.0</ele><time>2026-04-20T13:46:29.276Z</time></trkpt><trkpt lat="44.8438815" lon="10.4530401"><ele>36.0</ele><time>2026-04-20T13:46:31.275Z</time></trkpt><trkpt lat="44.843891" lon="10.4531413"><ele>36.0</ele><time>2026-04-20T13:46:33.275Z</time></trkpt><trkpt lat="44.8439" lon="10.4532395"><ele>36.0</ele><time>2026-04-20T13:46:35.276Z</time></trkpt><trkpt lat="44.8439119" lon="10.4533683"><ele>36.0</ele><time>2026-04-20T13:46:38.275Z</time></trkpt><trkpt lat="44.8439202" lon="10.4534611"><ele>35.5</ele><time>2026-04-20T13:46:40.275Z</time></trkpt><trkpt lat="44.8439329" lon="10.4535893"><ele>35.0</ele><time>2026-04-20T13:46:43.276Z</time></trkpt><trkpt lat="44.843945" lon="10.4536801"><ele>34.5</ele><time>2026-04-20T13:46:45.275Z</time></trkpt><trkpt lat="44.8439513" lon="10.453773"><ele>34.0</ele><time>2026-04-20T13:46:47.275Z</time></trkpt><trkpt lat="44.8439623" lon="10.4539082"><ele>33.5</ele><time>2026-04-20T13:46:49.275Z</time></trkpt><trkpt lat="44.8439776" lon="10.4540354"><ele>33.0</ele><time>2026-04-20T13:46:51.276Z</time></trkpt><trkpt lat="44.8439658" lon="10.4541451"><ele>32.833333333333336</ele><time>2026-04-20T13:46:53.275Z</time></trkpt><trkpt lat="44.8439654" lon="10.4542375"><ele>32.666666666666664</ele><time>2026-04-20T13:46:54.275Z</time></trkpt><trkpt lat="44.8439806" lon="10.4543872"><ele>32.5</ele><time>2026-04-20T13:46:56.275Z</time></trkpt><trkpt lat="44.844021" lon="10.4544599"><ele>32.33333333333333</ele><time>2026-04-20T13:46:58.276Z</time></trkpt><trkpt lat="44.8440282" lon="10.4545657"><ele>32.166666666666664</ele><time>2026-04-20T13:47:01.276Z</time></trkpt><trkpt lat="44.8440883" lon="10.4545033"><ele>32.0</ele><time>2026-04-20T13:47:07.275Z</time></trkpt><trkpt lat="44.8441812" lon="10.4544274"><ele>31.999999999999996</ele><time>2026-04-20T13:47:11.276Z</time></trkpt><trkpt lat="44.8442609" lon="10.4544098"><ele>32.0</ele><time>2026-04-20T13:47:13.275Z</time></trkpt><trkpt lat="44.8443396" lon="10.4544062"><ele>32.0</ele><time>2026-04-20T13:47:15.276Z</time></trkpt><trkpt lat="44.8444247" lon="10.4544138"><ele>32.0</ele><time>2026-04-20T13:47:17.275Z</time></trkpt><trkpt lat="44.8444923" lon="10.4544357"><ele>31.999999999999996</ele><time>2026-04-20T13:47:19.275Z</time></trkpt><trkpt lat="44.8445616" lon="10.454474"><ele>32.0</ele><time>2026-04-20T13:47:21.276Z</time></trkpt><trkpt lat="44.8446252" lon="10.4545162"><ele>32.33333333333333</ele><time>2026-04-20T13:47:23.275Z</time></trkpt><trkpt lat="44.844689" lon="10.454561"><ele>32.666666666666664</ele><time>2026-04-20T13:47:25.276Z</time></trkpt><trkpt lat="44.8447568" lon="10.4546119"><ele>33.0</ele><time>2026-04-20T13:47:27.275Z</time></trkpt><trkpt lat="44.8448232" lon="10.4546609"><ele>33.333333333333336</ele><time>2026-04-20T13:47:29.275Z</time></trkpt><trkpt lat="44.8448833" lon="10.4547062"><ele>33.66666666666667</ele><time>2026-04-20T13:47:31.275Z</time></trkpt><trkpt lat="44.8449946" lon="10.4547816"><ele>34.0</ele><time>2026-04-20T13:47:34.276Z</time></trkpt><trkpt lat="44.8450723" lon="10.4547993"><ele>34.0</ele><time>2026-04-20T13:47:36.275Z</time></trkpt><trkpt lat="44.8451541" lon="10.4547889"><ele>34.0</ele><time>2026-04-20T13:47:38.276Z</time></trkpt><trkpt lat="44.845243" lon="10.4547545"><ele>34.0</ele><time>2026-04-20T13:47:40.275Z</time></trkpt><trkpt lat="44.8453241" lon="10.4546868"><ele>34.0</ele><time>2026-04-20T13:47:42.276Z</time></trkpt><trkpt lat="44.8453835" lon="10.4546478"><ele>34.0</ele><time>2026-04-20T13:47:44.275Z</time></trkpt><trkpt lat="44.8454397" lon="10.4545993"><ele>34.0</ele><time>2026-04-20T13:47:46.276Z</time></trkpt><trkpt lat="44.845531" lon="10.4545719"><ele>34.0</ele><time>2026-04-20T13:47:49.275Z</time></trkpt><trkpt lat="44.8456219" lon="10.4546066"><ele>34.0</ele><time>2026-04-20T13:47:50.276Z</time></trkpt><trkpt lat="44.8457166" lon="10.4546448"><ele>34.0</ele><time>2026-04-20T13:47:52.275Z</time></trkpt><trkpt lat="44.8457817" lon="10.4546907"><ele>34.0</ele><time>2026-04-20T13:48:30.275Z</time></trkpt><trkpt lat="44.8458504" lon="10.4547351"><ele>34.0</ele><time>2026-04-20T13:48:34.275Z</time></trkpt><trkpt lat="44.845912" lon="10.454779"><ele>34.0</ele><time>2026-04-20T13:48:37.275Z</time></trkpt><trkpt lat="44.8459962" lon="10.4548351"><ele>33.857142857142854</ele><time>2026-04-20T13:48:40.276Z</time></trkpt><trkpt lat="44.8460799" lon="10.4548748"><ele>33.714285714285715</ele><time>2026-04-20T13:48:43.275Z</time></trkpt><trkpt lat="44.846144" lon="10.4549302"><ele>33.57142857142857</ele><time>2026-04-20T13:48:47.276Z</time></trkpt><trkpt lat="44.8462145" lon="10.4549714"><ele>33.42857142857143</ele><time>2026-04-20T13:48:51.276Z</time></trkpt><trkpt lat="44.846275" lon="10.4550093"><ele>33.285714285714285</ele><time>2026-04-20T13:48:54.276Z</time></trkpt><trkpt lat="44.84634" lon="10.4550439"><ele>33.14285714285714</ele><time>2026-04-20T13:48:57.276Z</time></trkpt><trkpt lat="44.8464075" lon="10.4550749"><ele>33.0</ele><time>2026-04-20T13:49:00.275Z</time></trkpt><trkpt lat="44.8464704" lon="10.4551121"><ele>33.0</ele><time>2026-04-20T13:49:03.276Z</time></trkpt><trkpt lat="44.8465361" lon="10.455153"><ele>33.0</ele><time>2026-04-20T13:49:06.275Z</time></trkpt><trkpt lat="44.8465983" lon="10.4551956"><ele>33.0</ele><time>2026-04-20T13:49:09.275Z</time></trkpt><trkpt lat="44.846667" lon="10.4552325"><ele>33.0</ele><time>2026-04-20T13:49:12.276Z</time></trkpt><trkpt lat="44.8467302" lon="10.4552602"><ele>33.0</ele><time>2026-04-20T13:49:15.276Z</time></trkpt><trkpt lat="44.8467913" lon="10.4552868"><ele>33.0</ele><time>2026-04-20T13:49:18.275Z</time></trkpt><trkpt lat="44.8468522" lon="10.4553306"><ele>33.0</ele><time>2026-04-20T13:49:21.276Z</time></trkpt><trkpt lat="44.8469126" lon="10.4553698"><ele>33.0</ele><time>2026-04-20T13:49:24.276Z</time></trkpt><trkpt lat="44.8469756" lon="10.4554027"><ele>33.0</ele><time>2026-04-20T13:49:27.275Z</time></trkpt><trkpt lat="44.8470439" lon="10.4554288"><ele>33.0</ele><time>2026-04-20T13:49:30.275Z</time></trkpt><trkpt lat="44.8471161" lon="10.4554585"><ele>33.0</ele><time>2026-04-20T13:49:33.276Z</time></trkpt><trkpt lat="44.8471786" lon="10.4554853"><ele>33.0</ele><time>2026-04-20T13:49:35.276Z</time></trkpt><trkpt lat="44.8472516" lon="10.455543"><ele>33.0</ele><time>2026-04-20T13:49:38.275Z</time></trkpt><trkpt lat="44.8473003" lon="10.4556087"><ele>33.0</ele><time>2026-04-20T13:49:40.275Z</time></trkpt><trkpt lat="44.8473529" lon="10.455666"><ele>33.199999999999996</ele><time>2026-04-20T13:49:42.276Z</time></trkpt><trkpt lat="44.8474087" lon="10.4557419"><ele>33.4</ele><time>2026-04-20T13:49:44.276Z</time></trkpt><trkpt lat="44.8474396" lon="10.4558754"><ele>33.599999999999994</ele><time>2026-04-20T13:49:45.276Z</time></trkpt><trkpt lat="44.8474978" lon="10.4559856"><ele>33.8</ele><time>2026-04-20T13:49:47.276Z</time></trkpt><trkpt lat="44.8475676" lon="10.456094"><ele>34.0</ele><time>2026-04-20T13:49:49.276Z</time></trkpt><trkpt lat="44.8476079" lon="10.4562136"><ele>33.25</ele><time>2026-04-20T13:49:50.275Z</time></trkpt><trkpt lat="44.8476661" lon="10.4563322"><ele>32.5</ele><time>2026-04-20T13:49:52.275Z</time></trkpt><trkpt lat="44.8477258" lon="10.4564805"><ele>31.75</ele><time>2026-04-20T13:49:54.276Z</time></trkpt><trkpt lat="44.8477778" lon="10.4566351"><ele>31.0</ele><time>2026-04-20T13:49:56.275Z</time></trkpt><trkpt lat="44.8478373" lon="10.4567625"><ele>31.0</ele><time>2026-04-20T13:49:58.275Z</time></trkpt><trkpt lat="44.8478976" lon="10.4569008"><ele>31.0</ele><time>2026-04-20T13:50:00.276Z</time></trkpt><trkpt lat="44.8479742" lon="10.4570185"><ele>31.0</ele><time>2026-04-20T13:50:02.276Z</time></trkpt><trkpt lat="44.848021" lon="10.4571022"><ele>31.0</ele><time>2026-04-20T13:50:04.275Z</time></trkpt><trkpt lat="44.8480688" lon="10.457208"><ele>31.0</ele><time>2026-04-20T13:50:06.275Z</time></trkpt><trkpt lat="44.8481227" lon="10.4573841"><ele>31.0</ele><time>2026-04-20T13:50:08.275Z</time></trkpt><trkpt lat="44.8481586" lon="10.457507"><ele>31.0</ele><time>2026-04-20T13:50:10.276Z</time></trkpt><trkpt lat="44.848172" lon="10.4576646"><ele>31.0</ele><time>2026-04-20T13:50:12.275Z</time></trkpt><trkpt lat="44.8481398" lon="10.4577501"><ele>31.0</ele><time>2026-04-20T13:50:13.276Z</time></trkpt><trkpt lat="44.8480735" lon="10.4578668"><ele>31.0</ele><time>2026-04-20T13:50:15.275Z</time></trkpt><trkpt lat="44.8480111" lon="10.4579843"><ele>31.0</ele><time>2026-04-20T13:50:17.276Z</time></trkpt><trkpt lat="44.8479751" lon="10.4580576"><ele>31.0</ele><time>2026-04-20T13:50:18.275Z</time></trkpt><trkpt lat="44.8479573" lon="10.4582135"><ele>31.0</ele><time>2026-04-20T13:50:20.275Z</time></trkpt><trkpt lat="44.8479589" lon="10.458376"><ele>31.0</ele><time>2026-04-20T13:50:22.275Z</time></trkpt><trkpt lat="44.84797" lon="10.4584718"><ele>31.0</ele><time>2026-04-20T13:50:23.275Z</time></trkpt><trkpt lat="44.8480075" lon="10.4586197"><ele>31.0</ele><time>2026-04-20T13:50:25.275Z</time></trkpt><trkpt lat="44.8480694" lon="10.458653"><ele>31.0</ele><time>2026-04-20T13:50:27.275Z</time></trkpt><trkpt lat="44.8481172" lon="10.4588088"><ele>31.0</ele><time>2026-04-20T13:50:29.276Z</time></trkpt><trkpt lat="44.8481607" lon="10.4590011"><ele>31.0</ele><time>2026-04-20T13:50:31.275Z</time></trkpt><trkpt lat="44.8481834" lon="10.4590857"><ele>31.0</ele><time>2026-04-20T13:50:32.276Z</time></trkpt><trkpt lat="44.8482047" lon="10.4591726"><ele>31.000000000000004</ele><time>2026-04-20T13:50:33.275Z</time></trkpt><trkpt lat="44.848251" lon="10.459244"><ele>31.0</ele><time>2026-04-20T13:50:34.275Z</time></trkpt><trkpt lat="44.8482704" lon="10.4593358"><ele>31.0</ele><time>2026-04-20T13:50:35.275Z</time></trkpt><trkpt lat="44.8483437" lon="10.4594859"><ele>31.0</ele><time>2026-04-20T13:50:37.275Z</time></trkpt><trkpt lat="44.8484351" lon="10.45955"><ele>31.000000000000004</ele><time>2026-04-20T13:50:39.275Z</time></trkpt><trkpt lat="44.8484958" lon="10.4595901"><ele>31.0</ele><time>2026-04-20T13:50:40.275Z</time></trkpt><trkpt lat="44.8485479" lon="10.4597417"><ele>31.000000000000004</ele><time>2026-04-20T13:50:41.276Z</time></trkpt><trkpt lat="44.8486022" lon="10.4597904"><ele>31.0</ele><time>2026-04-20T13:50:42.276Z</time></trkpt><trkpt lat="44.8487077" lon="10.4598776"><ele>31.0</ele><time>2026-04-20T13:50:44.276Z</time></trkpt><trkpt lat="44.848761" lon="10.4599804"><ele>31.0</ele><time>2026-04-20T13:50:46.275Z</time></trkpt><trkpt lat="44.8488267" lon="10.4600087"><ele>31.000000000000004</ele><time>2026-04-20T13:50:48.276Z</time></trkpt><trkpt lat="44.8488924" lon="10.4600185"><ele>31.0</ele><time>2026-04-20T13:53:04.275Z</time></trkpt><trkpt lat="44.8489561" lon="10.460124"><ele>31.0</ele><time>2026-04-20T13:53:07.276Z</time></trkpt><trkpt lat="44.8490256" lon="10.4602081"><ele>31.0</ele><time>2026-04-20T13:53:09.275Z</time></trkpt><trkpt lat="44.8491208" lon="10.4603091"><ele>31.0</ele><time>2026-04-20T13:53:11.274Z</time></trkpt><trkpt lat="44.8491825" lon="10.460396"><ele>31.0</ele><time>2026-04-20T13:53:13.275Z</time></trkpt><trkpt lat="44.8492736" lon="10.4604657"><ele>31.0</ele><time>2026-04-20T13:53:15.276Z</time></trkpt><trkpt lat="44.8493966" lon="10.4605431"><ele>31.25</ele><time>2026-04-20T13:53:17.276Z</time></trkpt><trkpt lat="44.8494891" lon="10.4606388"><ele>31.5</ele><time>2026-04-20T13:53:19.275Z</time></trkpt><trkpt lat="44.8496178" lon="10.4607276"><ele>31.75</ele><time>2026-04-20T13:53:21.276Z</time></trkpt><trkpt lat="44.8497179" lon="10.4607959"><ele>32.0</ele><time>2026-04-20T13:53:23.275Z</time></trkpt><trkpt lat="44.8498222" lon="10.4608612"><ele>32.0</ele><time>2026-04-20T13:53:25.275Z</time></trkpt><trkpt lat="44.8498903" lon="10.460905"><ele>32.0</ele><time>2026-04-20T13:53:27.276Z</time></trkpt><trkpt lat="44.8500316" lon="10.4609617"><ele>32.0</ele><time>2026-04-20T13:53:30.276Z</time></trkpt><trkpt lat="44.8501294" lon="10.460949"><ele>32.0</ele><time>2026-04-20T13:53:31.275Z</time></trkpt><trkpt lat="44.8502098" lon="10.4609354"><ele>32.0</ele><time>2026-04-20T13:53:32.275Z</time></trkpt><trkpt lat="44.8502928" lon="10.4609144"><ele>31.999999999999996</ele><time>2026-04-20T13:53:33.275Z</time></trkpt><trkpt lat="44.8503591" lon="10.4608989"><ele>32.0</ele><time>2026-04-20T13:53:34.276Z</time></trkpt><trkpt lat="44.8504746" lon="10.4608501"><ele>32.0</ele><time>2026-04-20T13:53:36.275Z</time></trkpt><trkpt lat="44.8505511" lon="10.4608431"><ele>32.0</ele><time>2026-04-20T13:53:37.275Z</time></trkpt><trkpt lat="44.8506189" lon="10.4608254"><ele>31.999999999999996</ele><time>2026-04-20T13:53:38.275Z</time></trkpt><trkpt lat="44.8507297" lon="10.4608024"><ele>32.0</ele><time>2026-04-20T13:53:40.276Z</time></trkpt><trkpt lat="44.8508732" lon="10.4607947"><ele>32.4</ele><time>2026-04-20T13:53:42.275Z</time></trkpt><trkpt lat="44.85101" lon="10.4608298"><ele>32.800000000000004</ele><time>2026-04-20T13:53:44.275Z</time></trkpt><trkpt lat="44.8511042" lon="10.4609388"><ele>33.2</ele><time>2026-04-20T13:53:46.275Z</time></trkpt><trkpt lat="44.8511565" lon="10.4609912"><ele>33.6</ele><time>2026-04-20T13:53:47.275Z</time></trkpt><trkpt lat="44.8511991" lon="10.4610609"><ele>34.0</ele><time>2026-04-20T13:53:48.276Z</time></trkpt><trkpt lat="44.8512474" lon="10.4611317"><ele>33.8</ele><time>2026-04-20T13:53:49.275Z</time></trkpt><trkpt lat="44.8513373" lon="10.4612842"><ele>33.599999999999994</ele><time>2026-04-20T13:53:51.276Z</time></trkpt><trkpt lat="44.8513783" lon="10.4613524"><ele>33.4</ele><time>2026-04-20T13:53:52.275Z</time></trkpt><trkpt lat="44.8514267" lon="10.4614309"><ele>33.199999999999996</ele><time>2026-04-20T13:53:53.276Z</time></trkpt><trkpt lat="44.851519" lon="10.4615734"><ele>33.0</ele><time>2026-04-20T13:53:55.275Z</time></trkpt><trkpt lat="44.8515819" lon="10.4616442"><ele>33.0</ele><time>2026-04-20T13:53:56.275Z</time></trkpt><trkpt lat="44.8516498" lon="10.4617842"><ele>33.0</ele><time>2026-04-20T13:53:58.275Z</time></trkpt><trkpt lat="44.8516889" lon="10.4618574"><ele>33.0</ele><time>2026-04-20T13:53:59.275Z</time></trkpt><trkpt lat="44.8517334" lon="10.4619429"><ele>33.0</ele><time>2026-04-20T13:54:00.275Z</time></trkpt><trkpt lat="44.8517782" lon="10.462011"><ele>33.0</ele><time>2026-04-20T13:54:01.275Z</time></trkpt><trkpt lat="44.8518185" lon="10.4621099"><ele>33.0</ele><time>2026-04-20T13:54:02.275Z</time></trkpt><trkpt lat="44.8518574" lon="10.462186"><ele>32.8</ele><time>2026-04-20T13:54:03.276Z</time></trkpt><trkpt lat="44.8518887" lon="10.4622756"><ele>32.599999999999994</ele><time>2026-04-20T13:54:04.275Z</time></trkpt><trkpt lat="44.8519301" lon="10.4623536"><ele>32.400000000000006</ele><time>2026-04-20T13:54:05.276Z</time></trkpt><trkpt lat="44.851987" lon="10.4625059"><ele>32.2</ele><time>2026-04-20T13:54:07.275Z</time></trkpt><trkpt lat="44.8520202" lon="10.4626618"><ele>32.0</ele><time>2026-04-20T13:54:09.276Z</time></trkpt><trkpt lat="44.8520293" lon="10.4628415"><ele>31.999999999999996</ele><time>2026-04-20T13:54:11.276Z</time></trkpt><trkpt lat="44.8520395" lon="10.4629355"><ele>32.0</ele><time>2026-04-20T13:54:12.276Z</time></trkpt><trkpt lat="44.8520622" lon="10.4631119"><ele>32.0</ele><time>2026-04-20T13:54:14.276Z</time></trkpt><trkpt lat="44.8520843" lon="10.4632645"><ele>32.0</ele><time>2026-04-20T13:54:16.275Z</time></trkpt><trkpt lat="44.8520707" lon="10.4633656"><ele>31.999999999999996</ele><time>2026-04-20T13:54:17.275Z</time></trkpt><trkpt lat="44.8520774" lon="10.4634576"><ele>32.0</ele><time>2026-04-20T13:54:18.275Z</time></trkpt><trkpt lat="44.8520913" lon="10.463582"><ele>32.0</ele><time>2026-04-20T13:54:19.276Z</time></trkpt><trkpt lat="44.852105" lon="10.4636925"><ele>31.999999999999996</ele><time>2026-04-20T13:54:20.275Z</time></trkpt><trkpt lat="44.8521244" lon="10.4637825"><ele>32.0</ele><time>2026-04-20T13:54:21.276Z</time></trkpt><trkpt lat="44.8521593" lon="10.4638853"><ele>32.0</ele><time>2026-04-20T13:54:22.276Z</time></trkpt><trkpt lat="44.8521963" lon="10.4639684"><ele>31.999999999999996</ele><time>2026-04-20T13:54:23.276Z</time></trkpt><trkpt lat="44.8522308" lon="10.4640508"><ele>32.0</ele><time>2026-04-20T13:54:24.275Z</time></trkpt><trkpt lat="44.8522758" lon="10.4641314"><ele>32.0</ele><time>2026-04-20T13:54:25.276Z</time></trkpt><trkpt lat="44.8523172" lon="10.4642067"><ele>31.857142857142854</ele><time>2026-04-20T13:54:26.276Z</time></trkpt><trkpt lat="44.8523646" lon="10.4642804"><ele>31.71428571428571</ele><time>2026-04-20T13:54:27.276Z</time></trkpt><trkpt lat="44.8524076" lon="10.4643566"><ele>31.57142857142857</ele><time>2026-04-20T13:54:28.275Z</time></trkpt><trkpt lat="44.852459" lon="10.4644152"><ele>31.42857142857143</ele><time>2026-04-20T13:54:29.276Z</time></trkpt><trkpt lat="44.8525076" lon="10.4644825"><ele>31.28571428571429</ele><time>2026-04-20T13:54:30.275Z</time></trkpt><trkpt lat="44.8525573" lon="10.4645476"><ele>31.142857142857146</ele><time>2026-04-20T13:54:31.276Z</time></trkpt><trkpt lat="44.8526083" lon="10.4646252"><ele>31.0</ele><time>2026-04-20T13:54:32.276Z</time></trkpt><trkpt lat="44.8526605" lon="10.4646843"><ele>31.0</ele><time>2026-04-20T13:54:33.275Z</time></trkpt><trkpt lat="44.8527695" lon="10.4647788"><ele>31.0</ele><time>2026-04-20T13:54:35.275Z</time></trkpt><trkpt lat="44.8528217" lon="10.4648325"><ele>31.0</ele><time>2026-04-20T13:54:36.275Z</time></trkpt><trkpt lat="44.8529108" lon="10.4649411"><ele>31.0</ele><time>2026-04-20T13:54:38.275Z</time></trkpt><trkpt lat="44.852967" lon="10.4650664"><ele>31.0</ele><time>2026-04-20T13:54:40.275Z</time></trkpt><trkpt lat="44.8529968" lon="10.4651836"><ele>31.0</ele><time>2026-04-20T13:54:42.276Z</time></trkpt><trkpt lat="44.8530386" lon="10.465283"><ele>31.0</ele><time>2026-04-20T13:54:44.276Z</time></trkpt><trkpt lat="44.8531172" lon="10.4653257"><ele>31.0</ele><time>2026-04-20T13:54:47.276Z</time></trkpt><trkpt lat="44.8532136" lon="10.4652708"><ele>31.0</ele><time>2026-04-20T13:54:49.275Z</time></trkpt><trkpt lat="44.8533102" lon="10.4652992"><ele>31.0</ele><time>2026-04-20T13:54:51.276Z</time></trkpt><trkpt lat="44.8533967" lon="10.4653578"><ele>31.000000000000004</ele><time>2026-04-20T13:54:53.276Z</time></trkpt><trkpt lat="44.8534606" lon="10.4653902"><ele>31.0</ele><time>2026-04-20T13:54:54.276Z</time></trkpt><trkpt lat="44.8535545" lon="10.4654564"><ele>31.0</ele><time>2026-04-20T13:54:56.276Z</time></trkpt><trkpt lat="44.8536131" lon="10.4655022"><ele>31.0</ele><time>2026-04-20T13:54:57.275Z</time></trkpt><trkpt lat="44.8536725" lon="10.4655448"><ele>31.000000000000004</ele><time>2026-04-20T13:54:58.276Z</time></trkpt><trkpt lat="44.8537343" lon="10.4655918"><ele>31.0</ele><time>2026-04-20T13:54:59.276Z</time></trkpt><trkpt lat="44.8537935" lon="10.4656977"><ele>31.0</ele><time>2026-04-20T13:55:01.275Z</time></trkpt><trkpt lat="44.8538604" lon="10.4657423"><ele>31.0</ele><time>2026-04-20T13:55:02.275Z</time></trkpt><trkpt lat="44.8539745" lon="10.465788"><ele>31.0</ele><time>2026-04-20T13:55:04.276Z</time></trkpt><trkpt lat="44.8540347" lon="10.4658412"><ele>31.0</ele><time>2026-04-20T13:55:05.275Z</time></trkpt><trkpt lat="44.8540938" lon="10.4658833"><ele>31.0</ele><time>2026-04-20T13:55:06.275Z</time></trkpt><trkpt lat="44.8542025" lon="10.4659602"><ele>31.0</ele><time>2026-04-20T13:55:08.276Z</time></trkpt><trkpt lat="44.8542608" lon="10.4659947"><ele>31.000000000000004</ele><time>2026-04-20T13:55:09.275Z</time></trkpt><trkpt lat="44.8543341" lon="10.4660143"><ele>31.0</ele><time>2026-04-20T13:55:10.275Z</time></trkpt><trkpt lat="44.8543976" lon="10.4660479"><ele>31.0</ele><time>2026-04-20T13:55:11.275Z</time></trkpt><trkpt lat="44.8544662" lon="10.4660778"><ele>31.000000000000004</ele><time>2026-04-20T13:55:12.275Z</time></trkpt><trkpt lat="44.8545608" lon="10.4661068"><ele>31.0</ele><time>2026-04-20T13:55:13.276Z</time></trkpt><trkpt lat="44.8546257" lon="10.4661363"><ele>31.0</ele><time>2026-04-20T13:55:14.276Z</time></trkpt><trkpt lat="44.8547033" lon="10.4661319"><ele>31.200000000000003</ele><time>2026-04-20T13:55:15.275Z</time></trkpt><trkpt lat="44.8548206" lon="10.4661492"><ele>31.400000000000002</ele><time>2026-04-20T13:55:16.276Z</time></trkpt><trkpt lat="44.8548946" lon="10.4661789"><ele>31.6</ele><time>2026-04-20T13:55:17.275Z</time></trkpt><trkpt lat="44.855005" lon="10.4661597"><ele>31.8</ele><time>2026-04-20T13:55:19.276Z</time></trkpt><trkpt lat="44.8550818" lon="10.466131"><ele>32.0</ele><time>2026-04-20T13:55:20.276Z</time></trkpt><trkpt lat="44.8551477" lon="10.466133"><ele>32.0</ele><time>2026-04-20T13:55:21.276Z</time></trkpt><trkpt lat="44.8552123" lon="10.4661216"><ele>32.0</ele><time>2026-04-20T13:55:22.276Z</time></trkpt><trkpt lat="44.8553071" lon="10.4660801"><ele>32.0</ele><time>2026-04-20T13:55:24.276Z</time></trkpt><trkpt lat="44.8554023" lon="10.4659806"><ele>32.0</ele><time>2026-04-20T13:55:26.275Z</time></trkpt><trkpt lat="44.8554871" lon="10.4659353"><ele>32.0</ele><time>2026-04-20T13:55:28.276Z</time></trkpt><trkpt lat="44.8555939" lon="10.4658421"><ele>32.0</ele><time>2026-04-20T13:55:30.275Z</time></trkpt><trkpt lat="44.8556642" lon="10.4657541"><ele>32.0</ele><time>2026-04-20T13:55:32.276Z</time></trkpt><trkpt lat="44.8557445" lon="10.4656605"><ele>32.0</ele><time>2026-04-20T13:55:34.275Z</time></trkpt><trkpt lat="44.8558119" lon="10.4655793"><ele>32.0</ele><time>2026-04-20T13:55:36.276Z</time></trkpt><trkpt lat="44.8559102" lon="10.4654878"><ele>32.0</ele><time>2026-04-20T13:55:38.275Z</time></trkpt><trkpt lat="44.8559818" lon="10.465412"><ele>32.0</ele><time>2026-04-20T13:55:39.275Z</time></trkpt><trkpt lat="44.8560829" lon="10.4652925"><ele>32.0</ele><time>2026-04-20T13:55:41.275Z</time></trkpt><trkpt lat="44.8561837" lon="10.4652068"><ele>32.0</ele><time>2026-04-20T13:55:43.276Z</time></trkpt><trkpt lat="44.8562531" lon="10.4651358"><ele>32.0</ele><time>2026-04-20T13:55:45.276Z</time></trkpt><trkpt lat="44.8563422" lon="10.4650747"><ele>32.0</ele><time>2026-04-20T13:55:47.276Z</time></trkpt><trkpt lat="44.8564131" lon="10.4649755"><ele>32.0</ele><time>2026-04-20T13:55:49.276Z</time></trkpt><trkpt lat="44.8565064" lon="10.4648249"><ele>32.0</ele><time>2026-04-20T13:55:51.275Z</time></trkpt><trkpt lat="44.8565634" lon="10.4647255"><ele>32.0</ele><time>2026-04-20T13:55:53.276Z</time></trkpt><trkpt lat="44.8566566" lon="10.4646159"><ele>32.0</ele><time>2026-04-20T13:55:55.276Z</time></trkpt><trkpt lat="44.8567526" lon="10.4644848"><ele>31.8</ele><time>2026-04-20T13:55:57.275Z</time></trkpt><trkpt lat="44.8567977" lon="10.4644189"><ele>31.6</ele><time>2026-04-20T13:55:58.276Z</time></trkpt><trkpt lat="44.8568586" lon="10.4642963"><ele>31.400000000000002</ele><time>2026-04-20T13:56:00.276Z</time></trkpt><trkpt lat="44.8569049" lon="10.4642338"><ele>31.200000000000003</ele><time>2026-04-20T13:56:01.275Z</time></trkpt><trkpt lat="44.8569905" lon="10.4640931"><ele>31.0</ele><time>2026-04-20T13:56:03.275Z</time></trkpt><trkpt lat="44.8570733" lon="10.4639797"><ele>31.0</ele><time>2026-04-20T13:56:05.276Z</time></trkpt><trkpt lat="44.8571298" lon="10.4639236"><ele>31.0</ele><time>2026-04-20T13:56:06.276Z</time></trkpt><trkpt lat="44.8572395" lon="10.4638837"><ele>31.0</ele><time>2026-04-20T13:56:08.276Z</time></trkpt><trkpt lat="44.8573477" lon="10.463923"><ele>31.0</ele><time>2026-04-20T13:56:10.275Z</time></trkpt><trkpt lat="44.857428" lon="10.463987"><ele>31.0</ele><time>2026-04-20T13:56:12.276Z</time></trkpt><trkpt lat="44.8574974" lon="10.4641491"><ele>31.0</ele><time>2026-04-20T13:56:15.276Z</time></trkpt><trkpt lat="44.8575284" lon="10.4642664"><ele>31.0</ele><time>2026-04-20T13:56:17.275Z</time></trkpt><trkpt lat="44.8575556" lon="10.4644085"><ele>31.0</ele><time>2026-04-20T13:56:19.276Z</time></trkpt><trkpt lat="44.8575926" lon="10.4645621"><ele>31.0</ele><time>2026-04-20T13:56:21.275Z</time></trkpt><trkpt lat="44.8576369" lon="10.4647248"><ele>31.0</ele><time>2026-04-20T13:56:23.275Z</time></trkpt><trkpt lat="44.8576825" lon="10.4648307"><ele>31.0</ele><time>2026-04-20T13:56:25.275Z</time></trkpt><trkpt lat="44.8577033" lon="10.4649774"><ele>31.0</ele><time>2026-04-20T13:56:27.276Z</time></trkpt><trkpt lat="44.8577323" lon="10.46514"><ele>31.0</ele><time>2026-04-20T13:56:29.276Z</time></trkpt><trkpt lat="44.8577534" lon="10.4652892"><ele>31.0</ele><time>2026-04-20T13:56:31.276Z</time></trkpt><trkpt lat="44.8577835" lon="10.4654341"><ele>31.0</ele><time>2026-04-20T13:56:33.275Z</time></trkpt><trkpt lat="44.8578336" lon="10.4655667"><ele>31.0</ele><time>2026-04-20T13:56:35.275Z</time></trkpt><trkpt lat="44.8578759" lon="10.465718"><ele>31.0</ele><time>2026-04-20T13:56:37.276Z</time></trkpt><trkpt lat="44.8579182" lon="10.4658685"><ele>31.0</ele><time>2026-04-20T13:56:39.275Z</time></trkpt><trkpt lat="44.8579592" lon="10.4660108"><ele>31.0</ele><time>2026-04-20T13:56:41.275Z</time></trkpt><trkpt lat="44.8579906" lon="10.4661468"><ele>31.0</ele><time>2026-04-20T13:56:43.275Z</time></trkpt><trkpt lat="44.8580176" lon="10.4662901"><ele>30.8</ele><time>2026-04-20T13:56:45.276Z</time></trkpt><trkpt lat="44.8580513" lon="10.4664263"><ele>30.6</ele><time>2026-04-20T13:56:47.276Z</time></trkpt><trkpt lat="44.8580658" lon="10.4665238"><ele>30.4</ele><time>2026-04-20T13:56:48.276Z</time></trkpt><trkpt lat="44.858095" lon="10.4666576"><ele>30.2</ele><time>2026-04-20T13:56:50.276Z</time></trkpt><trkpt lat="44.8581283" lon="10.4667949"><ele>30.0</ele><time>2026-04-20T13:56:52.276Z</time></trkpt><trkpt lat="44.8581448" lon="10.4669363"><ele>30.0</ele><time>2026-04-20T13:56:54.275Z</time></trkpt><trkpt lat="44.8581723" lon="10.4670318"><ele>30.0</ele><time>2026-04-20T13:56:56.276Z</time></trkpt><trkpt lat="44.8581866" lon="10.467166"><ele>30.0</ele><time>2026-04-20T13:56:58.275Z</time></trkpt><trkpt lat="44.8581962" lon="10.467315"><ele>30.0</ele><time>2026-04-20T13:57:00.276Z</time></trkpt><trkpt lat="44.8582143" lon="10.4674307"><ele>30.0</ele><time>2026-04-20T13:57:02.276Z</time></trkpt><trkpt lat="44.8582149" lon="10.4675868"><ele>30.0</ele><time>2026-04-20T13:57:04.275Z</time></trkpt><trkpt lat="44.8582099" lon="10.4677549"><ele>30.0</ele><time>2026-04-20T13:57:06.275Z</time></trkpt><trkpt lat="44.8581957" lon="10.4679185"><ele>30.0</ele><time>2026-04-20T13:57:08.276Z</time></trkpt><trkpt lat="44.8582092" lon="10.4680703"><ele>30.0</ele><time>2026-04-20T13:57:10.276Z</time></trkpt><trkpt lat="44.858193" lon="10.468232"><ele>30.0</ele><time>2026-04-20T13:57:12.275Z</time></trkpt><trkpt lat="44.8581582" lon="10.4683893"><ele>30.0</ele><time>2026-04-20T13:57:14.276Z</time></trkpt><trkpt lat="44.8581186" lon="10.4685444"><ele>30.0</ele><time>2026-04-20T13:57:16.276Z</time></trkpt><trkpt lat="44.8580743" lon="10.4687004"><ele>30.0</ele><time>2026-04-20T13:57:18.275Z</time></trkpt><trkpt lat="44.8580326" lon="10.4688563"><ele>30.25</ele><time>2026-04-20T13:57:20.276Z</time></trkpt><trkpt lat="44.8579839" lon="10.4690122"><ele>30.5</ele><time>2026-04-20T13:57:22.276Z</time></trkpt><trkpt lat="44.8579383" lon="10.4691641"><ele>30.75</ele><time>2026-04-20T13:57:24.275Z</time></trkpt><trkpt lat="44.8578984" lon="10.4693169"><ele>31.0</ele><time>2026-04-20T13:57:26.275Z</time></trkpt><trkpt lat="44.8578709" lon="10.4694717"><ele>31.0</ele><time>2026-04-20T13:57:28.276Z</time></trkpt><trkpt lat="44.8578578" lon="10.4696311"><ele>31.0</ele><time>2026-04-20T13:57:30.275Z</time></trkpt><trkpt lat="44.8578525" lon="10.4697808"><ele>31.0</ele><time>2026-04-20T13:57:32.275Z</time></trkpt><trkpt lat="44.8578465" lon="10.4699112"><ele>31.0</ele><time>2026-04-20T13:57:34.275Z</time></trkpt><trkpt lat="44.8578492" lon="10.470053"><ele>31.0</ele><time>2026-04-20T13:57:36.276Z</time></trkpt><trkpt lat="44.8578447" lon="10.4701862"><ele>31.0</ele><time>2026-04-20T13:57:38.275Z</time></trkpt><trkpt lat="44.8578422" lon="10.4703331"><ele>31.0</ele><time>2026-04-20T13:57:40.276Z</time></trkpt><trkpt lat="44.8578537" lon="10.4704725"><ele>31.0</ele><time>2026-04-20T13:57:42.276Z</time></trkpt><trkpt lat="44.8578624" lon="10.4706185"><ele>31.0</ele><time>2026-04-20T13:57:44.276Z</time></trkpt><trkpt lat="44.8578832" lon="10.4707584"><ele>31.0</ele><time>2026-04-20T13:57:46.276Z</time></trkpt><trkpt lat="44.8579169" lon="10.4709022"><ele>30.8</ele><time>2026-04-20T13:57:48.276Z</time></trkpt><trkpt lat="44.8579631" lon="10.4709882"><ele>30.6</ele><time>2026-04-20T13:57:50.276Z</time></trkpt><trkpt lat="44.8580183" lon="10.4711578"><ele>30.4</ele><time>2026-04-20T13:57:52.275Z</time></trkpt><trkpt lat="44.8580814" lon="10.4713231"><ele>30.2</ele><time>2026-04-20T13:57:54.275Z</time></trkpt><trkpt lat="44.8581264" lon="10.4713997"><ele>30.0</ele><time>2026-04-20T13:57:55.276Z</time></trkpt><trkpt lat="44.858218" lon="10.4715033"><ele>29.8</ele><time>2026-04-20T13:57:57.276Z</time></trkpt><trkpt lat="44.8583059" lon="10.471586"><ele>29.6</ele><time>2026-04-20T13:57:59.275Z</time></trkpt><trkpt lat="44.8584182" lon="10.4716402"><ele>29.4</ele><time>2026-04-20T13:58:01.275Z</time></trkpt><trkpt lat="44.8584832" lon="10.4716366"><ele>29.2</ele><time>2026-04-20T13:58:02.276Z</time></trkpt><trkpt lat="44.8585972" lon="10.471632"><ele>29.0</ele><time>2026-04-20T13:58:04.276Z</time></trkpt><trkpt lat="44.8587169" lon="10.4716192"><ele>28.799999999999997</ele><time>2026-04-20T13:58:06.275Z</time></trkpt><trkpt lat="44.8588293" lon="10.4715984"><ele>28.599999999999998</ele><time>2026-04-20T13:58:08.275Z</time></trkpt><trkpt lat="44.858928" lon="10.4715466"><ele>28.4</ele><time>2026-04-20T13:58:10.276Z</time></trkpt><trkpt lat="44.8590471" lon="10.4714877"><ele>28.2</ele><time>2026-04-20T13:58:12.275Z</time></trkpt><trkpt lat="44.8591053" lon="10.4714442"><ele>28.0</ele><time>2026-04-20T13:58:13.276Z</time></trkpt><trkpt lat="44.8591636" lon="10.471402"><ele>28.2</ele><time>2026-04-20T13:58:14.275Z</time></trkpt><trkpt lat="44.8592339" lon="10.471264"><ele>28.4</ele><time>2026-04-20T13:58:16.275Z</time></trkpt><trkpt lat="44.8592876" lon="10.4711805"><ele>28.599999999999998</ele><time>2026-04-20T13:58:17.276Z</time></trkpt><trkpt lat="44.8593461" lon="10.4710956"><ele>28.799999999999997</ele><time>2026-04-20T13:58:18.275Z</time></trkpt><trkpt lat="44.8593569" lon="10.4709479"><ele>29.0</ele><time>2026-04-20T13:58:20.276Z</time></trkpt><trkpt lat="44.8593839" lon="10.4708654"><ele>29.25</ele><time>2026-04-20T13:58:21.275Z</time></trkpt><trkpt lat="44.8594166" lon="10.4707345"><ele>29.5</ele><time>2026-04-20T13:58:23.275Z</time></trkpt><trkpt lat="44.8594743" lon="10.4705936"><ele>29.75</ele><time>2026-04-20T13:58:25.275Z</time></trkpt><trkpt lat="44.8595339" lon="10.4704462"><ele>30.0</ele><time>2026-04-20T13:58:27.276Z</time></trkpt><trkpt lat="44.8596086" lon="10.4703165"><ele>30.0</ele><time>2026-04-20T13:58:29.275Z</time></trkpt><trkpt lat="44.8596488" lon="10.4701935"><ele>30.0</ele><time>2026-04-20T13:58:31.275Z</time></trkpt><trkpt lat="44.8597026" lon="10.4700983"><ele>30.0</ele><time>2026-04-20T13:58:33.276Z</time></trkpt><trkpt lat="44.8597138" lon="10.4700094"><ele>30.0</ele><time>2026-04-20T13:58:48.276Z</time></trkpt><trkpt lat="44.859767" lon="10.4698878"><ele>30.0</ele><time>2026-04-20T13:58:51.275Z</time></trkpt><trkpt lat="44.8598098" lon="10.4698168"><ele>30.0</ele><time>2026-04-20T13:58:53.276Z</time></trkpt><trkpt lat="44.8598838" lon="10.4697438"><ele>30.0</ele><time>2026-04-20T13:58:55.275Z</time></trkpt><trkpt lat="44.859956" lon="10.4696383"><ele>30.0</ele><time>2026-04-20T13:58:57.276Z</time></trkpt><trkpt lat="44.8600442" lon="10.4695467"><ele>30.0</ele><time>2026-04-20T13:58:59.276Z</time></trkpt><trkpt lat="44.8601312" lon="10.469452"><ele>30.0</ele><time>2026-04-20T13:59:01.276Z</time></trkpt><trkpt lat="44.8602221" lon="10.4693386"><ele>30.0</ele><time>2026-04-20T13:59:03.275Z</time></trkpt><trkpt lat="44.8602918" lon="10.4692583"><ele>30.75</ele><time>2026-04-20T13:59:05.275Z</time></trkpt><trkpt lat="44.8603926" lon="10.4691821"><ele>31.5</ele><time>2026-04-20T13:59:07.276Z</time></trkpt><trkpt lat="44.8605014" lon="10.469122"><ele>32.25</ele><time>2026-04-20T13:59:09.276Z</time></trkpt><trkpt lat="44.8606121" lon="10.4690656"><ele>33.0</ele><time>2026-04-20T13:59:11.276Z</time></trkpt><trkpt lat="44.8607257" lon="10.4690034"><ele>33.0</ele><time>2026-04-20T13:59:13.275Z</time></trkpt><trkpt lat="44.8608186" lon="10.4689464"><ele>33.0</ele><time>2026-04-20T13:59:15.276Z</time></trkpt><trkpt lat="44.8608978" lon="10.4688772"><ele>33.0</ele><time>2026-04-20T13:59:17.276Z</time></trkpt><trkpt lat="44.861015" lon="10.4687994"><ele>33.0</ele><time>2026-04-20T13:59:19.276Z</time></trkpt><trkpt lat="44.8610715" lon="10.4687481"><ele>33.0</ele><time>2026-04-20T13:59:20.275Z</time></trkpt><trkpt lat="44.8611798" lon="10.4686818"><ele>32.666666666666664</ele><time>2026-04-20T13:59:22.275Z</time></trkpt><trkpt lat="44.8612344" lon="10.4686293"><ele>32.333333333333336</ele><time>2026-04-20T13:59:23.275Z</time></trkpt><trkpt lat="44.8612897" lon="10.4685857"><ele>32.0</ele><time>2026-04-20T13:59:24.275Z</time></trkpt><trkpt lat="44.8614068" lon="10.4685216"><ele>31.666666666666668</ele><time>2026-04-20T13:59:26.275Z</time></trkpt><trkpt lat="44.8614788" lon="10.4684886"><ele>31.333333333333336</ele><time>2026-04-20T13:59:27.276Z</time></trkpt><trkpt lat="44.8615401" lon="10.4684654"><ele>31.0</ele><time>2026-04-20T13:59:28.275Z</time></trkpt><trkpt lat="44.8616084" lon="10.4684464"><ele>31.0</ele><time>2026-04-20T13:59:29.276Z</time></trkpt><trkpt lat="44.8617231" lon="10.4683994"><ele>31.0</ele><time>2026-04-20T13:59:31.275Z</time></trkpt><trkpt lat="44.8618482" lon="10.4683696"><ele>31.0</ele><time>2026-04-20T13:59:33.275Z</time></trkpt><trkpt lat="44.8619621" lon="10.4683387"><ele>31.0</ele><time>2026-04-20T13:59:35.276Z</time></trkpt><trkpt lat="44.8620607" lon="10.4682899"><ele>31.166666666666668</ele><time>2026-04-20T13:59:37.275Z</time></trkpt><trkpt lat="44.8621315" lon="10.4682509"><ele>31.333333333333336</ele><time>2026-04-20T13:59:38.275Z</time></trkpt><trkpt lat="44.862194" lon="10.4682266"><ele>31.5</ele><time>2026-04-20T13:59:39.275Z</time></trkpt><trkpt lat="44.8622558" lon="10.4682008"><ele>31.666666666666664</ele><time>2026-04-20T13:59:40.275Z</time></trkpt><trkpt lat="44.8623675" lon="10.4681525"><ele>31.833333333333332</ele><time>2026-04-20T13:59:42.275Z</time></trkpt><trkpt lat="44.8624499" lon="10.4680753"><ele>32.0</ele><time>2026-04-20T13:59:44.275Z</time></trkpt><trkpt lat="44.862512" lon="10.4680436"><ele>32.0</ele><time>2026-04-20T13:59:45.275Z</time></trkpt><trkpt lat="44.8626109" lon="10.4679831"><ele>32.0</ele><time>2026-04-20T13:59:47.275Z</time></trkpt><trkpt lat="44.8627155" lon="10.4679159"><ele>32.0</ele><time>2026-04-20T13:59:49.276Z</time></trkpt><trkpt lat="44.8627779" lon="10.4679016"><ele>32.0</ele><time>2026-04-20T13:59:50.276Z</time></trkpt><trkpt lat="44.8628797" lon="10.4678018"><ele>32.0</ele><time>2026-04-20T13:59:52.276Z</time></trkpt><trkpt lat="44.8629334" lon="10.4677473"><ele>31.5</ele><time>2026-04-20T13:59:53.275Z</time></trkpt><trkpt lat="44.863002" lon="10.467644"><ele>31.0</ele><time>2026-04-20T13:59:55.276Z</time></trkpt><trkpt lat="44.863089" lon="10.467539"><ele>30.5</ele><time>2026-04-20T13:59:57.276Z</time></trkpt><trkpt lat="44.8631646" lon="10.4674069"><ele>30.0</ele><time>2026-04-20T13:59:59.275Z</time></trkpt><trkpt lat="44.8632335" lon="10.4672746"><ele>30.0</ele><time>2026-04-20T14:00:01.276Z</time></trkpt><trkpt lat="44.8632709" lon="10.4671209"><ele>30.0</ele><time>2026-04-20T14:00:03.275Z</time></trkpt><trkpt lat="44.8633546" lon="10.4669604"><ele>30.0</ele><time>2026-04-20T14:00:05.276Z</time></trkpt><trkpt lat="44.8634001" lon="10.4668696"><ele>30.0</ele><time>2026-04-20T14:00:06.275Z</time></trkpt><trkpt lat="44.8634639" lon="10.4667304"><ele>30.0</ele><time>2026-04-20T14:00:08.275Z</time></trkpt><trkpt lat="44.8635379" lon="10.4666304"><ele>30.0</ele><time>2026-04-20T14:00:10.276Z</time></trkpt><trkpt lat="44.8635941" lon="10.4664931"><ele>30.0</ele><time>2026-04-20T14:00:12.275Z</time></trkpt><trkpt lat="44.8636575" lon="10.4663535"><ele>30.0</ele><time>2026-04-20T14:00:14.276Z</time></trkpt><trkpt lat="44.8637181" lon="10.4662038"><ele>29.833333333333332</ele><time>2026-04-20T14:00:16.275Z</time></trkpt><trkpt lat="44.8637376" lon="10.4660853"><ele>29.666666666666664</ele><time>2026-04-20T14:00:18.275Z</time></trkpt><trkpt lat="44.8637692" lon="10.4660048"><ele>29.5</ele><time>2026-04-20T14:00:19.276Z</time></trkpt><trkpt lat="44.8638015" lon="10.4659281"><ele>29.333333333333332</ele><time>2026-04-20T14:00:20.276Z</time></trkpt><trkpt lat="44.8638364" lon="10.4658489"><ele>29.166666666666664</ele><time>2026-04-20T14:00:21.275Z</time></trkpt><trkpt lat="44.8639038" lon="10.4657192"><ele>29.0</ele><time>2026-04-20T14:00:23.275Z</time></trkpt><trkpt lat="44.8639599" lon="10.4656494"><ele>29.0</ele><time>2026-04-20T14:00:24.275Z</time></trkpt><trkpt lat="44.8640599" lon="10.4656548"><ele>29.0</ele><time>2026-04-20T14:00:26.275Z</time></trkpt><trkpt lat="44.8641509" lon="10.4657105"><ele>29.0</ele><time>2026-04-20T14:00:28.275Z</time></trkpt><trkpt lat="44.8642142" lon="10.4657422"><ele>29.0</ele><time>2026-04-20T14:00:29.276Z</time></trkpt><trkpt lat="44.864304" lon="10.4658185"><ele>29.0</ele><time>2026-04-20T14:00:31.276Z</time></trkpt><trkpt lat="44.8643929" lon="10.4659095"><ele>29.2</ele><time>2026-04-20T14:00:33.275Z</time></trkpt><trkpt lat="44.8644879" lon="10.4659885"><ele>29.4</ele><time>2026-04-20T14:00:35.276Z</time></trkpt><trkpt lat="44.8645863" lon="10.4660697"><ele>29.6</ele><time>2026-04-20T14:00:37.276Z</time></trkpt><trkpt lat="44.8646467" lon="10.4661"><ele>29.8</ele><time>2026-04-20T14:00:38.275Z</time></trkpt><trkpt lat="44.8646935" lon="10.4661608"><ele>30.0</ele><time>2026-04-20T14:00:39.275Z</time></trkpt><trkpt lat="44.8647816" lon="10.4662734"><ele>30.2</ele><time>2026-04-20T14:00:41.276Z</time></trkpt><trkpt lat="44.8648341" lon="10.4663323"><ele>30.4</ele><time>2026-04-20T14:00:42.275Z</time></trkpt><trkpt lat="44.8648777" lon="10.4664653"><ele>30.6</ele><time>2026-04-20T14:00:44.275Z</time></trkpt><trkpt lat="44.8649427" lon="10.4666084"><ele>30.8</ele><time>2026-04-20T14:00:46.275Z</time></trkpt><trkpt lat="44.8650217" lon="10.4667371"><ele>31.0</ele><time>2026-04-20T14:00:48.276Z</time></trkpt><trkpt lat="44.8650589" lon="10.4668094"><ele>31.0</ele><time>2026-04-20T14:00:49.276Z</time></trkpt><trkpt lat="44.8651422" lon="10.4669318"><ele>31.0</ele><time>2026-04-20T14:00:51.275Z</time></trkpt><trkpt lat="44.8652351" lon="10.4670299"><ele>31.0</ele><time>2026-04-20T14:00:53.275Z</time></trkpt><trkpt lat="44.8652925" lon="10.4671585"><ele>31.0</ele><time>2026-04-20T14:00:55.276Z</time></trkpt><trkpt lat="44.865361" lon="10.4672925"><ele>31.000000000000004</ele><time>2026-04-20T14:00:57.276Z</time></trkpt><trkpt lat="44.865428" lon="10.4674063"><ele>31.0</ele><time>2026-04-20T14:00:59.275Z</time></trkpt><trkpt lat="44.8654695" lon="10.467486"><ele>31.0</ele><time>2026-04-20T14:01:00.275Z</time></trkpt><trkpt lat="44.8655168" lon="10.4675569"><ele>31.0</ele><time>2026-04-20T14:01:01.275Z</time></trkpt><trkpt lat="44.8655594" lon="10.4676326"><ele>31.000000000000004</ele><time>2026-04-20T14:01:02.276Z</time></trkpt><trkpt lat="44.8656412" lon="10.4677548"><ele>31.0</ele><time>2026-04-20T14:01:04.275Z</time></trkpt><trkpt lat="44.8656873" lon="10.4678197"><ele>31.0</ele><time>2026-04-20T14:01:05.275Z</time></trkpt><trkpt lat="44.8657231" lon="10.4678934"><ele>31.0</ele><time>2026-04-20T14:01:06.276Z</time></trkpt><trkpt lat="44.8657611" lon="10.4679708"><ele>31.0</ele><time>2026-04-20T14:01:07.276Z</time></trkpt><trkpt lat="44.865812" lon="10.4680966"><ele>31.0</ele><time>2026-04-20T14:01:09.276Z</time></trkpt><trkpt lat="44.8658727" lon="10.4681971"><ele>31.0</ele><time>2026-04-20T14:01:11.276Z</time></trkpt><trkpt lat="44.8659644" lon="10.4683284"><ele>30.8</ele><time>2026-04-20T14:01:13.276Z</time></trkpt><trkpt lat="44.8660104" lon="10.4683896"><ele>30.6</ele><time>2026-04-20T14:01:14.275Z</time></trkpt><trkpt lat="44.8660694" lon="10.4685083"><ele>30.4</ele><time>2026-04-20T14:01:16.276Z</time></trkpt><trkpt lat="44.8661372" lon="10.4686431"><ele>30.2</ele><time>2026-04-20T14:01:18.275Z</time></trkpt><trkpt lat="44.8662234" lon="10.4687485"><ele>30.0</ele><time>2026-04-20T14:01:20.276Z</time></trkpt><trkpt lat="44.8662934" lon="10.4688384"><ele>30.0</ele><time>2026-04-20T14:01:22.276Z</time></trkpt><trkpt lat="44.8663764" lon="10.4689207"><ele>30.0</ele><time>2026-04-20T14:01:24.276Z</time></trkpt><trkpt lat="44.8664299" lon="10.4690161"><ele>30.0</ele><time>2026-04-20T14:01:25.276Z</time></trkpt><trkpt lat="44.8664947" lon="10.4691119"><ele>30.0</ele><time>2026-04-20T14:01:27.276Z</time></trkpt><trkpt lat="44.8666141" lon="10.4691842"><ele>30.0</ele><time>2026-04-20T14:01:29.276Z</time></trkpt><trkpt lat="44.8666804" lon="10.4692237"><ele>30.0</ele><time>2026-04-20T14:01:30.276Z</time></trkpt><trkpt lat="44.8667488" lon="10.4692467"><ele>30.0</ele><time>2026-04-20T14:01:31.275Z</time></trkpt><trkpt lat="44.8668521" lon="10.4693001"><ele>30.0</ele><time>2026-04-20T14:01:33.275Z</time></trkpt><trkpt lat="44.8669538" lon="10.4693234"><ele>30.0</ele><time>2026-04-20T14:01:35.276Z</time></trkpt><trkpt lat="44.8670267" lon="10.4693074"><ele>30.0</ele><time>2026-04-20T14:01:36.275Z</time></trkpt><trkpt lat="44.8671317" lon="10.46931"><ele>30.0</ele><time>2026-04-20T14:01:38.276Z</time></trkpt><trkpt lat="44.8672191" lon="10.4692615"><ele>30.0</ele><time>2026-04-20T14:01:40.276Z</time></trkpt><trkpt lat="44.8673377" lon="10.469228"><ele>30.0</ele><time>2026-04-20T14:01:42.275Z</time></trkpt><trkpt lat="44.8674422" lon="10.4691871"><ele>30.0</ele><time>2026-04-20T14:01:44.276Z</time></trkpt><trkpt lat="44.8675323" lon="10.4691437"><ele>30.0</ele><time>2026-04-20T14:01:46.276Z</time></trkpt><trkpt lat="44.8676279" lon="10.4690817"><ele>30.0</ele><time>2026-04-20T14:01:48.275Z</time></trkpt><trkpt lat="44.8677404" lon="10.4689758"><ele>30.0</ele><time>2026-04-20T14:01:51.276Z</time></trkpt><trkpt lat="44.8678209" lon="10.4688864"><ele>30.0</ele><time>2026-04-20T14:01:53.275Z</time></trkpt><trkpt lat="44.8678814" lon="10.4687788"><ele>30.0</ele><time>2026-04-20T14:01:55.275Z</time></trkpt><trkpt lat="44.8679329" lon="10.4686549"><ele>30.0</ele><time>2026-04-20T14:01:57.276Z</time></trkpt><trkpt lat="44.867981" lon="10.4685419"><ele>29.8</ele><time>2026-04-20T14:01:59.275Z</time></trkpt><trkpt lat="44.868008" lon="10.4684123"><ele>29.6</ele><time>2026-04-20T14:02:01.275Z</time></trkpt><trkpt lat="44.8680263" lon="10.4682409"><ele>29.4</ele><time>2026-04-20T14:02:03.276Z</time></trkpt><trkpt lat="44.8680456" lon="10.4681123"><ele>29.2</ele><time>2026-04-20T14:02:05.276Z</time></trkpt><trkpt lat="44.8680748" lon="10.4679884"><ele>29.0</ele><time>2026-04-20T14:02:07.276Z</time></trkpt><trkpt lat="44.8680694" lon="10.4678268"><ele>29.0</ele><time>2026-04-20T14:02:09.276Z</time></trkpt><trkpt lat="44.8680659" lon="10.4677148"><ele>29.0</ele><time>2026-04-20T14:02:11.276Z</time></trkpt><trkpt lat="44.8680527" lon="10.4675728"><ele>29.0</ele><time>2026-04-20T14:02:13.276Z</time></trkpt><trkpt lat="44.8680307" lon="10.467411"><ele>29.0</ele><time>2026-04-20T14:02:15.275Z</time></trkpt><trkpt lat="44.868016" lon="10.4673204"><ele>29.0</ele><time>2026-04-20T14:02:16.276Z</time></trkpt><trkpt lat="44.8680035" lon="10.467155"><ele>29.5</ele><time>2026-04-20T14:02:18.275Z</time></trkpt><trkpt lat="44.8679874" lon="10.466994"><ele>30.0</ele><time>2026-04-20T14:02:20.276Z</time></trkpt><trkpt lat="44.8679831" lon="10.4668368"><ele>30.5</ele><time>2026-04-20T14:02:22.275Z</time></trkpt><trkpt lat="44.8679888" lon="10.4666678"><ele>31.0</ele><time>2026-04-20T14:02:24.276Z</time></trkpt><trkpt lat="44.868004" lon="10.4665098"><ele>31.0</ele><time>2026-04-20T14:02:26.276Z</time></trkpt><trkpt lat="44.8680145" lon="10.4664212"><ele>31.0</ele><time>2026-04-20T14:02:27.275Z</time></trkpt><trkpt lat="44.8680323" lon="10.4662806"><ele>31.0</ele><time>2026-04-20T14:02:29.275Z</time></trkpt><trkpt lat="44.8680929" lon="10.4661987"><ele>31.0</ele><time>2026-04-20T14:02:31.275Z</time></trkpt><trkpt lat="44.8681715" lon="10.4660481"><ele>31.0</ele><time>2026-04-20T14:02:33.276Z</time></trkpt><trkpt lat="44.8682548" lon="10.4659446"><ele>31.200000000000003</ele><time>2026-04-20T14:02:35.275Z</time></trkpt><trkpt lat="44.8683402" lon="10.4658398"><ele>31.400000000000002</ele><time>2026-04-20T14:02:37.276Z</time></trkpt><trkpt lat="44.8684387" lon="10.4657591"><ele>31.6</ele><time>2026-04-20T14:02:39.276Z</time></trkpt><trkpt lat="44.8685418" lon="10.4656895"><ele>31.8</ele><time>2026-04-20T14:02:41.276Z</time></trkpt><trkpt lat="44.8686401" lon="10.4656404"><ele>32.0</ele><time>2026-04-20T14:02:43.276Z</time></trkpt><trkpt lat="44.8687559" lon="10.4656059"><ele>31.400000000000002</ele><time>2026-04-20T14:02:45.275Z</time></trkpt><trkpt lat="44.8688709" lon="10.4655852"><ele>30.800000000000004</ele><time>2026-04-20T14:02:47.275Z</time></trkpt><trkpt lat="44.8689868" lon="10.46558"><ele>30.2</ele><time>2026-04-20T14:02:49.276Z</time></trkpt><trkpt lat="44.8690938" lon="10.4655891"><ele>29.6</ele><time>2026-04-20T14:02:51.276Z</time></trkpt><trkpt lat="44.869204" lon="10.465594"><ele>29.0</ele><time>2026-04-20T14:02:53.276Z</time></trkpt><trkpt lat="44.8693071" lon="10.4656157"><ele>28.75</ele><time>2026-04-20T14:02:55.276Z</time></trkpt><trkpt lat="44.8694202" lon="10.4656668"><ele>28.5</ele><time>2026-04-20T14:02:57.276Z</time></trkpt><trkpt lat="44.8695133" lon="10.4657499"><ele>28.25</ele><time>2026-04-20T14:02:59.276Z</time></trkpt><trkpt lat="44.8695903" lon="10.4658637"><ele>28.0</ele><time>2026-04-20T14:03:01.276Z</time></trkpt><trkpt lat="44.8696622" lon="10.4659927"><ele>28.0</ele><time>2026-04-20T14:03:03.276Z</time></trkpt><trkpt lat="44.869723" lon="10.4661157"><ele>27.999999999999996</ele><time>2026-04-20T14:03:05.276Z</time></trkpt><trkpt lat="44.869792" lon="10.4662511"><ele>27.999999999999996</ele><time>2026-04-20T14:03:07.276Z</time></trkpt><trkpt lat="44.869857" lon="10.4663926"><ele>28.0</ele><time>2026-04-20T14:03:09.275Z</time></trkpt><trkpt lat="44.8699109" lon="10.4665064"><ele>28.0</ele><time>2026-04-20T14:03:11.276Z</time></trkpt><trkpt lat="44.8699677" lon="10.4666294"><ele>28.2</ele><time>2026-04-20T14:03:13.276Z</time></trkpt><trkpt lat="44.8700177" lon="10.4667456"><ele>28.4</ele><time>2026-04-20T14:03:15.275Z</time></trkpt><trkpt lat="44.8700591" lon="10.4668789"><ele>28.599999999999998</ele><time>2026-04-20T14:03:17.276Z</time></trkpt><trkpt lat="44.8701012" lon="10.4670282"><ele>28.799999999999997</ele><time>2026-04-20T14:03:19.276Z</time></trkpt><trkpt lat="44.8701557" lon="10.467165"><ele>29.0</ele><time>2026-04-20T14:03:21.276Z</time></trkpt><trkpt lat="44.8702007" lon="10.4673148"><ele>29.0</ele><time>2026-04-20T14:03:23.276Z</time></trkpt><trkpt lat="44.8702309" lon="10.4674819"><ele>29.0</ele><time>2026-04-20T14:03:25.275Z</time></trkpt><trkpt lat="44.8702551" lon="10.467635"><ele>29.0</ele><time>2026-04-20T14:03:27.276Z</time></trkpt><trkpt lat="44.8702439" lon="10.467782"><ele>29.0</ele><time>2026-04-20T14:03:28.275Z</time></trkpt><trkpt lat="44.8702622" lon="10.4679355"><ele>29.0</ele><time>2026-04-20T14:03:30.276Z</time></trkpt><trkpt lat="44.8702843" lon="10.4680663"><ele>28.5</ele><time>2026-04-20T14:03:32.275Z</time></trkpt><trkpt lat="44.8702867" lon="10.468242"><ele>28.0</ele><time>2026-04-20T14:03:34.275Z</time></trkpt><trkpt lat="44.8703036" lon="10.4683917"><ele>27.5</ele><time>2026-04-20T14:03:36.276Z</time></trkpt><trkpt lat="44.8703207" lon="10.4685559"><ele>27.0</ele><time>2026-04-20T14:03:38.275Z</time></trkpt><trkpt lat="44.8703368" lon="10.4687118"><ele>27.25</ele><time>2026-04-20T14:03:40.276Z</time></trkpt><trkpt lat="44.8703617" lon="10.4688755"><ele>27.5</ele><time>2026-04-20T14:03:42.276Z</time></trkpt><trkpt lat="44.8703967" lon="10.4690288"><ele>27.75</ele><time>2026-04-20T14:03:44.276Z</time></trkpt><trkpt lat="44.8704191" lon="10.4691932"><ele>28.0</ele><time>2026-04-20T14:03:46.276Z</time></trkpt><trkpt lat="44.8704499" lon="10.4693464"><ele>28.0</ele><time>2026-04-20T14:03:48.275Z</time></trkpt><trkpt lat="44.8704621" lon="10.4694351"><ele>27.999999999999996</ele><time>2026-04-20T14:03:49.275Z</time></trkpt><trkpt lat="44.8704898" lon="10.4696161"><ele>27.999999999999996</ele><time>2026-04-20T14:03:51.276Z</time></trkpt><trkpt lat="44.8705393" lon="10.4697372"><ele>28.0</ele><time>2026-04-20T14:03:53.276Z</time></trkpt><trkpt lat="44.8705793" lon="10.469885"><ele>28.0</ele><time>2026-04-20T14:03:55.276Z</time></trkpt><trkpt lat="44.8706261" lon="10.4700373"><ele>27.799999999999997</ele><time>2026-04-20T14:03:57.275Z</time></trkpt><trkpt lat="44.8706712" lon="10.470201"><ele>27.599999999999998</ele><time>2026-04-20T14:03:59.275Z</time></trkpt><trkpt lat="44.8707184" lon="10.47036"><ele>27.400000000000002</ele><time>2026-04-20T14:04:01.275Z</time></trkpt><trkpt lat="44.8707679" lon="10.4705209"><ele>27.200000000000003</ele><time>2026-04-20T14:04:03.275Z</time></trkpt><trkpt lat="44.870791" lon="10.4706054"><ele>27.0</ele><time>2026-04-20T14:04:04.276Z</time></trkpt><trkpt lat="44.8708564" lon="10.4707491"><ele>27.0</ele><time>2026-04-20T14:04:06.275Z</time></trkpt><trkpt lat="44.8709369" lon="10.470863"><ele>27.000000000000004</ele><time>2026-04-20T14:04:08.276Z</time></trkpt><trkpt lat="44.8710273" lon="10.4709395"><ele>27.000000000000004</ele><time>2026-04-20T14:04:10.276Z</time></trkpt><trkpt lat="44.8711312" lon="10.471004"><ele>27.0</ele><time>2026-04-20T14:04:12.276Z</time></trkpt><trkpt lat="44.8712458" lon="10.4710331"><ele>27.0</ele><time>2026-04-20T14:04:14.275Z</time></trkpt><trkpt lat="44.8713475" lon="10.4710208"><ele>27.200000000000003</ele><time>2026-04-20T14:04:16.275Z</time></trkpt><trkpt lat="44.8714437" lon="10.4709995"><ele>27.400000000000002</ele><time>2026-04-20T14:04:18.276Z</time></trkpt><trkpt lat="44.8715446" lon="10.4709251"><ele>27.599999999999998</ele><time>2026-04-20T14:04:20.276Z</time></trkpt><trkpt lat="44.8716481" lon="10.4708331"><ele>27.799999999999997</ele><time>2026-04-20T14:04:22.276Z</time></trkpt><trkpt lat="44.8717266" lon="10.4707316"><ele>28.0</ele><time>2026-04-20T14:04:24.276Z</time></trkpt><trkpt lat="44.8718032" lon="10.4706232"><ele>28.000000000000004</ele><time>2026-04-20T14:04:26.276Z</time></trkpt><trkpt lat="44.8718785" lon="10.470522"><ele>28.0</ele><time>2026-04-20T14:04:28.275Z</time></trkpt><trkpt lat="44.8719648" lon="10.4704261"><ele>28.0</ele><time>2026-04-20T14:04:30.276Z</time></trkpt><trkpt lat="44.8720144" lon="10.4703661"><ele>28.0</ele><time>2026-04-20T14:04:31.275Z</time></trkpt><trkpt lat="44.8720747" lon="10.4703003"><ele>28.000000000000004</ele><time>2026-04-20T14:04:32.275Z</time></trkpt><trkpt lat="44.8721239" lon="10.4702419"><ele>28.0</ele><time>2026-04-20T14:04:33.275Z</time></trkpt><trkpt lat="44.8721914" lon="10.4701273"><ele>28.0</ele><time>2026-04-20T14:04:35.275Z</time></trkpt><trkpt lat="44.8722736" lon="10.4700234"><ele>27.999999999999996</ele><time>2026-04-20T14:04:37.276Z</time></trkpt><trkpt lat="44.872354" lon="10.4699212"><ele>27.999999999999996</ele><time>2026-04-20T14:04:39.276Z</time></trkpt><trkpt lat="44.8724012" lon="10.4698094"><ele>28.0</ele><time>2026-04-20T14:04:41.275Z</time></trkpt><trkpt lat="44.8724739" lon="10.4697045"><ele>28.0</ele><time>2026-04-20T14:04:43.276Z</time></trkpt><trkpt lat="44.8725559" lon="10.4695836"><ele>28.0</ele><time>2026-04-20T14:04:45.276Z</time></trkpt><trkpt lat="44.8726312" lon="10.46947"><ele>28.0</ele><time>2026-04-20T14:04:47.276Z</time></trkpt><trkpt lat="44.8727053" lon="10.4693695"><ele>28.0</ele><time>2026-04-20T14:04:49.275Z</time></trkpt><trkpt lat="44.872796" lon="10.4692409"><ele>28.0</ele><time>2026-04-20T14:04:51.275Z</time></trkpt><trkpt lat="44.872867" lon="10.4691218"><ele>28.000000000000004</ele><time>2026-04-20T14:04:53.276Z</time></trkpt><trkpt lat="44.8729161" lon="10.4690609"><ele>28.0</ele><time>2026-04-20T14:04:54.276Z</time></trkpt><trkpt lat="44.8729652" lon="10.4689982"><ele>28.0</ele><time>2026-04-20T14:04:55.276Z</time></trkpt><trkpt lat="44.8730129" lon="10.4689369"><ele>28.0</ele><time>2026-04-20T14:04:56.275Z</time></trkpt><trkpt lat="44.8730904" lon="10.4688127"><ele>28.000000000000004</ele><time>2026-04-20T14:04:58.276Z</time></trkpt><trkpt lat="44.8731282" lon="10.468741"><ele>28.0</ele><time>2026-04-20T14:04:59.275Z</time></trkpt><trkpt lat="44.8731991" lon="10.4686345"><ele>28.000000000000004</ele><time>2026-04-20T14:05:01.275Z</time></trkpt><trkpt lat="44.8732532" lon="10.4685001"><ele>28.0</ele><time>2026-04-20T14:05:03.275Z</time></trkpt><trkpt lat="44.873325" lon="10.4683597"><ele>28.0</ele><time>2026-04-20T14:05:05.275Z</time></trkpt><trkpt lat="44.8733716" lon="10.468285"><ele>28.0</ele><time>2026-04-20T14:05:06.275Z</time></trkpt><trkpt lat="44.8734218" lon="10.4682109"><ele>28.000000000000004</ele><time>2026-04-20T14:05:07.276Z</time></trkpt><trkpt lat="44.8734615" lon="10.4681394"><ele>28.0</ele><time>2026-04-20T14:05:08.276Z</time></trkpt><trkpt lat="44.8735559" lon="10.4680046"><ele>27.833333333333336</ele><time>2026-04-20T14:05:10.275Z</time></trkpt><trkpt lat="44.8736278" lon="10.4678766"><ele>27.666666666666668</ele><time>2026-04-20T14:05:12.275Z</time></trkpt><trkpt lat="44.87367" lon="10.4678046"><ele>27.5</ele><time>2026-04-20T14:05:13.275Z</time></trkpt><trkpt lat="44.8737006" lon="10.4677245"><ele>27.333333333333336</ele><time>2026-04-20T14:05:14.276Z</time></trkpt><trkpt lat="44.8737705" lon="10.467617"><ele>27.166666666666668</ele><time>2026-04-20T14:05:16.275Z</time></trkpt><trkpt lat="44.8738078" lon="10.4675335"><ele>27.0</ele><time>2026-04-20T14:05:17.276Z</time></trkpt><trkpt lat="44.8738537" lon="10.4674146"><ele>27.0</ele><time>2026-04-20T14:05:19.276Z</time></trkpt><trkpt lat="44.8739414" lon="10.4673077"><ele>27.0</ele><time>2026-04-20T14:05:21.276Z</time></trkpt><trkpt lat="44.8740143" lon="10.4671725"><ele>27.0</ele><time>2026-04-20T14:05:23.275Z</time></trkpt><trkpt lat="44.8740933" lon="10.4670202"><ele>27.0</ele><time>2026-04-20T14:05:25.276Z</time></trkpt><trkpt lat="44.8741717" lon="10.466869"><ele>27.200000000000003</ele><time>2026-04-20T14:05:27.276Z</time></trkpt><trkpt lat="44.8742528" lon="10.4667667"><ele>27.400000000000002</ele><time>2026-04-20T14:05:29.275Z</time></trkpt><trkpt lat="44.8743507" lon="10.4667075"><ele>27.599999999999998</ele><time>2026-04-20T14:05:31.275Z</time></trkpt><trkpt lat="44.8744576" lon="10.4666383"><ele>27.799999999999997</ele><time>2026-04-20T14:05:33.276Z</time></trkpt><trkpt lat="44.8745507" lon="10.4665586"><ele>28.0</ele><time>2026-04-20T14:05:35.276Z</time></trkpt><trkpt lat="44.8746441" lon="10.4665104"><ele>28.2</ele><time>2026-04-20T14:05:37.276Z</time></trkpt><trkpt lat="44.8747505" lon="10.4664717"><ele>28.4</ele><time>2026-04-20T14:05:39.275Z</time></trkpt><trkpt lat="44.8748578" lon="10.4664663"><ele>28.599999999999998</ele><time>2026-04-20T14:05:41.276Z</time></trkpt><trkpt lat="44.8749244" lon="10.4664617"><ele>28.799999999999997</ele><time>2026-04-20T14:05:42.276Z</time></trkpt><trkpt lat="44.8750292" lon="10.4664851"><ele>29.0</ele><time>2026-04-20T14:05:44.275Z</time></trkpt><trkpt lat="44.8751084" lon="10.4665013"><ele>29.0</ele><time>2026-04-20T14:05:45.276Z</time></trkpt><trkpt lat="44.875205" lon="10.4665518"><ele>29.0</ele><time>2026-04-20T14:05:47.276Z</time></trkpt><trkpt lat="44.8753176" lon="10.4666287"><ele>29.0</ele><time>2026-04-20T14:05:49.276Z</time></trkpt><trkpt lat="44.8754197" lon="10.4667113"><ele>29.0</ele><time>2026-04-20T14:05:51.276Z</time></trkpt><trkpt lat="44.8754829" lon="10.4668295"><ele>29.0</ele><time>2026-04-20T14:05:53.276Z</time></trkpt><trkpt lat="44.8755708" lon="10.4669447"><ele>29.0</ele><time>2026-04-20T14:05:55.275Z</time></trkpt><trkpt lat="44.8756484" lon="10.4670458"><ele>29.0</ele><time>2026-04-20T14:05:57.276Z</time></trkpt><trkpt lat="44.8756795" lon="10.4671275"><ele>29.0</ele><time>2026-04-20T14:05:58.275Z</time></trkpt><trkpt lat="44.8757234" lon="10.4672621"><ele>29.0</ele><time>2026-04-20T14:06:00.275Z</time></trkpt><trkpt lat="44.875769" lon="10.4673466"><ele>29.5</ele><time>2026-04-20T14:06:01.276Z</time></trkpt><trkpt lat="44.8758103" lon="10.467497"><ele>30.0</ele><time>2026-04-20T14:06:03.275Z</time></trkpt><trkpt lat="44.8758425" lon="10.4676676"><ele>30.5</ele><time>2026-04-20T14:06:05.276Z</time></trkpt><trkpt lat="44.8758728" lon="10.4678314"><ele>31.0</ele><time>2026-04-20T14:06:07.275Z</time></trkpt><trkpt lat="44.8759088" lon="10.4679516"><ele>31.000000000000004</ele><time>2026-04-20T14:06:09.275Z</time></trkpt><trkpt lat="44.8759083" lon="10.4680476"><ele>31.0</ele><time>2026-04-20T14:06:10.276Z</time></trkpt><trkpt lat="44.8759099" lon="10.4682063"><ele>31.0</ele><time>2026-04-20T14:06:12.276Z</time></trkpt><trkpt lat="44.8758786" lon="10.468361"><ele>31.0</ele><time>2026-04-20T14:06:14.275Z</time></trkpt><trkpt lat="44.8758706" lon="10.468451"><ele>31.000000000000004</ele><time>2026-04-20T14:06:15.275Z</time></trkpt><trkpt lat="44.8758666" lon="10.468561"><ele>31.0</ele><time>2026-04-20T14:06:17.275Z</time></trkpt><trkpt lat="44.8758432" lon="10.4686468"><ele>31.000000000000004</ele><time>2026-04-20T14:06:18.276Z</time></trkpt><trkpt lat="44.8758142" lon="10.4687409"><ele>31.0</ele><time>2026-04-20T14:06:20.275Z</time></trkpt><trkpt lat="44.8757963" lon="10.4688337"><ele>31.0</ele><time>2026-04-20T14:06:21.276Z</time></trkpt><trkpt lat="44.8757363" lon="10.4689916"><ele>31.0</ele><time>2026-04-20T14:06:23.275Z</time></trkpt><trkpt lat="44.8756728" lon="10.4691316"><ele>31.000000000000004</ele><time>2026-04-20T14:06:25.275Z</time></trkpt><trkpt lat="44.8756367" lon="10.4692055"><ele>31.0</ele><time>2026-04-20T14:06:26.275Z</time></trkpt><trkpt lat="44.8755826" lon="10.4693074"><ele>30.8</ele><time>2026-04-20T14:06:28.275Z</time></trkpt><trkpt lat="44.8755227" lon="10.4694401"><ele>30.6</ele><time>2026-04-20T14:06:30.275Z</time></trkpt><trkpt lat="44.8754738" lon="10.4695052"><ele>30.4</ele><time>2026-04-20T14:06:31.275Z</time></trkpt><trkpt lat="44.875419" lon="10.4696446"><ele>30.2</ele><time>2026-04-20T14:06:33.275Z</time></trkpt><trkpt lat="44.8753689" lon="10.4697724"><ele>30.0</ele><time>2026-04-20T14:06:35.275Z</time></trkpt><trkpt lat="44.8753374" lon="10.4698524"><ele>30.0</ele><time>2026-04-20T14:06:36.276Z</time></trkpt><trkpt lat="44.8752988" lon="10.4699303"><ele>30.0</ele><time>2026-04-20T14:06:37.275Z</time></trkpt><trkpt lat="44.8752614" lon="10.4700123"><ele>30.0</ele><time>2026-04-20T14:06:38.275Z</time></trkpt><trkpt lat="44.8751939" lon="10.4701152"><ele>30.0</ele><time>2026-04-20T14:06:40.275Z</time></trkpt><trkpt lat="44.8751653" lon="10.4701955"><ele>30.0</ele><time>2026-04-20T14:06:41.275Z</time></trkpt><trkpt lat="44.8751253" lon="10.4702694"><ele>30.0</ele><time>2026-04-20T14:06:42.276Z</time></trkpt><trkpt lat="44.8750817" lon="10.4703458"><ele>30.0</ele><time>2026-04-20T14:06:43.275Z</time></trkpt><trkpt lat="44.8750027" lon="10.4704524"><ele>30.0</ele><time>2026-04-20T14:06:45.275Z</time></trkpt><trkpt lat="44.874918" lon="10.4705558"><ele>30.0</ele><time>2026-04-20T14:06:47.275Z</time></trkpt><trkpt lat="44.8748341" lon="10.4706589"><ele>30.0</ele><time>2026-04-20T14:06:49.275Z</time></trkpt><trkpt lat="44.8747547" lon="10.4707521"><ele>30.0</ele><time>2026-04-20T14:06:51.276Z</time></trkpt><trkpt lat="44.8747026" lon="10.470803"><ele>30.0</ele><time>2026-04-20T14:06:52.276Z</time></trkpt><trkpt lat="44.8746498" lon="10.4708545"><ele>30.0</ele><time>2026-04-20T14:06:53.276Z</time></trkpt><trkpt lat="44.8745576" lon="10.4709486"><ele>30.0</ele><time>2026-04-20T14:06:55.276Z</time></trkpt><trkpt lat="44.8744571" lon="10.4710379"><ele>30.0</ele><time>2026-04-20T14:06:57.276Z</time></trkpt><trkpt lat="44.8743838" lon="10.4711368"><ele>30.0</ele><time>2026-04-20T14:06:59.276Z</time></trkpt><trkpt lat="44.8742986" lon="10.4712436"><ele>30.0</ele><time>2026-04-20T14:07:01.275Z</time></trkpt><trkpt lat="44.8742149" lon="10.4713348"><ele>29.8</ele><time>2026-04-20T14:07:03.275Z</time></trkpt><trkpt lat="44.8741362" lon="10.4714511"><ele>29.6</ele><time>2026-04-20T14:07:05.276Z</time></trkpt><trkpt lat="44.8740511" lon="10.4716064"><ele>29.4</ele><time>2026-04-20T14:07:07.276Z</time></trkpt><trkpt lat="44.8739833" lon="10.471753"><ele>29.2</ele><time>2026-04-20T14:07:09.276Z</time></trkpt><trkpt lat="44.8739516" lon="10.4718375"><ele>29.0</ele><time>2026-04-20T14:07:10.275Z</time></trkpt><trkpt lat="44.8739033" lon="10.4720033"><ele>28.999999999999996</ele><time>2026-04-20T14:07:12.276Z</time></trkpt><trkpt lat="44.8738769" lon="10.4720881"><ele>29.0</ele><time>2026-04-20T14:07:13.276Z</time></trkpt><trkpt lat="44.8738493" lon="10.4721792"><ele>29.0</ele><time>2026-04-20T14:07:14.275Z</time></trkpt><trkpt lat="44.8737985" lon="10.4723431"><ele>29.0</ele><time>2026-04-20T14:07:16.276Z</time></trkpt><trkpt lat="44.8737581" lon="10.472505"><ele>28.999999999999996</ele><time>2026-04-20T14:07:18.276Z</time></trkpt><trkpt lat="44.8737442" lon="10.472593"><ele>29.0</ele><time>2026-04-20T14:07:19.275Z</time></trkpt><trkpt lat="44.8736944" lon="10.4727356"><ele>29.0</ele><time>2026-04-20T14:07:21.275Z</time></trkpt><trkpt lat="44.8736872" lon="10.4728246"><ele>29.0</ele><time>2026-04-20T14:07:22.276Z</time></trkpt><trkpt lat="44.8736595" lon="10.4729238"><ele>29.0</ele><time>2026-04-20T14:07:23.276Z</time></trkpt><trkpt lat="44.873615" lon="10.4730652"><ele>29.0</ele><time>2026-04-20T14:07:25.276Z</time></trkpt><trkpt lat="44.8735798" lon="10.4732061"><ele>29.0</ele><time>2026-04-20T14:07:27.276Z</time></trkpt><trkpt lat="44.8735576" lon="10.4733699"><ele>29.0</ele><time>2026-04-20T14:07:29.275Z</time></trkpt><trkpt lat="44.8735444" lon="10.4734623"><ele>29.0</ele><time>2026-04-20T14:07:30.276Z</time></trkpt><trkpt lat="44.8735667" lon="10.473588"><ele>29.0</ele><time>2026-04-20T14:07:32.275Z</time></trkpt><trkpt lat="44.8735763" lon="10.4737317"><ele>29.0</ele><time>2026-04-20T14:07:34.276Z</time></trkpt><trkpt lat="44.873574" lon="10.4738277"><ele>29.0</ele><time>2026-04-20T14:07:35.275Z</time></trkpt><trkpt lat="44.8735894" lon="10.4739968"><ele>29.0</ele><time>2026-04-20T14:07:37.275Z</time></trkpt><trkpt lat="44.8736024" lon="10.4741048"><ele>29.0</ele><time>2026-04-20T14:07:38.275Z</time></trkpt><trkpt lat="44.8736501" lon="10.4742356"><ele>29.0</ele><time>2026-04-20T14:07:40.276Z</time></trkpt><trkpt lat="44.873701" lon="10.474369"><ele>29.0</ele><time>2026-04-20T14:07:42.276Z</time></trkpt><trkpt lat="44.8737631" lon="10.4745133"><ele>29.0</ele><time>2026-04-20T14:07:44.276Z</time></trkpt><trkpt lat="44.8738008" lon="10.4745894"><ele>28.5</ele><time>2026-04-20T14:07:45.276Z</time></trkpt><trkpt lat="44.8738701" lon="10.4747546"><ele>28.0</ele><time>2026-04-20T14:07:47.275Z</time></trkpt><trkpt lat="44.8739576" lon="10.4748499"><ele>27.5</ele><time>2026-04-20T14:07:49.276Z</time></trkpt><trkpt lat="44.8740408" lon="10.4750086"><ele>27.0</ele><time>2026-04-20T14:07:51.275Z</time></trkpt><trkpt lat="44.8741091" lon="10.4750579"><ele>27.0</ele><time>2026-04-20T14:07:52.276Z</time></trkpt><trkpt lat="44.8741895" lon="10.4751682"><ele>27.0</ele><time>2026-04-20T14:07:54.276Z</time></trkpt><trkpt lat="44.8742848" lon="10.4752682"><ele>27.0</ele><time>2026-04-20T14:07:56.275Z</time></trkpt><trkpt lat="44.8744009" lon="10.4753626"><ele>27.0</ele><time>2026-04-20T14:07:58.275Z</time></trkpt><trkpt lat="44.8745121" lon="10.47545"><ele>26.8</ele><time>2026-04-20T14:08:00.276Z</time></trkpt><trkpt lat="44.8745878" lon="10.4755069"><ele>26.6</ele><time>2026-04-20T14:08:02.275Z</time></trkpt><trkpt lat="44.8746514" lon="10.4755529"><ele>26.400000000000002</ele><time>2026-04-20T14:08:03.276Z</time></trkpt><trkpt lat="44.8747589" lon="10.4756177"><ele>26.200000000000003</ele><time>2026-04-20T14:08:05.275Z</time></trkpt><trkpt lat="44.8748611" lon="10.4756859"><ele>26.0</ele><time>2026-04-20T14:08:07.276Z</time></trkpt><trkpt lat="44.8749337" lon="10.4757151"><ele>26.0</ele><time>2026-04-20T14:08:08.275Z</time></trkpt><trkpt lat="44.8750481" lon="10.4757383"><ele>26.0</ele><time>2026-04-20T14:08:10.275Z</time></trkpt><trkpt lat="44.8751561" lon="10.4757216"><ele>26.0</ele><time>2026-04-20T14:08:12.275Z</time></trkpt><trkpt lat="44.875235" lon="10.475704"><ele>26.0</ele><time>2026-04-20T14:08:13.275Z</time></trkpt><trkpt lat="44.875349" lon="10.4756388"><ele>26.0</ele><time>2026-04-20T14:08:15.275Z</time></trkpt><trkpt lat="44.8754351" lon="10.4755293"><ele>26.4</ele><time>2026-04-20T14:08:17.276Z</time></trkpt><trkpt lat="44.8755002" lon="10.4754237"><ele>26.8</ele><time>2026-04-20T14:08:19.276Z</time></trkpt><trkpt lat="44.8755735" lon="10.4753002"><ele>27.199999999999996</ele><time>2026-04-20T14:08:21.276Z</time></trkpt><trkpt lat="44.875637" lon="10.4751701"><ele>27.599999999999998</ele><time>2026-04-20T14:08:23.275Z</time></trkpt><trkpt lat="44.8756718" lon="10.4750903"><ele>28.0</ele><time>2026-04-20T14:08:24.276Z</time></trkpt><trkpt lat="44.8757381" lon="10.4749634"><ele>28.0</ele><time>2026-04-20T14:08:26.275Z</time></trkpt><trkpt lat="44.8757981" lon="10.4748287"><ele>27.999999999999996</ele><time>2026-04-20T14:08:28.276Z</time></trkpt><trkpt lat="44.8758542" lon="10.4747005"><ele>27.999999999999996</ele><time>2026-04-20T14:08:30.275Z</time></trkpt><trkpt lat="44.8759002" lon="10.4745705"><ele>28.0</ele><time>2026-04-20T14:08:32.275Z</time></trkpt><trkpt lat="44.8759593" lon="10.4744385"><ele>28.0</ele><time>2026-04-20T14:08:34.276Z</time></trkpt><trkpt lat="44.8759886" lon="10.4743122"><ele>27.799999999999997</ele><time>2026-04-20T14:08:36.275Z</time></trkpt><trkpt lat="44.8760229" lon="10.4742298"><ele>27.599999999999998</ele><time>2026-04-20T14:08:37.275Z</time></trkpt><trkpt lat="44.8760886" lon="10.4740968"><ele>27.400000000000002</ele><time>2026-04-20T14:08:39.276Z</time></trkpt><trkpt lat="44.8761268" lon="10.4740189"><ele>27.200000000000003</ele><time>2026-04-20T14:08:40.276Z</time></trkpt><trkpt lat="44.8761991" lon="10.4738582"><ele>27.0</ele><time>2026-04-20T14:08:42.275Z</time></trkpt><trkpt lat="44.8762885" lon="10.4737257"><ele>27.0</ele><time>2026-04-20T14:08:44.276Z</time></trkpt><trkpt lat="44.8764032" lon="10.4735529"><ele>27.0</ele><time>2026-04-20T14:08:47.275Z</time></trkpt><trkpt lat="44.8764876" lon="10.4734541"><ele>27.0</ele><time>2026-04-20T14:08:49.275Z</time></trkpt><trkpt lat="44.8765559" lon="10.4733511"><ele>27.0</ele><time>2026-04-20T14:08:51.275Z</time></trkpt><trkpt lat="44.8766177" lon="10.4732885"><ele>27.0</ele><time>2026-04-20T14:08:52.275Z</time></trkpt><trkpt lat="44.8766888" lon="10.4731856"><ele>27.0</ele><time>2026-04-20T14:08:54.275Z</time></trkpt><trkpt lat="44.8767676" lon="10.4730559"><ele>27.0</ele><time>2026-04-20T14:08:56.275Z</time></trkpt><trkpt lat="44.8768134" lon="10.4729902"><ele>27.0</ele><time>2026-04-20T14:08:57.276Z</time></trkpt><trkpt lat="44.8768594" lon="10.4729261"><ele>27.0</ele><time>2026-04-20T14:08:58.276Z</time></trkpt><trkpt lat="44.8769027" lon="10.4728615"><ele>27.0</ele><time>2026-04-20T14:08:59.275Z</time></trkpt><trkpt lat="44.8769767" lon="10.4728047"><ele>27.400000000000002</ele><time>2026-04-20T14:09:01.275Z</time></trkpt><trkpt lat="44.8770721" lon="10.4726719"><ele>27.800000000000004</ele><time>2026-04-20T14:09:03.276Z</time></trkpt><trkpt lat="44.8771121" lon="10.472599"><ele>28.2</ele><time>2026-04-20T14:09:04.276Z</time></trkpt><trkpt lat="44.8772121" lon="10.4724777"><ele>28.6</ele><time>2026-04-20T14:09:06.275Z</time></trkpt><trkpt lat="44.8772912" lon="10.4723787"><ele>29.0</ele><time>2026-04-20T14:09:08.276Z</time></trkpt><trkpt lat="44.8773743" lon="10.4722558"><ele>29.0</ele><time>2026-04-20T14:09:10.275Z</time></trkpt><trkpt lat="44.8774637" lon="10.4721562"><ele>29.0</ele><time>2026-04-20T14:09:12.276Z</time></trkpt><trkpt lat="44.8775507" lon="10.4720549"><ele>29.0</ele><time>2026-04-20T14:09:14.275Z</time></trkpt><trkpt lat="44.8776432" lon="10.4719544"><ele>29.0</ele><time>2026-04-20T14:09:16.275Z</time></trkpt><trkpt lat="44.8777435" lon="10.4718507"><ele>28.6</ele><time>2026-04-20T14:09:18.276Z</time></trkpt><trkpt lat="44.8777966" lon="10.4717952"><ele>28.2</ele><time>2026-04-20T14:09:19.276Z</time></trkpt><trkpt lat="44.8778761" lon="10.4717061"><ele>27.800000000000004</ele><time>2026-04-20T14:09:21.275Z</time></trkpt><trkpt lat="44.8779647" lon="10.4716203"><ele>27.400000000000002</ele><time>2026-04-20T14:09:23.275Z</time></trkpt><trkpt lat="44.8780407" lon="10.471499"><ele>27.0</ele><time>2026-04-20T14:09:25.275Z</time></trkpt><trkpt lat="44.8781438" lon="10.4714267"><ele>27.0</ele><time>2026-04-20T14:09:27.275Z</time></trkpt><trkpt lat="44.8782048" lon="10.4713707"><ele>27.0</ele><time>2026-04-20T14:09:28.275Z</time></trkpt><trkpt lat="44.8782581" lon="10.4713232"><ele>27.0</ele><time>2026-04-20T14:09:29.276Z</time></trkpt><trkpt lat="44.8783227" lon="10.4712878"><ele>27.0</ele><time>2026-04-20T14:09:30.276Z</time></trkpt><trkpt lat="44.878424" lon="10.4712017"><ele>27.0</ele><time>2026-04-20T14:09:32.275Z</time></trkpt><trkpt lat="44.8784828" lon="10.4711696"><ele>27.0</ele><time>2026-04-20T14:09:33.276Z</time></trkpt><trkpt lat="44.8785811" lon="10.4710973"><ele>27.200000000000003</ele><time>2026-04-20T14:09:35.276Z</time></trkpt><trkpt lat="44.8787087" lon="10.4710285"><ele>27.400000000000002</ele><time>2026-04-20T14:09:37.276Z</time></trkpt><trkpt lat="44.8788235" lon="10.4709631"><ele>27.599999999999998</ele><time>2026-04-20T14:09:39.276Z</time></trkpt><trkpt lat="44.8788827" lon="10.470925"><ele>27.799999999999997</ele><time>2026-04-20T14:09:40.275Z</time></trkpt><trkpt lat="44.878981" lon="10.4708786"><ele>28.0</ele><time>2026-04-20T14:09:42.276Z</time></trkpt><trkpt lat="44.8790933" lon="10.4708312"><ele>28.0</ele><time>2026-04-20T14:09:44.275Z</time></trkpt><trkpt lat="44.879156" lon="10.4707682"><ele>27.999999999999996</ele><time>2026-04-20T14:09:46.275Z</time></trkpt><trkpt lat="44.8792421" lon="10.4706981"><ele>27.999999999999996</ele><time>2026-04-20T14:09:48.275Z</time></trkpt><trkpt lat="44.879324" lon="10.4706316"><ele>28.0</ele><time>2026-04-20T14:09:50.275Z</time></trkpt><trkpt lat="44.8794128" lon="10.4705567"><ele>28.0</ele><time>2026-04-20T14:09:52.276Z</time></trkpt><trkpt lat="44.8795027" lon="10.4704753"><ele>28.25</ele><time>2026-04-20T14:09:54.276Z</time></trkpt><trkpt lat="44.8796031" lon="10.4703687"><ele>28.5</ele><time>2026-04-20T14:09:56.275Z</time></trkpt><trkpt lat="44.8796929" lon="10.4702826"><ele>28.75</ele><time>2026-04-20T14:09:58.275Z</time></trkpt><trkpt lat="44.8797849" lon="10.4701974"><ele>29.0</ele><time>2026-04-20T14:10:00.276Z</time></trkpt><trkpt lat="44.8798799" lon="10.4701067"><ele>29.0</ele><time>2026-04-20T14:10:02.275Z</time></trkpt><trkpt lat="44.8799768" lon="10.4700222"><ele>29.0</ele><time>2026-04-20T14:10:04.275Z</time></trkpt><trkpt lat="44.8800661" lon="10.469922"><ele>29.0</ele><time>2026-04-20T14:10:06.276Z</time></trkpt><trkpt lat="44.8801546" lon="10.469797"><ele>29.0</ele><time>2026-04-20T14:10:08.276Z</time></trkpt><trkpt lat="44.8802323" lon="10.4696991"><ele>29.2</ele><time>2026-04-20T14:10:10.276Z</time></trkpt><trkpt lat="44.8803124" lon="10.4696106"><ele>29.4</ele><time>2026-04-20T14:10:12.276Z</time></trkpt><trkpt lat="44.8803953" lon="10.4695397"><ele>29.6</ele><time>2026-04-20T14:10:14.276Z</time></trkpt><trkpt lat="44.8804433" lon="10.4694759"><ele>29.8</ele><time>2026-04-20T14:10:15.276Z</time></trkpt><trkpt lat="44.8805355" lon="10.4693459"><ele>30.0</ele><time>2026-04-20T14:10:17.275Z</time></trkpt><trkpt lat="44.8806138" lon="10.4692534"><ele>29.4</ele><time>2026-04-20T14:10:19.275Z</time></trkpt><trkpt lat="44.880659" lon="10.4691838"><ele>28.8</ele><time>2026-04-20T14:10:20.275Z</time></trkpt><trkpt lat="44.8807256" lon="10.4690773"><ele>28.200000000000003</ele><time>2026-04-20T14:10:22.276Z</time></trkpt><trkpt lat="44.880804" lon="10.4689565"><ele>27.6</ele><time>2026-04-20T14:10:24.275Z</time></trkpt><trkpt lat="44.8808781" lon="10.4688329"><ele>27.0</ele><time>2026-04-20T14:10:26.276Z</time></trkpt><trkpt lat="44.8809248" lon="10.4687629"><ele>27.400000000000002</ele><time>2026-04-20T14:10:27.276Z</time></trkpt><trkpt lat="44.8809987" lon="10.4686262"><ele>27.800000000000004</ele><time>2026-04-20T14:10:29.276Z</time></trkpt><trkpt lat="44.8810684" lon="10.4685118"><ele>28.2</ele><time>2026-04-20T14:10:31.276Z</time></trkpt><trkpt lat="44.8811589" lon="10.4683912"><ele>28.6</ele><time>2026-04-20T14:10:33.275Z</time></trkpt><trkpt lat="44.8812066" lon="10.4683193"><ele>29.0</ele><time>2026-04-20T14:10:34.275Z</time></trkpt><trkpt lat="44.8812741" lon="10.4682779"><ele>29.0</ele><time>2026-04-20T14:10:35.276Z</time></trkpt><trkpt lat="44.8813858" lon="10.4682339"><ele>29.0</ele><time>2026-04-20T14:10:37.275Z</time></trkpt><trkpt lat="44.8814955" lon="10.4682231"><ele>29.0</ele><time>2026-04-20T14:10:39.275Z</time></trkpt><trkpt lat="44.8815599" lon="10.4682093"><ele>29.0</ele><time>2026-04-20T14:10:40.276Z</time></trkpt><trkpt lat="44.8816273" lon="10.4681887"><ele>29.0</ele><time>2026-04-20T14:10:41.275Z</time></trkpt><trkpt lat="44.8817453" lon="10.4681384"><ele>29.333333333333332</ele><time>2026-04-20T14:10:43.276Z</time></trkpt><trkpt lat="44.8818185" lon="10.468138"><ele>29.666666666666664</ele><time>2026-04-20T14:10:44.276Z</time></trkpt><trkpt lat="44.881896" lon="10.4681203"><ele>30.0</ele><time>2026-04-20T14:10:45.275Z</time></trkpt><trkpt lat="44.8819629" lon="10.4681094"><ele>30.333333333333336</ele><time>2026-04-20T14:10:46.275Z</time></trkpt><trkpt lat="44.8820288" lon="10.4681016"><ele>30.666666666666668</ele><time>2026-04-20T14:10:47.276Z</time></trkpt><trkpt lat="44.8821508" lon="10.4680573"><ele>31.0</ele><time>2026-04-20T14:10:49.275Z</time></trkpt><trkpt lat="44.8822586" lon="10.4680349"><ele>31.000000000000004</ele><time>2026-04-20T14:10:51.276Z</time></trkpt><trkpt lat="44.8823191" lon="10.4680636"><ele>31.0</ele><time>2026-04-20T14:10:52.276Z</time></trkpt><trkpt lat="44.8823989" lon="10.468169"><ele>31.0</ele><time>2026-04-20T14:10:54.276Z</time></trkpt><trkpt lat="44.8824569" lon="10.4682865"><ele>31.0</ele><time>2026-04-20T14:10:56.276Z</time></trkpt><trkpt lat="44.8824945" lon="10.4683795"><ele>31.000000000000004</ele><time>2026-04-20T14:10:57.276Z</time></trkpt><trkpt lat="44.8825152" lon="10.4684657"><ele>31.0</ele><time>2026-04-20T14:10:58.276Z</time></trkpt><trkpt lat="44.8825695" lon="10.4686133"><ele>29.75</ele><time>2026-04-20T14:11:00.276Z</time></trkpt><trkpt lat="44.8826456" lon="10.4687481"><ele>28.5</ele><time>2026-04-20T14:11:02.276Z</time></trkpt><trkpt lat="44.8827288" lon="10.4688849"><ele>27.25</ele><time>2026-04-20T14:11:04.275Z</time></trkpt><trkpt lat="44.8827992" lon="10.4690497"><ele>26.0</ele><time>2026-04-20T14:11:06.275Z</time></trkpt><trkpt lat="44.8828459" lon="10.4691927"><ele>26.0</ele><time>2026-04-20T14:11:08.276Z</time></trkpt><trkpt lat="44.88292" lon="10.4693286"><ele>26.0</ele><time>2026-04-20T14:11:10.275Z</time></trkpt><trkpt lat="44.8829666" lon="10.4694074"><ele>26.0</ele><time>2026-04-20T14:11:11.275Z</time></trkpt><trkpt lat="44.8830398" lon="10.4695647"><ele>26.0</ele><time>2026-04-20T14:11:13.276Z</time></trkpt><trkpt lat="44.883071" lon="10.4696451"><ele>26.0</ele><time>2026-04-20T14:11:14.276Z</time></trkpt><trkpt lat="44.8831142" lon="10.4697111"><ele>25.833333333333332</ele><time>2026-04-20T14:11:15.276Z</time></trkpt><trkpt lat="44.8831674" lon="10.4697953"><ele>25.666666666666664</ele><time>2026-04-20T14:11:17.275Z</time></trkpt><trkpt lat="44.8832832" lon="10.4698865"><ele>25.5</ele><time>2026-04-20T14:11:19.276Z</time></trkpt><trkpt lat="44.8833291" lon="10.469958"><ele>25.333333333333336</ele><time>2026-04-20T14:11:20.276Z</time></trkpt><trkpt lat="44.8834096" lon="10.4700005"><ele>25.166666666666668</ele><time>2026-04-20T14:11:21.276Z</time></trkpt><trkpt lat="44.8834652" lon="10.4700606"><ele>25.0</ele><time>2026-04-20T14:11:22.275Z</time></trkpt><trkpt lat="44.8835829" lon="10.4701592"><ele>25.000000000000004</ele><time>2026-04-20T14:11:24.276Z</time></trkpt><trkpt lat="44.8836591" lon="10.4702162"><ele>25.0</ele><time>2026-04-20T14:11:25.276Z</time></trkpt><trkpt lat="44.8837523" lon="10.4703174"><ele>25.0</ele><time>2026-04-20T14:11:27.276Z</time></trkpt><trkpt lat="44.8838064" lon="10.4703646"><ele>25.0</ele><time>2026-04-20T14:11:28.275Z</time></trkpt><trkpt lat="44.883868" lon="10.4704162"><ele>25.000000000000004</ele><time>2026-04-20T14:11:29.275Z</time></trkpt><trkpt lat="44.8839486" lon="10.4705201"><ele>25.0</ele><time>2026-04-20T14:11:31.276Z</time></trkpt><trkpt lat="44.884014" lon="10.4705453"><ele>25.500000000000004</ele><time>2026-04-20T14:11:32.275Z</time></trkpt><trkpt lat="44.8840892" lon="10.4706254"><ele>26.0</ele><time>2026-04-20T14:11:34.276Z</time></trkpt><trkpt lat="44.8841697" lon="10.4705851"><ele>26.5</ele><time>2026-04-20T14:11:55.276Z</time></trkpt><trkpt lat="44.8842308" lon="10.4706123"><ele>27.0</ele><time>2026-04-20T14:11:57.275Z</time></trkpt><trkpt lat="44.8843167" lon="10.4706712"><ele>27.500000000000004</ele><time>2026-04-20T14:12:00.275Z</time></trkpt><trkpt lat="44.8843988" lon="10.4707167"><ele>28.0</ele><time>2026-04-20T14:12:02.276Z</time></trkpt><trkpt lat="44.8845196" lon="10.4707453"><ele>28.0</ele><time>2026-04-20T14:12:04.276Z</time></trkpt><trkpt lat="44.884607" lon="10.4707725"><ele>27.999999999999996</ele><time>2026-04-20T14:12:06.276Z</time></trkpt><trkpt lat="44.884691" lon="10.4707962"><ele>27.999999999999996</ele><time>2026-04-20T14:12:08.276Z</time></trkpt><trkpt lat="44.8847804" lon="10.4707947"><ele>28.0</ele><time>2026-04-20T14:12:11.276Z</time></trkpt><trkpt lat="44.8848749" lon="10.4707983"><ele>28.0</ele><time>2026-04-20T14:12:13.275Z</time></trkpt><trkpt lat="44.8849689" lon="10.4707897"><ele>28.0</ele><time>2026-04-20T14:12:15.275Z</time></trkpt><trkpt lat="44.885068" lon="10.4707837"><ele>28.0</ele><time>2026-04-20T14:12:17.276Z</time></trkpt><trkpt lat="44.8851748" lon="10.4707865"><ele>28.0</ele><time>2026-04-20T14:12:19.276Z</time></trkpt><trkpt lat="44.8852869" lon="10.4707953"><ele>28.0</ele><time>2026-04-20T14:12:22.275Z</time></trkpt><trkpt lat="44.885435" lon="10.470776"><ele>28.166666666666668</ele><time>2026-04-20T14:12:26.275Z</time></trkpt><trkpt lat="44.8855088" lon="10.4707366"><ele>28.333333333333336</ele><time>2026-04-20T14:12:28.276Z</time></trkpt><trkpt lat="44.8855705" lon="10.470699"><ele>28.5</ele><time>2026-04-20T14:12:30.276Z</time></trkpt><trkpt lat="44.8856388" lon="10.4706609"><ele>28.666666666666664</ele><time>2026-04-20T14:12:32.276Z</time></trkpt><trkpt lat="44.8857118" lon="10.4706197"><ele>28.833333333333332</ele><time>2026-04-20T14:12:34.275Z</time></trkpt><trkpt lat="44.8857806" lon="10.4705657"><ele>29.0</ele><time>2026-04-20T14:12:36.275Z</time></trkpt><trkpt lat="44.8858563" lon="10.4705107"><ele>29.2</ele><time>2026-04-20T14:12:38.275Z</time></trkpt><trkpt lat="44.8859333" lon="10.4704567"><ele>29.4</ele><time>2026-04-20T14:12:40.275Z</time></trkpt><trkpt lat="44.8860008" lon="10.4703984"><ele>29.6</ele><time>2026-04-20T14:12:42.275Z</time></trkpt><trkpt lat="44.8860703" lon="10.4703236"><ele>29.8</ele><time>2026-04-20T14:12:44.275Z</time></trkpt><trkpt lat="44.8861522" lon="10.4702523"><ele>30.0</ele><time>2026-04-20T14:12:46.276Z</time></trkpt><trkpt lat="44.8862478" lon="10.470186"><ele>30.0</ele><time>2026-04-20T14:12:48.275Z</time></trkpt><trkpt lat="44.8863487" lon="10.4700867"><ele>30.0</ele><time>2026-04-20T14:12:50.276Z</time></trkpt><trkpt lat="44.8863898" lon="10.4700167"><ele>30.0</ele><time>2026-04-20T14:12:51.275Z</time></trkpt><trkpt lat="44.8864864" lon="10.4698891"><ele>30.0</ele><time>2026-04-20T14:12:53.276Z</time></trkpt><trkpt lat="44.8865369" lon="10.4698281"><ele>30.0</ele><time>2026-04-20T14:12:54.276Z</time></trkpt><trkpt lat="44.8866334" lon="10.4696797"><ele>30.2</ele><time>2026-04-20T14:12:56.276Z</time></trkpt><trkpt lat="44.8867143" lon="10.4695513"><ele>30.4</ele><time>2026-04-20T14:12:58.275Z</time></trkpt><trkpt lat="44.8867633" lon="10.469491"><ele>30.6</ele><time>2026-04-20T14:12:59.276Z</time></trkpt><trkpt lat="44.8868167" lon="10.4694277"><ele>30.8</ele><time>2026-04-20T14:13:00.275Z</time></trkpt><trkpt lat="44.886864" lon="10.4693649"><ele>31.0</ele><time>2026-04-20T14:13:01.275Z</time></trkpt><trkpt lat="44.8869569" lon="10.4692394"><ele>31.000000000000004</ele><time>2026-04-20T14:13:03.276Z</time></trkpt><trkpt lat="44.8869999" lon="10.4691716"><ele>31.0</ele><time>2026-04-20T14:13:04.276Z</time></trkpt><trkpt lat="44.8870521" lon="10.4691052"><ele>31.0</ele><time>2026-04-20T14:13:05.276Z</time></trkpt><trkpt lat="44.8871466" lon="10.4690012"><ele>31.0</ele><time>2026-04-20T14:13:07.276Z</time></trkpt><trkpt lat="44.8871973" lon="10.4689381"><ele>31.000000000000004</ele><time>2026-04-20T14:13:08.276Z</time></trkpt><trkpt lat="44.8872458" lon="10.468869"><ele>31.0</ele><time>2026-04-20T14:13:09.275Z</time></trkpt><trkpt lat="44.8873362" lon="10.4687555"><ele>31.166666666666668</ele><time>2026-04-20T14:13:11.276Z</time></trkpt><trkpt lat="44.8873742" lon="10.4686834"><ele>31.333333333333336</ele><time>2026-04-20T14:13:12.275Z</time></trkpt><trkpt lat="44.8874196" lon="10.4686151"><ele>31.5</ele><time>2026-04-20T14:13:13.276Z</time></trkpt><trkpt lat="44.8874599" lon="10.4685441"><ele>31.666666666666664</ele><time>2026-04-20T14:13:14.276Z</time></trkpt><trkpt lat="44.8875178" lon="10.4683916"><ele>31.833333333333332</ele><time>2026-04-20T14:13:16.276Z</time></trkpt><trkpt lat="44.887574" lon="10.4682588"><ele>32.0</ele><time>2026-04-20T14:13:18.275Z</time></trkpt><trkpt lat="44.8875989" lon="10.4680993"><ele>31.6</ele><time>2026-04-20T14:13:20.275Z</time></trkpt><trkpt lat="44.8876225" lon="10.4679126"><ele>31.200000000000003</ele><time>2026-04-20T14:13:22.275Z</time></trkpt><trkpt lat="44.8876415" lon="10.4677433"><ele>30.8</ele><time>2026-04-20T14:13:24.275Z</time></trkpt><trkpt lat="44.8876306" lon="10.4676543"><ele>30.4</ele><time>2026-04-20T14:13:25.276Z</time></trkpt><trkpt lat="44.8876294" lon="10.4675653"><ele>30.0</ele><time>2026-04-20T14:13:26.275Z</time></trkpt><trkpt lat="44.887628" lon="10.4674666"><ele>30.0</ele><time>2026-04-20T14:13:27.276Z</time></trkpt><trkpt lat="44.8875931" lon="10.4673426"><ele>30.0</ele><time>2026-04-20T14:13:28.276Z</time></trkpt><trkpt lat="44.8875837" lon="10.4672523"><ele>30.0</ele><time>2026-04-20T14:13:29.275Z</time></trkpt><trkpt lat="44.8875662" lon="10.4671053"><ele>30.0</ele><time>2026-04-20T14:13:31.276Z</time></trkpt><trkpt lat="44.8875601" lon="10.4669502"><ele>30.0</ele><time>2026-04-20T14:13:33.275Z</time></trkpt><trkpt lat="44.8875969" lon="10.4668321"><ele>30.0</ele><time>2026-04-20T14:13:35.276Z</time></trkpt><trkpt lat="44.8875964" lon="10.466734"><ele>30.0</ele><time>2026-04-20T14:13:36.276Z</time></trkpt><trkpt lat="44.8875842" lon="10.4665109"><ele>30.0</ele><time>2026-04-20T14:13:38.275Z</time></trkpt><trkpt lat="44.8875742" lon="10.4664192"><ele>30.0</ele><time>2026-04-20T14:13:39.276Z</time></trkpt><trkpt lat="44.8875394" lon="10.4662748"><ele>30.0</ele><time>2026-04-20T14:13:40.276Z</time></trkpt><trkpt lat="44.8874931" lon="10.4660962"><ele>29.8</ele><time>2026-04-20T14:13:42.276Z</time></trkpt><trkpt lat="44.887468" lon="10.4659342"><ele>29.6</ele><time>2026-04-20T14:13:44.276Z</time></trkpt><trkpt lat="44.8874467" lon="10.4658429"><ele>29.4</ele><time>2026-04-20T14:13:45.275Z</time></trkpt><trkpt lat="44.8874249" lon="10.465672"><ele>29.2</ele><time>2026-04-20T14:13:47.276Z</time></trkpt><trkpt lat="44.8874011" lon="10.4655041"><ele>29.0</ele><time>2026-04-20T14:13:49.275Z</time></trkpt><trkpt lat="44.8873786" lon="10.4653348"><ele>29.0</ele><time>2026-04-20T14:13:51.275Z</time></trkpt><trkpt lat="44.8873647" lon="10.4652339"><ele>29.0</ele><time>2026-04-20T14:13:52.276Z</time></trkpt><trkpt lat="44.8873481" lon="10.4651387"><ele>29.0</ele><time>2026-04-20T14:13:53.276Z</time></trkpt><trkpt lat="44.8873289" lon="10.4649744"><ele>29.0</ele><time>2026-04-20T14:13:55.275Z</time></trkpt><trkpt lat="44.8872972" lon="10.4648012"><ele>29.0</ele><time>2026-04-20T14:13:57.276Z</time></trkpt><trkpt lat="44.8872404" lon="10.4645369"><ele>30.0</ele><time>2026-04-20T14:14:00.275Z</time></trkpt><trkpt lat="44.887218" lon="10.4643677"><ele>31.0</ele><time>2026-04-20T14:14:02.275Z</time></trkpt><trkpt lat="44.8871973" lon="10.4642249"><ele>32.0</ele><time>2026-04-20T14:14:04.275Z</time></trkpt><trkpt lat="44.887173" lon="10.4641251"><ele>33.0</ele><time>2026-04-20T14:14:05.275Z</time></trkpt><trkpt lat="44.88714" lon="10.4639555"><ele>34.0</ele><time>2026-04-20T14:14:07.276Z</time></trkpt><trkpt lat="44.8870971" lon="10.4637288"><ele>34.6</ele><time>2026-04-20T14:14:10.275Z</time></trkpt><trkpt lat="44.8870771" lon="10.4636434"><ele>35.2</ele><time>2026-04-20T14:14:11.276Z</time></trkpt><trkpt lat="44.8870542" lon="10.4634931"><ele>35.800000000000004</ele><time>2026-04-20T14:14:13.275Z</time></trkpt><trkpt lat="44.8870347" lon="10.4633356"><ele>36.4</ele><time>2026-04-20T14:14:15.275Z</time></trkpt><trkpt lat="44.8870066" lon="10.4631929"><ele>37.0</ele><time>2026-04-20T14:14:17.276Z</time></trkpt><trkpt lat="44.8869825" lon="10.4631076"><ele>37.0</ele><time>2026-04-20T14:14:18.275Z</time></trkpt><trkpt lat="44.8869588" lon="10.4630207"><ele>37.0</ele><time>2026-04-20T14:14:19.275Z</time></trkpt><trkpt lat="44.8869113" lon="10.4628582"><ele>37.0</ele><time>2026-04-20T14:14:21.276Z</time></trkpt><trkpt lat="44.8868864" lon="10.4627762"><ele>37.0</ele><time>2026-04-20T14:14:22.276Z</time></trkpt><trkpt lat="44.8868649" lon="10.4626864"><ele>37.0</ele><time>2026-04-20T14:14:23.275Z</time></trkpt><trkpt lat="44.886841" lon="10.4626024"><ele>37.0</ele><time>2026-04-20T14:14:24.275Z</time></trkpt><trkpt lat="44.8868044" lon="10.4624431"><ele>36.5</ele><time>2026-04-20T14:14:26.276Z</time></trkpt><trkpt lat="44.886772" lon="10.4622842"><ele>36.0</ele><time>2026-04-20T14:14:28.276Z</time></trkpt><trkpt lat="44.8867179" lon="10.4621303"><ele>35.5</ele><time>2026-04-20T14:14:30.275Z</time></trkpt><trkpt lat="44.8866627" lon="10.4619678"><ele>35.0</ele><time>2026-04-20T14:14:32.275Z</time></trkpt><trkpt lat="44.88663" lon="10.461834"><ele>35.0</ele><time>2026-04-20T14:14:34.276Z</time></trkpt><trkpt lat="44.8865711" lon="10.4616591"><ele>35.0</ele><time>2026-04-20T14:14:36.276Z</time></trkpt><trkpt lat="44.8865423" lon="10.4615711"><ele>35.0</ele><time>2026-04-20T14:14:37.275Z</time></trkpt><trkpt lat="44.8865133" lon="10.4613744"><ele>35.0</ele><time>2026-04-20T14:14:39.276Z</time></trkpt><trkpt lat="44.8865302" lon="10.4611928"><ele>35.0</ele><time>2026-04-20T14:14:41.275Z</time></trkpt><trkpt lat="44.8865849" lon="10.4610323"><ele>35.0</ele><time>2026-04-20T14:14:43.276Z</time></trkpt><trkpt lat="44.8866768" lon="10.4609865"><ele>35.0</ele><time>2026-04-20T14:14:45.276Z</time></trkpt><trkpt lat="44.8868049" lon="10.4608984"><ele>35.0</ele><time>2026-04-20T14:14:47.276Z</time></trkpt><trkpt lat="44.8869145" lon="10.4608514"><ele>35.8</ele><time>2026-04-20T14:14:49.276Z</time></trkpt><trkpt lat="44.8870114" lon="10.4608149"><ele>36.6</ele><time>2026-04-20T14:14:51.276Z</time></trkpt><trkpt lat="44.8871101" lon="10.4607747"><ele>37.4</ele><time>2026-04-20T14:14:53.275Z</time></trkpt><trkpt lat="44.8872055" lon="10.4607511"><ele>38.2</ele><time>2026-04-20T14:14:55.275Z</time></trkpt><trkpt lat="44.8873105" lon="10.460727"><ele>39.0</ele><time>2026-04-20T14:14:57.276Z</time></trkpt><trkpt lat="44.8874078" lon="10.4607209"><ele>39.0</ele><time>2026-04-20T14:14:59.275Z</time></trkpt><trkpt lat="44.8875044" lon="10.4607216"><ele>39.0</ele><time>2026-04-20T14:15:01.275Z</time></trkpt><trkpt lat="44.8876112" lon="10.4607441"><ele>39.0</ele><time>2026-04-20T14:15:03.276Z</time></trkpt><trkpt lat="44.8877384" lon="10.460754"><ele>39.0</ele><time>2026-04-20T14:15:05.275Z</time></trkpt><trkpt lat="44.8878419" lon="10.4607955"><ele>39.0</ele><time>2026-04-20T14:15:07.275Z</time></trkpt><trkpt lat="44.8879302" lon="10.4608302"><ele>37.6</ele><time>2026-04-20T14:15:09.276Z</time></trkpt><trkpt lat="44.8880278" lon="10.4608561"><ele>36.2</ele><time>2026-04-20T14:15:11.275Z</time></trkpt><trkpt lat="44.8881211" lon="10.460846"><ele>34.800000000000004</ele><time>2026-04-20T14:15:12.276Z</time></trkpt><trkpt lat="44.8882219" lon="10.4608628"><ele>33.4</ele><time>2026-04-20T14:15:13.276Z</time></trkpt><trkpt lat="44.8883175" lon="10.4608798"><ele>32.0</ele><time>2026-04-20T14:15:15.276Z</time></trkpt><trkpt lat="44.8883978" lon="10.4609382"><ele>30.400000000000002</ele><time>2026-04-20T14:15:17.275Z</time></trkpt><trkpt lat="44.8884869" lon="10.4609767"><ele>28.800000000000004</ele><time>2026-04-20T14:15:19.276Z</time></trkpt><trkpt lat="44.8885917" lon="10.4610261"><ele>27.2</ele><time>2026-04-20T14:15:21.276Z</time></trkpt><trkpt lat="44.8886572" lon="10.4610462"><ele>25.6</ele><time>2026-04-20T14:15:22.275Z</time></trkpt><trkpt lat="44.8887481" lon="10.4610929"><ele>24.0</ele><time>2026-04-20T14:15:24.275Z</time></trkpt><trkpt lat="44.8888375" lon="10.4611414"><ele>24.0</ele><time>2026-04-20T14:15:26.276Z</time></trkpt><trkpt lat="44.8889171" lon="10.4611982"><ele>24.0</ele><time>2026-04-20T14:15:28.275Z</time></trkpt><trkpt lat="44.8889973" lon="10.4612345"><ele>24.0</ele><time>2026-04-20T14:15:30.275Z</time></trkpt><trkpt lat="44.8890843" lon="10.4612816"><ele>24.0</ele><time>2026-04-20T14:15:32.275Z</time></trkpt><trkpt lat="44.8892088" lon="10.46135"><ele>24.0</ele><time>2026-04-20T14:15:35.276Z</time></trkpt><trkpt lat="44.8892949" lon="10.4613972"><ele>24.666666666666668</ele><time>2026-04-20T14:15:37.275Z</time></trkpt><trkpt lat="44.8893702" lon="10.4614375"><ele>25.333333333333336</ele><time>2026-04-20T14:15:39.276Z</time></trkpt><trkpt lat="44.8894552" lon="10.461478"><ele>26.0</ele><time>2026-04-20T14:15:41.276Z</time></trkpt><trkpt lat="44.8895282" lon="10.4615149"><ele>26.666666666666668</ele><time>2026-04-20T14:15:43.275Z</time></trkpt><trkpt lat="44.8896145" lon="10.4615502"><ele>27.333333333333336</ele><time>2026-04-20T14:15:45.276Z</time></trkpt><trkpt lat="44.8897002" lon="10.4616043"><ele>28.0</ele><time>2026-04-20T14:15:47.276Z</time></trkpt><trkpt lat="44.8897843" lon="10.4616612"><ele>28.0</ele><time>2026-04-20T14:15:49.275Z</time></trkpt><trkpt lat="44.8898809" lon="10.4617251"><ele>27.999999999999996</ele><time>2026-04-20T14:15:51.276Z</time></trkpt><trkpt lat="44.8899673" lon="10.4617849"><ele>27.999999999999996</ele><time>2026-04-20T14:15:53.275Z</time></trkpt><trkpt lat="44.8900481" lon="10.4618334"><ele>28.0</ele><time>2026-04-20T14:15:55.275Z</time></trkpt><trkpt lat="44.8901392" lon="10.4618971"><ele>28.0</ele><time>2026-04-20T14:15:57.275Z</time></trkpt><trkpt lat="44.8902176" lon="10.4619563"><ele>28.0</ele><time>2026-04-20T14:15:59.276Z</time></trkpt><trkpt lat="44.8902929" lon="10.4620368"><ele>27.999999999999996</ele><time>2026-04-20T14:16:01.276Z</time></trkpt><trkpt lat="44.8903702" lon="10.4621121"><ele>27.999999999999996</ele><time>2026-04-20T14:16:03.275Z</time></trkpt><trkpt lat="44.8904466" lon="10.4621985"><ele>28.0</ele><time>2026-04-20T14:16:05.275Z</time></trkpt><trkpt lat="44.8905121" lon="10.4622475"><ele>28.0</ele><time>2026-04-20T14:16:07.276Z</time></trkpt><trkpt lat="44.8906022" lon="10.4623146"><ele>28.0</ele><time>2026-04-20T14:16:09.276Z</time></trkpt><trkpt lat="44.8906974" lon="10.4624003"><ele>28.0</ele><time>2026-04-20T14:16:11.275Z</time></trkpt><trkpt lat="44.8907856" lon="10.4624595"><ele>28.0</ele><time>2026-04-20T14:16:13.276Z</time></trkpt><trkpt lat="44.8908498" lon="10.4624793"><ele>28.0</ele><time>2026-04-20T14:16:14.276Z</time></trkpt><trkpt lat="44.8910219" lon="10.4625682"><ele>27.666666666666668</ele><time>2026-04-20T14:16:17.276Z</time></trkpt><trkpt lat="44.8910732" lon="10.4626231"><ele>27.333333333333336</ele><time>2026-04-20T14:16:18.276Z</time></trkpt><trkpt lat="44.8911283" lon="10.4627087"><ele>27.0</ele><time>2026-04-20T14:16:20.276Z</time></trkpt><trkpt lat="44.8912077" lon="10.4627363"><ele>26.666666666666664</ele><time>2026-04-20T14:16:22.276Z</time></trkpt><trkpt lat="44.8912828" lon="10.4627895"><ele>26.333333333333332</ele><time>2026-04-20T14:16:23.276Z</time></trkpt><trkpt lat="44.8913949" lon="10.4628229"><ele>26.0</ele><time>2026-04-20T14:16:25.275Z</time></trkpt><trkpt lat="44.8914896" lon="10.4628844"><ele>25.8</ele><time>2026-04-20T14:16:27.276Z</time></trkpt><trkpt lat="44.8915409" lon="10.4629967"><ele>25.6</ele><time>2026-04-20T14:16:29.275Z</time></trkpt><trkpt lat="44.8916202" lon="10.4630518"><ele>25.4</ele><time>2026-04-20T14:16:31.275Z</time></trkpt><trkpt lat="44.8916985" lon="10.4631142"><ele>25.2</ele><time>2026-04-20T14:16:33.276Z</time></trkpt><trkpt lat="44.8918071" lon="10.4631632"><ele>25.0</ele><time>2026-04-20T14:16:35.275Z</time></trkpt><trkpt lat="44.8919152" lon="10.4632174"><ele>25.0</ele><time>2026-04-20T14:16:37.275Z</time></trkpt><trkpt lat="44.8920108" lon="10.463259"><ele>25.0</ele><time>2026-04-20T14:16:39.276Z</time></trkpt><trkpt lat="44.892136" lon="10.4633119"><ele>25.0</ele><time>2026-04-20T14:16:41.276Z</time></trkpt><trkpt lat="44.8922226" lon="10.4633566"><ele>25.0</ele><time>2026-04-20T14:16:43.276Z</time></trkpt><trkpt lat="44.8922862" lon="10.4633715"><ele>25.0</ele><time>2026-04-20T14:16:44.276Z</time></trkpt><trkpt lat="44.8924012" lon="10.4634098"><ele>25.0</ele><time>2026-04-20T14:16:46.276Z</time></trkpt><trkpt lat="44.8924889" lon="10.4634813"><ele>25.0</ele><time>2026-04-20T14:16:48.275Z</time></trkpt><trkpt lat="44.8925822" lon="10.4635461"><ele>25.0</ele><time>2026-04-20T14:16:50.275Z</time></trkpt><trkpt lat="44.8926656" lon="10.4635358"><ele>25.0</ele><time>2026-04-20T14:16:51.275Z</time></trkpt><trkpt lat="44.8927888" lon="10.4635929"><ele>25.0</ele><time>2026-04-20T14:16:53.275Z</time></trkpt><trkpt lat="44.8928494" lon="10.4636387"><ele>25.0</ele><time>2026-04-20T14:16:54.275Z</time></trkpt><trkpt lat="44.8929169" lon="10.4636826"><ele>25.0</ele><time>2026-04-20T14:16:56.275Z</time></trkpt><trkpt lat="44.8930224" lon="10.4637128"><ele>25.0</ele><time>2026-04-20T14:16:58.275Z</time></trkpt><trkpt lat="44.8931111" lon="10.463726"><ele>25.0</ele><time>2026-04-20T14:17:01.275Z</time></trkpt><trkpt lat="44.8932523" lon="10.4637833"><ele>25.0</ele><time>2026-04-20T14:17:03.276Z</time></trkpt><trkpt lat="44.8933252" lon="10.4638419"><ele>25.2</ele><time>2026-04-20T14:17:05.276Z</time></trkpt><trkpt lat="44.8933987" lon="10.4638562"><ele>25.4</ele><time>2026-04-20T14:17:06.275Z</time></trkpt><trkpt lat="44.8934697" lon="10.4638633"><ele>25.6</ele><time>2026-04-20T14:17:07.275Z</time></trkpt><trkpt lat="44.8935861" lon="10.4639137"><ele>25.8</ele><time>2026-04-20T14:17:09.275Z</time></trkpt><trkpt lat="44.8936901" lon="10.4639478"><ele>26.0</ele><time>2026-04-20T14:17:11.276Z</time></trkpt><trkpt lat="44.8937916" lon="10.4639824"><ele>26.200000000000003</ele><time>2026-04-20T14:17:13.276Z</time></trkpt><trkpt lat="44.8938818" lon="10.4640282"><ele>26.400000000000002</ele><time>2026-04-20T14:17:15.276Z</time></trkpt><trkpt lat="44.8939847" lon="10.4640617"><ele>26.6</ele><time>2026-04-20T14:17:17.276Z</time></trkpt><trkpt lat="44.8940977" lon="10.4641058"><ele>26.8</ele><time>2026-04-20T14:17:19.276Z</time></trkpt><trkpt lat="44.8941929" lon="10.4641369"><ele>27.0</ele><time>2026-04-20T14:17:21.276Z</time></trkpt><trkpt lat="44.8943133" lon="10.4641836"><ele>27.0</ele><time>2026-04-20T14:17:23.275Z</time></trkpt><trkpt lat="44.8944124" lon="10.4642202"><ele>27.000000000000004</ele><time>2026-04-20T14:17:25.275Z</time></trkpt><trkpt lat="44.8945235" lon="10.4642445"><ele>27.000000000000004</ele><time>2026-04-20T14:17:27.276Z</time></trkpt><trkpt lat="44.8945858" lon="10.4642579"><ele>27.0</ele><time>2026-04-20T14:17:28.276Z</time></trkpt><trkpt lat="44.8946925" lon="10.4642801"><ele>27.0</ele><time>2026-04-20T14:17:30.276Z</time></trkpt><trkpt lat="44.8947982" lon="10.4643055"><ele>27.0</ele><time>2026-04-20T14:17:32.275Z</time></trkpt><trkpt lat="44.894891" lon="10.4643133"><ele>27.000000000000004</ele><time>2026-04-20T14:17:34.276Z</time></trkpt><trkpt lat="44.8949748" lon="10.4643204"><ele>27.000000000000004</ele><time>2026-04-20T14:17:36.275Z</time></trkpt><trkpt lat="44.8950693" lon="10.4642904"><ele>27.0</ele><time>2026-04-20T14:17:38.275Z</time></trkpt><trkpt lat="44.895125" lon="10.4643366"><ele>27.0</ele><time>2026-04-20T14:17:40.275Z</time></trkpt><trkpt lat="44.8952374" lon="10.4643281"><ele>27.200000000000003</ele><time>2026-04-20T14:17:42.276Z</time></trkpt><trkpt lat="44.8953614" lon="10.4643305"><ele>27.400000000000002</ele><time>2026-04-20T14:17:44.275Z</time></trkpt><trkpt lat="44.8954522" lon="10.4643074"><ele>27.599999999999998</ele><time>2026-04-20T14:17:46.275Z</time></trkpt><trkpt lat="44.8955409" lon="10.4642753"><ele>27.799999999999997</ele><time>2026-04-20T14:17:49.276Z</time></trkpt><trkpt lat="44.8956318" lon="10.4642545"><ele>28.0</ele><time>2026-04-20T14:17:51.276Z</time></trkpt><trkpt lat="44.8957223" lon="10.4642326"><ele>28.0</ele><time>2026-04-20T14:17:53.276Z</time></trkpt><trkpt lat="44.8958178" lon="10.4642112"><ele>27.999999999999996</ele><time>2026-04-20T14:17:55.275Z</time></trkpt><trkpt lat="44.8959001" lon="10.46419"><ele>27.999999999999996</ele><time>2026-04-20T14:17:58.275Z</time></trkpt><trkpt lat="44.8959909" lon="10.4641964"><ele>28.0</ele><time>2026-04-20T14:18:01.275Z</time></trkpt><trkpt lat="44.8960934" lon="10.464133"><ele>28.0</ele><time>2026-04-20T14:18:04.276Z</time></trkpt><trkpt lat="44.8961725" lon="10.464095"><ele>27.799999999999997</ele><time>2026-04-20T14:18:06.276Z</time></trkpt><trkpt lat="44.8962645" lon="10.4640707"><ele>27.599999999999998</ele><time>2026-04-20T14:18:08.275Z</time></trkpt><trkpt lat="44.8963683" lon="10.4640606"><ele>27.400000000000002</ele><time>2026-04-20T14:18:10.275Z</time></trkpt><trkpt lat="44.8964561" lon="10.4640455"><ele>27.200000000000003</ele><time>2026-04-20T14:18:12.275Z</time></trkpt><trkpt lat="44.8965498" lon="10.4640377"><ele>27.0</ele><time>2026-04-20T14:18:14.275Z</time></trkpt><trkpt lat="44.8966633" lon="10.4640354"><ele>27.333333333333332</ele><time>2026-04-20T14:18:16.276Z</time></trkpt><trkpt lat="44.896753" lon="10.4640431"><ele>27.666666666666664</ele><time>2026-04-20T14:18:18.276Z</time></trkpt><trkpt lat="44.8968605" lon="10.4640548"><ele>28.0</ele><time>2026-04-20T14:18:20.276Z</time></trkpt><trkpt lat="44.8969485" lon="10.464073"><ele>28.333333333333332</ele><time>2026-04-20T14:18:22.276Z</time></trkpt><trkpt lat="44.897017" lon="10.4641187"><ele>28.666666666666664</ele><time>2026-04-20T14:18:24.276Z</time></trkpt><trkpt lat="44.8970925" lon="10.4641552"><ele>29.0</ele><time>2026-04-20T14:18:26.276Z</time></trkpt><trkpt lat="44.897161" lon="10.4642102"><ele>28.999999999999996</ele><time>2026-04-20T14:18:28.276Z</time></trkpt><trkpt lat="44.8972244" lon="10.4642779"><ele>29.0</ele><time>2026-04-20T14:18:30.276Z</time></trkpt><trkpt lat="44.8973065" lon="10.4643455"><ele>29.0</ele><time>2026-04-20T14:18:32.276Z</time></trkpt><trkpt lat="44.897373" lon="10.4643925"><ele>29.0</ele><time>2026-04-20T14:18:34.276Z</time></trkpt><trkpt lat="44.8974556" lon="10.4644623"><ele>28.999999999999996</ele><time>2026-04-20T14:18:36.275Z</time></trkpt><trkpt lat="44.897519" lon="10.4645453"><ele>29.0</ele><time>2026-04-20T14:18:38.276Z</time></trkpt><trkpt lat="44.8975782" lon="10.4645793"><ele>28.6</ele><time>2026-04-20T14:18:39.275Z</time></trkpt><trkpt lat="44.8976428" lon="10.4646149"><ele>28.2</ele><time>2026-04-20T14:18:40.275Z</time></trkpt><trkpt lat="44.8977336" lon="10.4646951"><ele>27.800000000000004</ele><time>2026-04-20T14:18:42.276Z</time></trkpt><trkpt lat="44.8977909" lon="10.4648177"><ele>27.400000000000002</ele><time>2026-04-20T14:18:44.276Z</time></trkpt><trkpt lat="44.8978552" lon="10.4648588"><ele>27.0</ele><time>2026-04-20T14:18:45.276Z</time></trkpt><trkpt lat="44.8979575" lon="10.4649601"><ele>27.0</ele><time>2026-04-20T14:18:47.275Z</time></trkpt><trkpt lat="44.8980112" lon="10.4650421"><ele>27.000000000000004</ele><time>2026-04-20T14:18:49.276Z</time></trkpt><trkpt lat="44.8980932" lon="10.4651125"><ele>27.000000000000004</ele><time>2026-04-20T14:18:51.275Z</time></trkpt><trkpt lat="44.8981742" lon="10.4651991"><ele>27.0</ele><time>2026-04-20T14:18:53.275Z</time></trkpt><trkpt lat="44.898267" lon="10.4652847"><ele>27.0</ele><time>2026-04-20T14:18:55.276Z</time></trkpt><trkpt lat="44.8983108" lon="10.4654267"><ele>27.0</ele><time>2026-04-20T14:18:57.276Z</time></trkpt><trkpt lat="44.8983745" lon="10.4655675"><ele>27.000000000000004</ele><time>2026-04-20T14:18:59.276Z</time></trkpt><trkpt lat="44.8984074" lon="10.4657017"><ele>27.000000000000004</ele><time>2026-04-20T14:19:01.275Z</time></trkpt><trkpt lat="44.8984408" lon="10.4658153"><ele>27.0</ele><time>2026-04-20T14:19:03.276Z</time></trkpt><trkpt lat="44.8984695" lon="10.4658961"><ele>27.0</ele><time>2026-04-20T14:19:04.275Z</time></trkpt><trkpt lat="44.8985007" lon="10.4660409"><ele>27.0</ele><time>2026-04-20T14:19:06.276Z</time></trkpt><trkpt lat="44.8985348" lon="10.4661645"><ele>27.000000000000004</ele><time>2026-04-20T14:19:08.276Z</time></trkpt><trkpt lat="44.8985738" lon="10.4662643"><ele>27.000000000000004</ele><time>2026-04-20T14:19:10.276Z</time></trkpt><trkpt lat="44.8986139" lon="10.4664055"><ele>27.0</ele><time>2026-04-20T14:19:12.276Z</time></trkpt><trkpt lat="44.8986567" lon="10.4665366"><ele>27.0</ele><time>2026-04-20T14:19:14.276Z</time></trkpt><trkpt lat="44.8986926" lon="10.4666685"><ele>27.0</ele><time>2026-04-20T14:19:16.275Z</time></trkpt><trkpt lat="44.8987688" lon="10.4667564"><ele>27.000000000000004</ele><time>2026-04-20T14:19:18.276Z</time></trkpt><trkpt lat="44.8988097" lon="10.4668953"><ele>27.000000000000004</ele><time>2026-04-20T14:19:21.275Z</time></trkpt><trkpt lat="44.8988136" lon="10.4669966"><ele>27.0</ele><time>2026-04-20T14:19:22.275Z</time></trkpt><trkpt lat="44.8988616" lon="10.4670781"><ele>27.0</ele><time>2026-04-20T14:19:23.276Z</time></trkpt><trkpt lat="44.8988923" lon="10.4672103"><ele>27.200000000000003</ele><time>2026-04-20T14:19:25.276Z</time></trkpt><trkpt lat="44.8989324" lon="10.4673529"><ele>27.400000000000002</ele><time>2026-04-20T14:19:27.275Z</time></trkpt><trkpt lat="44.8989671" lon="10.467499"><ele>27.599999999999998</ele><time>2026-04-20T14:19:29.275Z</time></trkpt><trkpt lat="44.8989857" lon="10.4676352"><ele>27.799999999999997</ele><time>2026-04-20T14:19:31.275Z</time></trkpt><trkpt lat="44.8990033" lon="10.4677655"><ele>28.0</ele><time>2026-04-20T14:19:33.275Z</time></trkpt><trkpt lat="44.8990158" lon="10.4678829"><ele>27.666666666666668</ele><time>2026-04-20T14:19:35.275Z</time></trkpt><trkpt lat="44.8990206" lon="10.4679999"><ele>27.333333333333336</ele><time>2026-04-20T14:19:37.276Z</time></trkpt><trkpt lat="44.8990345" lon="10.4681555"><ele>27.0</ele><time>2026-04-20T14:19:40.275Z</time></trkpt><trkpt lat="44.8990489" lon="10.4682549"><ele>26.666666666666664</ele><time>2026-04-20T14:19:44.276Z</time></trkpt><trkpt lat="44.8990943" lon="10.4683375"><ele>26.333333333333332</ele><time>2026-04-20T14:20:14.275Z</time></trkpt><trkpt lat="44.8991297" lon="10.4684404"><ele>26.0</ele><time>2026-04-20T14:20:16.275Z</time></trkpt><trkpt lat="44.8991535" lon="10.4685466"><ele>26.0</ele><time>2026-04-20T14:20:18.276Z</time></trkpt><trkpt lat="44.8991787" lon="10.4686466"><ele>26.0</ele><time>2026-04-20T14:20:20.275Z</time></trkpt><trkpt lat="44.8992197" lon="10.4687247"><ele>26.0</ele><time>2026-04-20T14:20:23.276Z</time></trkpt><trkpt lat="44.8992507" lon="10.4686313"><ele>26.0</ele><time>2026-04-20T14:20:26.276Z</time></trkpt><trkpt lat="44.8992307" lon="10.4685365"><ele>26.0</ele><time>2026-04-20T14:20:28.276Z</time></trkpt><trkpt lat="44.8992101" lon="10.4684507"><ele>26.0</ele><time>2026-04-20T14:20:30.276Z</time></trkpt><trkpt lat="44.8992006" lon="10.4683359"><ele>26.0</ele><time>2026-04-20T14:20:33.275Z</time></trkpt><trkpt lat="44.89923" lon="10.4682267"><ele>26.166666666666664</ele><time>2026-04-20T14:20:36.276Z</time></trkpt><trkpt lat="44.899289" lon="10.4681833"><ele>26.333333333333332</ele><time>2026-04-20T14:20:39.275Z</time></trkpt><trkpt lat="44.8993605" lon="10.4681502"><ele>26.5</ele><time>2026-04-20T14:20:41.275Z</time></trkpt><trkpt lat="44.8994447" lon="10.4681208"><ele>26.666666666666664</ele><time>2026-04-20T14:20:43.275Z</time></trkpt><trkpt lat="44.8995328" lon="10.4680903"><ele>26.833333333333332</ele><time>2026-04-20T14:20:45.275Z</time></trkpt><trkpt lat="44.8996476" lon="10.4680481"><ele>27.0</ele><time>2026-04-20T14:20:48.276Z</time></trkpt><trkpt lat="44.8997247" lon="10.4680226"><ele>27.0</ele><time>2026-04-20T14:20:50.276Z</time></trkpt><trkpt lat="44.8997873" lon="10.4680025"><ele>27.0</ele><time>2026-04-20T14:20:52.276Z</time></trkpt><trkpt lat="44.8998757" lon="10.4679726"><ele>27.0</ele><time>2026-04-20T14:20:55.275Z</time></trkpt><trkpt lat="44.899943" lon="10.4679776"><ele>27.0</ele><time>2026-04-20T14:20:59.275Z</time></trkpt><trkpt lat="44.8999786" lon="10.4680532"><ele>27.0</ele><time>2026-04-20T14:21:01.275Z</time></trkpt><trkpt lat="44.8999753" lon="10.4681561"><ele>27.0</ele><time>2026-04-20T14:21:03.276Z</time></trkpt><trkpt lat="44.89995" lon="10.4682727"><ele>27.0</ele><time>2026-04-20T14:21:06.275Z</time></trkpt><trkpt lat="44.8999638" lon="10.4683692"><ele>27.0</ele><time>2026-04-20T14:21:08.275Z</time></trkpt><trkpt lat="44.8999907" lon="10.4684593"><ele>27.0</ele><time>2026-04-20T14:21:10.275Z</time></trkpt><trkpt lat="44.9000183" lon="10.4685566"><ele>27.0</ele><time>2026-04-20T14:21:12.276Z</time></trkpt><trkpt lat="44.9000518" lon="10.468648"><ele>27.0</ele><time>2026-04-20T14:21:14.275Z</time></trkpt><trkpt lat="44.9000867" lon="10.468744"><ele>27.0</ele><time>2026-04-20T14:21:16.276Z</time></trkpt><trkpt lat="44.9001385" lon="10.4688368"><ele>27.0</ele><time>2026-04-20T14:21:18.276Z</time></trkpt><trkpt lat="44.9002028" lon="10.4689152"><ele>27.0</ele><time>2026-04-20T14:21:20.276Z</time></trkpt><trkpt lat="44.9002636" lon="10.4689996"><ele>27.000000000000004</ele><time>2026-04-20T14:21:22.275Z</time></trkpt><trkpt lat="44.9003294" lon="10.4691022"><ele>27.000000000000004</ele><time>2026-04-20T14:21:24.275Z</time></trkpt><trkpt lat="44.9004318" lon="10.469154"><ele>27.0</ele><time>2026-04-20T14:21:26.275Z</time></trkpt><trkpt lat="44.9004735" lon="10.4692705"><ele>27.0</ele><time>2026-04-20T14:21:29.276Z</time></trkpt><trkpt lat="44.9005532" lon="10.4693454"><ele>27.0</ele><time>2026-04-20T14:21:32.276Z</time></trkpt><trkpt lat="44.900629" lon="10.4693481"><ele>27.000000000000004</ele><time>2026-04-20T14:21:34.276Z</time></trkpt><trkpt lat="44.9007249" lon="10.46937"><ele>27.000000000000004</ele><time>2026-04-20T14:21:37.276Z</time></trkpt><trkpt lat="44.9008196" lon="10.4693413"><ele>27.0</ele><time>2026-04-20T14:21:39.276Z</time></trkpt><trkpt lat="44.9008824" lon="10.4692031"><ele>27.0</ele><time>2026-04-20T14:21:41.276Z</time></trkpt><trkpt lat="44.900951" lon="10.4690856"><ele>26.57142857142857</ele><time>2026-04-20T14:21:43.276Z</time></trkpt><trkpt lat="44.9010108" lon="10.4690055"><ele>26.142857142857142</ele><time>2026-04-20T14:21:44.275Z</time></trkpt><trkpt lat="44.9010365" lon="10.4689236"><ele>25.714285714285715</ele><time>2026-04-20T14:21:46.276Z</time></trkpt><trkpt lat="44.9010831" lon="10.4688357"><ele>25.285714285714285</ele><time>2026-04-20T14:21:48.275Z</time></trkpt><trkpt lat="44.9011218" lon="10.4687342"><ele>24.857142857142858</ele><time>2026-04-20T14:21:50.276Z</time></trkpt><trkpt lat="44.9011457" lon="10.4686301"><ele>24.428571428571427</ele><time>2026-04-20T14:21:52.276Z</time></trkpt><trkpt lat="44.9011629" lon="10.4685426"><ele>24.0</ele><time>2026-04-20T14:21:54.275Z</time></trkpt><trkpt lat="44.9011793" lon="10.468449"><ele>23.857142857142854</ele><time>2026-04-20T14:21:56.276Z</time></trkpt><trkpt lat="44.9011961" lon="10.4683322"><ele>23.714285714285715</ele><time>2026-04-20T14:21:59.276Z</time></trkpt><trkpt lat="44.9012033" lon="10.4682325"><ele>23.57142857142857</ele><time>2026-04-20T14:22:01.275Z</time></trkpt><trkpt lat="44.9012017" lon="10.4681299"><ele>23.428571428571427</ele><time>2026-04-20T14:22:04.275Z</time></trkpt><trkpt lat="44.9012828" lon="10.4680938"><ele>23.285714285714285</ele><time>2026-04-20T14:22:08.275Z</time></trkpt><trkpt lat="44.9013504" lon="10.4681031"><ele>23.142857142857142</ele><time>2026-04-20T14:22:11.275Z</time></trkpt><trkpt lat="44.901418" lon="10.4681176"><ele>23.0</ele><time>2026-04-20T14:22:14.276Z</time></trkpt><trkpt lat="44.9013959" lon="10.4680855"><ele>23.0</ele><time>2026-04-20T14:31:48.284Z</time></trkpt><trkpt lat="44.9013222" lon="10.4680785"><ele>23.0</ele><time>2026-04-20T14:31:51.284Z</time></trkpt><trkpt lat="44.901259" lon="10.4680855"><ele>23.0</ele><time>2026-04-20T14:31:53.283Z</time></trkpt><trkpt lat="44.9011889" lon="10.4680975"><ele>23.0</ele><time>2026-04-20T14:31:56.283Z</time></trkpt><trkpt lat="44.9011682" lon="10.4681848"><ele>23.0</ele><time>2026-04-20T14:31:58.284Z</time></trkpt><trkpt lat="44.9011726" lon="10.4682803"><ele>23.0</ele><time>2026-04-20T14:32:00.283Z</time></trkpt><trkpt lat="44.9011629" lon="10.4684165"><ele>23.0</ele><time>2026-04-20T14:32:03.283Z</time></trkpt><trkpt lat="44.9011356" lon="10.4685463"><ele>23.0</ele><time>2026-04-20T14:32:06.284Z</time></trkpt><trkpt lat="44.9011139" lon="10.4686418"><ele>23.0</ele><time>2026-04-20T14:32:08.284Z</time></trkpt><trkpt lat="44.901087" lon="10.4687453"><ele>23.0</ele><time>2026-04-20T14:32:10.283Z</time></trkpt><trkpt lat="44.9010515" lon="10.4688554"><ele>23.0</ele><time>2026-04-20T14:32:12.284Z</time></trkpt><trkpt lat="44.9010054" lon="10.4689733"><ele>23.0</ele><time>2026-04-20T14:32:14.284Z</time></trkpt><trkpt lat="44.900953" lon="10.4690933"><ele>23.0</ele><time>2026-04-20T14:32:16.283Z</time></trkpt><trkpt lat="44.9009012" lon="10.4691924"><ele>23.666666666666668</ele><time>2026-04-20T14:32:18.284Z</time></trkpt><trkpt lat="44.9008594" lon="10.4692623"><ele>24.333333333333336</ele><time>2026-04-20T14:32:20.284Z</time></trkpt><trkpt lat="44.9007885" lon="10.4693186"><ele>25.0</ele><time>2026-04-20T14:32:22.284Z</time></trkpt><trkpt lat="44.9007029" lon="10.4693528"><ele>25.666666666666668</ele><time>2026-04-20T14:32:24.283Z</time></trkpt><trkpt lat="44.9006154" lon="10.4693002"><ele>26.333333333333332</ele><time>2026-04-20T14:32:26.283Z</time></trkpt><trkpt lat="44.9005317" lon="10.4692558"><ele>27.0</ele><time>2026-04-20T14:32:28.284Z</time></trkpt><trkpt lat="44.9004537" lon="10.469201"><ele>27.0</ele><time>2026-04-20T14:32:30.283Z</time></trkpt><trkpt lat="44.9003717" lon="10.469147"><ele>27.0</ele><time>2026-04-20T14:32:32.284Z</time></trkpt><trkpt lat="44.9002998" lon="10.4690649"><ele>27.0</ele><time>2026-04-20T14:32:34.284Z</time></trkpt><trkpt lat="44.9002266" lon="10.4689847"><ele>27.0</ele><time>2026-04-20T14:32:36.283Z</time></trkpt><trkpt lat="44.9001639" lon="10.4689113"><ele>27.0</ele><time>2026-04-20T14:32:38.283Z</time></trkpt><trkpt lat="44.9001273" lon="10.4688291"><ele>27.0</ele><time>2026-04-20T14:32:40.283Z</time></trkpt><trkpt lat="44.900079" lon="10.4687441"><ele>27.0</ele><time>2026-04-20T14:32:42.284Z</time></trkpt><trkpt lat="44.9000335" lon="10.4686311"><ele>27.0</ele><time>2026-04-20T14:32:44.283Z</time></trkpt><trkpt lat="44.9000165" lon="10.4685237"><ele>27.0</ele><time>2026-04-20T14:32:46.283Z</time></trkpt><trkpt lat="44.8999944" lon="10.4684029"><ele>27.0</ele><time>2026-04-20T14:32:48.284Z</time></trkpt><trkpt lat="44.8999867" lon="10.4682995"><ele>27.0</ele><time>2026-04-20T14:32:50.284Z</time></trkpt><trkpt lat="44.8999802" lon="10.4682092"><ele>27.0</ele><time>2026-04-20T14:32:52.283Z</time></trkpt><trkpt lat="44.8999616" lon="10.4680894"><ele>27.0</ele><time>2026-04-20T14:32:55.284Z</time></trkpt><trkpt lat="44.8999557" lon="10.4679957"><ele>27.0</ele><time>2026-04-20T14:32:57.284Z</time></trkpt><trkpt lat="44.8998778" lon="10.4679577"><ele>27.0</ele><time>2026-04-20T14:33:02.283Z</time></trkpt><trkpt lat="44.8997848" lon="10.4679936"><ele>27.0</ele><time>2026-04-20T14:33:05.284Z</time></trkpt><trkpt lat="44.8997101" lon="10.4680344"><ele>27.0</ele><time>2026-04-20T14:33:07.283Z</time></trkpt><trkpt lat="44.8996361" lon="10.4680706"><ele>27.0</ele><time>2026-04-20T14:33:09.283Z</time></trkpt><trkpt lat="44.8995719" lon="10.4681028"><ele>27.0</ele><time>2026-04-20T14:33:11.283Z</time></trkpt><trkpt lat="44.8995033" lon="10.4681299"><ele>27.0</ele><time>2026-04-20T14:33:13.284Z</time></trkpt><trkpt lat="44.8994294" lon="10.468158"><ele>27.0</ele><time>2026-04-20T14:33:15.284Z</time></trkpt><trkpt lat="44.8993601" lon="10.4681827"><ele>27.0</ele><time>2026-04-20T14:33:17.284Z</time></trkpt><trkpt lat="44.8992816" lon="10.4681915"><ele>27.0</ele><time>2026-04-20T14:33:20.283Z</time></trkpt><trkpt lat="44.8992156" lon="10.4682344"><ele>27.0</ele><time>2026-04-20T14:33:22.283Z</time></trkpt><trkpt lat="44.8991891" lon="10.4683297"><ele>27.0</ele><time>2026-04-20T14:33:24.283Z</time></trkpt><trkpt lat="44.8992019" lon="10.4684389"><ele>26.833333333333332</ele><time>2026-04-20T14:33:26.284Z</time></trkpt><trkpt lat="44.8992232" lon="10.4685322"><ele>26.666666666666664</ele><time>2026-04-20T14:33:28.283Z</time></trkpt><trkpt lat="44.8992332" lon="10.4686357"><ele>26.5</ele><time>2026-04-20T14:33:31.284Z</time></trkpt><trkpt lat="44.8991798" lon="10.4686923"><ele>26.333333333333332</ele><time>2026-04-20T14:33:34.284Z</time></trkpt><trkpt lat="44.8991182" lon="10.468608"><ele>26.166666666666664</ele><time>2026-04-20T14:33:37.283Z</time></trkpt><trkpt lat="44.8990875" lon="10.4684944"><ele>26.0</ele><time>2026-04-20T14:33:39.283Z</time></trkpt><trkpt lat="44.8990703" lon="10.468392"><ele>25.999999999999996</ele><time>2026-04-20T14:33:41.284Z</time></trkpt><trkpt lat="44.8990632" lon="10.4682846"><ele>26.0</ele><time>2026-04-20T14:33:43.284Z</time></trkpt><trkpt lat="44.8990496" lon="10.4681795"><ele>26.0</ele><time>2026-04-20T14:33:45.283Z</time></trkpt><trkpt lat="44.8990407" lon="10.4680384"><ele>26.0</ele><time>2026-04-20T14:33:47.284Z</time></trkpt><trkpt lat="44.8990404" lon="10.4679214"><ele>25.999999999999996</ele><time>2026-04-20T14:33:49.283Z</time></trkpt><trkpt lat="44.8990543" lon="10.4677837"><ele>26.0</ele><time>2026-04-20T14:33:51.284Z</time></trkpt><trkpt lat="44.8990429" lon="10.467689"><ele>26.166666666666664</ele><time>2026-04-20T14:33:53.284Z</time></trkpt><trkpt lat="44.8990134" lon="10.4675655"><ele>26.333333333333332</ele><time>2026-04-20T14:33:55.283Z</time></trkpt><trkpt lat="44.8989914" lon="10.467456"><ele>26.5</ele><time>2026-04-20T14:33:57.284Z</time></trkpt><trkpt lat="44.8989444" lon="10.4673732"><ele>26.666666666666664</ele><time>2026-04-20T14:33:59.283Z</time></trkpt><trkpt lat="44.8989066" lon="10.467232"><ele>26.833333333333332</ele><time>2026-04-20T14:34:01.283Z</time></trkpt><trkpt lat="44.898871" lon="10.4671198"><ele>27.0</ele><time>2026-04-20T14:34:03.284Z</time></trkpt><trkpt lat="44.8988491" lon="10.4669967"><ele>27.0</ele><time>2026-04-20T14:34:05.284Z</time></trkpt><trkpt lat="44.8988264" lon="10.4668991"><ele>27.0</ele><time>2026-04-20T14:34:07.284Z</time></trkpt><trkpt lat="44.8987943" lon="10.4667896"><ele>27.0</ele><time>2026-04-20T14:34:09.284Z</time></trkpt><trkpt lat="44.8987528" lon="10.4666818"><ele>27.0</ele><time>2026-04-20T14:34:11.284Z</time></trkpt><trkpt lat="44.8987096" lon="10.4665755"><ele>27.0</ele><time>2026-04-20T14:34:13.283Z</time></trkpt><trkpt lat="44.8986724" lon="10.4664731"><ele>27.0</ele><time>2026-04-20T14:34:15.283Z</time></trkpt><trkpt lat="44.8986263" lon="10.4663499"><ele>27.0</ele><time>2026-04-20T14:34:17.283Z</time></trkpt><trkpt lat="44.8985896" lon="10.4662623"><ele>27.0</ele><time>2026-04-20T14:34:19.284Z</time></trkpt><trkpt lat="44.8985418" lon="10.4661506"><ele>27.0</ele><time>2026-04-20T14:34:21.284Z</time></trkpt><trkpt lat="44.8985028" lon="10.4660414"><ele>27.0</ele><time>2026-04-20T14:34:23.283Z</time></trkpt><trkpt lat="44.898461" lon="10.465938"><ele>27.0</ele><time>2026-04-20T14:34:25.284Z</time></trkpt><trkpt lat="44.8984262" lon="10.4658321"><ele>27.0</ele><time>2026-04-20T14:34:27.283Z</time></trkpt><trkpt lat="44.8983862" lon="10.4657085"><ele>27.0</ele><time>2026-04-20T14:34:29.284Z</time></trkpt><trkpt lat="44.898349" lon="10.4655899"><ele>27.000000000000004</ele><time>2026-04-20T14:34:31.284Z</time></trkpt><trkpt lat="44.8983225" lon="10.4654986"><ele>27.000000000000004</ele><time>2026-04-20T14:34:33.283Z</time></trkpt><trkpt lat="44.8982493" lon="10.4653935"><ele>27.0</ele><time>2026-04-20T14:34:35.284Z</time></trkpt><trkpt lat="44.8981566" lon="10.4652788"><ele>27.0</ele><time>2026-04-20T14:34:37.284Z</time></trkpt><trkpt lat="44.898106" lon="10.4652122"><ele>27.0</ele><time>2026-04-20T14:34:38.284Z</time></trkpt><trkpt lat="44.8980578" lon="10.4651344"><ele>27.0</ele><time>2026-04-20T14:34:39.283Z</time></trkpt><trkpt lat="44.8980112" lon="10.4650746"><ele>27.0</ele><time>2026-04-20T14:34:40.284Z</time></trkpt><trkpt lat="44.8979376" lon="10.4649823"><ele>27.0</ele><time>2026-04-20T14:34:42.284Z</time></trkpt><trkpt lat="44.8978435" lon="10.4648831"><ele>27.0</ele><time>2026-04-20T14:34:44.284Z</time></trkpt><trkpt lat="44.8977863" lon="10.4648229"><ele>27.0</ele><time>2026-04-20T14:34:45.283Z</time></trkpt><trkpt lat="44.8977367" lon="10.4647499"><ele>27.0</ele><time>2026-04-20T14:34:46.283Z</time></trkpt><trkpt lat="44.897668" lon="10.4646826"><ele>27.0</ele><time>2026-04-20T14:34:48.284Z</time></trkpt><trkpt lat="44.897623" lon="10.4646001"><ele>27.0</ele><time>2026-04-20T14:34:50.283Z</time></trkpt><trkpt lat="44.897564" lon="10.4645049"><ele>27.0</ele><time>2026-04-20T14:34:52.284Z</time></trkpt><trkpt lat="44.8974865" lon="10.4644475"><ele>27.0</ele><time>2026-04-20T14:34:54.284Z</time></trkpt><trkpt lat="44.8974058" lon="10.4643902"><ele>27.0</ele><time>2026-04-20T14:34:56.284Z</time></trkpt><trkpt lat="44.897322" lon="10.4643211"><ele>27.400000000000002</ele><time>2026-04-20T14:34:58.283Z</time></trkpt><trkpt lat="44.8972374" lon="10.4642587"><ele>27.800000000000004</ele><time>2026-04-20T14:35:00.283Z</time></trkpt><trkpt lat="44.8971639" lon="10.4641627"><ele>28.2</ele><time>2026-04-20T14:35:02.283Z</time></trkpt><trkpt lat="44.897065" lon="10.4641135"><ele>28.6</ele><time>2026-04-20T14:35:04.284Z</time></trkpt><trkpt lat="44.8969781" lon="10.4640655"><ele>29.0</ele><time>2026-04-20T14:35:06.283Z</time></trkpt><trkpt lat="44.8968656" lon="10.4640201"><ele>29.0</ele><time>2026-04-20T14:35:08.284Z</time></trkpt><trkpt lat="44.8967549" lon="10.4640149"><ele>29.0</ele><time>2026-04-20T14:35:10.284Z</time></trkpt><trkpt lat="44.896645" lon="10.4640051"><ele>29.0</ele><time>2026-04-20T14:35:12.284Z</time></trkpt><trkpt lat="44.896548" lon="10.4640093"><ele>29.0</ele><time>2026-04-20T14:35:14.284Z</time></trkpt><trkpt lat="44.8964374" lon="10.464025"><ele>29.0</ele><time>2026-04-20T14:35:16.284Z</time></trkpt><trkpt lat="44.8963391" lon="10.4640423"><ele>28.75</ele><time>2026-04-20T14:35:18.283Z</time></trkpt><trkpt lat="44.8961329" lon="10.4640972"><ele>28.5</ele><time>2026-04-20T14:35:22.284Z</time></trkpt><trkpt lat="44.8960371" lon="10.4641295"><ele>28.25</ele><time>2026-04-20T14:35:24.283Z</time></trkpt><trkpt lat="44.8959559" lon="10.4641494"><ele>28.0</ele><time>2026-04-20T14:35:26.283Z</time></trkpt><trkpt lat="44.895856" lon="10.4641746"><ele>28.0</ele><time>2026-04-20T14:35:28.284Z</time></trkpt><trkpt lat="44.895756" lon="10.4642018"><ele>27.999999999999996</ele><time>2026-04-20T14:35:30.284Z</time></trkpt><trkpt lat="44.8956547" lon="10.4642353"><ele>27.999999999999996</ele><time>2026-04-20T14:35:32.283Z</time></trkpt><trkpt lat="44.8955449" lon="10.4642665"><ele>28.0</ele><time>2026-04-20T14:35:34.284Z</time></trkpt><trkpt lat="44.895455" lon="10.4642875"><ele>28.0</ele><time>2026-04-20T14:35:36.283Z</time></trkpt><trkpt lat="44.8953474" lon="10.464317"><ele>28.0</ele><time>2026-04-20T14:35:38.284Z</time></trkpt><trkpt lat="44.8952448" lon="10.4643238"><ele>27.999999999999996</ele><time>2026-04-20T14:35:40.284Z</time></trkpt><trkpt lat="44.8951379" lon="10.4643174"><ele>27.999999999999996</ele><time>2026-04-20T14:35:42.284Z</time></trkpt><trkpt lat="44.895026" lon="10.4643167"><ele>28.0</ele><time>2026-04-20T14:35:44.284Z</time></trkpt><trkpt lat="44.8949159" lon="10.4643067"><ele>28.0</ele><time>2026-04-20T14:35:46.283Z</time></trkpt><trkpt lat="44.8946798" lon="10.4642604"><ele>27.799999999999997</ele><time>2026-04-20T14:35:50.283Z</time></trkpt><trkpt lat="44.8945612" lon="10.4642346"><ele>27.599999999999998</ele><time>2026-04-20T14:35:52.284Z</time></trkpt><trkpt lat="44.8944972" lon="10.4642185"><ele>27.400000000000002</ele><time>2026-04-20T14:35:53.283Z</time></trkpt><trkpt lat="44.8943775" lon="10.4641749"><ele>27.200000000000003</ele><time>2026-04-20T14:35:55.284Z</time></trkpt><trkpt lat="44.8942584" lon="10.4641383"><ele>27.0</ele><time>2026-04-20T14:35:57.283Z</time></trkpt><trkpt lat="44.8941452" lon="10.4640879"><ele>26.5</ele><time>2026-04-20T14:35:59.283Z</time></trkpt><trkpt lat="44.8940854" lon="10.4640578"><ele>26.0</ele><time>2026-04-20T14:36:00.283Z</time></trkpt><trkpt lat="44.8940224" lon="10.4640379"><ele>25.5</ele><time>2026-04-20T14:36:01.284Z</time></trkpt><trkpt lat="44.8939015" lon="10.4639903"><ele>25.0</ele><time>2026-04-20T14:36:03.283Z</time></trkpt><trkpt lat="44.8938365" lon="10.463958"><ele>24.5</ele><time>2026-04-20T14:36:04.283Z</time></trkpt><trkpt lat="44.8937165" lon="10.4639226"><ele>24.0</ele><time>2026-04-20T14:36:06.283Z</time></trkpt><trkpt lat="44.8935968" lon="10.4638676"><ele>24.0</ele><time>2026-04-20T14:36:08.284Z</time></trkpt><trkpt lat="44.8934699" lon="10.4638588"><ele>24.0</ele><time>2026-04-20T14:36:10.284Z</time></trkpt><trkpt lat="44.8933657" lon="10.4638145"><ele>24.0</ele><time>2026-04-20T14:36:12.283Z</time></trkpt><trkpt lat="44.8932999" lon="10.4637917"><ele>24.0</ele><time>2026-04-20T14:36:13.283Z</time></trkpt><trkpt lat="44.8932366" lon="10.4637674"><ele>24.0</ele><time>2026-04-20T14:36:14.283Z</time></trkpt><trkpt lat="44.8930568" lon="10.4637078"><ele>24.142857142857142</ele><time>2026-04-20T14:36:17.284Z</time></trkpt><trkpt lat="44.8929924" lon="10.4637006"><ele>24.285714285714285</ele><time>2026-04-20T14:36:18.283Z</time></trkpt><trkpt lat="44.8929395" lon="10.4636464"><ele>24.42857142857143</ele><time>2026-04-20T14:36:19.283Z</time></trkpt><trkpt lat="44.8928759" lon="10.4636362"><ele>24.57142857142857</ele><time>2026-04-20T14:36:20.284Z</time></trkpt><trkpt lat="44.8928153" lon="10.4636054"><ele>24.714285714285715</ele><time>2026-04-20T14:36:21.284Z</time></trkpt><trkpt lat="44.8927554" lon="10.4635767"><ele>24.857142857142858</ele><time>2026-04-20T14:36:22.284Z</time></trkpt><trkpt lat="44.8926395" lon="10.4635106"><ele>25.0</ele><time>2026-04-20T14:36:24.284Z</time></trkpt><trkpt lat="44.8925338" lon="10.463458"><ele>25.000000000000004</ele><time>2026-04-20T14:36:26.283Z</time></trkpt><trkpt lat="44.8924721" lon="10.4634304"><ele>25.0</ele><time>2026-04-20T14:36:27.283Z</time></trkpt><trkpt lat="44.8924082" lon="10.4633928"><ele>25.0</ele><time>2026-04-20T14:36:28.284Z</time></trkpt><trkpt lat="44.8923491" lon="10.4633583"><ele>25.0</ele><time>2026-04-20T14:36:29.283Z</time></trkpt><trkpt lat="44.8922288" lon="10.4632994"><ele>25.000000000000004</ele><time>2026-04-20T14:36:31.283Z</time></trkpt><trkpt lat="44.8921637" lon="10.463268"><ele>25.0</ele><time>2026-04-20T14:36:32.283Z</time></trkpt><trkpt lat="44.8920464" lon="10.463242"><ele>25.0</ele><time>2026-04-20T14:36:34.284Z</time></trkpt><trkpt lat="44.8919296" lon="10.4631909"><ele>25.0</ele><time>2026-04-20T14:36:36.283Z</time></trkpt><trkpt lat="44.891754" lon="10.4631138"><ele>25.0</ele><time>2026-04-20T14:36:39.284Z</time></trkpt><trkpt lat="44.8916453" lon="10.4630451"><ele>25.0</ele><time>2026-04-20T14:36:41.283Z</time></trkpt><trkpt lat="44.891582" lon="10.4630087"><ele>25.25</ele><time>2026-04-20T14:36:42.284Z</time></trkpt><trkpt lat="44.8914269" lon="10.462899"><ele>25.5</ele><time>2026-04-20T14:36:45.283Z</time></trkpt><trkpt lat="44.8913158" lon="10.4628268"><ele>25.75</ele><time>2026-04-20T14:36:47.284Z</time></trkpt><trkpt lat="44.8912066" lon="10.4627514"><ele>26.0</ele><time>2026-04-20T14:36:49.283Z</time></trkpt><trkpt lat="44.8910907" lon="10.4626805"><ele>25.999999999999996</ele><time>2026-04-20T14:36:51.283Z</time></trkpt><trkpt lat="44.8910355" lon="10.4626347"><ele>26.0</ele><time>2026-04-20T14:36:52.283Z</time></trkpt><trkpt lat="44.8909255" lon="10.4625782"><ele>26.0</ele><time>2026-04-20T14:36:54.284Z</time></trkpt><trkpt lat="44.8908665" lon="10.4625275"><ele>26.0</ele><time>2026-04-20T14:36:55.284Z</time></trkpt><trkpt lat="44.8908104" lon="10.4624856"><ele>25.999999999999996</ele><time>2026-04-20T14:36:56.283Z</time></trkpt><trkpt lat="44.8907499" lon="10.4624373"><ele>26.0</ele><time>2026-04-20T14:36:57.283Z</time></trkpt><trkpt lat="44.890644" lon="10.4623426"><ele>26.0</ele><time>2026-04-20T14:36:59.284Z</time></trkpt><trkpt lat="44.8904309" lon="10.4621513"><ele>26.0</ele><time>2026-04-20T14:37:03.284Z</time></trkpt><trkpt lat="44.8903319" lon="10.4620642"><ele>26.0</ele><time>2026-04-20T14:37:05.284Z</time></trkpt><trkpt lat="44.8902246" lon="10.4619785"><ele>26.0</ele><time>2026-04-20T14:37:07.284Z</time></trkpt><trkpt lat="44.8901188" lon="10.4618933"><ele>26.0</ele><time>2026-04-20T14:37:09.284Z</time></trkpt><trkpt lat="44.8899548" lon="10.4617741"><ele>26.0</ele><time>2026-04-20T14:37:12.284Z</time></trkpt><trkpt lat="44.8898976" lon="10.4617327"><ele>26.0</ele><time>2026-04-20T14:37:13.283Z</time></trkpt><trkpt lat="44.8898393" lon="10.4616963"><ele>26.0</ele><time>2026-04-20T14:37:14.284Z</time></trkpt><trkpt lat="44.8897234" lon="10.4616196"><ele>26.4</ele><time>2026-04-20T14:37:16.283Z</time></trkpt><trkpt lat="44.8896103" lon="10.4615565"><ele>26.8</ele><time>2026-04-20T14:37:18.284Z</time></trkpt><trkpt lat="44.8894996" lon="10.4614867"><ele>27.199999999999996</ele><time>2026-04-20T14:37:20.284Z</time></trkpt><trkpt lat="44.8894355" lon="10.4614513"><ele>27.599999999999998</ele><time>2026-04-20T14:37:21.283Z</time></trkpt><trkpt lat="44.8893242" lon="10.4613949"><ele>28.0</ele><time>2026-04-20T14:37:23.283Z</time></trkpt><trkpt lat="44.8892622" lon="10.4613572"><ele>28.599999999999998</ele><time>2026-04-20T14:37:24.284Z</time></trkpt><trkpt lat="44.88915" lon="10.4612939"><ele>29.199999999999996</ele><time>2026-04-20T14:37:26.283Z</time></trkpt><trkpt lat="44.8890886" lon="10.4612684"><ele>29.8</ele><time>2026-04-20T14:37:27.283Z</time></trkpt><trkpt lat="44.8889787" lon="10.4611961"><ele>30.4</ele><time>2026-04-20T14:37:29.284Z</time></trkpt><trkpt lat="44.8889169" lon="10.4611585"><ele>31.0</ele><time>2026-04-20T14:37:30.284Z</time></trkpt><trkpt lat="44.8887991" lon="10.4610877"><ele>31.200000000000003</ele><time>2026-04-20T14:37:32.284Z</time></trkpt><trkpt lat="44.8886904" lon="10.4610267"><ele>31.400000000000002</ele><time>2026-04-20T14:37:34.284Z</time></trkpt><trkpt lat="44.8885864" lon="10.4609677"><ele>31.6</ele><time>2026-04-20T14:37:36.283Z</time></trkpt><trkpt lat="44.8885239" lon="10.4609431"><ele>31.8</ele><time>2026-04-20T14:37:37.284Z</time></trkpt><trkpt lat="44.8884071" lon="10.4609091"><ele>32.0</ele><time>2026-04-20T14:37:39.283Z</time></trkpt><trkpt lat="44.888283" lon="10.4608773"><ele>32.0</ele><time>2026-04-20T14:37:41.284Z</time></trkpt><trkpt lat="44.8881633" lon="10.4608379"><ele>32.0</ele><time>2026-04-20T14:37:43.283Z</time></trkpt><trkpt lat="44.888048" lon="10.4608171"><ele>32.0</ele><time>2026-04-20T14:37:45.283Z</time></trkpt><trkpt lat="44.8879298" lon="10.4607899"><ele>32.0</ele><time>2026-04-20T14:37:47.283Z</time></trkpt><trkpt lat="44.8878155" lon="10.4607651"><ele>32.0</ele><time>2026-04-20T14:37:49.283Z</time></trkpt><trkpt lat="44.8877506" lon="10.4607514"><ele>32.0</ele><time>2026-04-20T14:37:50.284Z</time></trkpt><trkpt lat="44.8876327" lon="10.4607378"><ele>32.0</ele><time>2026-04-20T14:37:52.284Z</time></trkpt><trkpt lat="44.8875095" lon="10.4607283"><ele>32.0</ele><time>2026-04-20T14:37:54.284Z</time></trkpt><trkpt lat="44.887343" lon="10.4607299"><ele>33.4</ele><time>2026-04-20T14:37:57.284Z</time></trkpt><trkpt lat="44.8872784" lon="10.4607473"><ele>34.800000000000004</ele><time>2026-04-20T14:37:58.283Z</time></trkpt><trkpt lat="44.8871789" lon="10.4607768"><ele>36.2</ele><time>2026-04-20T14:38:00.284Z</time></trkpt><trkpt lat="44.8870626" lon="10.4608127"><ele>37.6</ele><time>2026-04-20T14:38:02.284Z</time></trkpt><trkpt lat="44.8869614" lon="10.4608448"><ele>39.0</ele><time>2026-04-20T14:38:04.283Z</time></trkpt><trkpt lat="44.8868568" lon="10.4609146"><ele>39.0</ele><time>2026-04-20T14:38:06.283Z</time></trkpt><trkpt lat="44.886797" lon="10.460955"><ele>39.0</ele><time>2026-04-20T14:38:07.284Z</time></trkpt><trkpt lat="44.8866986" lon="10.4610025"><ele>39.0</ele><time>2026-04-20T14:38:09.283Z</time></trkpt><trkpt lat="44.8866042" lon="10.461108"><ele>39.0</ele><time>2026-04-20T14:38:11.284Z</time></trkpt><trkpt lat="44.8865258" lon="10.4612463"><ele>39.0</ele><time>2026-04-20T14:38:13.283Z</time></trkpt><trkpt lat="44.8865094" lon="10.4614047"><ele>37.5</ele><time>2026-04-20T14:38:15.283Z</time></trkpt><trkpt lat="44.8865294" lon="10.4615615"><ele>36.0</ele><time>2026-04-20T14:38:17.283Z</time></trkpt><trkpt lat="44.8865684" lon="10.4617255"><ele>34.5</ele><time>2026-04-20T14:38:19.283Z</time></trkpt><trkpt lat="44.8866158" lon="10.4618739"><ele>33.0</ele><time>2026-04-20T14:38:21.284Z</time></trkpt><trkpt lat="44.886683" lon="10.4621006"><ele>33.5</ele><time>2026-04-20T14:38:24.284Z</time></trkpt><trkpt lat="44.8867238" lon="10.4622526"><ele>34.0</ele><time>2026-04-20T14:38:26.283Z</time></trkpt><trkpt lat="44.8867657" lon="10.4624011"><ele>34.5</ele><time>2026-04-20T14:38:28.283Z</time></trkpt><trkpt lat="44.8867977" lon="10.462566"><ele>35.0</ele><time>2026-04-20T14:38:30.283Z</time></trkpt><trkpt lat="44.8868578" lon="10.46276"><ele>35.0</ele><time>2026-04-20T14:38:33.283Z</time></trkpt><trkpt lat="44.886886" lon="10.4629097"><ele>35.0</ele><time>2026-04-20T14:38:35.283Z</time></trkpt><trkpt lat="44.8869226" lon="10.4630633"><ele>35.0</ele><time>2026-04-20T14:38:37.283Z</time></trkpt><trkpt lat="44.8869595" lon="10.4632111"><ele>35.0</ele><time>2026-04-20T14:38:39.283Z</time></trkpt><trkpt lat="44.8870051" lon="10.4634472"><ele>34.75</ele><time>2026-04-20T14:38:42.283Z</time></trkpt><trkpt lat="44.8870391" lon="10.463599"><ele>34.5</ele><time>2026-04-20T14:38:44.283Z</time></trkpt><trkpt lat="44.8870697" lon="10.4637559"><ele>34.25</ele><time>2026-04-20T14:38:46.283Z</time></trkpt><trkpt lat="44.8870975" lon="10.4639041"><ele>34.0</ele><time>2026-04-20T14:38:48.283Z</time></trkpt><trkpt lat="44.8871504" lon="10.4641184"><ele>34.0</ele><time>2026-04-20T14:38:51.284Z</time></trkpt><trkpt lat="44.8871897" lon="10.4642695"><ele>34.0</ele><time>2026-04-20T14:38:53.283Z</time></trkpt><trkpt lat="44.8871997" lon="10.4643611"><ele>34.0</ele><time>2026-04-20T14:38:54.284Z</time></trkpt><trkpt lat="44.887244" lon="10.464504"><ele>34.0</ele><time>2026-04-20T14:38:56.283Z</time></trkpt><trkpt lat="44.8872642" lon="10.4646712"><ele>34.0</ele><time>2026-04-20T14:38:58.284Z</time></trkpt><trkpt lat="44.8872991" lon="10.4648216"><ele>32.75</ele><time>2026-04-20T14:39:00.284Z</time></trkpt><trkpt lat="44.8873229" lon="10.4649848"><ele>31.5</ele><time>2026-04-20T14:39:02.284Z</time></trkpt><trkpt lat="44.8873445" lon="10.465148"><ele>30.25</ele><time>2026-04-20T14:39:04.283Z</time></trkpt><trkpt lat="44.887355" lon="10.4653146"><ele>29.0</ele><time>2026-04-20T14:39:06.284Z</time></trkpt><trkpt lat="44.8873739" lon="10.4654678"><ele>28.6</ele><time>2026-04-20T14:39:08.283Z</time></trkpt><trkpt lat="44.887398" lon="10.4656202"><ele>28.2</ele><time>2026-04-20T14:39:10.283Z</time></trkpt><trkpt lat="44.88741" lon="10.4657085"><ele>27.800000000000004</ele><time>2026-04-20T14:39:11.284Z</time></trkpt><trkpt lat="44.8874271" lon="10.4658961"><ele>27.400000000000002</ele><time>2026-04-20T14:39:13.283Z</time></trkpt><trkpt lat="44.8874359" lon="10.4659933"><ele>27.0</ele><time>2026-04-20T14:39:14.283Z</time></trkpt><trkpt lat="44.8874835" lon="10.4661653"><ele>27.0</ele><time>2026-04-20T14:39:17.283Z</time></trkpt><trkpt lat="44.8874876" lon="10.4662542"><ele>27.000000000000004</ele><time>2026-04-20T14:39:18.284Z</time></trkpt><trkpt lat="44.8875052" lon="10.4664078"><ele>27.000000000000004</ele><time>2026-04-20T14:39:20.284Z</time></trkpt><trkpt lat="44.8875305" lon="10.4665501"><ele>27.0</ele><time>2026-04-20T14:39:22.283Z</time></trkpt><trkpt lat="44.8875409" lon="10.4666439"><ele>27.0</ele><time>2026-04-20T14:39:23.284Z</time></trkpt><trkpt lat="44.887558" lon="10.4668903"><ele>27.0</ele><time>2026-04-20T14:39:26.283Z</time></trkpt><trkpt lat="44.8875785" lon="10.4670457"><ele>27.0</ele><time>2026-04-20T14:39:28.283Z</time></trkpt><trkpt lat="44.8875913" lon="10.4671342"><ele>27.0</ele><time>2026-04-20T14:39:29.284Z</time></trkpt><trkpt lat="44.8875979" lon="10.4672332"><ele>27.0</ele><time>2026-04-20T14:39:30.283Z</time></trkpt><trkpt lat="44.8876018" lon="10.4673273"><ele>27.0</ele><time>2026-04-20T14:39:31.283Z</time></trkpt><trkpt lat="44.8876157" lon="10.4674928"><ele>27.0</ele><time>2026-04-20T14:39:33.283Z</time></trkpt><trkpt lat="44.8876205" lon="10.4676773"><ele>27.0</ele><time>2026-04-20T14:39:35.283Z</time></trkpt><trkpt lat="44.8876108" lon="10.4678357"><ele>27.0</ele><time>2026-04-20T14:39:37.284Z</time></trkpt><trkpt lat="44.8875962" lon="10.4680002"><ele>27.0</ele><time>2026-04-20T14:39:39.283Z</time></trkpt><trkpt lat="44.8875675" lon="10.4681611"><ele>27.0</ele><time>2026-04-20T14:39:41.284Z</time></trkpt><trkpt lat="44.8875188" lon="10.4683179"><ele>27.0</ele><time>2026-04-20T14:39:43.284Z</time></trkpt><trkpt lat="44.8874589" lon="10.4684604"><ele>27.000000000000004</ele><time>2026-04-20T14:39:45.284Z</time></trkpt><trkpt lat="44.8874278" lon="10.4685458"><ele>27.000000000000004</ele><time>2026-04-20T14:39:46.284Z</time></trkpt><trkpt lat="44.8873917" lon="10.4686261"><ele>27.0</ele><time>2026-04-20T14:39:47.283Z</time></trkpt><trkpt lat="44.8873053" lon="10.4687466"><ele>27.0</ele><time>2026-04-20T14:39:49.283Z</time></trkpt><trkpt lat="44.8872235" lon="10.4688674"><ele>27.8</ele><time>2026-04-20T14:39:51.284Z</time></trkpt><trkpt lat="44.8871404" lon="10.4689853"><ele>28.6</ele><time>2026-04-20T14:39:53.283Z</time></trkpt><trkpt lat="44.8870548" lon="10.4690963"><ele>29.400000000000002</ele><time>2026-04-20T14:39:55.284Z</time></trkpt><trkpt lat="44.8869994" lon="10.4691552"><ele>30.200000000000003</ele><time>2026-04-20T14:39:56.284Z</time></trkpt><trkpt lat="44.8869128" lon="10.4692813"><ele>31.0</ele><time>2026-04-20T14:39:58.283Z</time></trkpt><trkpt lat="44.8868267" lon="10.4693975"><ele>30.8</ele><time>2026-04-20T14:40:00.283Z</time></trkpt><trkpt lat="44.8867463" lon="10.4695222"><ele>30.6</ele><time>2026-04-20T14:40:02.284Z</time></trkpt><trkpt lat="44.8866653" lon="10.4696357"><ele>30.4</ele><time>2026-04-20T14:40:04.284Z</time></trkpt><trkpt lat="44.8866121" lon="10.4696987"><ele>30.2</ele><time>2026-04-20T14:40:05.283Z</time></trkpt><trkpt lat="44.8865213" lon="10.4698142"><ele>30.0</ele><time>2026-04-20T14:40:07.284Z</time></trkpt><trkpt lat="44.8864722" lon="10.4698719"><ele>30.0</ele><time>2026-04-20T14:40:08.284Z</time></trkpt><trkpt lat="44.8863841" lon="10.4699869"><ele>30.0</ele><time>2026-04-20T14:40:10.283Z</time></trkpt><trkpt lat="44.8862891" lon="10.4700934"><ele>30.0</ele><time>2026-04-20T14:40:12.283Z</time></trkpt><trkpt lat="44.8861881" lon="10.4701918"><ele>30.0</ele><time>2026-04-20T14:40:14.284Z</time></trkpt><trkpt lat="44.886091" lon="10.4702919"><ele>30.0</ele><time>2026-04-20T14:40:16.283Z</time></trkpt><trkpt lat="44.8860359" lon="10.4703388"><ele>30.0</ele><time>2026-04-20T14:40:17.284Z</time></trkpt><trkpt lat="44.8859315" lon="10.4704282"><ele>30.0</ele><time>2026-04-20T14:40:19.283Z</time></trkpt><trkpt lat="44.8858295" lon="10.4705165"><ele>30.0</ele><time>2026-04-20T14:40:21.284Z</time></trkpt><trkpt lat="44.8857295" lon="10.4705857"><ele>30.0</ele><time>2026-04-20T14:40:23.283Z</time></trkpt><trkpt lat="44.8856684" lon="10.4706131"><ele>29.75</ele><time>2026-04-20T14:40:24.284Z</time></trkpt><trkpt lat="44.8855751" lon="10.4706746"><ele>29.5</ele><time>2026-04-20T14:40:26.284Z</time></trkpt><trkpt lat="44.8854669" lon="10.4707301"><ele>29.25</ele><time>2026-04-20T14:40:28.284Z</time></trkpt><trkpt lat="44.8853469" lon="10.4707673"><ele>29.0</ele><time>2026-04-20T14:40:30.284Z</time></trkpt><trkpt lat="44.8852279" lon="10.4707774"><ele>28.999999999999996</ele><time>2026-04-20T14:40:32.283Z</time></trkpt><trkpt lat="44.8851645" lon="10.4707859"><ele>29.0</ele><time>2026-04-20T14:40:33.283Z</time></trkpt><trkpt lat="44.8850467" lon="10.4707921"><ele>29.0</ele><time>2026-04-20T14:40:35.284Z</time></trkpt><trkpt lat="44.8849831" lon="10.4707982"><ele>29.0</ele><time>2026-04-20T14:40:36.284Z</time></trkpt><trkpt lat="44.8849195" lon="10.4707966"><ele>28.999999999999996</ele><time>2026-04-20T14:40:37.284Z</time></trkpt><trkpt lat="44.8847995" lon="10.4707971"><ele>29.0</ele><time>2026-04-20T14:40:39.284Z</time></trkpt><trkpt lat="44.8846962" lon="10.4707897"><ele>28.999999999999996</ele><time>2026-04-20T14:40:41.283Z</time></trkpt><trkpt lat="44.8846323" lon="10.4707805"><ele>29.0</ele><time>2026-04-20T14:40:42.284Z</time></trkpt><trkpt lat="44.8845642" lon="10.4707635"><ele>29.0</ele><time>2026-04-20T14:40:43.284Z</time></trkpt><trkpt lat="44.8844669" lon="10.4707286"><ele>29.0</ele><time>2026-04-20T14:40:45.284Z</time></trkpt><trkpt lat="44.8844037" lon="10.4707139"><ele>28.999999999999996</ele><time>2026-04-20T14:40:46.284Z</time></trkpt><trkpt lat="44.8842912" lon="10.4706831"><ele>29.0</ele><time>2026-04-20T14:40:48.283Z</time></trkpt><trkpt lat="44.8841876" lon="10.4706292"><ele>29.0</ele><time>2026-04-20T14:40:50.283Z</time></trkpt><trkpt lat="44.8840858" lon="10.4705825"><ele>29.0</ele><time>2026-04-20T14:40:52.283Z</time></trkpt><trkpt lat="44.883991" lon="10.4705241"><ele>29.0</ele><time>2026-04-20T14:40:54.284Z</time></trkpt><trkpt lat="44.883887" lon="10.4704553"><ele>29.0</ele><time>2026-04-20T14:40:56.283Z</time></trkpt><trkpt lat="44.8837903" lon="10.4703801"><ele>29.0</ele><time>2026-04-20T14:40:58.284Z</time></trkpt><trkpt lat="44.8837002" lon="10.4702981"><ele>28.799999999999997</ele><time>2026-04-20T14:41:00.284Z</time></trkpt><trkpt lat="44.8836128" lon="10.470215"><ele>28.599999999999998</ele><time>2026-04-20T14:41:02.284Z</time></trkpt><trkpt lat="44.8835193" lon="10.4701176"><ele>28.4</ele><time>2026-04-20T14:41:04.283Z</time></trkpt><trkpt lat="44.8834348" lon="10.4700424"><ele>28.2</ele><time>2026-04-20T14:41:06.284Z</time></trkpt><trkpt lat="44.8833476" lon="10.4699477"><ele>28.0</ele><time>2026-04-20T14:41:08.284Z</time></trkpt><trkpt lat="44.8832594" lon="10.4698373"><ele>28.0</ele><time>2026-04-20T14:41:10.284Z</time></trkpt><trkpt lat="44.8831836" lon="10.4697211"><ele>28.0</ele><time>2026-04-20T14:41:12.283Z</time></trkpt><trkpt lat="44.8831013" lon="10.4695988"><ele>28.0</ele><time>2026-04-20T14:41:14.284Z</time></trkpt><trkpt lat="44.8830243" lon="10.4694744"><ele>28.0</ele><time>2026-04-20T14:41:16.283Z</time></trkpt><trkpt lat="44.8829486" lon="10.4693585"><ele>27.599999999999998</ele><time>2026-04-20T14:41:18.284Z</time></trkpt><trkpt lat="44.8828856" lon="10.469245"><ele>27.199999999999996</ele><time>2026-04-20T14:41:20.284Z</time></trkpt><trkpt lat="44.8828168" lon="10.4691221"><ele>26.8</ele><time>2026-04-20T14:41:22.283Z</time></trkpt><trkpt lat="44.8827678" lon="10.4690049"><ele>26.4</ele><time>2026-04-20T14:41:24.284Z</time></trkpt><trkpt lat="44.8827016" lon="10.4688788"><ele>26.0</ele><time>2026-04-20T14:41:26.283Z</time></trkpt><trkpt lat="44.8826442" lon="10.4687454"><ele>27.25</ele><time>2026-04-20T14:41:28.283Z</time></trkpt><trkpt lat="44.8825764" lon="10.468625"><ele>28.5</ele><time>2026-04-20T14:41:30.284Z</time></trkpt><trkpt lat="44.8825166" lon="10.4684971"><ele>29.75</ele><time>2026-04-20T14:41:32.283Z</time></trkpt><trkpt lat="44.8824373" lon="10.468301"><ele>31.0</ele><time>2026-04-20T14:41:35.284Z</time></trkpt><trkpt lat="44.8823744" lon="10.4681855"><ele>31.0</ele><time>2026-04-20T14:41:37.283Z</time></trkpt><trkpt lat="44.8822953" lon="10.468102"><ele>31.0</ele><time>2026-04-20T14:41:39.284Z</time></trkpt><trkpt lat="44.8821918" lon="10.4680546"><ele>31.0</ele><time>2026-04-20T14:41:41.283Z</time></trkpt><trkpt lat="44.8820337" lon="10.4680756"><ele>31.0</ele><time>2026-04-20T14:41:44.284Z</time></trkpt><trkpt lat="44.8819264" lon="10.4680964"><ele>31.0</ele><time>2026-04-20T14:41:46.283Z</time></trkpt><trkpt lat="44.8818215" lon="10.4681364"><ele>31.0</ele><time>2026-04-20T14:41:48.283Z</time></trkpt><trkpt lat="44.8817053" lon="10.4681695"><ele>31.0</ele><time>2026-04-20T14:41:50.283Z</time></trkpt><trkpt lat="44.8815396" lon="10.4682042"><ele>31.0</ele><time>2026-04-20T14:41:53.284Z</time></trkpt><trkpt lat="44.8814211" lon="10.4682175"><ele>30.6</ele><time>2026-04-20T14:41:55.283Z</time></trkpt><trkpt lat="44.8813068" lon="10.4682569"><ele>30.200000000000003</ele><time>2026-04-20T14:41:57.284Z</time></trkpt><trkpt lat="44.8812461" lon="10.4682894"><ele>29.799999999999997</ele><time>2026-04-20T14:41:58.284Z</time></trkpt><trkpt lat="44.8811553" lon="10.4683796"><ele>29.4</ele><time>2026-04-20T14:42:00.283Z</time></trkpt><trkpt lat="44.8810645" lon="10.4684988"><ele>29.0</ele><time>2026-04-20T14:42:02.283Z</time></trkpt><trkpt lat="44.8809924" lon="10.4686104"><ele>28.6</ele><time>2026-04-20T14:42:04.284Z</time></trkpt><trkpt lat="44.8809142" lon="10.4687353"><ele>28.2</ele><time>2026-04-20T14:42:06.283Z</time></trkpt><trkpt lat="44.8808663" lon="10.4687944"><ele>27.800000000000004</ele><time>2026-04-20T14:42:07.284Z</time></trkpt><trkpt lat="44.8807885" lon="10.4689164"><ele>27.400000000000002</ele><time>2026-04-20T14:42:09.284Z</time></trkpt><trkpt lat="44.8807161" lon="10.4690264"><ele>27.0</ele><time>2026-04-20T14:42:11.283Z</time></trkpt><trkpt lat="44.8806291" lon="10.4691443"><ele>26.8</ele><time>2026-04-20T14:42:13.284Z</time></trkpt><trkpt lat="44.8805796" lon="10.4692072"><ele>26.6</ele><time>2026-04-20T14:42:14.283Z</time></trkpt><trkpt lat="44.8805017" lon="10.469334"><ele>26.400000000000002</ele><time>2026-04-20T14:42:16.283Z</time></trkpt><trkpt lat="44.8804238" lon="10.4694612"><ele>26.200000000000003</ele><time>2026-04-20T14:42:18.283Z</time></trkpt><trkpt lat="44.8803426" lon="10.4695876"><ele>26.0</ele><time>2026-04-20T14:42:20.283Z</time></trkpt><trkpt lat="44.8802513" lon="10.4697084"><ele>26.6</ele><time>2026-04-20T14:42:22.283Z</time></trkpt><trkpt lat="44.8801512" lon="10.4698186"><ele>27.200000000000003</ele><time>2026-04-20T14:42:24.283Z</time></trkpt><trkpt lat="44.8800612" lon="10.4699231"><ele>27.799999999999997</ele><time>2026-04-20T14:42:26.283Z</time></trkpt><trkpt lat="44.879975" lon="10.4700302"><ele>28.4</ele><time>2026-04-20T14:42:28.284Z</time></trkpt><trkpt lat="44.8799258" lon="10.4700931"><ele>29.0</ele><time>2026-04-20T14:42:29.283Z</time></trkpt><trkpt lat="44.8798677" lon="10.4701393"><ele>29.0</ele><time>2026-04-20T14:42:30.283Z</time></trkpt><trkpt lat="44.8797721" lon="10.4702287"><ele>29.0</ele><time>2026-04-20T14:42:32.284Z</time></trkpt><trkpt lat="44.8796851" lon="10.4703131"><ele>29.0</ele><time>2026-04-20T14:42:34.283Z</time></trkpt><trkpt lat="44.8796159" lon="10.4703818"><ele>29.0</ele><time>2026-04-20T14:42:36.284Z</time></trkpt><trkpt lat="44.8795341" lon="10.4704566"><ele>29.0</ele><time>2026-04-20T14:42:38.283Z</time></trkpt><trkpt lat="44.8794632" lon="10.4705427"><ele>29.2</ele><time>2026-04-20T14:42:40.284Z</time></trkpt><trkpt lat="44.8793701" lon="10.4706257"><ele>29.4</ele><time>2026-04-20T14:42:42.284Z</time></trkpt><trkpt lat="44.8792712" lon="10.4707165"><ele>29.6</ele><time>2026-04-20T14:42:44.283Z</time></trkpt><trkpt lat="44.8791782" lon="10.4707848"><ele>29.8</ele><time>2026-04-20T14:42:46.283Z</time></trkpt><trkpt lat="44.8790766" lon="10.4708406"><ele>30.0</ele><time>2026-04-20T14:42:48.284Z</time></trkpt><trkpt lat="44.8789747" lon="10.4709089"><ele>29.5</ele><time>2026-04-20T14:42:50.284Z</time></trkpt><trkpt lat="44.8788225" lon="10.4710106"><ele>29.0</ele><time>2026-04-20T14:42:53.283Z</time></trkpt><trkpt lat="44.8787175" lon="10.4710728"><ele>28.5</ele><time>2026-04-20T14:42:55.284Z</time></trkpt><trkpt lat="44.878611" lon="10.4711315"><ele>28.0</ele><time>2026-04-20T14:42:57.284Z</time></trkpt><trkpt lat="44.8785087" lon="10.4711923"><ele>27.75</ele><time>2026-04-20T14:42:59.284Z</time></trkpt><trkpt lat="44.8783522" lon="10.471281"><ele>27.5</ele><time>2026-04-20T14:43:02.283Z</time></trkpt><trkpt lat="44.8782673" lon="10.4713613"><ele>27.25</ele><time>2026-04-20T14:43:04.284Z</time></trkpt><trkpt lat="44.8781623" lon="10.4714551"><ele>27.0</ele><time>2026-04-20T14:43:06.283Z</time></trkpt><trkpt lat="44.8780607" lon="10.4715427"><ele>27.0</ele><time>2026-04-20T14:43:08.283Z</time></trkpt><trkpt lat="44.8779226" lon="10.4717033"><ele>27.0</ele><time>2026-04-20T14:43:11.284Z</time></trkpt><trkpt lat="44.8778327" lon="10.4717964"><ele>27.0</ele><time>2026-04-20T14:43:13.284Z</time></trkpt><trkpt lat="44.8777396" lon="10.4718878"><ele>27.0</ele><time>2026-04-20T14:43:15.284Z</time></trkpt><trkpt lat="44.8776282" lon="10.4719812"><ele>27.5</ele><time>2026-04-20T14:43:17.284Z</time></trkpt><trkpt lat="44.8775002" lon="10.4721286"><ele>28.0</ele><time>2026-04-20T14:43:20.284Z</time></trkpt><trkpt lat="44.877414" lon="10.4722402"><ele>28.5</ele><time>2026-04-20T14:43:22.284Z</time></trkpt><trkpt lat="44.8773237" lon="10.4723514"><ele>29.0</ele><time>2026-04-20T14:43:24.284Z</time></trkpt><trkpt lat="44.8772786" lon="10.4724154"><ele>29.0</ele><time>2026-04-20T14:43:25.284Z</time></trkpt><trkpt lat="44.8772305" lon="10.4724784"><ele>29.0</ele><time>2026-04-20T14:43:26.283Z</time></trkpt><trkpt lat="44.8771005" lon="10.4726481"><ele>29.0</ele><time>2026-04-20T14:43:29.284Z</time></trkpt><trkpt lat="44.8770113" lon="10.4727607"><ele>29.0</ele><time>2026-04-20T14:43:31.283Z</time></trkpt><trkpt lat="44.8769297" lon="10.4728725"><ele>28.5</ele><time>2026-04-20T14:43:33.284Z</time></trkpt><trkpt lat="44.87685" lon="10.47298"><ele>28.0</ele><time>2026-04-20T14:43:35.283Z</time></trkpt><trkpt lat="44.8767565" lon="10.4730879"><ele>27.5</ele><time>2026-04-20T14:43:37.283Z</time></trkpt><trkpt lat="44.8766694" lon="10.473202"><ele>27.0</ele><time>2026-04-20T14:43:39.284Z</time></trkpt><trkpt lat="44.8765809" lon="10.4733216"><ele>27.0</ele><time>2026-04-20T14:43:41.284Z</time></trkpt><trkpt lat="44.8764972" lon="10.4734326"><ele>27.000000000000004</ele><time>2026-04-20T14:43:43.284Z</time></trkpt><trkpt lat="44.8764426" lon="10.4734892"><ele>27.000000000000004</ele><time>2026-04-20T14:43:44.284Z</time></trkpt><trkpt lat="44.8763555" lon="10.4735969"><ele>27.0</ele><time>2026-04-20T14:43:46.284Z</time></trkpt><trkpt lat="44.876281" lon="10.4737186"><ele>27.0</ele><time>2026-04-20T14:43:48.284Z</time></trkpt><trkpt lat="44.876204" lon="10.4738283"><ele>27.0</ele><time>2026-04-20T14:43:50.284Z</time></trkpt><trkpt lat="44.8761313" lon="10.4739658"><ele>27.0</ele><time>2026-04-20T14:43:52.283Z</time></trkpt><trkpt lat="44.876036" lon="10.474175"><ele>27.0</ele><time>2026-04-20T14:43:55.283Z</time></trkpt><trkpt lat="44.8759706" lon="10.4742975"><ele>27.0</ele><time>2026-04-20T14:43:57.284Z</time></trkpt><trkpt lat="44.8759335" lon="10.4743776"><ele>27.200000000000003</ele><time>2026-04-20T14:43:58.284Z</time></trkpt><trkpt lat="44.8758943" lon="10.4744523"><ele>27.400000000000002</ele><time>2026-04-20T14:43:59.284Z</time></trkpt><trkpt lat="44.8758248" lon="10.4745964"><ele>27.599999999999998</ele><time>2026-04-20T14:44:01.284Z</time></trkpt><trkpt lat="44.8757634" lon="10.4747517"><ele>27.799999999999997</ele><time>2026-04-20T14:44:03.284Z</time></trkpt><trkpt lat="44.875715" lon="10.4748767"><ele>28.0</ele><time>2026-04-20T14:44:05.283Z</time></trkpt><trkpt lat="44.8756797" lon="10.4749526"><ele>28.0</ele><time>2026-04-20T14:44:06.284Z</time></trkpt><trkpt lat="44.8756131" lon="10.4750949"><ele>28.0</ele><time>2026-04-20T14:44:08.284Z</time></trkpt><trkpt lat="44.8755483" lon="10.4752209"><ele>28.0</ele><time>2026-04-20T14:44:10.284Z</time></trkpt><trkpt lat="44.8754819" lon="10.4753405"><ele>28.0</ele><time>2026-04-20T14:44:12.283Z</time></trkpt><trkpt lat="44.8754058" lon="10.4754561"><ele>27.75</ele><time>2026-04-20T14:44:14.284Z</time></trkpt><trkpt lat="44.8753257" lon="10.4755628"><ele>27.5</ele><time>2026-04-20T14:44:16.283Z</time></trkpt><trkpt lat="44.8752328" lon="10.4756501"><ele>27.25</ele><time>2026-04-20T14:44:18.284Z</time></trkpt><trkpt lat="44.8751193" lon="10.4757029"><ele>27.0</ele><time>2026-04-20T14:44:20.283Z</time></trkpt><trkpt lat="44.8749536" lon="10.47572"><ele>26.75</ele><time>2026-04-20T14:44:23.284Z</time></trkpt><trkpt lat="44.8748408" lon="10.4756762"><ele>26.5</ele><time>2026-04-20T14:44:25.284Z</time></trkpt><trkpt lat="44.8747333" lon="10.4756479"><ele>26.25</ele><time>2026-04-20T14:44:27.283Z</time></trkpt><trkpt lat="44.8746313" lon="10.4755985"><ele>26.0</ele><time>2026-04-20T14:44:29.284Z</time></trkpt><trkpt lat="44.8744902" lon="10.4754916"><ele>26.200000000000003</ele><time>2026-04-20T14:44:32.283Z</time></trkpt><trkpt lat="44.8743896" lon="10.4754085"><ele>26.400000000000002</ele><time>2026-04-20T14:44:34.284Z</time></trkpt><trkpt lat="44.8743026" lon="10.4753148"><ele>26.6</ele><time>2026-04-20T14:44:36.283Z</time></trkpt><trkpt lat="44.8742567" lon="10.4752537"><ele>26.8</ele><time>2026-04-20T14:44:37.284Z</time></trkpt><trkpt lat="44.8741691" lon="10.4751578"><ele>27.0</ele><time>2026-04-20T14:44:39.284Z</time></trkpt><trkpt lat="44.8740856" lon="10.4750423"><ele>27.0</ele><time>2026-04-20T14:44:41.283Z</time></trkpt><trkpt lat="44.8740073" lon="10.4749329"><ele>27.0</ele><time>2026-04-20T14:44:43.283Z</time></trkpt><trkpt lat="44.8739426" lon="10.4748114"><ele>27.0</ele><time>2026-04-20T14:44:45.283Z</time></trkpt><trkpt lat="44.873874" lon="10.4746934"><ele>27.0</ele><time>2026-04-20T14:44:47.283Z</time></trkpt><trkpt lat="44.8737821" lon="10.4745206"><ele>27.400000000000002</ele><time>2026-04-20T14:44:50.283Z</time></trkpt><trkpt lat="44.8737515" lon="10.4744391"><ele>27.800000000000004</ele><time>2026-04-20T14:44:51.284Z</time></trkpt><trkpt lat="44.8737018" lon="10.4743099"><ele>28.2</ele><time>2026-04-20T14:44:53.283Z</time></trkpt><trkpt lat="44.8736627" lon="10.4741529"><ele>28.6</ele><time>2026-04-20T14:44:55.283Z</time></trkpt><trkpt lat="44.8736292" lon="10.4740132"><ele>29.0</ele><time>2026-04-20T14:44:57.283Z</time></trkpt><trkpt lat="44.8736094" lon="10.4738544"><ele>29.25</ele><time>2026-04-20T14:44:59.284Z</time></trkpt><trkpt lat="44.8735978" lon="10.4737064"><ele>29.5</ele><time>2026-04-20T14:45:01.284Z</time></trkpt><trkpt lat="44.8735934" lon="10.4735627"><ele>29.75</ele><time>2026-04-20T14:45:03.283Z</time></trkpt><trkpt lat="44.8735991" lon="10.4734111"><ele>30.0</ele><time>2026-04-20T14:45:05.284Z</time></trkpt><trkpt lat="44.8736399" lon="10.473171"><ele>30.0</ele><time>2026-04-20T14:45:08.284Z</time></trkpt><trkpt lat="44.8736729" lon="10.4730102"><ele>30.0</ele><time>2026-04-20T14:45:10.284Z</time></trkpt><trkpt lat="44.8737142" lon="10.4728546"><ele>30.0</ele><time>2026-04-20T14:45:12.284Z</time></trkpt><trkpt lat="44.8737553" lon="10.4727288"><ele>30.0</ele><time>2026-04-20T14:45:14.283Z</time></trkpt><trkpt lat="44.8737938" lon="10.4725759"><ele>29.8</ele><time>2026-04-20T14:45:16.283Z</time></trkpt><trkpt lat="44.8738351" lon="10.4724256"><ele>29.6</ele><time>2026-04-20T14:45:18.284Z</time></trkpt><trkpt lat="44.8738545" lon="10.4723324"><ele>29.4</ele><time>2026-04-20T14:45:19.284Z</time></trkpt><trkpt lat="44.8738911" lon="10.4722041"><ele>29.2</ele><time>2026-04-20T14:45:21.283Z</time></trkpt><trkpt lat="44.8739229" lon="10.4720397"><ele>29.0</ele><time>2026-04-20T14:45:23.284Z</time></trkpt><trkpt lat="44.8739426" lon="10.4719548"><ele>29.0</ele><time>2026-04-20T14:45:24.284Z</time></trkpt><trkpt lat="44.8739867" lon="10.4718219"><ele>29.0</ele><time>2026-04-20T14:45:26.283Z</time></trkpt><trkpt lat="44.8740384" lon="10.4716886"><ele>29.0</ele><time>2026-04-20T14:45:28.284Z</time></trkpt><trkpt lat="44.874109" lon="10.4715496"><ele>29.0</ele><time>2026-04-20T14:45:30.284Z</time></trkpt><trkpt lat="44.874189" lon="10.4714366"><ele>29.0</ele><time>2026-04-20T14:45:32.283Z</time></trkpt><trkpt lat="44.8742737" lon="10.4713344"><ele>28.799999999999997</ele><time>2026-04-20T14:45:34.283Z</time></trkpt><trkpt lat="44.8743266" lon="10.4712829"><ele>28.599999999999998</ele><time>2026-04-20T14:45:35.284Z</time></trkpt><trkpt lat="44.8744192" lon="10.4711901"><ele>28.4</ele><time>2026-04-20T14:45:37.283Z</time></trkpt><trkpt lat="44.8745116" lon="10.4710885"><ele>28.2</ele><time>2026-04-20T14:45:39.283Z</time></trkpt><trkpt lat="44.8746045" lon="10.4709887"><ele>28.0</ele><time>2026-04-20T14:45:41.284Z</time></trkpt><trkpt lat="44.8746546" lon="10.4709323"><ele>28.5</ele><time>2026-04-20T14:45:42.284Z</time></trkpt><trkpt lat="44.8747418" lon="10.4708342"><ele>29.0</ele><time>2026-04-20T14:45:44.284Z</time></trkpt><trkpt lat="44.8748599" lon="10.4707435"><ele>29.5</ele><time>2026-04-20T14:45:46.283Z</time></trkpt><trkpt lat="44.8749394" lon="10.470622"><ele>30.0</ele><time>2026-04-20T14:45:48.283Z</time></trkpt><trkpt lat="44.8750151" lon="10.4705108"><ele>30.0</ele><time>2026-04-20T14:45:50.283Z</time></trkpt><trkpt lat="44.8750803" lon="10.4703957"><ele>30.0</ele><time>2026-04-20T14:45:52.284Z</time></trkpt><trkpt lat="44.87514" lon="10.4702783"><ele>30.0</ele><time>2026-04-20T14:45:54.284Z</time></trkpt><trkpt lat="44.8752036" lon="10.4701515"><ele>30.0</ele><time>2026-04-20T14:45:56.283Z</time></trkpt><trkpt lat="44.8752705" lon="10.4700171"><ele>30.0</ele><time>2026-04-20T14:45:58.283Z</time></trkpt><trkpt lat="44.8753311" lon="10.4698722"><ele>30.0</ele><time>2026-04-20T14:46:00.284Z</time></trkpt><trkpt lat="44.8753986" lon="10.4697342"><ele>30.0</ele><time>2026-04-20T14:46:02.283Z</time></trkpt><trkpt lat="44.8754682" lon="10.4696117"><ele>30.0</ele><time>2026-04-20T14:46:04.284Z</time></trkpt><trkpt lat="44.8755338" lon="10.4694751"><ele>30.0</ele><time>2026-04-20T14:46:06.283Z</time></trkpt><trkpt lat="44.8756027" lon="10.4693255"><ele>29.8</ele><time>2026-04-20T14:46:08.283Z</time></trkpt><trkpt lat="44.8756384" lon="10.46925"><ele>29.6</ele><time>2026-04-20T14:46:09.283Z</time></trkpt><trkpt lat="44.8756927" lon="10.4691099"><ele>29.4</ele><time>2026-04-20T14:46:11.283Z</time></trkpt><trkpt lat="44.8757343" lon="10.4689674"><ele>29.2</ele><time>2026-04-20T14:46:13.283Z</time></trkpt><trkpt lat="44.8758068" lon="10.4688492"><ele>29.0</ele><time>2026-04-20T14:46:15.284Z</time></trkpt><trkpt lat="44.8758762" lon="10.4687141"><ele>29.5</ele><time>2026-04-20T14:46:17.284Z</time></trkpt><trkpt lat="44.8759102" lon="10.468491"><ele>30.0</ele><time>2026-04-20T14:46:20.283Z</time></trkpt><trkpt lat="44.8759216" lon="10.4683348"><ele>30.5</ele><time>2026-04-20T14:46:22.283Z</time></trkpt><trkpt lat="44.8759342" lon="10.4681772"><ele>31.0</ele><time>2026-04-20T14:46:24.283Z</time></trkpt><trkpt lat="44.8759315" lon="10.4680185"><ele>31.0</ele><time>2026-04-20T14:46:26.284Z</time></trkpt><trkpt lat="44.8759176" lon="10.467794"><ele>31.0</ele><time>2026-04-20T14:46:29.284Z</time></trkpt><trkpt lat="44.8758996" lon="10.4676209"><ele>31.0</ele><time>2026-04-20T14:46:31.283Z</time></trkpt><trkpt lat="44.8758625" lon="10.4674641"><ele>31.0</ele><time>2026-04-20T14:46:33.284Z</time></trkpt><trkpt lat="44.8758133" lon="10.4672928"><ele>31.000000000000004</ele><time>2026-04-20T14:46:35.283Z</time></trkpt><trkpt lat="44.8757697" lon="10.4671386"><ele>31.0</ele><time>2026-04-20T14:46:37.283Z</time></trkpt><trkpt lat="44.8757417" lon="10.4670581"><ele>31.0</ele><time>2026-04-20T14:46:38.284Z</time></trkpt><trkpt lat="44.8757128" lon="10.4669757"><ele>31.0</ele><time>2026-04-20T14:46:39.283Z</time></trkpt><trkpt lat="44.8756677" lon="10.4669136"><ele>31.000000000000004</ele><time>2026-04-20T14:46:40.283Z</time></trkpt><trkpt lat="44.8755673" lon="10.4668088"><ele>31.0</ele><time>2026-04-20T14:46:42.284Z</time></trkpt><trkpt lat="44.8754695" lon="10.466702"><ele>30.5</ele><time>2026-04-20T14:46:44.283Z</time></trkpt><trkpt lat="44.8752983" lon="10.4665985"><ele>30.0</ele><time>2026-04-20T14:46:47.284Z</time></trkpt><trkpt lat="44.8751896" lon="10.4665467"><ele>29.5</ele><time>2026-04-20T14:46:49.284Z</time></trkpt><trkpt lat="44.8750727" lon="10.4665209"><ele>29.0</ele><time>2026-04-20T14:46:51.284Z</time></trkpt><trkpt lat="44.8749499" lon="10.4665117"><ele>29.0</ele><time>2026-04-20T14:46:53.284Z</time></trkpt><trkpt lat="44.8748811" lon="10.4665162"><ele>29.0</ele><time>2026-04-20T14:46:54.284Z</time></trkpt><trkpt lat="44.8747643" lon="10.4665125"><ele>29.0</ele><time>2026-04-20T14:46:56.284Z</time></trkpt><trkpt lat="44.8746542" lon="10.4665566"><ele>29.0</ele><time>2026-04-20T14:46:58.284Z</time></trkpt><trkpt lat="44.8745414" lon="10.4666131"><ele>29.0</ele><time>2026-04-20T14:47:00.283Z</time></trkpt><trkpt lat="44.8744808" lon="10.4666493"><ele>29.0</ele><time>2026-04-20T14:47:01.284Z</time></trkpt><trkpt lat="44.874374" lon="10.4667137"><ele>29.0</ele><time>2026-04-20T14:47:03.284Z</time></trkpt><trkpt lat="44.8742672" lon="10.4667912"><ele>29.0</ele><time>2026-04-20T14:47:05.283Z</time></trkpt><trkpt lat="44.87417" lon="10.4668815"><ele>29.0</ele><time>2026-04-20T14:47:07.283Z</time></trkpt><trkpt lat="44.8740845" lon="10.4669904"><ele>28.799999999999997</ele><time>2026-04-20T14:47:09.283Z</time></trkpt><trkpt lat="44.8740388" lon="10.4670576"><ele>28.599999999999998</ele><time>2026-04-20T14:47:10.283Z</time></trkpt><trkpt lat="44.8739611" lon="10.4671868"><ele>28.4</ele><time>2026-04-20T14:47:12.283Z</time></trkpt><trkpt lat="44.873892" lon="10.4673185"><ele>28.2</ele><time>2026-04-20T14:47:14.283Z</time></trkpt><trkpt lat="44.8738249" lon="10.467449"><ele>28.0</ele><time>2026-04-20T14:47:16.283Z</time></trkpt><trkpt lat="44.8737477" lon="10.4675865"><ele>28.0</ele><time>2026-04-20T14:47:18.284Z</time></trkpt><trkpt lat="44.8736786" lon="10.4677217"><ele>28.0</ele><time>2026-04-20T14:47:20.283Z</time></trkpt><trkpt lat="44.8735631" lon="10.4679376"><ele>28.0</ele><time>2026-04-20T14:47:23.283Z</time></trkpt><trkpt lat="44.8735044" lon="10.468063"><ele>28.0</ele><time>2026-04-20T14:47:25.283Z</time></trkpt><trkpt lat="44.8734616" lon="10.4681316"><ele>27.666666666666668</ele><time>2026-04-20T14:47:26.283Z</time></trkpt><trkpt lat="44.8733949" lon="10.4682621"><ele>27.333333333333336</ele><time>2026-04-20T14:47:28.283Z</time></trkpt><trkpt lat="44.8733495" lon="10.4683378"><ele>27.0</ele><time>2026-04-20T14:47:29.284Z</time></trkpt><trkpt lat="44.8733148" lon="10.4684168"><ele>26.666666666666664</ele><time>2026-04-20T14:47:30.284Z</time></trkpt><trkpt lat="44.8732664" lon="10.468487"><ele>26.333333333333332</ele><time>2026-04-20T14:47:31.284Z</time></trkpt><trkpt lat="44.8731898" lon="10.4686041"><ele>26.0</ele><time>2026-04-20T14:47:33.283Z</time></trkpt><trkpt lat="44.8731467" lon="10.4686732"><ele>26.5</ele><time>2026-04-20T14:47:34.284Z</time></trkpt><trkpt lat="44.8730916" lon="10.4688035"><ele>27.0</ele><time>2026-04-20T14:47:36.283Z</time></trkpt><trkpt lat="44.8730315" lon="10.4689211"><ele>27.5</ele><time>2026-04-20T14:47:38.284Z</time></trkpt><trkpt lat="44.8729469" lon="10.4690471"><ele>28.0</ele><time>2026-04-20T14:47:40.284Z</time></trkpt><trkpt lat="44.8728677" lon="10.4691714"><ele>28.0</ele><time>2026-04-20T14:47:42.283Z</time></trkpt><trkpt lat="44.8727838" lon="10.4692857"><ele>27.999999999999996</ele><time>2026-04-20T14:47:44.283Z</time></trkpt><trkpt lat="44.8727427" lon="10.4693558"><ele>27.999999999999996</ele><time>2026-04-20T14:47:45.284Z</time></trkpt><trkpt lat="44.8726647" lon="10.4694816"><ele>28.0</ele><time>2026-04-20T14:47:47.283Z</time></trkpt><trkpt lat="44.8725936" lon="10.4695987"><ele>28.0</ele><time>2026-04-20T14:47:49.284Z</time></trkpt><trkpt lat="44.8725236" lon="10.4697225"><ele>28.0</ele><time>2026-04-20T14:47:51.283Z</time></trkpt><trkpt lat="44.8724421" lon="10.4698345"><ele>28.0</ele><time>2026-04-20T14:47:53.283Z</time></trkpt><trkpt lat="44.8723665" lon="10.469948"><ele>28.0</ele><time>2026-04-20T14:47:55.284Z</time></trkpt><trkpt lat="44.8722799" lon="10.4700649"><ele>28.0</ele><time>2026-04-20T14:47:57.283Z</time></trkpt><trkpt lat="44.8721543" lon="10.4701957"><ele>28.0</ele><time>2026-04-20T14:48:00.283Z</time></trkpt><trkpt lat="44.8721069" lon="10.4702667"><ele>27.999999999999996</ele><time>2026-04-20T14:48:01.284Z</time></trkpt><trkpt lat="44.8720265" lon="10.4703578"><ele>27.999999999999996</ele><time>2026-04-20T14:48:03.284Z</time></trkpt><trkpt lat="44.8719359" lon="10.4704648"><ele>28.0</ele><time>2026-04-20T14:48:05.283Z</time></trkpt><trkpt lat="44.8718394" lon="10.4705616"><ele>28.0</ele><time>2026-04-20T14:48:07.283Z</time></trkpt><trkpt lat="44.871748" lon="10.470666"><ele>28.0</ele><time>2026-04-20T14:48:09.284Z</time></trkpt><trkpt lat="44.8716636" lon="10.4707724"><ele>28.0</ele><time>2026-04-20T14:48:11.283Z</time></trkpt><trkpt lat="44.8715586" lon="10.4708688"><ele>28.0</ele><time>2026-04-20T14:48:13.283Z</time></trkpt><trkpt lat="44.8714582" lon="10.4709571"><ele>28.0</ele><time>2026-04-20T14:48:15.284Z</time></trkpt><trkpt lat="44.8713484" lon="10.4710194"><ele>28.0</ele><time>2026-04-20T14:48:17.284Z</time></trkpt><trkpt lat="44.8712525" lon="10.4710475"><ele>27.999999999999996</ele><time>2026-04-20T14:48:19.284Z</time></trkpt><trkpt lat="44.8711438" lon="10.4710189"><ele>27.999999999999996</ele><time>2026-04-20T14:48:21.283Z</time></trkpt><trkpt lat="44.8710852" lon="10.4709864"><ele>28.0</ele><time>2026-04-20T14:48:22.284Z</time></trkpt><trkpt lat="44.8709908" lon="10.4709198"><ele>28.0</ele><time>2026-04-20T14:48:24.283Z</time></trkpt><trkpt lat="44.8709024" lon="10.4708206"><ele>27.799999999999997</ele><time>2026-04-20T14:48:26.283Z</time></trkpt><trkpt lat="44.8708326" lon="10.4707042"><ele>27.599999999999998</ele><time>2026-04-20T14:48:28.284Z</time></trkpt><trkpt lat="44.8707789" lon="10.4705673"><ele>27.400000000000002</ele><time>2026-04-20T14:48:30.284Z</time></trkpt><trkpt lat="44.8707508" lon="10.4704828"><ele>27.200000000000003</ele><time>2026-04-20T14:48:31.284Z</time></trkpt><trkpt lat="44.8707074" lon="10.4703248"><ele>27.0</ele><time>2026-04-20T14:48:33.284Z</time></trkpt><trkpt lat="44.8706708" lon="10.4701784"><ele>27.0</ele><time>2026-04-20T14:48:35.283Z</time></trkpt><trkpt lat="44.8706306" lon="10.4700417"><ele>27.000000000000004</ele><time>2026-04-20T14:48:37.284Z</time></trkpt><trkpt lat="44.8705943" lon="10.4698846"><ele>27.000000000000004</ele><time>2026-04-20T14:48:39.284Z</time></trkpt><trkpt lat="44.8705582" lon="10.4697466"><ele>27.0</ele><time>2026-04-20T14:48:41.283Z</time></trkpt><trkpt lat="44.8705328" lon="10.4695951"><ele>27.0</ele><time>2026-04-20T14:48:43.283Z</time></trkpt><trkpt lat="44.8704686" lon="10.4693724"><ele>27.0</ele><time>2026-04-20T14:48:46.283Z</time></trkpt><trkpt lat="44.8704291" lon="10.4692114"><ele>27.0</ele><time>2026-04-20T14:48:48.284Z</time></trkpt><trkpt lat="44.8703994" lon="10.4690614"><ele>27.0</ele><time>2026-04-20T14:48:50.284Z</time></trkpt><trkpt lat="44.8703739" lon="10.4689126"><ele>27.0</ele><time>2026-04-20T14:48:52.283Z</time></trkpt><trkpt lat="44.8703452" lon="10.4686907"><ele>27.0</ele><time>2026-04-20T14:48:55.283Z</time></trkpt><trkpt lat="44.8703232" lon="10.4685282"><ele>27.0</ele><time>2026-04-20T14:48:57.283Z</time></trkpt><trkpt lat="44.8703006" lon="10.468366"><ele>27.0</ele><time>2026-04-20T14:48:59.283Z</time></trkpt><trkpt lat="44.8703004" lon="10.4681997"><ele>27.0</ele><time>2026-04-20T14:49:01.284Z</time></trkpt><trkpt lat="44.8702828" lon="10.4679836"><ele>27.400000000000002</ele><time>2026-04-20T14:49:04.283Z</time></trkpt><trkpt lat="44.87027" lon="10.4678376"><ele>27.800000000000004</ele><time>2026-04-20T14:49:06.284Z</time></trkpt><trkpt lat="44.8702558" lon="10.4676793"><ele>28.2</ele><time>2026-04-20T14:49:08.283Z</time></trkpt><trkpt lat="44.8702315" lon="10.4675301"><ele>28.6</ele><time>2026-04-20T14:49:10.284Z</time></trkpt><trkpt lat="44.8702117" lon="10.4674457"><ele>29.0</ele><time>2026-04-20T14:49:11.283Z</time></trkpt><trkpt lat="44.8701782" lon="10.4672908"><ele>29.0</ele><time>2026-04-20T14:49:13.283Z</time></trkpt><trkpt lat="44.8701462" lon="10.4671632"><ele>29.0</ele><time>2026-04-20T14:49:15.284Z</time></trkpt><trkpt lat="44.8701013" lon="10.4669991"><ele>29.0</ele><time>2026-04-20T14:49:17.283Z</time></trkpt><trkpt lat="44.8700579" lon="10.4668298"><ele>29.0</ele><time>2026-04-20T14:49:19.283Z</time></trkpt><trkpt lat="44.8699821" lon="10.4666303"><ele>29.0</ele><time>2026-04-20T14:49:22.284Z</time></trkpt><trkpt lat="44.8699555" lon="10.4665491"><ele>29.0</ele><time>2026-04-20T14:49:23.283Z</time></trkpt><trkpt lat="44.8698975" lon="10.4664159"><ele>29.0</ele><time>2026-04-20T14:49:25.283Z</time></trkpt><trkpt lat="44.8698377" lon="10.4662896"><ele>29.0</ele><time>2026-04-20T14:49:27.284Z</time></trkpt><trkpt lat="44.8697878" lon="10.4661439"><ele>29.0</ele><time>2026-04-20T14:49:29.283Z</time></trkpt><trkpt lat="44.8697074" lon="10.4660051"><ele>28.75</ele><time>2026-04-20T14:49:31.283Z</time></trkpt><trkpt lat="44.8696399" lon="10.4658781"><ele>28.5</ele><time>2026-04-20T14:49:33.284Z</time></trkpt><trkpt lat="44.8695562" lon="10.4657737"><ele>28.25</ele><time>2026-04-20T14:49:35.283Z</time></trkpt><trkpt lat="44.8694707" lon="10.4656725"><ele>28.0</ele><time>2026-04-20T14:49:37.284Z</time></trkpt><trkpt lat="44.86936" lon="10.465623"><ele>28.2</ele><time>2026-04-20T14:49:39.283Z</time></trkpt><trkpt lat="44.8692492" lon="10.4655824"><ele>28.4</ele><time>2026-04-20T14:49:41.283Z</time></trkpt><trkpt lat="44.8691424" lon="10.4655529"><ele>28.599999999999998</ele><time>2026-04-20T14:49:43.283Z</time></trkpt><trkpt lat="44.8690753" lon="10.4655597"><ele>28.799999999999997</ele><time>2026-04-20T14:49:44.283Z</time></trkpt><trkpt lat="44.8689552" lon="10.4655544"><ele>29.0</ele><time>2026-04-20T14:49:46.283Z</time></trkpt><trkpt lat="44.8688905" lon="10.4655559"><ele>29.0</ele><time>2026-04-20T14:49:47.284Z</time></trkpt><trkpt lat="44.8687682" lon="10.46558"><ele>29.0</ele><time>2026-04-20T14:49:49.283Z</time></trkpt><trkpt lat="44.8686519" lon="10.4656113"><ele>29.0</ele><time>2026-04-20T14:49:51.284Z</time></trkpt><trkpt lat="44.8685329" lon="10.4656755"><ele>29.0</ele><time>2026-04-20T14:49:53.283Z</time></trkpt><trkpt lat="44.8684701" lon="10.4657121"><ele>29.0</ele><time>2026-04-20T14:49:54.283Z</time></trkpt><trkpt lat="44.8684092" lon="10.4657443"><ele>29.499999999999996</ele><time>2026-04-20T14:49:55.283Z</time></trkpt><trkpt lat="44.8683507" lon="10.4657837"><ele>30.0</ele><time>2026-04-20T14:49:56.283Z</time></trkpt><trkpt lat="44.8682404" lon="10.4658836"><ele>30.5</ele><time>2026-04-20T14:49:58.284Z</time></trkpt><trkpt lat="44.8681872" lon="10.4659406"><ele>31.0</ele><time>2026-04-20T14:49:59.283Z</time></trkpt><trkpt lat="44.8680995" lon="10.4660615"><ele>31.499999999999996</ele><time>2026-04-20T14:50:01.284Z</time></trkpt><trkpt lat="44.868059" lon="10.4661304"><ele>32.0</ele><time>2026-04-20T14:50:02.283Z</time></trkpt><trkpt lat="44.8680275" lon="10.4662171"><ele>31.8</ele><time>2026-04-20T14:50:03.284Z</time></trkpt><trkpt lat="44.8679944" lon="10.4662956"><ele>31.6</ele><time>2026-04-20T14:50:04.284Z</time></trkpt><trkpt lat="44.8679664" lon="10.4664588"><ele>31.400000000000002</ele><time>2026-04-20T14:50:06.283Z</time></trkpt><trkpt lat="44.8679636" lon="10.4666127"><ele>31.200000000000003</ele><time>2026-04-20T14:50:08.284Z</time></trkpt><trkpt lat="44.8679587" lon="10.4667177"><ele>31.0</ele><time>2026-04-20T14:50:09.283Z</time></trkpt><trkpt lat="44.8679652" lon="10.4668884"><ele>31.0</ele><time>2026-04-20T14:50:11.284Z</time></trkpt><trkpt lat="44.867962" lon="10.4669812"><ele>31.0</ele><time>2026-04-20T14:50:12.283Z</time></trkpt><trkpt lat="44.8679719" lon="10.4671588"><ele>31.0</ele><time>2026-04-20T14:50:14.283Z</time></trkpt><trkpt lat="44.8679867" lon="10.4673505"><ele>31.0</ele><time>2026-04-20T14:50:16.283Z</time></trkpt><trkpt lat="44.8679962" lon="10.4674386"><ele>31.0</ele><time>2026-04-20T14:50:17.284Z</time></trkpt><trkpt lat="44.8680033" lon="10.4675359"><ele>30.6</ele><time>2026-04-20T14:50:18.283Z</time></trkpt><trkpt lat="44.8680195" lon="10.4677122"><ele>30.200000000000003</ele><time>2026-04-20T14:50:20.283Z</time></trkpt><trkpt lat="44.8680284" lon="10.46789"><ele>29.799999999999997</ele><time>2026-04-20T14:50:22.284Z</time></trkpt><trkpt lat="44.8680345" lon="10.4679827"><ele>29.4</ele><time>2026-04-20T14:50:23.284Z</time></trkpt><trkpt lat="44.8680388" lon="10.468074"><ele>29.0</ele><time>2026-04-20T14:50:24.283Z</time></trkpt><trkpt lat="44.868027" lon="10.4682511"><ele>29.0</ele><time>2026-04-20T14:50:26.283Z</time></trkpt><trkpt lat="44.8680069" lon="10.468425"><ele>29.0</ele><time>2026-04-20T14:50:28.283Z</time></trkpt><trkpt lat="44.8679667" lon="10.4685683"><ele>29.0</ele><time>2026-04-20T14:50:30.283Z</time></trkpt><trkpt lat="44.8679047" lon="10.4687238"><ele>29.0</ele><time>2026-04-20T14:50:32.283Z</time></trkpt><trkpt lat="44.8678699" lon="10.4688032"><ele>29.0</ele><time>2026-04-20T14:50:33.284Z</time></trkpt><trkpt lat="44.867787" lon="10.4689313"><ele>29.25</ele><time>2026-04-20T14:50:35.284Z</time></trkpt><trkpt lat="44.8676858" lon="10.4690308"><ele>29.5</ele><time>2026-04-20T14:50:37.283Z</time></trkpt><trkpt lat="44.8675865" lon="10.4690962"><ele>29.75</ele><time>2026-04-20T14:50:39.284Z</time></trkpt><trkpt lat="44.8674712" lon="10.4691607"><ele>30.0</ele><time>2026-04-20T14:50:41.284Z</time></trkpt><trkpt lat="44.8673603" lon="10.4692098"><ele>30.0</ele><time>2026-04-20T14:50:43.284Z</time></trkpt><trkpt lat="44.8672985" lon="10.4692274"><ele>30.0</ele><time>2026-04-20T14:50:44.283Z</time></trkpt><trkpt lat="44.8671745" lon="10.4692491"><ele>30.0</ele><time>2026-04-20T14:50:46.284Z</time></trkpt><trkpt lat="44.8670531" lon="10.469262"><ele>30.0</ele><time>2026-04-20T14:50:48.283Z</time></trkpt><trkpt lat="44.8669432" lon="10.4692615"><ele>30.0</ele><time>2026-04-20T14:50:50.284Z</time></trkpt><trkpt lat="44.8668214" lon="10.4692408"><ele>30.0</ele><time>2026-04-20T14:50:52.284Z</time></trkpt><trkpt lat="44.8667065" lon="10.4691879"><ele>30.0</ele><time>2026-04-20T14:50:54.284Z</time></trkpt><trkpt lat="44.8666029" lon="10.4691457"><ele>30.0</ele><time>2026-04-20T14:50:56.284Z</time></trkpt><trkpt lat="44.8665029" lon="10.4690829"><ele>30.0</ele><time>2026-04-20T14:50:58.284Z</time></trkpt><trkpt lat="44.8664128" lon="10.4689827"><ele>30.0</ele><time>2026-04-20T14:51:00.283Z</time></trkpt><trkpt lat="44.8662826" lon="10.4688224"><ele>30.0</ele><time>2026-04-20T14:51:03.284Z</time></trkpt><trkpt lat="44.8661404" lon="10.4686573"><ele>30.0</ele><time>2026-04-20T14:51:06.284Z</time></trkpt><trkpt lat="44.8660991" lon="10.4685814"><ele>30.0</ele><time>2026-04-20T14:51:07.284Z</time></trkpt><trkpt lat="44.8660136" lon="10.4684583"><ele>30.2</ele><time>2026-04-20T14:51:09.284Z</time></trkpt><trkpt lat="44.8659454" lon="10.4683167"><ele>30.4</ele><time>2026-04-20T14:51:11.283Z</time></trkpt><trkpt lat="44.8658758" lon="10.4682353"><ele>30.6</ele><time>2026-04-20T14:51:13.284Z</time></trkpt><trkpt lat="44.8658334" lon="10.4681646"><ele>30.8</ele><time>2026-04-20T14:51:14.283Z</time></trkpt><trkpt lat="44.8657914" lon="10.4680907"><ele>31.0</ele><time>2026-04-20T14:51:15.284Z</time></trkpt><trkpt lat="44.8657281" lon="10.467939"><ele>31.0</ele><time>2026-04-20T14:51:17.284Z</time></trkpt><trkpt lat="44.8656807" lon="10.4678715"><ele>31.0</ele><time>2026-04-20T14:51:18.284Z</time></trkpt><trkpt lat="44.865562" lon="10.4676638"><ele>31.0</ele><time>2026-04-20T14:51:21.284Z</time></trkpt><trkpt lat="44.8654903" lon="10.4675217"><ele>31.0</ele><time>2026-04-20T14:51:23.283Z</time></trkpt><trkpt lat="44.8654534" lon="10.4674457"><ele>31.0</ele><time>2026-04-20T14:51:24.283Z</time></trkpt><trkpt lat="44.8653822" lon="10.4673189"><ele>31.000000000000004</ele><time>2026-04-20T14:51:26.283Z</time></trkpt><trkpt lat="44.8653176" lon="10.4671831"><ele>31.0</ele><time>2026-04-20T14:51:28.284Z</time></trkpt><trkpt lat="44.8652574" lon="10.4670759"><ele>31.0</ele><time>2026-04-20T14:51:30.283Z</time></trkpt><trkpt lat="44.8652135" lon="10.4669997"><ele>31.0</ele><time>2026-04-20T14:51:31.284Z</time></trkpt><trkpt lat="44.8651665" lon="10.4669246"><ele>31.000000000000004</ele><time>2026-04-20T14:51:32.284Z</time></trkpt><trkpt lat="44.8651208" lon="10.4668478"><ele>31.0</ele><time>2026-04-20T14:51:33.284Z</time></trkpt><trkpt lat="44.8650819" lon="10.466769"><ele>31.0</ele><time>2026-04-20T14:51:34.284Z</time></trkpt><trkpt lat="44.8650372" lon="10.4666921"><ele>31.0</ele><time>2026-04-20T14:51:35.283Z</time></trkpt><trkpt lat="44.8649916" lon="10.4666253"><ele>31.0</ele><time>2026-04-20T14:51:36.283Z</time></trkpt><trkpt lat="44.8649498" lon="10.466548"><ele>31.0</ele><time>2026-04-20T14:51:37.283Z</time></trkpt><trkpt lat="44.8648698" lon="10.4664109"><ele>31.0</ele><time>2026-04-20T14:51:39.284Z</time></trkpt><trkpt lat="44.8647851" lon="10.4662682"><ele>30.8</ele><time>2026-04-20T14:51:41.283Z</time></trkpt><trkpt lat="44.8646919" lon="10.4661461"><ele>30.6</ele><time>2026-04-20T14:51:43.284Z</time></trkpt><trkpt lat="44.8646407" lon="10.4660865"><ele>30.4</ele><time>2026-04-20T14:51:44.283Z</time></trkpt><trkpt lat="44.8645894" lon="10.4660271"><ele>30.2</ele><time>2026-04-20T14:51:45.284Z</time></trkpt><trkpt lat="44.8645312" lon="10.4659766"><ele>30.0</ele><time>2026-04-20T14:51:46.283Z</time></trkpt><trkpt lat="44.8644161" lon="10.4658944"><ele>30.0</ele><time>2026-04-20T14:51:48.283Z</time></trkpt><trkpt lat="44.8643614" lon="10.4658472"><ele>30.0</ele><time>2026-04-20T14:51:49.283Z</time></trkpt><trkpt lat="44.8643128" lon="10.4657846"><ele>30.0</ele><time>2026-04-20T14:51:50.284Z</time></trkpt><trkpt lat="44.8642521" lon="10.4657353"><ele>30.0</ele><time>2026-04-20T14:51:51.284Z</time></trkpt><trkpt lat="44.8641971" lon="10.4656827"><ele>30.0</ele><time>2026-04-20T14:51:52.284Z</time></trkpt><trkpt lat="44.864109" lon="10.4656246"><ele>30.0</ele><time>2026-04-20T14:51:54.284Z</time></trkpt><trkpt lat="44.8640458" lon="10.4656082"><ele>30.0</ele><time>2026-04-20T14:51:55.283Z</time></trkpt><trkpt lat="44.8639487" lon="10.4656827"><ele>29.8</ele><time>2026-04-20T14:51:57.284Z</time></trkpt><trkpt lat="44.8638688" lon="10.4657949"><ele>29.6</ele><time>2026-04-20T14:51:59.284Z</time></trkpt><trkpt lat="44.8638287" lon="10.4658847"><ele>29.4</ele><time>2026-04-20T14:52:00.283Z</time></trkpt><trkpt lat="44.8637694" lon="10.4660209"><ele>29.2</ele><time>2026-04-20T14:52:02.283Z</time></trkpt><trkpt lat="44.863734" lon="10.4660969"><ele>29.0</ele><time>2026-04-20T14:52:03.283Z</time></trkpt><trkpt lat="44.8636675" lon="10.4662405"><ele>29.25</ele><time>2026-04-20T14:52:05.284Z</time></trkpt><trkpt lat="44.8636055" lon="10.4663854"><ele>29.5</ele><time>2026-04-20T14:52:07.283Z</time></trkpt><trkpt lat="44.86355" lon="10.4665201"><ele>29.75</ele><time>2026-04-20T14:52:09.284Z</time></trkpt><trkpt lat="44.8634754" lon="10.4666714"><ele>30.0</ele><time>2026-04-20T14:52:11.284Z</time></trkpt><trkpt lat="44.8634144" lon="10.4668171"><ele>30.0</ele><time>2026-04-20T14:52:13.283Z</time></trkpt><trkpt lat="44.8633466" lon="10.4669613"><ele>30.0</ele><time>2026-04-20T14:52:15.283Z</time></trkpt><trkpt lat="44.8632839" lon="10.467105"><ele>30.0</ele><time>2026-04-20T14:52:17.284Z</time></trkpt><trkpt lat="44.8632179" lon="10.4672401"><ele>30.0</ele><time>2026-04-20T14:52:19.283Z</time></trkpt><trkpt lat="44.8631331" lon="10.4673786"><ele>30.0</ele><time>2026-04-20T14:52:21.284Z</time></trkpt><trkpt lat="44.8630922" lon="10.4674498"><ele>30.0</ele><time>2026-04-20T14:52:22.283Z</time></trkpt><trkpt lat="44.8630492" lon="10.4675155"><ele>30.0</ele><time>2026-04-20T14:52:23.284Z</time></trkpt><trkpt lat="44.8629713" lon="10.4676325"><ele>30.0</ele><time>2026-04-20T14:52:25.284Z</time></trkpt><trkpt lat="44.8629264" lon="10.4676959"><ele>30.0</ele><time>2026-04-20T14:52:26.284Z</time></trkpt><trkpt lat="44.8628363" lon="10.467802"><ele>30.0</ele><time>2026-04-20T14:52:28.284Z</time></trkpt><trkpt lat="44.8627808" lon="10.4678505"><ele>30.0</ele><time>2026-04-20T14:52:29.283Z</time></trkpt><trkpt lat="44.8626667" lon="10.4679335"><ele>30.0</ele><time>2026-04-20T14:52:31.283Z</time></trkpt><trkpt lat="44.8626084" lon="10.4679719"><ele>30.0</ele><time>2026-04-20T14:52:32.284Z</time></trkpt><trkpt lat="44.8624917" lon="10.4680199"><ele>30.0</ele><time>2026-04-20T14:52:34.284Z</time></trkpt><trkpt lat="44.8624316" lon="10.4680522"><ele>30.0</ele><time>2026-04-20T14:52:35.284Z</time></trkpt><trkpt lat="44.8623696" lon="10.4680839"><ele>30.0</ele><time>2026-04-20T14:52:36.284Z</time></trkpt><trkpt lat="44.8622507" lon="10.4681318"><ele>30.2</ele><time>2026-04-20T14:52:38.284Z</time></trkpt><trkpt lat="44.8621298" lon="10.4681752"><ele>30.4</ele><time>2026-04-20T14:52:40.283Z</time></trkpt><trkpt lat="44.8620709" lon="10.4682146"><ele>30.6</ele><time>2026-04-20T14:52:41.284Z</time></trkpt><trkpt lat="44.8619503" lon="10.4682593"><ele>30.8</ele><time>2026-04-20T14:52:43.283Z</time></trkpt><trkpt lat="44.8618261" lon="10.4682999"><ele>31.0</ele><time>2026-04-20T14:52:45.283Z</time></trkpt><trkpt lat="44.8617558" lon="10.4683362"><ele>31.0</ele><time>2026-04-20T14:52:46.283Z</time></trkpt><trkpt lat="44.8616522" lon="10.4683614"><ele>31.0</ele><time>2026-04-20T14:52:48.283Z</time></trkpt><trkpt lat="44.8615316" lon="10.4684089"><ele>31.0</ele><time>2026-04-20T14:52:50.283Z</time></trkpt><trkpt lat="44.8614717" lon="10.4684418"><ele>31.0</ele><time>2026-04-20T14:52:51.284Z</time></trkpt><trkpt lat="44.861365" lon="10.4685024"><ele>31.0</ele><time>2026-04-20T14:52:53.283Z</time></trkpt><trkpt lat="44.8612408" lon="10.4686002"><ele>31.0</ele><time>2026-04-20T14:52:55.283Z</time></trkpt><trkpt lat="44.8611318" lon="10.4686907"><ele>31.0</ele><time>2026-04-20T14:52:57.283Z</time></trkpt><trkpt lat="44.8610171" lon="10.468782"><ele>31.0</ele><time>2026-04-20T14:52:59.283Z</time></trkpt><trkpt lat="44.8609003" lon="10.4688648"><ele>31.0</ele><time>2026-04-20T14:53:01.284Z</time></trkpt><trkpt lat="44.8608383" lon="10.4689085"><ele>31.4</ele><time>2026-04-20T14:53:02.283Z</time></trkpt><trkpt lat="44.8607209" lon="10.4689714"><ele>31.8</ele><time>2026-04-20T14:53:04.283Z</time></trkpt><trkpt lat="44.8606623" lon="10.4690179"><ele>32.199999999999996</ele><time>2026-04-20T14:53:05.283Z</time></trkpt><trkpt lat="44.8605987" lon="10.4690594"><ele>32.6</ele><time>2026-04-20T14:53:06.283Z</time></trkpt><trkpt lat="44.8604818" lon="10.4691174"><ele>33.0</ele><time>2026-04-20T14:53:08.284Z</time></trkpt><trkpt lat="44.8603658" lon="10.4692166"><ele>33.0</ele><time>2026-04-20T14:53:10.284Z</time></trkpt><trkpt lat="44.860255" lon="10.4693249"><ele>33.0</ele><time>2026-04-20T14:53:12.284Z</time></trkpt><trkpt lat="44.8601709" lon="10.4694281"><ele>33.0</ele><time>2026-04-20T14:53:14.284Z</time></trkpt><trkpt lat="44.8601217" lon="10.4694894"><ele>33.0</ele><time>2026-04-20T14:53:15.283Z</time></trkpt><trkpt lat="44.8600752" lon="10.4695593"><ele>33.0</ele><time>2026-04-20T14:53:16.283Z</time></trkpt><trkpt lat="44.8599867" lon="10.4696734"><ele>32.5</ele><time>2026-04-20T14:53:18.283Z</time></trkpt><trkpt lat="44.8599334" lon="10.4697265"><ele>32.0</ele><time>2026-04-20T14:53:19.283Z</time></trkpt><trkpt lat="44.8598842" lon="10.4697863"><ele>31.5</ele><time>2026-04-20T14:53:20.283Z</time></trkpt><trkpt lat="44.8597866" lon="10.4698692"><ele>31.0</ele><time>2026-04-20T14:53:22.284Z</time></trkpt><trkpt lat="44.8597376" lon="10.4699343"><ele>30.5</ele><time>2026-04-20T14:53:23.283Z</time></trkpt><trkpt lat="44.8596415" lon="10.4700525"><ele>30.0</ele><time>2026-04-20T14:53:25.284Z</time></trkpt><trkpt lat="44.8596038" lon="10.4701334"><ele>30.0</ele><time>2026-04-20T14:53:26.284Z</time></trkpt><trkpt lat="44.8595347" lon="10.4702773"><ele>30.0</ele><time>2026-04-20T14:53:28.284Z</time></trkpt><trkpt lat="44.8594771" lon="10.4704252"><ele>30.0</ele><time>2026-04-20T14:53:30.284Z</time></trkpt><trkpt lat="44.8594363" lon="10.4705"><ele>30.0</ele><time>2026-04-20T14:53:31.283Z</time></trkpt><trkpt lat="44.8594026" lon="10.4705762"><ele>30.0</ele><time>2026-04-20T14:53:32.284Z</time></trkpt><trkpt lat="44.8593595" lon="10.4706994"><ele>30.0</ele><time>2026-04-20T14:53:34.283Z</time></trkpt><trkpt lat="44.8592864" lon="10.4709034"><ele>30.0</ele><time>2026-04-20T14:53:37.284Z</time></trkpt><trkpt lat="44.8592235" lon="10.4710556"><ele>30.0</ele><time>2026-04-20T14:53:39.283Z</time></trkpt><trkpt lat="44.8591711" lon="10.4712001"><ele>30.0</ele><time>2026-04-20T14:53:41.283Z</time></trkpt><trkpt lat="44.859112" lon="10.4713325"><ele>29.6</ele><time>2026-04-20T14:53:43.284Z</time></trkpt><trkpt lat="44.8590647" lon="10.4713984"><ele>29.2</ele><time>2026-04-20T14:53:44.283Z</time></trkpt><trkpt lat="44.8589715" lon="10.471488"><ele>28.799999999999997</ele><time>2026-04-20T14:53:46.283Z</time></trkpt><trkpt lat="44.8589111" lon="10.4715264"><ele>28.4</ele><time>2026-04-20T14:53:47.284Z</time></trkpt><trkpt lat="44.8587936" lon="10.4715737"><ele>28.0</ele><time>2026-04-20T14:53:49.284Z</time></trkpt><trkpt lat="44.85868" lon="10.4715907"><ele>28.000000000000004</ele><time>2026-04-20T14:53:51.284Z</time></trkpt><trkpt lat="44.8586183" lon="10.471613"><ele>28.0</ele><time>2026-04-20T14:53:52.283Z</time></trkpt><trkpt lat="44.8585505" lon="10.4716337"><ele>28.0</ele><time>2026-04-20T14:53:53.283Z</time></trkpt><trkpt lat="44.8584331" lon="10.4716368"><ele>28.0</ele><time>2026-04-20T14:53:55.284Z</time></trkpt><trkpt lat="44.858366" lon="10.4716222"><ele>28.000000000000004</ele><time>2026-04-20T14:53:56.284Z</time></trkpt><trkpt lat="44.8582645" lon="10.471553"><ele>28.0</ele><time>2026-04-20T14:53:58.284Z</time></trkpt><trkpt lat="44.8582127" lon="10.4715019"><ele>28.25</ele><time>2026-04-20T14:53:59.284Z</time></trkpt><trkpt lat="44.8581334" lon="10.4713936"><ele>28.5</ele><time>2026-04-20T14:54:01.284Z</time></trkpt><trkpt lat="44.8580562" lon="10.4712585"><ele>28.75</ele><time>2026-04-20T14:54:03.283Z</time></trkpt><trkpt lat="44.8579874" lon="10.471126"><ele>29.0</ele><time>2026-04-20T14:54:05.283Z</time></trkpt><trkpt lat="44.8579308" lon="10.4709833"><ele>29.25</ele><time>2026-04-20T14:54:07.283Z</time></trkpt><trkpt lat="44.8578942" lon="10.4708183"><ele>29.5</ele><time>2026-04-20T14:54:09.284Z</time></trkpt><trkpt lat="44.8578749" lon="10.4706548"><ele>29.75</ele><time>2026-04-20T14:54:11.284Z</time></trkpt><trkpt lat="44.8578638" lon="10.4704015"><ele>30.0</ele><time>2026-04-20T14:54:14.284Z</time></trkpt><trkpt lat="44.8578662" lon="10.470236"><ele>30.2</ele><time>2026-04-20T14:54:16.283Z</time></trkpt><trkpt lat="44.8578663" lon="10.4700719"><ele>30.4</ele><time>2026-04-20T14:54:18.283Z</time></trkpt><trkpt lat="44.8578659" lon="10.4699811"><ele>30.6</ele><time>2026-04-20T14:54:19.284Z</time></trkpt><trkpt lat="44.8578593" lon="10.4698853"><ele>30.8</ele><time>2026-04-20T14:54:20.284Z</time></trkpt><trkpt lat="44.8578718" lon="10.4697195"><ele>31.0</ele><time>2026-04-20T14:54:22.284Z</time></trkpt><trkpt lat="44.8578814" lon="10.4695481"><ele>31.0</ele><time>2026-04-20T14:54:24.284Z</time></trkpt><trkpt lat="44.8579031" lon="10.4693769"><ele>31.0</ele><time>2026-04-20T14:54:26.284Z</time></trkpt><trkpt lat="44.8579399" lon="10.4691896"><ele>31.0</ele><time>2026-04-20T14:54:28.283Z</time></trkpt><trkpt lat="44.8579892" lon="10.4690599"><ele>31.0</ele><time>2026-04-20T14:54:30.284Z</time></trkpt><trkpt lat="44.8580128" lon="10.4688857"><ele>31.000000000000004</ele><time>2026-04-20T14:54:32.283Z</time></trkpt><trkpt lat="44.8580635" lon="10.4688228"><ele>31.0</ele><time>2026-04-20T14:54:33.284Z</time></trkpt><trkpt lat="44.858076" lon="10.4687226"><ele>31.0</ele><time>2026-04-20T14:54:34.283Z</time></trkpt><trkpt lat="44.8581071" lon="10.4686325"><ele>31.0</ele><time>2026-04-20T14:54:35.283Z</time></trkpt><trkpt lat="44.8581288" lon="10.4685445"><ele>31.000000000000004</ele><time>2026-04-20T14:54:36.283Z</time></trkpt><trkpt lat="44.8581539" lon="10.4684493"><ele>31.0</ele><time>2026-04-20T14:54:37.283Z</time></trkpt><trkpt lat="44.8581739" lon="10.4682888"><ele>31.0</ele><time>2026-04-20T14:54:39.283Z</time></trkpt><trkpt lat="44.85819" lon="10.4681974"><ele>31.0</ele><time>2026-04-20T14:54:40.283Z</time></trkpt><trkpt lat="44.8581936" lon="10.4680277"><ele>31.0</ele><time>2026-04-20T14:54:42.283Z</time></trkpt><trkpt lat="44.8581904" lon="10.4678669"><ele>31.0</ele><time>2026-04-20T14:54:44.283Z</time></trkpt><trkpt lat="44.8581861" lon="10.4677755"><ele>31.0</ele><time>2026-04-20T14:54:45.284Z</time></trkpt><trkpt lat="44.8581914" lon="10.4676055"><ele>31.0</ele><time>2026-04-20T14:54:47.284Z</time></trkpt><trkpt lat="44.8581928" lon="10.4674348"><ele>31.0</ele><time>2026-04-20T14:54:49.283Z</time></trkpt><trkpt lat="44.8581889" lon="10.4671745"><ele>31.0</ele><time>2026-04-20T14:54:52.284Z</time></trkpt><trkpt lat="44.8581842" lon="10.4670817"><ele>31.0</ele><time>2026-04-20T14:54:53.284Z</time></trkpt><trkpt lat="44.8581684" lon="10.4669158"><ele>31.0</ele><time>2026-04-20T14:54:55.284Z</time></trkpt><trkpt lat="44.8581466" lon="10.4667449"><ele>31.0</ele><time>2026-04-20T14:54:57.283Z</time></trkpt><trkpt lat="44.8581292" lon="10.4665591"><ele>31.0</ele><time>2026-04-20T14:54:59.283Z</time></trkpt><trkpt lat="44.8581073" lon="10.4664602"><ele>31.0</ele><time>2026-04-20T14:55:01.283Z</time></trkpt><trkpt lat="44.8580684" lon="10.4663445"><ele>31.0</ele><time>2026-04-20T14:55:02.284Z</time></trkpt><trkpt lat="44.858046" lon="10.4662561"><ele>31.0</ele><time>2026-04-20T14:55:03.283Z</time></trkpt><trkpt lat="44.8580019" lon="10.4661186"><ele>31.0</ele><time>2026-04-20T14:55:05.283Z</time></trkpt><trkpt lat="44.8579565" lon="10.465955"><ele>31.0</ele><time>2026-04-20T14:55:07.283Z</time></trkpt><trkpt lat="44.8579124" lon="10.4658069"><ele>31.0</ele><time>2026-04-20T14:55:09.283Z</time></trkpt><trkpt lat="44.8578987" lon="10.4657104"><ele>31.0</ele><time>2026-04-20T14:55:10.284Z</time></trkpt><trkpt lat="44.857868" lon="10.4655613"><ele>31.0</ele><time>2026-04-20T14:55:12.284Z</time></trkpt><trkpt lat="44.8578489" lon="10.4654726"><ele>31.0</ele><time>2026-04-20T14:55:13.283Z</time></trkpt><trkpt lat="44.8578078" lon="10.4653085"><ele>31.0</ele><time>2026-04-20T14:55:15.283Z</time></trkpt><trkpt lat="44.8577894" lon="10.4652221"><ele>31.0</ele><time>2026-04-20T14:55:16.283Z</time></trkpt><trkpt lat="44.8577477" lon="10.4650606"><ele>31.0</ele><time>2026-04-20T14:55:18.283Z</time></trkpt><trkpt lat="44.8576998" lon="10.464881"><ele>31.000000000000004</ele><time>2026-04-20T14:55:20.283Z</time></trkpt><trkpt lat="44.8576721" lon="10.4647893"><ele>31.0</ele><time>2026-04-20T14:55:21.283Z</time></trkpt><trkpt lat="44.8576444" lon="10.4647025"><ele>31.0</ele><time>2026-04-20T14:55:22.284Z</time></trkpt><trkpt lat="44.8576186" lon="10.4646116"><ele>31.0</ele><time>2026-04-20T14:55:23.283Z</time></trkpt><trkpt lat="44.8575785" lon="10.4644505"><ele>31.000000000000004</ele><time>2026-04-20T14:55:25.284Z</time></trkpt><trkpt lat="44.85754" lon="10.4642921"><ele>31.0</ele><time>2026-04-20T14:55:27.284Z</time></trkpt><trkpt lat="44.8575035" lon="10.4641325"><ele>31.0</ele><time>2026-04-20T14:55:29.283Z</time></trkpt><trkpt lat="44.8574664" lon="10.4640364"><ele>31.0</ele><time>2026-04-20T14:55:30.284Z</time></trkpt><trkpt lat="44.8574408" lon="10.4639518"><ele>31.0</ele><time>2026-04-20T14:55:31.284Z</time></trkpt><trkpt lat="44.8573803" lon="10.4640011"><ele>31.0</ele><time>2026-04-20T14:55:32.284Z</time></trkpt><trkpt lat="44.8572809" lon="10.4639079"><ele>31.0</ele><time>2026-04-20T14:55:33.284Z</time></trkpt><trkpt lat="44.8571592" lon="10.4638962"><ele>31.0</ele><time>2026-04-20T14:55:35.284Z</time></trkpt><trkpt lat="44.8570993" lon="10.4639516"><ele>31.0</ele><time>2026-04-20T14:55:36.283Z</time></trkpt><trkpt lat="44.8569955" lon="10.4640706"><ele>31.0</ele><time>2026-04-20T14:55:38.283Z</time></trkpt><trkpt lat="44.8569107" lon="10.4641787"><ele>31.0</ele><time>2026-04-20T14:55:40.284Z</time></trkpt><trkpt lat="44.8568279" lon="10.464305"><ele>31.0</ele><time>2026-04-20T14:55:42.283Z</time></trkpt><trkpt lat="44.8567508" lon="10.4644235"><ele>31.200000000000003</ele><time>2026-04-20T14:55:44.284Z</time></trkpt><trkpt lat="44.8566203" lon="10.4646177"><ele>31.400000000000002</ele><time>2026-04-20T14:55:47.284Z</time></trkpt><trkpt lat="44.8565394" lon="10.4647467"><ele>31.6</ele><time>2026-04-20T14:55:49.283Z</time></trkpt><trkpt lat="44.8564927" lon="10.4648126"><ele>31.8</ele><time>2026-04-20T14:55:50.284Z</time></trkpt><trkpt lat="44.8564461" lon="10.4648751"><ele>32.0</ele><time>2026-04-20T14:55:51.283Z</time></trkpt><trkpt lat="44.8563996" lon="10.4649367"><ele>31.999999999999996</ele><time>2026-04-20T14:55:52.283Z</time></trkpt><trkpt lat="44.8563441" lon="10.4649952"><ele>32.0</ele><time>2026-04-20T14:55:53.284Z</time></trkpt><trkpt lat="44.8562924" lon="10.4650482"><ele>32.0</ele><time>2026-04-20T14:55:54.284Z</time></trkpt><trkpt lat="44.8562394" lon="10.4651021"><ele>32.0</ele><time>2026-04-20T14:55:55.284Z</time></trkpt><trkpt lat="44.8561424" lon="10.4652126"><ele>31.999999999999996</ele><time>2026-04-20T14:55:57.284Z</time></trkpt><trkpt lat="44.8560912" lon="10.4652726"><ele>32.0</ele><time>2026-04-20T14:55:58.283Z</time></trkpt><trkpt lat="44.8560407" lon="10.4653268"><ele>32.0</ele><time>2026-04-20T14:55:59.284Z</time></trkpt><trkpt lat="44.8559368" lon="10.4654315"><ele>32.0</ele><time>2026-04-20T14:56:01.283Z</time></trkpt><trkpt lat="44.8558323" lon="10.4655321"><ele>32.0</ele><time>2026-04-20T14:56:03.284Z</time></trkpt><trkpt lat="44.8557835" lon="10.4655911"><ele>32.0</ele><time>2026-04-20T14:56:04.283Z</time></trkpt><trkpt lat="44.8557303" lon="10.4656514"><ele>32.0</ele><time>2026-04-20T14:56:05.283Z</time></trkpt><trkpt lat="44.8556802" lon="10.4657068"><ele>32.0</ele><time>2026-04-20T14:56:06.284Z</time></trkpt><trkpt lat="44.8555952" lon="10.46579"><ele>32.0</ele><time>2026-04-20T14:56:08.283Z</time></trkpt><trkpt lat="44.8555005" lon="10.4658856"><ele>32.0</ele><time>2026-04-20T14:56:10.284Z</time></trkpt><trkpt lat="44.8553407" lon="10.4660084"><ele>32.0</ele><time>2026-04-20T14:56:13.284Z</time></trkpt><trkpt lat="44.8552415" lon="10.4660712"><ele>32.0</ele><time>2026-04-20T14:56:15.283Z</time></trkpt><trkpt lat="44.8551459" lon="10.4661033"><ele>32.0</ele><time>2026-04-20T14:56:17.284Z</time></trkpt><trkpt lat="44.8550447" lon="10.4661257"><ele>32.0</ele><time>2026-04-20T14:56:19.283Z</time></trkpt><trkpt lat="44.8549099" lon="10.4661413"><ele>32.0</ele><time>2026-04-20T14:56:22.284Z</time></trkpt><trkpt lat="44.8548063" lon="10.4661508"><ele>32.0</ele><time>2026-04-20T14:56:25.284Z</time></trkpt><trkpt lat="44.8547177" lon="10.4661297"><ele>31.999999999999996</ele><time>2026-04-20T14:56:27.284Z</time></trkpt><trkpt lat="44.8546532" lon="10.466116"><ele>32.0</ele><time>2026-04-20T14:56:29.284Z</time></trkpt><trkpt lat="44.8545762" lon="10.4660865"><ele>32.0</ele><time>2026-04-20T14:56:31.284Z</time></trkpt><trkpt lat="44.8544927" lon="10.4660532"><ele>32.0</ele><time>2026-04-20T14:56:33.284Z</time></trkpt><trkpt lat="44.8544097" lon="10.4660182"><ele>31.999999999999996</ele><time>2026-04-20T14:56:35.283Z</time></trkpt><trkpt lat="44.8543245" lon="10.4659654"><ele>32.0</ele><time>2026-04-20T14:56:37.284Z</time></trkpt><trkpt lat="44.8542565" lon="10.4659119"><ele>31.833333333333332</ele><time>2026-04-20T14:56:39.284Z</time></trkpt><trkpt lat="44.8541739" lon="10.4658627"><ele>31.666666666666664</ele><time>2026-04-20T14:56:41.284Z</time></trkpt><trkpt lat="44.8541022" lon="10.4658337"><ele>31.5</ele><time>2026-04-20T14:56:43.284Z</time></trkpt><trkpt lat="44.854042" lon="10.4658022"><ele>31.333333333333336</ele><time>2026-04-20T14:56:45.283Z</time></trkpt><trkpt lat="44.8539557" lon="10.46578"><ele>31.166666666666668</ele><time>2026-04-20T14:56:47.284Z</time></trkpt><trkpt lat="44.8538782" lon="10.4657347"><ele>31.0</ele><time>2026-04-20T14:56:49.284Z</time></trkpt><trkpt lat="44.8538349" lon="10.4656507"><ele>31.0</ele><time>2026-04-20T14:56:50.284Z</time></trkpt><trkpt lat="44.8537149" lon="10.4655685"><ele>31.0</ele><time>2026-04-20T14:56:52.283Z</time></trkpt><trkpt lat="44.8536064" lon="10.4654896"><ele>31.0</ele><time>2026-04-20T14:56:54.283Z</time></trkpt><trkpt lat="44.8535069" lon="10.4653978"><ele>31.0</ele><time>2026-04-20T14:56:56.283Z</time></trkpt><trkpt lat="44.8533455" lon="10.4652965"><ele>31.000000000000004</ele><time>2026-04-20T14:56:59.284Z</time></trkpt><trkpt lat="44.8532817" lon="10.4652966"><ele>31.0</ele><time>2026-04-20T14:57:00.284Z</time></trkpt><trkpt lat="44.8531669" lon="10.4653194"><ele>31.0</ele><time>2026-04-20T14:57:02.284Z</time></trkpt><trkpt lat="44.8531011" lon="10.4653154"><ele>31.0</ele><time>2026-04-20T14:57:03.283Z</time></trkpt><trkpt lat="44.8529917" lon="10.4652394"><ele>31.000000000000004</ele><time>2026-04-20T14:57:06.283Z</time></trkpt><trkpt lat="44.8529716" lon="10.4651458"><ele>31.0</ele><time>2026-04-20T14:57:08.284Z</time></trkpt><trkpt lat="44.8529293" lon="10.4650156"><ele>31.0</ele><time>2026-04-20T14:57:10.284Z</time></trkpt><trkpt lat="44.8528497" lon="10.4649143"><ele>31.0</ele><time>2026-04-20T14:57:12.283Z</time></trkpt><trkpt lat="44.8527508" lon="10.4648018"><ele>31.0</ele><time>2026-04-20T14:57:14.283Z</time></trkpt><trkpt lat="44.8527024" lon="10.4647441"><ele>31.0</ele><time>2026-04-20T14:57:15.284Z</time></trkpt><trkpt lat="44.8526077" lon="10.4646343"><ele>31.0</ele><time>2026-04-20T14:57:17.283Z</time></trkpt><trkpt lat="44.8525172" lon="10.4645347"><ele>31.0</ele><time>2026-04-20T14:57:19.284Z</time></trkpt><trkpt lat="44.8524677" lon="10.4644691"><ele>31.0</ele><time>2026-04-20T14:57:20.284Z</time></trkpt><trkpt lat="44.8523887" lon="10.4643342"><ele>31.0</ele><time>2026-04-20T14:57:22.284Z</time></trkpt><trkpt lat="44.8523119" lon="10.4641978"><ele>31.0</ele><time>2026-04-20T14:57:24.283Z</time></trkpt><trkpt lat="44.8522398" lon="10.4640582"><ele>31.0</ele><time>2026-04-20T14:57:26.284Z</time></trkpt><trkpt lat="44.8521859" lon="10.463925"><ele>31.25</ele><time>2026-04-20T14:57:28.283Z</time></trkpt><trkpt lat="44.8521313" lon="10.4637646"><ele>31.5</ele><time>2026-04-20T14:57:30.284Z</time></trkpt><trkpt lat="44.8520939" lon="10.4635871"><ele>31.75</ele><time>2026-04-20T14:57:32.283Z</time></trkpt><trkpt lat="44.8520565" lon="10.4633354"><ele>32.0</ele><time>2026-04-20T14:57:35.284Z</time></trkpt><trkpt lat="44.8520365" lon="10.4632355"><ele>32.0</ele><time>2026-04-20T14:57:36.284Z</time></trkpt><trkpt lat="44.852019" lon="10.4630761"><ele>32.0</ele><time>2026-04-20T14:57:38.284Z</time></trkpt><trkpt lat="44.8519995" lon="10.4629061"><ele>32.0</ele><time>2026-04-20T14:57:40.284Z</time></trkpt><trkpt lat="44.8519617" lon="10.4627321"><ele>32.0</ele><time>2026-04-20T14:57:42.284Z</time></trkpt><trkpt lat="44.8519785" lon="10.4625765"><ele>32.0</ele><time>2026-04-20T14:57:44.283Z</time></trkpt><trkpt lat="44.8519537" lon="10.4624544"><ele>32.0</ele><time>2026-04-20T14:57:46.283Z</time></trkpt><trkpt lat="44.8519322" lon="10.4623677"><ele>32.0</ele><time>2026-04-20T14:57:47.283Z</time></trkpt><trkpt lat="44.8518722" lon="10.462213"><ele>32.0</ele><time>2026-04-20T14:57:49.283Z</time></trkpt><trkpt lat="44.851833" lon="10.4621243"><ele>32.0</ele><time>2026-04-20T14:57:50.284Z</time></trkpt><trkpt lat="44.8517553" lon="10.4620135"><ele>32.14285714285714</ele><time>2026-04-20T14:57:52.284Z</time></trkpt><trkpt lat="44.8517263" lon="10.4619298"><ele>32.285714285714285</ele><time>2026-04-20T14:57:53.283Z</time></trkpt><trkpt lat="44.851656" lon="10.461806"><ele>32.42857142857143</ele><time>2026-04-20T14:57:55.284Z</time></trkpt><trkpt lat="44.8516202" lon="10.4617224"><ele>32.57142857142857</ele><time>2026-04-20T14:57:56.283Z</time></trkpt><trkpt lat="44.851576" lon="10.4616563"><ele>32.714285714285715</ele><time>2026-04-20T14:57:57.283Z</time></trkpt><trkpt lat="44.8515441" lon="10.4615763"><ele>32.857142857142854</ele><time>2026-04-20T14:57:58.283Z</time></trkpt><trkpt lat="44.8514988" lon="10.4615054"><ele>33.0</ele><time>2026-04-20T14:57:59.283Z</time></trkpt><trkpt lat="44.8514555" lon="10.4614292"><ele>33.199999999999996</ele><time>2026-04-20T14:58:00.284Z</time></trkpt><trkpt lat="44.8513611" lon="10.4612504"><ele>33.4</ele><time>2026-04-20T14:58:02.283Z</time></trkpt><trkpt lat="44.8513173" lon="10.4611823"><ele>33.599999999999994</ele><time>2026-04-20T14:58:03.284Z</time></trkpt><trkpt lat="44.8512763" lon="10.4610872"><ele>33.8</ele><time>2026-04-20T14:58:04.283Z</time></trkpt><trkpt lat="44.8511924" lon="10.4609798"><ele>34.0</ele><time>2026-04-20T14:58:06.283Z</time></trkpt><trkpt lat="44.8510972" lon="10.4608524"><ele>34.0</ele><time>2026-04-20T14:58:08.283Z</time></trkpt><trkpt lat="44.8510352" lon="10.460798"><ele>34.0</ele><time>2026-04-20T14:58:09.284Z</time></trkpt><trkpt lat="44.8509107" lon="10.4607697"><ele>34.0</ele><time>2026-04-20T14:58:11.283Z</time></trkpt><trkpt lat="44.8508408" lon="10.4607579"><ele>34.0</ele><time>2026-04-20T14:58:12.284Z</time></trkpt><trkpt lat="44.8507149" lon="10.4607707"><ele>34.0</ele><time>2026-04-20T14:58:14.284Z</time></trkpt><trkpt lat="44.8506105" lon="10.4608109"><ele>33.5</ele><time>2026-04-20T14:58:16.283Z</time></trkpt><trkpt lat="44.850532" lon="10.4608319"><ele>33.0</ele><time>2026-04-20T14:58:17.283Z</time></trkpt><trkpt lat="44.850414" lon="10.4608703"><ele>32.5</ele><time>2026-04-20T14:58:19.283Z</time></trkpt><trkpt lat="44.8502144" lon="10.4609155"><ele>32.0</ele><time>2026-04-20T14:58:22.283Z</time></trkpt><trkpt lat="44.8500912" lon="10.4609246"><ele>32.0</ele><time>2026-04-20T14:58:24.283Z</time></trkpt><trkpt lat="44.8499781" lon="10.4609007"><ele>32.0</ele><time>2026-04-20T14:58:26.284Z</time></trkpt><trkpt lat="44.8498609" lon="10.4608649"><ele>32.0</ele><time>2026-04-20T14:58:28.284Z</time></trkpt><trkpt lat="44.8496863" lon="10.4607535"><ele>32.0</ele><time>2026-04-20T14:58:31.283Z</time></trkpt><trkpt lat="44.849592" lon="10.4606553"><ele>32.0</ele><time>2026-04-20T14:58:33.283Z</time></trkpt><trkpt lat="44.8495329" lon="10.4606221"><ele>32.0</ele><time>2026-04-20T14:58:34.284Z</time></trkpt><trkpt lat="44.8494221" lon="10.4605511"><ele>32.0</ele><time>2026-04-20T14:58:36.283Z</time></trkpt><trkpt lat="44.8493646" lon="10.4604971"><ele>32.0</ele><time>2026-04-20T14:58:37.283Z</time></trkpt><trkpt lat="44.8492059" lon="10.460349"><ele>32.0</ele><time>2026-04-20T14:58:40.283Z</time></trkpt><trkpt lat="44.8491009" lon="10.4602753"><ele>31.8</ele><time>2026-04-20T14:58:42.284Z</time></trkpt><trkpt lat="44.8490416" lon="10.460217"><ele>31.6</ele><time>2026-04-20T14:58:43.283Z</time></trkpt><trkpt lat="44.8489848" lon="10.4601666"><ele>31.400000000000002</ele><time>2026-04-20T14:58:44.283Z</time></trkpt><trkpt lat="44.8489322" lon="10.4601145"><ele>31.200000000000003</ele><time>2026-04-20T14:58:45.283Z</time></trkpt><trkpt lat="44.8488767" lon="10.4600647"><ele>31.0</ele><time>2026-04-20T14:58:46.283Z</time></trkpt><trkpt lat="44.848722" lon="10.459927"><ele>31.0</ele><time>2026-04-20T14:58:49.283Z</time></trkpt><trkpt lat="44.8486156" lon="10.4598312"><ele>31.0</ele><time>2026-04-20T14:58:51.284Z</time></trkpt><trkpt lat="44.8485546" lon="10.4597942"><ele>31.0</ele><time>2026-04-20T14:58:52.283Z</time></trkpt><trkpt lat="44.8484997" lon="10.4597432"><ele>31.0</ele><time>2026-04-20T14:58:53.284Z</time></trkpt><trkpt lat="44.8483898" lon="10.459639"><ele>31.0</ele><time>2026-04-20T14:58:55.283Z</time></trkpt><trkpt lat="44.8482575" lon="10.4594925"><ele>31.25</ele><time>2026-04-20T14:58:58.284Z</time></trkpt><trkpt lat="44.8482026" lon="10.4593471"><ele>31.5</ele><time>2026-04-20T14:59:00.283Z</time></trkpt><trkpt lat="44.8481561" lon="10.4591849"><ele>31.75</ele><time>2026-04-20T14:59:02.284Z</time></trkpt><trkpt lat="44.8481176" lon="10.4590238"><ele>32.0</ele><time>2026-04-20T14:59:04.284Z</time></trkpt><trkpt lat="44.8480636" lon="10.4588081"><ele>31.8</ele><time>2026-04-20T14:59:07.284Z</time></trkpt><trkpt lat="44.8480157" lon="10.4586415"><ele>31.6</ele><time>2026-04-20T14:59:09.283Z</time></trkpt><trkpt lat="44.8479951" lon="10.4585517"><ele>31.400000000000002</ele><time>2026-04-20T14:59:10.283Z</time></trkpt><trkpt lat="44.8479528" lon="10.4583854"><ele>31.200000000000003</ele><time>2026-04-20T14:59:12.284Z</time></trkpt><trkpt lat="44.8479511" lon="10.4582037"><ele>31.0</ele><time>2026-04-20T14:59:14.284Z</time></trkpt><trkpt lat="44.8479981" lon="10.4579555"><ele>31.0</ele><time>2026-04-20T14:59:17.284Z</time></trkpt><trkpt lat="44.8480616" lon="10.4578236"><ele>31.0</ele><time>2026-04-20T14:59:19.284Z</time></trkpt><trkpt lat="44.8481089" lon="10.4576658"><ele>31.0</ele><time>2026-04-20T14:59:21.283Z</time></trkpt><trkpt lat="44.8481429" lon="10.4575087"><ele>31.0</ele><time>2026-04-20T14:59:23.283Z</time></trkpt><trkpt lat="44.8481241" lon="10.4574133"><ele>31.0</ele><time>2026-04-20T14:59:24.284Z</time></trkpt><trkpt lat="44.8480749" lon="10.4572564"><ele>31.0</ele><time>2026-04-20T14:59:26.283Z</time></trkpt><trkpt lat="44.8480337" lon="10.4571803"><ele>31.0</ele><time>2026-04-20T14:59:27.284Z</time></trkpt><trkpt lat="44.847977" lon="10.4570504"><ele>31.0</ele><time>2026-04-20T14:59:29.283Z</time></trkpt><trkpt lat="44.8479056" lon="10.456917"><ele>31.0</ele><time>2026-04-20T14:59:31.284Z</time></trkpt><trkpt lat="44.8478645" lon="10.4568493"><ele>31.0</ele><time>2026-04-20T14:59:32.284Z</time></trkpt><trkpt lat="44.8477725" lon="10.4566415"><ele>31.0</ele><time>2026-04-20T14:59:35.284Z</time></trkpt><trkpt lat="44.8477329" lon="10.4565268"><ele>31.0</ele><time>2026-04-20T14:59:37.283Z</time></trkpt><trkpt lat="44.8476879" lon="10.4563952"><ele>31.0</ele><time>2026-04-20T14:59:39.283Z</time></trkpt><trkpt lat="44.847618" lon="10.4562667"><ele>31.0</ele><time>2026-04-20T14:59:41.284Z</time></trkpt><trkpt lat="44.8475174" lon="10.4560578"><ele>31.6</ele><time>2026-04-20T14:59:44.284Z</time></trkpt><trkpt lat="44.8474449" lon="10.4559174"><ele>32.2</ele><time>2026-04-20T14:59:46.283Z</time></trkpt><trkpt lat="44.8473865" lon="10.4557783"><ele>32.8</ele><time>2026-04-20T14:59:48.283Z</time></trkpt><trkpt lat="44.8473044" lon="10.4556606"><ele>33.4</ele><time>2026-04-20T14:59:50.284Z</time></trkpt><trkpt lat="44.8472534" lon="10.4555995"><ele>34.0</ele><time>2026-04-20T14:59:51.284Z</time></trkpt><trkpt lat="44.8471537" lon="10.4555002"><ele>33.8</ele><time>2026-04-20T14:59:53.284Z</time></trkpt><trkpt lat="44.8470506" lon="10.4554274"><ele>33.599999999999994</ele><time>2026-04-20T14:59:55.283Z</time></trkpt><trkpt lat="44.8469572" lon="10.4553716"><ele>33.4</ele><time>2026-04-20T14:59:57.284Z</time></trkpt><trkpt lat="44.8468498" lon="10.455313"><ele>33.199999999999996</ele><time>2026-04-20T14:59:59.283Z</time></trkpt><trkpt lat="44.8467459" lon="10.4552649"><ele>33.0</ele><time>2026-04-20T15:00:01.284Z</time></trkpt><trkpt lat="44.8466245" lon="10.455209"><ele>33.0</ele><time>2026-04-20T15:00:03.283Z</time></trkpt><trkpt lat="44.8465189" lon="10.4551409"><ele>33.0</ele><time>2026-04-20T15:00:05.283Z</time></trkpt><trkpt lat="44.846415" lon="10.4550695"><ele>33.0</ele><time>2026-04-20T15:00:07.284Z</time></trkpt><trkpt lat="44.8463094" lon="10.4550046"><ele>33.0</ele><time>2026-04-20T15:00:09.283Z</time></trkpt><trkpt lat="44.846202" lon="10.4549357"><ele>33.0</ele><time>2026-04-20T15:00:11.284Z</time></trkpt><trkpt lat="44.8460961" lon="10.4548713"><ele>33.0</ele><time>2026-04-20T15:00:13.283Z</time></trkpt><trkpt lat="44.845991" lon="10.4548148"><ele>33.0</ele><time>2026-04-20T15:00:15.283Z</time></trkpt><trkpt lat="44.8458778" lon="10.4547485"><ele>33.0</ele><time>2026-04-20T15:00:17.283Z</time></trkpt><trkpt lat="44.8457107" lon="10.4546704"><ele>33.4</ele><time>2026-04-20T15:00:20.283Z</time></trkpt><trkpt lat="44.8455928" lon="10.454644"><ele>33.8</ele><time>2026-04-20T15:00:22.284Z</time></trkpt><trkpt lat="44.8454765" lon="10.454672"><ele>34.2</ele><time>2026-04-20T15:00:24.284Z</time></trkpt><trkpt lat="44.8454136" lon="10.4546934"><ele>34.6</ele><time>2026-04-20T15:00:25.284Z</time></trkpt><trkpt lat="44.8453502" lon="10.4547174"><ele>35.0</ele><time>2026-04-20T15:00:26.283Z</time></trkpt><trkpt lat="44.8451796" lon="10.4547669"><ele>34.75</ele><time>2026-04-20T15:00:29.283Z</time></trkpt><trkpt lat="44.8450562" lon="10.4548046"><ele>34.5</ele><time>2026-04-20T15:00:31.284Z</time></trkpt><trkpt lat="44.8449446" lon="10.4548003"><ele>34.25</ele><time>2026-04-20T15:00:33.283Z</time></trkpt><trkpt lat="44.8448448" lon="10.4547332"><ele>34.0</ele><time>2026-04-20T15:00:35.283Z</time></trkpt><trkpt lat="44.8446206" lon="10.4545398"><ele>34.0</ele><time>2026-04-20T15:00:40.284Z</time></trkpt><trkpt lat="44.8445354" lon="10.4544916"><ele>34.0</ele><time>2026-04-20T15:00:42.283Z</time></trkpt><trkpt lat="44.8444577" lon="10.4544512"><ele>34.0</ele><time>2026-04-20T15:00:44.283Z</time></trkpt><trkpt lat="44.8443665" lon="10.4544176"><ele>34.0</ele><time>2026-04-20T15:00:46.283Z</time></trkpt><trkpt lat="44.8442939" lon="10.454399"><ele>34.0</ele><time>2026-04-20T15:00:48.284Z</time></trkpt><trkpt lat="44.8442209" lon="10.4544049"><ele>34.0</ele><time>2026-04-20T15:00:50.284Z</time></trkpt><trkpt lat="44.8441462" lon="10.4544243"><ele>33.66666666666667</ele><time>2026-04-20T15:00:52.283Z</time></trkpt><trkpt lat="44.844078" lon="10.4544562"><ele>33.333333333333336</ele><time>2026-04-20T15:00:54.283Z</time></trkpt><trkpt lat="44.8440126" lon="10.4544924"><ele>33.0</ele><time>2026-04-20T15:00:58.283Z</time></trkpt><trkpt lat="44.8439807" lon="10.45437"><ele>32.666666666666664</ele><time>2026-04-20T15:01:02.284Z</time></trkpt><trkpt lat="44.8439849" lon="10.4542556"><ele>32.33333333333333</ele><time>2026-04-20T15:01:04.283Z</time></trkpt><trkpt lat="44.8439823" lon="10.4541368"><ele>32.0</ele><time>2026-04-20T15:01:06.284Z</time></trkpt><trkpt lat="44.8439589" lon="10.4540334"><ele>31.999999999999996</ele><time>2026-04-20T15:01:10.283Z</time></trkpt><trkpt lat="44.843952" lon="10.4539181"><ele>32.0</ele><time>2026-04-20T15:01:12.284Z</time></trkpt><trkpt lat="44.8439551" lon="10.4537842"><ele>32.0</ele><time>2026-04-20T15:01:14.283Z</time></trkpt><trkpt lat="44.8439494" lon="10.4536568"><ele>32.0</ele><time>2026-04-20T15:01:16.284Z</time></trkpt><trkpt lat="44.8439403" lon="10.4535528"><ele>31.999999999999996</ele><time>2026-04-20T15:01:18.283Z</time></trkpt><trkpt lat="44.8439261" lon="10.4534191"><ele>32.0</ele><time>2026-04-20T15:01:20.283Z</time></trkpt><trkpt lat="44.8439122" lon="10.4532914"><ele>32.2</ele><time>2026-04-20T15:01:22.284Z</time></trkpt><trkpt lat="44.8438989" lon="10.4531403"><ele>32.400000000000006</ele><time>2026-04-20T15:01:24.284Z</time></trkpt><trkpt lat="44.8438808" lon="10.4529788"><ele>32.599999999999994</ele><time>2026-04-20T15:01:25.284Z</time></trkpt><trkpt lat="44.8438689" lon="10.4528235"><ele>32.8</ele><time>2026-04-20T15:01:27.283Z</time></trkpt><trkpt lat="44.8438555" lon="10.4526689"><ele>33.0</ele><time>2026-04-20T15:01:29.284Z</time></trkpt><trkpt lat="44.8438496" lon="10.4525805"><ele>33.5</ele><time>2026-04-20T15:01:31.284Z</time></trkpt><trkpt lat="44.8438749" lon="10.4524952"><ele>34.0</ele><time>2026-04-20T15:01:35.284Z</time></trkpt><trkpt lat="44.8439353" lon="10.4524526"><ele>34.5</ele><time>2026-04-20T15:01:38.284Z</time></trkpt><trkpt lat="44.8440044" lon="10.4523983"><ele>35.0</ele><time>2026-04-20T15:01:41.284Z</time></trkpt><trkpt lat="44.8440996" lon="10.4523453"><ele>35.5</ele><time>2026-04-20T15:01:44.283Z</time></trkpt><trkpt lat="44.8441717" lon="10.4523177"><ele>36.0</ele><time>2026-04-20T15:01:46.284Z</time></trkpt><trkpt lat="44.8442539" lon="10.4522894"><ele>35.833333333333336</ele><time>2026-04-20T15:01:48.284Z</time></trkpt><trkpt lat="44.8443304" lon="10.4522563"><ele>35.666666666666664</ele><time>2026-04-20T15:01:50.284Z</time></trkpt><trkpt lat="44.84441" lon="10.4522174"><ele>35.5</ele><time>2026-04-20T15:01:52.283Z</time></trkpt><trkpt lat="44.8444865" lon="10.4521726"><ele>35.33333333333333</ele><time>2026-04-20T15:01:54.284Z</time></trkpt><trkpt lat="44.844551" lon="10.4521103"><ele>35.166666666666664</ele><time>2026-04-20T15:01:56.284Z</time></trkpt><trkpt lat="44.8446091" lon="10.4520407"><ele>35.0</ele><time>2026-04-20T15:01:58.284Z</time></trkpt><trkpt lat="44.8446557" lon="10.4518857"><ele>35.0</ele><time>2026-04-20T15:02:01.284Z</time></trkpt><trkpt lat="44.8446593" lon="10.4517762"><ele>35.0</ele><time>2026-04-20T15:02:03.284Z</time></trkpt><trkpt lat="44.8446767" lon="10.4516398"><ele>35.0</ele><time>2026-04-20T15:02:05.283Z</time></trkpt><trkpt lat="44.8446966" lon="10.4515142"><ele>35.0</ele><time>2026-04-20T15:02:07.284Z</time></trkpt><trkpt lat="44.8447354" lon="10.451335"><ele>35.0</ele><time>2026-04-20T15:02:10.284Z</time></trkpt><trkpt lat="44.8447484" lon="10.4512132"><ele>35.2</ele><time>2026-04-20T15:02:12.284Z</time></trkpt><trkpt lat="44.8447535" lon="10.451087"><ele>35.4</ele><time>2026-04-20T15:02:14.284Z</time></trkpt><trkpt lat="44.844768" lon="10.4509626"><ele>35.6</ele><time>2026-04-20T15:02:16.283Z</time></trkpt><trkpt lat="44.844792" lon="10.4507882"><ele>35.8</ele><time>2026-04-20T15:02:19.284Z</time></trkpt><trkpt lat="44.8448041" lon="10.4506492"><ele>36.0</ele><time>2026-04-20T15:02:21.284Z</time></trkpt><trkpt lat="44.8448147" lon="10.4504929"><ele>36.2</ele><time>2026-04-20T15:02:23.283Z</time></trkpt><trkpt lat="44.8448339" lon="10.4503629"><ele>36.400000000000006</ele><time>2026-04-20T15:02:25.284Z</time></trkpt><trkpt lat="44.8448477" lon="10.4502159"><ele>36.6</ele><time>2026-04-20T15:02:27.283Z</time></trkpt><trkpt lat="44.8448573" lon="10.450065"><ele>36.800000000000004</ele><time>2026-04-20T15:02:29.284Z</time></trkpt><trkpt lat="44.84487" lon="10.4499321"><ele>37.0</ele><time>2026-04-20T15:02:31.283Z</time></trkpt><trkpt lat="44.844872" lon="10.4498172"><ele>37.0</ele><time>2026-04-20T15:02:33.284Z</time></trkpt><trkpt lat="44.8448803" lon="10.4497145"><ele>37.0</ele><time>2026-04-20T15:02:35.284Z</time></trkpt><trkpt lat="44.8449023" lon="10.44955"><ele>37.0</ele><time>2026-04-20T15:02:38.283Z</time></trkpt><trkpt lat="44.8449238" lon="10.4494421"><ele>37.0</ele><time>2026-04-20T15:02:40.283Z</time></trkpt><trkpt lat="44.8449468" lon="10.4493304"><ele>37.0</ele><time>2026-04-20T15:02:42.284Z</time></trkpt><trkpt lat="44.8449577" lon="10.4491943"><ele>36.800000000000004</ele><time>2026-04-20T15:02:44.283Z</time></trkpt><trkpt lat="44.8449766" lon="10.4490437"><ele>36.6</ele><time>2026-04-20T15:02:46.284Z</time></trkpt><trkpt lat="44.8449822" lon="10.4488768"><ele>36.400000000000006</ele><time>2026-04-20T15:02:48.283Z</time></trkpt><trkpt lat="44.8450019" lon="10.4487504"><ele>36.2</ele><time>2026-04-20T15:02:50.284Z</time></trkpt><trkpt lat="44.8449999" lon="10.4486135"><ele>36.0</ele><time>2026-04-20T15:02:52.284Z</time></trkpt><trkpt lat="44.8450073" lon="10.4485056"><ele>36.0</ele><time>2026-04-20T15:02:54.283Z</time></trkpt><trkpt lat="44.8450224" lon="10.4483892"><ele>36.0</ele><time>2026-04-20T15:02:56.283Z</time></trkpt><trkpt lat="44.8450282" lon="10.4482746"><ele>36.0</ele><time>2026-04-20T15:02:59.284Z</time></trkpt><trkpt lat="44.8450495" lon="10.4481545"><ele>36.0</ele><time>2026-04-20T15:03:01.283Z</time></trkpt><trkpt lat="44.8451408" lon="10.4481583"><ele>36.0</ele><time>2026-04-20T15:03:08.284Z</time></trkpt><trkpt lat="44.8452381" lon="10.4481954"><ele>36.0</ele><time>2026-04-20T15:03:11.283Z</time></trkpt><trkpt lat="44.8453503" lon="10.4482314"><ele>36.0</ele><time>2026-04-20T15:03:14.284Z</time></trkpt><trkpt lat="44.8454202" lon="10.4482608"><ele>36.0</ele><time>2026-04-20T15:03:16.283Z</time></trkpt><trkpt lat="44.8454864" lon="10.4482892"><ele>36.0</ele><time>2026-04-20T15:03:18.283Z</time></trkpt><trkpt lat="44.8455767" lon="10.4483258"><ele>36.0</ele><time>2026-04-20T15:03:20.284Z</time></trkpt><trkpt lat="44.8456694" lon="10.4483653"><ele>36.0</ele><time>2026-04-20T15:03:22.284Z</time></trkpt><trkpt lat="44.8457509" lon="10.4483873"><ele>36.0</ele><time>2026-04-20T15:03:24.284Z</time></trkpt><trkpt lat="44.8458482" lon="10.4484171"><ele>36.0</ele><time>2026-04-20T15:03:26.284Z</time></trkpt><trkpt lat="44.845951" lon="10.4484444"><ele>36.0</ele><time>2026-04-20T15:03:28.284Z</time></trkpt><trkpt lat="44.8460802" lon="10.4484971"><ele>36.0</ele><time>2026-04-20T15:03:31.283Z</time></trkpt><trkpt lat="44.8461656" lon="10.4485153"><ele>36.0</ele><time>2026-04-20T15:03:33.283Z</time></trkpt><trkpt lat="44.846357" lon="10.4484196"><ele>36.0</ele><time>2026-04-20T15:03:38.284Z</time></trkpt><trkpt lat="44.8463857" lon="10.4482907"><ele>36.0</ele><time>2026-04-20T15:03:40.284Z</time></trkpt><trkpt lat="44.8464035" lon="10.448149"><ele>36.0</ele><time>2026-04-20T15:03:42.284Z</time></trkpt><trkpt lat="44.846421" lon="10.4480052"><ele>36.0</ele><time>2026-04-20T15:03:44.283Z</time></trkpt><trkpt lat="44.8464424" lon="10.4478643"><ele>36.0</ele><time>2026-04-20T15:03:46.284Z</time></trkpt><trkpt lat="44.8464623" lon="10.447778"><ele>36.0</ele><time>2026-04-20T15:03:47.284Z</time></trkpt><trkpt lat="44.8464766" lon="10.4476146"><ele>36.0</ele><time>2026-04-20T15:03:49.283Z</time></trkpt><trkpt lat="44.846523" lon="10.4474666"><ele>36.0</ele><time>2026-04-20T15:03:51.283Z</time></trkpt><trkpt lat="44.8465592" lon="10.4472343"><ele>36.0</ele><time>2026-04-20T15:03:54.284Z</time></trkpt><trkpt lat="44.8465762" lon="10.4471061"><ele>35.6</ele><time>2026-04-20T15:03:56.284Z</time></trkpt><trkpt lat="44.8466031" lon="10.4469544"><ele>35.2</ele><time>2026-04-20T15:03:58.284Z</time></trkpt><trkpt lat="44.8466179" lon="10.4468647"><ele>34.8</ele><time>2026-04-20T15:03:59.284Z</time></trkpt><trkpt lat="44.8466382" lon="10.4467266"><ele>34.4</ele><time>2026-04-20T15:04:01.283Z</time></trkpt><trkpt lat="44.8466585" lon="10.4465843"><ele>34.0</ele><time>2026-04-20T15:04:03.283Z</time></trkpt><trkpt lat="44.8466945" lon="10.4464481"><ele>34.0</ele><time>2026-04-20T15:04:05.284Z</time></trkpt><trkpt lat="44.8467203" lon="10.4462959"><ele>34.0</ele><time>2026-04-20T15:04:07.283Z</time></trkpt><trkpt lat="44.8467351" lon="10.4461532"><ele>34.0</ele><time>2026-04-20T15:04:09.284Z</time></trkpt><trkpt lat="44.8467647" lon="10.4460119"><ele>34.0</ele><time>2026-04-20T15:04:11.283Z</time></trkpt><trkpt lat="44.846783" lon="10.4458586"><ele>34.0</ele><time>2026-04-20T15:04:13.283Z</time></trkpt><trkpt lat="44.8467942" lon="10.4457214"><ele>34.0</ele><time>2026-04-20T15:04:15.284Z</time></trkpt><trkpt lat="44.8468145" lon="10.4456012"><ele>34.0</ele><time>2026-04-20T15:04:17.284Z</time></trkpt><trkpt lat="44.8468356" lon="10.4454807"><ele>34.0</ele><time>2026-04-20T15:04:19.283Z</time></trkpt><trkpt lat="44.8468606" lon="10.4453716"><ele>34.0</ele><time>2026-04-20T15:04:21.283Z</time></trkpt><trkpt lat="44.8468716" lon="10.4452624"><ele>34.0</ele><time>2026-04-20T15:04:23.284Z</time></trkpt><trkpt lat="44.8469061" lon="10.445177"><ele>34.0</ele><time>2026-04-20T15:04:25.283Z</time></trkpt><trkpt lat="44.8469409" lon="10.4450627"><ele>34.2</ele><time>2026-04-20T15:04:27.284Z</time></trkpt><trkpt lat="44.8469573" lon="10.4449187"><ele>34.4</ele><time>2026-04-20T15:04:30.283Z</time></trkpt><trkpt lat="44.8469658" lon="10.4447794"><ele>34.6</ele><time>2026-04-20T15:04:32.283Z</time></trkpt><trkpt lat="44.8469845" lon="10.4446433"><ele>34.8</ele><time>2026-04-20T15:04:34.283Z</time></trkpt><trkpt lat="44.8470113" lon="10.4444917"><ele>35.0</ele><time>2026-04-20T15:04:36.284Z</time></trkpt><trkpt lat="44.8470366" lon="10.4443379"><ele>35.0</ele><time>2026-04-20T15:04:38.283Z</time></trkpt><trkpt lat="44.8470557" lon="10.4441972"><ele>35.0</ele><time>2026-04-20T15:04:40.283Z</time></trkpt><trkpt lat="44.8470868" lon="10.4440375"><ele>35.0</ele><time>2026-04-20T15:04:42.284Z</time></trkpt><trkpt lat="44.8471189" lon="10.443865"><ele>35.0</ele><time>2026-04-20T15:04:44.284Z</time></trkpt><trkpt lat="44.8471441" lon="10.443701"><ele>34.666666666666664</ele><time>2026-04-20T15:04:46.284Z</time></trkpt><trkpt lat="44.8471783" lon="10.4435481"><ele>34.33333333333333</ele><time>2026-04-20T15:04:48.283Z</time></trkpt><trkpt lat="44.8471941" lon="10.4434537"><ele>34.0</ele><time>2026-04-20T15:04:49.283Z</time></trkpt><trkpt lat="44.8472075" lon="10.4433666"><ele>33.666666666666664</ele><time>2026-04-20T15:04:50.283Z</time></trkpt><trkpt lat="44.8472229" lon="10.4432732"><ele>33.333333333333336</ele><time>2026-04-20T15:04:51.283Z</time></trkpt><trkpt lat="44.8472522" lon="10.4431003"><ele>33.0</ele><time>2026-04-20T15:04:53.284Z</time></trkpt><trkpt lat="44.8472762" lon="10.4429236"><ele>33.0</ele><time>2026-04-20T15:04:55.283Z</time></trkpt><trkpt lat="44.8472937" lon="10.4428321"><ele>33.0</ele><time>2026-04-20T15:04:56.283Z</time></trkpt><trkpt lat="44.8473098" lon="10.442735"><ele>33.0</ele><time>2026-04-20T15:04:57.283Z</time></trkpt><trkpt lat="44.8473385" lon="10.4425664"><ele>33.0</ele><time>2026-04-20T15:04:59.284Z</time></trkpt><trkpt lat="44.8473606" lon="10.4424832"><ele>33.0</ele><time>2026-04-20T15:05:00.284Z</time></trkpt><trkpt lat="44.8473978" lon="10.4423103"><ele>33.0</ele><time>2026-04-20T15:05:02.283Z</time></trkpt><trkpt lat="44.8474274" lon="10.4421376"><ele>33.0</ele><time>2026-04-20T15:05:04.284Z</time></trkpt><trkpt lat="44.8474477" lon="10.4420532"><ele>33.0</ele><time>2026-04-20T15:05:05.284Z</time></trkpt><trkpt lat="44.8474874" lon="10.4418985"><ele>33.0</ele><time>2026-04-20T15:05:07.283Z</time></trkpt><trkpt lat="44.8475221" lon="10.4417485"><ele>33.0</ele><time>2026-04-20T15:05:09.284Z</time></trkpt><trkpt lat="44.847545" lon="10.4416643"><ele>33.0</ele><time>2026-04-20T15:05:10.284Z</time></trkpt><trkpt lat="44.8475683" lon="10.4415751"><ele>33.0</ele><time>2026-04-20T15:05:11.284Z</time></trkpt><trkpt lat="44.8475851" lon="10.4414848"><ele>33.0</ele><time>2026-04-20T15:05:12.283Z</time></trkpt><trkpt lat="44.8476195" lon="10.44131"><ele>33.0</ele><time>2026-04-20T15:05:14.283Z</time></trkpt><trkpt lat="44.847673" lon="10.4410588"><ele>33.0</ele><time>2026-04-20T15:05:17.283Z</time></trkpt><trkpt lat="44.8476903" lon="10.4409625"><ele>32.833333333333336</ele><time>2026-04-20T15:05:18.283Z</time></trkpt><trkpt lat="44.8477084" lon="10.4408763"><ele>32.666666666666664</ele><time>2026-04-20T15:05:19.283Z</time></trkpt><trkpt lat="44.8477311" lon="10.4407788"><ele>32.5</ele><time>2026-04-20T15:05:20.284Z</time></trkpt><trkpt lat="44.8477437" lon="10.4406909"><ele>32.33333333333333</ele><time>2026-04-20T15:05:21.283Z</time></trkpt><trkpt lat="44.8477565" lon="10.4405984"><ele>32.166666666666664</ele><time>2026-04-20T15:05:22.284Z</time></trkpt><trkpt lat="44.8477712" lon="10.4405038"><ele>32.0</ele><time>2026-04-20T15:05:23.283Z</time></trkpt><trkpt lat="44.8478368" lon="10.440281"><ele>31.999999999999996</ele><time>2026-04-20T15:05:26.283Z</time></trkpt><trkpt lat="44.8478595" lon="10.4401927"><ele>32.0</ele><time>2026-04-20T15:05:27.283Z</time></trkpt><trkpt lat="44.8478701" lon="10.4401029"><ele>32.0</ele><time>2026-04-20T15:05:28.283Z</time></trkpt><trkpt lat="44.8478885" lon="10.4400101"><ele>32.0</ele><time>2026-04-20T15:05:29.283Z</time></trkpt><trkpt lat="44.8479083" lon="10.4399167"><ele>31.999999999999996</ele><time>2026-04-20T15:05:30.283Z</time></trkpt><trkpt lat="44.8479384" lon="10.4397463"><ele>32.0</ele><time>2026-04-20T15:05:32.283Z</time></trkpt><trkpt lat="44.8479733" lon="10.4395954"><ele>31.999999999999996</ele><time>2026-04-20T15:05:34.283Z</time></trkpt><trkpt lat="44.8480016" lon="10.4394331"><ele>32.0</ele><time>2026-04-20T15:05:36.284Z</time></trkpt><trkpt lat="44.8480178" lon="10.4393456"><ele>32.0</ele><time>2026-04-20T15:05:37.283Z</time></trkpt><trkpt lat="44.8480296" lon="10.4392562"><ele>32.0</ele><time>2026-04-20T15:05:38.283Z</time></trkpt><trkpt lat="44.8480513" lon="10.4391592"><ele>31.999999999999996</ele><time>2026-04-20T15:05:39.283Z</time></trkpt><trkpt lat="44.8480756" lon="10.4390719"><ele>32.0</ele><time>2026-04-20T15:05:40.283Z</time></trkpt><trkpt lat="44.848112" lon="10.4389056"><ele>32.0</ele><time>2026-04-20T15:05:42.283Z</time></trkpt><trkpt lat="44.848131" lon="10.4388146"><ele>31.999999999999996</ele><time>2026-04-20T15:05:43.283Z</time></trkpt><trkpt lat="44.8481507" lon="10.4387266"><ele>32.0</ele><time>2026-04-20T15:05:44.284Z</time></trkpt><trkpt lat="44.8481587" lon="10.4386326"><ele>32.0</ele><time>2026-04-20T15:05:45.284Z</time></trkpt><trkpt lat="44.8481933" lon="10.4385301"><ele>31.999999999999996</ele><time>2026-04-20T15:05:47.283Z</time></trkpt><trkpt lat="44.8482451" lon="10.4384118"><ele>32.0</ele><time>2026-04-20T15:05:49.283Z</time></trkpt><trkpt lat="44.8482624" lon="10.438325"><ele>32.0</ele><time>2026-04-20T15:05:50.283Z</time></trkpt><trkpt lat="44.8482842" lon="10.4382316"><ele>31.8</ele><time>2026-04-20T15:05:51.283Z</time></trkpt><trkpt lat="44.8483059" lon="10.4380673"><ele>31.6</ele><time>2026-04-20T15:05:53.283Z</time></trkpt><trkpt lat="44.8483094" lon="10.4378945"><ele>31.400000000000002</ele><time>2026-04-20T15:05:55.283Z</time></trkpt><trkpt lat="44.8483057" lon="10.4378022"><ele>31.200000000000003</ele><time>2026-04-20T15:05:56.284Z</time></trkpt><trkpt lat="44.8483124" lon="10.4377131"><ele>31.0</ele><time>2026-04-20T15:05:57.283Z</time></trkpt><trkpt lat="44.84832" lon="10.4375229"><ele>31.0</ele><time>2026-04-20T15:05:59.283Z</time></trkpt><trkpt lat="44.8483186" lon="10.4374291"><ele>31.0</ele><time>2026-04-20T15:06:00.284Z</time></trkpt><trkpt lat="44.8483252" lon="10.437151"><ele>31.0</ele><time>2026-04-20T15:06:04.283Z</time></trkpt><trkpt lat="44.8483387" lon="10.4370141"><ele>31.0</ele><time>2026-04-20T15:06:06.283Z</time></trkpt><trkpt lat="44.8483464" lon="10.4368824"><ele>30.833333333333336</ele><time>2026-04-20T15:06:08.283Z</time></trkpt><trkpt lat="44.8483604" lon="10.4367574"><ele>30.666666666666668</ele><time>2026-04-20T15:06:10.283Z</time></trkpt><trkpt lat="44.8483699" lon="10.4366339"><ele>30.5</ele><time>2026-04-20T15:06:12.283Z</time></trkpt><trkpt lat="44.8483779" lon="10.4365104"><ele>30.333333333333336</ele><time>2026-04-20T15:06:14.284Z</time></trkpt><trkpt lat="44.8483752" lon="10.4363885"><ele>30.166666666666668</ele><time>2026-04-20T15:06:16.283Z</time></trkpt><trkpt lat="44.8483837" lon="10.4362796"><ele>30.0</ele><time>2026-04-20T15:06:18.284Z</time></trkpt><trkpt lat="44.8484028" lon="10.4361485"><ele>30.0</ele><time>2026-04-20T15:06:21.284Z</time></trkpt><trkpt lat="44.8483777" lon="10.4360413"><ele>30.0</ele><time>2026-04-20T15:06:24.283Z</time></trkpt><trkpt lat="44.8483284" lon="10.4361452"><ele>30.0</ele><time>2026-04-20T15:06:27.284Z</time></trkpt><trkpt lat="44.8483397" lon="10.4362508"><ele>30.0</ele><time>2026-04-20T15:06:29.284Z</time></trkpt><trkpt lat="44.8483437" lon="10.4363738"><ele>30.0</ele><time>2026-04-20T15:06:31.284Z</time></trkpt><trkpt lat="44.8483385" lon="10.4364959"><ele>30.0</ele><time>2026-04-20T15:06:33.284Z</time></trkpt><trkpt lat="44.8483297" lon="10.4366218"><ele>30.0</ele><time>2026-04-20T15:06:35.284Z</time></trkpt><trkpt lat="44.8483446" lon="10.4367701"><ele>30.0</ele><time>2026-04-20T15:06:37.283Z</time></trkpt><trkpt lat="44.8483207" lon="10.4368805"><ele>30.0</ele><time>2026-04-20T15:06:39.284Z</time></trkpt><trkpt lat="44.8483023" lon="10.4370501"><ele>30.0</ele><time>2026-04-20T15:06:41.284Z</time></trkpt><trkpt lat="44.8482817" lon="10.4371679"><ele>30.0</ele><time>2026-04-20T15:06:43.284Z</time></trkpt><trkpt lat="44.8482639" lon="10.4373078"><ele>30.2</ele><time>2026-04-20T15:06:45.284Z</time></trkpt><trkpt lat="44.8482405" lon="10.4374553"><ele>30.4</ele><time>2026-04-20T15:06:47.284Z</time></trkpt><trkpt lat="44.8482452" lon="10.4376171"><ele>30.6</ele><time>2026-04-20T15:06:49.284Z</time></trkpt><trkpt lat="44.8482118" lon="10.4376933"><ele>30.8</ele><time>2026-04-20T15:06:50.283Z</time></trkpt><trkpt lat="44.8481948" lon="10.4378655"><ele>31.0</ele><time>2026-04-20T15:06:52.283Z</time></trkpt><trkpt lat="44.8481752" lon="10.4380273"><ele>31.0</ele><time>2026-04-20T15:06:54.284Z</time></trkpt><trkpt lat="44.8481644" lon="10.438192"><ele>31.0</ele><time>2026-04-20T15:06:56.284Z</time></trkpt><trkpt lat="44.848139" lon="10.4383527"><ele>31.0</ele><time>2026-04-20T15:06:58.283Z</time></trkpt><trkpt lat="44.8481253" lon="10.4384402"><ele>31.0</ele><time>2026-04-20T15:06:59.284Z</time></trkpt><trkpt lat="44.8480933" lon="10.438592"><ele>31.0</ele><time>2026-04-20T15:07:01.283Z</time></trkpt><trkpt lat="44.8480583" lon="10.4387459"><ele>31.166666666666668</ele><time>2026-04-20T15:07:03.283Z</time></trkpt><trkpt lat="44.8480363" lon="10.4388897"><ele>31.333333333333336</ele><time>2026-04-20T15:07:05.284Z</time></trkpt><trkpt lat="44.8480174" lon="10.4389968"><ele>31.5</ele><time>2026-04-20T15:07:07.283Z</time></trkpt><trkpt lat="44.8480037" lon="10.4391159"><ele>31.666666666666664</ele><time>2026-04-20T15:07:09.283Z</time></trkpt><trkpt lat="44.8479822" lon="10.4392313"><ele>31.833333333333332</ele><time>2026-04-20T15:07:11.283Z</time></trkpt><trkpt lat="44.8479034" lon="10.4392368"><ele>32.0</ele><time>2026-04-20T15:07:14.283Z</time></trkpt><trkpt lat="44.8478133" lon="10.4392076"><ele>32.0</ele><time>2026-04-20T15:07:17.284Z</time></trkpt><trkpt lat="44.8477313" lon="10.4391823"><ele>31.999999999999996</ele><time>2026-04-20T15:07:20.284Z</time></trkpt><trkpt lat="44.8476591" lon="10.4391667"><ele>32.0</ele><time>2026-04-20T15:07:22.284Z</time></trkpt><trkpt lat="44.8475982" lon="10.439141"><ele>32.0</ele><time>2026-04-20T15:07:24.283Z</time></trkpt><trkpt lat="44.8475326" lon="10.4391138"><ele>31.999999999999996</ele><time>2026-04-20T15:07:26.284Z</time></trkpt><trkpt lat="44.847463" lon="10.4390912"><ele>32.0</ele><time>2026-04-20T15:07:28.284Z</time></trkpt><trkpt lat="44.8473863" lon="10.4390744"><ele>32.0</ele><time>2026-04-20T15:07:30.283Z</time></trkpt><trkpt lat="44.8473056" lon="10.4390485"><ele>32.0</ele><time>2026-04-20T15:07:32.284Z</time></trkpt><trkpt lat="44.8472333" lon="10.4390158"><ele>31.999999999999996</ele><time>2026-04-20T15:07:34.284Z</time></trkpt><trkpt lat="44.8471662" lon="10.4389829"><ele>32.0</ele><time>2026-04-20T15:07:36.283Z</time></trkpt><trkpt lat="44.847097" lon="10.438961"><ele>32.0</ele><time>2026-04-20T15:07:38.284Z</time></trkpt><trkpt lat="44.8470288" lon="10.4388955"><ele>31.999999999999996</ele><time>2026-04-20T15:07:41.284Z</time></trkpt><trkpt lat="44.8470453" lon="10.438803"><ele>32.0</ele><time>2026-04-20T15:07:43.284Z</time></trkpt><trkpt lat="44.8470715" lon="10.4387024"><ele>32.0</ele><time>2026-04-20T15:07:45.283Z</time></trkpt><trkpt lat="44.8470935" lon="10.4386127"><ele>31.857142857142854</ele><time>2026-04-20T15:07:47.283Z</time></trkpt><trkpt lat="44.8471163" lon="10.4385199"><ele>31.71428571428571</ele><time>2026-04-20T15:07:49.284Z</time></trkpt><trkpt lat="44.8471248" lon="10.438421"><ele>31.57142857142857</ele><time>2026-04-20T15:07:51.283Z</time></trkpt><trkpt lat="44.8470943" lon="10.4383276"><ele>31.42857142857143</ele><time>2026-04-20T15:07:53.283Z</time></trkpt><trkpt lat="44.8470247" lon="10.4382625"><ele>31.28571428571429</ele><time>2026-04-20T15:07:55.283Z</time></trkpt><trkpt lat="44.8469611" lon="10.4382561"><ele>31.142857142857146</ele><time>2026-04-20T15:07:56.283Z</time></trkpt><trkpt lat="44.8468842" lon="10.4382214"><ele>31.0</ele><time>2026-04-20T15:07:58.283Z</time></trkpt><trkpt lat="44.8468043" lon="10.438154"><ele>31.0</ele><time>2026-04-20T15:08:00.283Z</time></trkpt><trkpt lat="44.8467191" lon="10.4380796"><ele>31.0</ele><time>2026-04-20T15:08:02.284Z</time></trkpt><trkpt lat="44.8466179" lon="10.4380325"><ele>31.0</ele><time>2026-04-20T15:08:04.284Z</time></trkpt><trkpt lat="44.846525" lon="10.4380043"><ele>31.0</ele><time>2026-04-20T15:08:06.283Z</time></trkpt><trkpt lat="44.8464188" lon="10.4379816"><ele>31.0</ele><time>2026-04-20T15:08:08.283Z</time></trkpt><trkpt lat="44.8463167" lon="10.4379387"><ele>31.0</ele><time>2026-04-20T15:08:10.283Z</time></trkpt><trkpt lat="44.8462237" lon="10.4378834"><ele>31.0</ele><time>2026-04-20T15:08:12.284Z</time></trkpt><trkpt lat="44.8461172" lon="10.4378498"><ele>31.0</ele><time>2026-04-20T15:08:14.283Z</time></trkpt><trkpt lat="44.8460421" lon="10.4377985"><ele>31.0</ele><time>2026-04-20T15:08:16.284Z</time></trkpt><trkpt lat="44.8459412" lon="10.4377565"><ele>31.0</ele><time>2026-04-20T15:08:18.283Z</time></trkpt><trkpt lat="44.845838" lon="10.4377237"><ele>31.200000000000003</ele><time>2026-04-20T15:08:20.283Z</time></trkpt><trkpt lat="44.8457467" lon="10.4376717"><ele>31.400000000000002</ele><time>2026-04-20T15:08:22.284Z</time></trkpt><trkpt lat="44.8456378" lon="10.4376328"><ele>31.6</ele><time>2026-04-20T15:08:24.283Z</time></trkpt><trkpt lat="44.8455489" lon="10.4375975"><ele>31.8</ele><time>2026-04-20T15:08:26.283Z</time></trkpt><trkpt lat="44.8454559" lon="10.4375656"><ele>32.0</ele><time>2026-04-20T15:08:28.284Z</time></trkpt><trkpt lat="44.8454028" lon="10.4374673"><ele>32.0</ele><time>2026-04-20T15:08:31.283Z</time></trkpt><trkpt lat="44.8454171" lon="10.4373656"><ele>32.0</ele><time>2026-04-20T15:08:33.284Z</time></trkpt><trkpt lat="44.8454455" lon="10.4372539"><ele>32.0</ele><time>2026-04-20T15:08:35.284Z</time></trkpt><trkpt lat="44.8454505" lon="10.4371238"><ele>32.0</ele><time>2026-04-20T15:08:37.284Z</time></trkpt><trkpt lat="44.8454697" lon="10.4369917"><ele>32.0</ele><time>2026-04-20T15:08:39.284Z</time></trkpt><trkpt lat="44.8454977" lon="10.4368439"><ele>32.0</ele><time>2026-04-20T15:08:41.283Z</time></trkpt><trkpt lat="44.8455129" lon="10.4366856"><ele>32.0</ele><time>2026-04-20T15:08:43.284Z</time></trkpt><trkpt lat="44.8455413" lon="10.4365324"><ele>32.0</ele><time>2026-04-20T15:08:45.283Z</time></trkpt><trkpt lat="44.8455748" lon="10.436369"><ele>32.0</ele><time>2026-04-20T15:08:47.284Z</time></trkpt><trkpt lat="44.8456019" lon="10.4362075"><ele>31.6</ele><time>2026-04-20T15:08:49.284Z</time></trkpt><trkpt lat="44.8456176" lon="10.4361163"><ele>31.200000000000003</ele><time>2026-04-20T15:08:50.284Z</time></trkpt><trkpt lat="44.8456462" lon="10.4359362"><ele>30.8</ele><time>2026-04-20T15:08:52.284Z</time></trkpt><trkpt lat="44.8456691" lon="10.4357614"><ele>30.4</ele><time>2026-04-20T15:08:54.283Z</time></trkpt><trkpt lat="44.8456878" lon="10.4356711"><ele>30.0</ele><time>2026-04-20T15:08:55.284Z</time></trkpt><trkpt lat="44.8457146" lon="10.4354964"><ele>30.2</ele><time>2026-04-20T15:08:57.283Z</time></trkpt><trkpt lat="44.8457442" lon="10.4353327"><ele>30.4</ele><time>2026-04-20T15:08:59.283Z</time></trkpt><trkpt lat="44.8457633" lon="10.4351698"><ele>30.6</ele><time>2026-04-20T15:09:01.284Z</time></trkpt><trkpt lat="44.8457803" lon="10.4350799"><ele>30.8</ele><time>2026-04-20T15:09:02.284Z</time></trkpt><trkpt lat="44.8457834" lon="10.4349236"><ele>31.0</ele><time>2026-04-20T15:09:04.283Z</time></trkpt><trkpt lat="44.8457215" lon="10.4348016"><ele>31.0</ele><time>2026-04-20T15:09:06.283Z</time></trkpt><trkpt lat="44.845625" lon="10.4347359"><ele>31.0</ele><time>2026-04-20T15:09:08.283Z</time></trkpt><trkpt lat="44.8455354" lon="10.434717"><ele>31.0</ele><time>2026-04-20T15:09:10.283Z</time></trkpt><trkpt lat="44.8454337" lon="10.4346728"><ele>31.0</ele><time>2026-04-20T15:09:12.284Z</time></trkpt><trkpt lat="44.8453307" lon="10.4346273"><ele>31.0</ele><time>2026-04-20T15:09:14.284Z</time></trkpt><trkpt lat="44.8452385" lon="10.4346042"><ele>31.0</ele><time>2026-04-20T15:09:16.283Z</time></trkpt><trkpt lat="44.8451312" lon="10.4345657"><ele>31.0</ele><time>2026-04-20T15:09:18.283Z</time></trkpt><trkpt lat="44.8450238" lon="10.4345384"><ele>31.0</ele><time>2026-04-20T15:09:20.283Z</time></trkpt><trkpt lat="44.8449182" lon="10.4345226"><ele>31.0</ele><time>2026-04-20T15:09:22.284Z</time></trkpt><trkpt lat="44.8448114" lon="10.4344779"><ele>31.0</ele><time>2026-04-20T15:09:24.283Z</time></trkpt><trkpt lat="44.8447517" lon="10.4344488"><ele>31.0</ele><time>2026-04-20T15:09:25.283Z</time></trkpt><trkpt lat="44.84465" lon="10.4344099"><ele>31.0</ele><time>2026-04-20T15:09:27.284Z</time></trkpt><trkpt lat="44.8445092" lon="10.4343494"><ele>31.0</ele><time>2026-04-20T15:09:30.283Z</time></trkpt><trkpt lat="44.8443987" lon="10.434292"><ele>31.0</ele><time>2026-04-20T15:09:32.284Z</time></trkpt><trkpt lat="44.8442691" lon="10.434242"><ele>31.4</ele><time>2026-04-20T15:09:34.283Z</time></trkpt><trkpt lat="44.8441341" lon="10.4342039"><ele>31.8</ele><time>2026-04-20T15:09:36.284Z</time></trkpt><trkpt lat="44.8440716" lon="10.4341841"><ele>32.199999999999996</ele><time>2026-04-20T15:09:37.284Z</time></trkpt><trkpt lat="44.8439748" lon="10.4341322"><ele>32.6</ele><time>2026-04-20T15:09:39.284Z</time></trkpt><trkpt lat="44.8438693" lon="10.4340979"><ele>33.0</ele><time>2026-04-20T15:09:41.284Z</time></trkpt><trkpt lat="44.8437608" lon="10.4340514"><ele>33.0</ele><time>2026-04-20T15:09:43.283Z</time></trkpt><trkpt lat="44.8436485" lon="10.434005"><ele>33.0</ele><time>2026-04-20T15:09:45.284Z</time></trkpt><trkpt lat="44.8435433" lon="10.4339735"><ele>33.0</ele><time>2026-04-20T15:09:47.284Z</time></trkpt><trkpt lat="44.8434331" lon="10.4339284"><ele>33.0</ele><time>2026-04-20T15:09:49.284Z</time></trkpt><trkpt lat="44.8433226" lon="10.4338849"><ele>32.6</ele><time>2026-04-20T15:09:51.283Z</time></trkpt><trkpt lat="44.8432623" lon="10.4338584"><ele>32.199999999999996</ele><time>2026-04-20T15:09:52.284Z</time></trkpt><trkpt lat="44.8431388" lon="10.433816"><ele>31.8</ele><time>2026-04-20T15:09:54.283Z</time></trkpt><trkpt lat="44.8430309" lon="10.4337887"><ele>31.4</ele><time>2026-04-20T15:09:56.284Z</time></trkpt><trkpt lat="44.8429311" lon="10.4337559"><ele>31.0</ele><time>2026-04-20T15:09:58.284Z</time></trkpt><trkpt lat="44.8428143" lon="10.4336999"><ele>30.8</ele><time>2026-04-20T15:10:00.284Z</time></trkpt><trkpt lat="44.842748" lon="10.4336777"><ele>30.6</ele><time>2026-04-20T15:10:01.284Z</time></trkpt><trkpt lat="44.8426408" lon="10.4336413"><ele>30.4</ele><time>2026-04-20T15:10:03.284Z</time></trkpt><trkpt lat="44.8425263" lon="10.4335944"><ele>30.2</ele><time>2026-04-20T15:10:05.284Z</time></trkpt><trkpt lat="44.8424111" lon="10.4335479"><ele>30.0</ele><time>2026-04-20T15:10:07.284Z</time></trkpt><trkpt lat="44.8423444" lon="10.4335277"><ele>30.0</ele><time>2026-04-20T15:10:08.284Z</time></trkpt><trkpt lat="44.8422833" lon="10.4335051"><ele>30.0</ele><time>2026-04-20T15:10:09.284Z</time></trkpt><trkpt lat="44.8422168" lon="10.4334967"><ele>30.0</ele><time>2026-04-20T15:10:10.284Z</time></trkpt><trkpt lat="44.8421538" lon="10.4334858"><ele>30.0</ele><time>2026-04-20T15:10:11.283Z</time></trkpt><trkpt lat="44.8420509" lon="10.4334469"><ele>30.0</ele><time>2026-04-20T15:10:13.284Z</time></trkpt><trkpt lat="44.8419358" lon="10.4333838"><ele>30.0</ele><time>2026-04-20T15:10:15.284Z</time></trkpt><trkpt lat="44.841817" lon="10.4333469"><ele>30.0</ele><time>2026-04-20T15:10:17.284Z</time></trkpt><trkpt lat="44.8417058" lon="10.4332971"><ele>30.0</ele><time>2026-04-20T15:10:19.283Z</time></trkpt><trkpt lat="44.8415921" lon="10.4332744"><ele>30.0</ele><time>2026-04-20T15:10:21.284Z</time></trkpt><trkpt lat="44.8414878" lon="10.4332284"><ele>30.0</ele><time>2026-04-20T15:10:23.283Z</time></trkpt><trkpt lat="44.8413927" lon="10.4331835"><ele>30.0</ele><time>2026-04-20T15:10:25.284Z</time></trkpt><trkpt lat="44.8412989" lon="10.4331382"><ele>30.0</ele><time>2026-04-20T15:10:27.284Z</time></trkpt><trkpt lat="44.8412007" lon="10.4331132"><ele>30.0</ele><time>2026-04-20T15:10:29.283Z</time></trkpt><trkpt lat="44.8411107" lon="10.4330846"><ele>30.0</ele><time>2026-04-20T15:10:31.283Z</time></trkpt><trkpt lat="44.8410194" lon="10.4330685"><ele>30.0</ele><time>2026-04-20T15:10:33.284Z</time></trkpt><trkpt lat="44.8409369" lon="10.4330165"><ele>30.0</ele><time>2026-04-20T15:10:35.284Z</time></trkpt><trkpt lat="44.8408525" lon="10.4329658"><ele>30.166666666666668</ele><time>2026-04-20T15:10:37.283Z</time></trkpt><trkpt lat="44.8407628" lon="10.4329276"><ele>30.333333333333336</ele><time>2026-04-20T15:10:39.283Z</time></trkpt><trkpt lat="44.840679" lon="10.4328903"><ele>30.5</ele><time>2026-04-20T15:10:41.284Z</time></trkpt><trkpt lat="44.8405922" lon="10.4328852"><ele>30.666666666666668</ele><time>2026-04-20T15:10:44.283Z</time></trkpt><trkpt lat="44.840531" lon="10.4328642"><ele>30.833333333333336</ele><time>2026-04-20T15:10:46.284Z</time></trkpt><trkpt lat="44.8404546" lon="10.4327697"><ele>31.0</ele><time>2026-04-20T15:10:49.284Z</time></trkpt><trkpt lat="44.8404022" lon="10.4326718"><ele>31.0</ele><time>2026-04-20T15:10:51.283Z</time></trkpt><trkpt lat="44.8403091" lon="10.4326036"><ele>31.0</ele><time>2026-04-20T15:10:53.284Z</time></trkpt><trkpt lat="44.8402147" lon="10.4326118"><ele>31.0</ele><time>2026-04-20T15:10:55.283Z</time></trkpt><trkpt lat="44.8401486" lon="10.4327501"><ele>31.0</ele><time>2026-04-20T15:10:58.284Z</time></trkpt><trkpt lat="44.8401334" lon="10.432875"><ele>31.0</ele><time>2026-04-20T15:11:00.283Z</time></trkpt><trkpt lat="44.8402043" lon="10.4328939"><ele>31.0</ele><time>2026-04-20T15:11:01.283Z</time></trkpt><trkpt lat="44.8402561" lon="10.4329821"><ele>31.0</ele><time>2026-04-20T15:11:03.284Z</time></trkpt><trkpt lat="44.8403567" lon="10.4329827"><ele>31.0</ele><time>2026-04-20T15:11:05.283Z</time></trkpt><trkpt lat="44.8404288" lon="10.4329224"><ele>31.0</ele><time>2026-04-20T15:11:07.283Z</time></trkpt><trkpt lat="44.8405389" lon="10.4329409"><ele>31.0</ele><time>2026-04-20T15:11:09.283Z</time></trkpt><trkpt lat="44.8406277" lon="10.4329756"><ele>30.8</ele><time>2026-04-20T15:11:11.283Z</time></trkpt><trkpt lat="44.8408086" lon="10.4330577"><ele>30.6</ele><time>2026-04-20T15:11:15.284Z</time></trkpt><trkpt lat="44.8408788" lon="10.4330825"><ele>30.4</ele><time>2026-04-20T15:11:17.283Z</time></trkpt><trkpt lat="44.840958" lon="10.4331115"><ele>30.2</ele><time>2026-04-20T15:11:19.284Z</time></trkpt><trkpt lat="44.8410332" lon="10.4331374"><ele>30.0</ele><time>2026-04-20T15:11:21.284Z</time></trkpt><trkpt lat="44.8411215" lon="10.4331567"><ele>30.0</ele><time>2026-04-20T15:11:24.284Z</time></trkpt><trkpt lat="44.8411847" lon="10.4331845"><ele>30.0</ele><time>2026-04-20T15:11:26.284Z</time></trkpt><trkpt lat="44.841254" lon="10.4332134"><ele>30.0</ele><time>2026-04-20T15:11:28.284Z</time></trkpt><trkpt lat="44.8413387" lon="10.4332342"><ele>30.0</ele><time>2026-04-20T15:11:30.283Z</time></trkpt><trkpt lat="44.8414204" lon="10.433268"><ele>30.0</ele><time>2026-04-20T15:11:32.284Z</time></trkpt><trkpt lat="44.8414829" lon="10.4332859"><ele>30.0</ele><time>2026-04-20T15:11:33.284Z</time></trkpt><trkpt lat="44.841585" lon="10.4333248"><ele>30.0</ele><time>2026-04-20T15:11:35.284Z</time></trkpt><trkpt lat="44.8416565" lon="10.433343"><ele>30.0</ele><time>2026-04-20T15:11:36.283Z</time></trkpt><trkpt lat="44.8417643" lon="10.433378"><ele>30.0</ele><time>2026-04-20T15:11:38.284Z</time></trkpt><trkpt lat="44.8418744" lon="10.4334294"><ele>30.0</ele><time>2026-04-20T15:11:40.284Z</time></trkpt><trkpt lat="44.8419839" lon="10.4334715"><ele>30.0</ele><time>2026-04-20T15:11:42.283Z</time></trkpt><trkpt lat="44.8421007" lon="10.4335108"><ele>30.0</ele><time>2026-04-20T15:11:44.283Z</time></trkpt><trkpt lat="44.8422194" lon="10.4335479"><ele>30.0</ele><time>2026-04-20T15:11:46.284Z</time></trkpt><trkpt lat="44.8423397" lon="10.4335976"><ele>30.0</ele><time>2026-04-20T15:11:48.283Z</time></trkpt><trkpt lat="44.8424684" lon="10.4336289"><ele>30.0</ele><time>2026-04-20T15:11:50.284Z</time></trkpt><trkpt lat="44.8425929" lon="10.4336634"><ele>30.0</ele><time>2026-04-20T15:11:52.283Z</time></trkpt><trkpt lat="44.842658" lon="10.4336848"><ele>30.0</ele><time>2026-04-20T15:11:53.284Z</time></trkpt><trkpt lat="44.8427203" lon="10.4337101"><ele>30.0</ele><time>2026-04-20T15:11:54.283Z</time></trkpt><trkpt lat="44.8428331" lon="10.4337703"><ele>30.0</ele><time>2026-04-20T15:11:56.284Z</time></trkpt><trkpt lat="44.8429491" lon="10.4338151"><ele>30.0</ele><time>2026-04-20T15:11:58.283Z</time></trkpt><trkpt lat="44.84307" lon="10.4338394"><ele>30.2</ele><time>2026-04-20T15:12:00.283Z</time></trkpt><trkpt lat="44.8431843" lon="10.4338814"><ele>30.4</ele><time>2026-04-20T15:12:02.284Z</time></trkpt><trkpt lat="44.8432925" lon="10.4339323"><ele>30.6</ele><time>2026-04-20T15:12:04.284Z</time></trkpt><trkpt lat="44.8433529" lon="10.4339576"><ele>30.8</ele><time>2026-04-20T15:12:05.283Z</time></trkpt><trkpt lat="44.8434618" lon="10.4339884"><ele>31.0</ele><time>2026-04-20T15:12:07.284Z</time></trkpt><trkpt lat="44.8435624" lon="10.4339652"><ele>31.0</ele><time>2026-04-20T15:12:09.284Z</time></trkpt><trkpt lat="44.8436437" lon="10.4338706"><ele>31.0</ele><time>2026-04-20T15:12:11.284Z</time></trkpt><trkpt lat="44.8437105" lon="10.433768"><ele>31.0</ele><time>2026-04-20T15:12:13.284Z</time></trkpt><trkpt lat="44.8437483" lon="10.4336385"><ele>31.0</ele><time>2026-04-20T15:12:15.284Z</time></trkpt><trkpt lat="44.8437758" lon="10.4335266"><ele>31.0</ele><time>2026-04-20T15:12:17.283Z</time></trkpt><trkpt lat="44.8438089" lon="10.4334028"><ele>31.0</ele><time>2026-04-20T15:12:20.283Z</time></trkpt><trkpt lat="44.8438263" lon="10.4333158"><ele>31.000000000000004</ele><time>2026-04-20T15:12:22.283Z</time></trkpt><trkpt lat="44.8438343" lon="10.4332137"><ele>31.0</ele><time>2026-04-20T15:12:24.283Z</time></trkpt><trkpt lat="44.84386" lon="10.4330838"><ele>31.0</ele><time>2026-04-20T15:12:27.283Z</time></trkpt><trkpt lat="44.8438786" lon="10.4329867"><ele>31.000000000000004</ele><time>2026-04-20T15:12:29.283Z</time></trkpt><trkpt lat="44.8438995" lon="10.4329009"><ele>31.0</ele><time>2026-04-20T15:12:31.284Z</time></trkpt><trkpt lat="44.8439226" lon="10.432794"><ele>31.0</ele><time>2026-04-20T15:12:34.283Z</time></trkpt><trkpt lat="44.8439352" lon="10.4326751"><ele>31.0</ele><time>2026-04-20T15:12:37.284Z</time></trkpt><trkpt lat="44.8439524" lon="10.4325769"><ele>31.0</ele><time>2026-04-20T15:12:39.283Z</time></trkpt><trkpt lat="44.8439751" lon="10.4324606"><ele>31.0</ele><time>2026-04-20T15:12:41.284Z</time></trkpt><trkpt lat="44.8440243" lon="10.4323259"><ele>31.0</ele><time>2026-04-20T15:12:43.283Z</time></trkpt><trkpt lat="44.8440496" lon="10.4321834"><ele>31.0</ele><time>2026-04-20T15:12:45.283Z</time></trkpt><trkpt lat="44.844078" lon="10.4320655"><ele>31.000000000000004</ele><time>2026-04-20T15:12:47.283Z</time></trkpt><trkpt lat="44.8440963" lon="10.4319675"><ele>31.0</ele><time>2026-04-20T15:12:48.284Z</time></trkpt><trkpt lat="44.8441138" lon="10.4318134"><ele>31.0</ele><time>2026-04-20T15:12:50.284Z</time></trkpt><trkpt lat="44.8441362" lon="10.4316519"><ele>31.0</ele><time>2026-04-20T15:12:52.283Z</time></trkpt><trkpt lat="44.8441742" lon="10.4315563"><ele>31.000000000000004</ele><time>2026-04-20T15:12:54.284Z</time></trkpt><trkpt lat="44.8442428" lon="10.4315718"><ele>31.0</ele><time>2026-04-20T15:12:56.283Z</time></trkpt><trkpt lat="44.8443319" lon="10.4315741"><ele>30.8</ele><time>2026-04-20T15:12:58.283Z</time></trkpt><trkpt lat="44.8444486" lon="10.4315407"><ele>30.6</ele><time>2026-04-20T15:13:00.283Z</time></trkpt><trkpt lat="44.8445339" lon="10.4314465"><ele>30.4</ele><time>2026-04-20T15:13:02.283Z</time></trkpt><trkpt lat="44.8445804" lon="10.43133"><ele>30.2</ele><time>2026-04-20T15:13:04.284Z</time></trkpt><trkpt lat="44.8445357" lon="10.4312238"><ele>30.0</ele><time>2026-04-20T15:13:06.284Z</time></trkpt><trkpt lat="44.8444621" lon="10.4311207"><ele>30.0</ele><time>2026-04-20T15:13:08.283Z</time></trkpt><trkpt lat="44.8443996" lon="10.4309909"><ele>30.0</ele><time>2026-04-20T15:13:10.284Z</time></trkpt><trkpt lat="44.8443627" lon="10.4308448"><ele>30.0</ele><time>2026-04-20T15:13:12.283Z</time></trkpt><trkpt lat="44.8443592" lon="10.4307543"><ele>30.0</ele><time>2026-04-20T15:13:13.283Z</time></trkpt><trkpt lat="44.8443777" lon="10.4305878"><ele>30.0</ele><time>2026-04-20T15:13:15.284Z</time></trkpt><trkpt lat="44.8443856" lon="10.4304951"><ele>30.0</ele><time>2026-04-20T15:13:16.284Z</time></trkpt><trkpt lat="44.8443936" lon="10.4304001"><ele>30.0</ele><time>2026-04-20T15:13:17.283Z</time></trkpt><trkpt lat="44.844401" lon="10.4303051"><ele>30.0</ele><time>2026-04-20T15:13:18.283Z</time></trkpt><trkpt lat="44.8444025" lon="10.4302088"><ele>30.0</ele><time>2026-04-20T15:13:19.284Z</time></trkpt><trkpt lat="44.8444162" lon="10.4300309"><ele>30.0</ele><time>2026-04-20T15:13:21.283Z</time></trkpt><trkpt lat="44.8444331" lon="10.4298486"><ele>30.0</ele><time>2026-04-20T15:13:23.284Z</time></trkpt><trkpt lat="44.8444434" lon="10.4296791"><ele>30.0</ele><time>2026-04-20T15:13:25.284Z</time></trkpt><trkpt lat="44.8444485" lon="10.429589"><ele>30.0</ele><time>2026-04-20T15:13:26.284Z</time></trkpt><trkpt lat="44.8444837" lon="10.4294182"><ele>30.0</ele><time>2026-04-20T15:13:28.283Z</time></trkpt><trkpt lat="44.8444984" lon="10.4292461"><ele>30.0</ele><time>2026-04-20T15:13:30.284Z</time></trkpt><trkpt lat="44.8445011" lon="10.4290775"><ele>29.833333333333332</ele><time>2026-04-20T15:13:32.284Z</time></trkpt><trkpt lat="44.84449" lon="10.4288876"><ele>29.666666666666664</ele><time>2026-04-20T15:13:34.283Z</time></trkpt><trkpt lat="44.8444878" lon="10.4287951"><ele>29.5</ele><time>2026-04-20T15:13:35.284Z</time></trkpt><trkpt lat="44.8444906" lon="10.4286816"><ele>29.333333333333332</ele><time>2026-04-20T15:13:36.284Z</time></trkpt><trkpt lat="44.8444986" lon="10.4285819"><ele>29.166666666666664</ele><time>2026-04-20T15:13:37.284Z</time></trkpt><trkpt lat="44.8445023" lon="10.4284914"><ele>29.0</ele><time>2026-04-20T15:13:38.284Z</time></trkpt><trkpt lat="44.8445069" lon="10.4283145"><ele>29.000000000000004</ele><time>2026-04-20T15:13:40.283Z</time></trkpt><trkpt lat="44.8445164" lon="10.4282147"><ele>29.0</ele><time>2026-04-20T15:13:41.284Z</time></trkpt><trkpt lat="44.8445163" lon="10.4281206"><ele>29.000000000000004</ele><time>2026-04-20T15:13:42.284Z</time></trkpt><trkpt lat="44.8445169" lon="10.4280165"><ele>29.000000000000004</ele><time>2026-04-20T15:13:43.284Z</time></trkpt><trkpt lat="44.8445229" lon="10.4279243"><ele>29.0</ele><time>2026-04-20T15:13:44.283Z</time></trkpt><trkpt lat="44.8445238" lon="10.4278247"><ele>29.000000000000004</ele><time>2026-04-20T15:13:45.283Z</time></trkpt><trkpt lat="44.8445287" lon="10.4277212"><ele>29.000000000000004</ele><time>2026-04-20T15:13:46.283Z</time></trkpt><trkpt lat="44.8445401" lon="10.427633"><ele>29.166666666666664</ele><time>2026-04-20T15:13:47.283Z</time></trkpt><trkpt lat="44.8445417" lon="10.4275369"><ele>29.333333333333332</ele><time>2026-04-20T15:13:48.284Z</time></trkpt><trkpt lat="44.8445464" lon="10.4274445"><ele>29.5</ele><time>2026-04-20T15:13:49.283Z</time></trkpt><trkpt lat="44.8445587" lon="10.4272546"><ele>29.666666666666664</ele><time>2026-04-20T15:13:51.283Z</time></trkpt><trkpt lat="44.8445614" lon="10.4271517"><ele>29.833333333333332</ele><time>2026-04-20T15:13:52.284Z</time></trkpt><trkpt lat="44.8445718" lon="10.4270593"><ele>30.0</ele><time>2026-04-20T15:13:53.283Z</time></trkpt><trkpt lat="44.8445781" lon="10.426967"><ele>30.166666666666668</ele><time>2026-04-20T15:13:54.283Z</time></trkpt><trkpt lat="44.8445841" lon="10.426863"><ele>30.333333333333336</ele><time>2026-04-20T15:13:55.284Z</time></trkpt><trkpt lat="44.8445845" lon="10.4267613"><ele>30.5</ele><time>2026-04-20T15:13:56.283Z</time></trkpt><trkpt lat="44.8446069" lon="10.4265767"><ele>30.666666666666668</ele><time>2026-04-20T15:13:58.283Z</time></trkpt><trkpt lat="44.8446204" lon="10.4264766"><ele>30.833333333333336</ele><time>2026-04-20T15:13:59.283Z</time></trkpt><trkpt lat="44.8446332" lon="10.4263701"><ele>31.0</ele><time>2026-04-20T15:14:00.283Z</time></trkpt><trkpt lat="44.8446522" lon="10.4262715"><ele>31.000000000000004</ele><time>2026-04-20T15:14:01.284Z</time></trkpt><trkpt lat="44.8446617" lon="10.4261685"><ele>31.0</ele><time>2026-04-20T15:14:02.283Z</time></trkpt><trkpt lat="44.844687" lon="10.426082"><ele>31.0</ele><time>2026-04-20T15:14:03.283Z</time></trkpt><trkpt lat="44.8447043" lon="10.4259936"><ele>31.0</ele><time>2026-04-20T15:14:04.284Z</time></trkpt><trkpt lat="44.8447234" lon="10.4258979"><ele>31.000000000000004</ele><time>2026-04-20T15:14:05.284Z</time></trkpt><trkpt lat="44.8447469" lon="10.4257211"><ele>31.0</ele><time>2026-04-20T15:14:07.283Z</time></trkpt><trkpt lat="44.8447629" lon="10.4256262"><ele>31.0</ele><time>2026-04-20T15:14:08.284Z</time></trkpt><trkpt lat="44.8447779" lon="10.4255256"><ele>31.000000000000004</ele><time>2026-04-20T15:14:09.283Z</time></trkpt><trkpt lat="44.8447966" lon="10.4254281"><ele>31.0</ele><time>2026-04-20T15:14:10.284Z</time></trkpt><trkpt lat="44.8448242" lon="10.4253191"><ele>31.0</ele><time>2026-04-20T15:14:11.283Z</time></trkpt><trkpt lat="44.8448412" lon="10.4252247"><ele>31.000000000000004</ele><time>2026-04-20T15:14:12.284Z</time></trkpt><trkpt lat="44.8448637" lon="10.4251299"><ele>31.0</ele><time>2026-04-20T15:14:13.284Z</time></trkpt><trkpt lat="44.8448862" lon="10.4250402"><ele>31.0</ele><time>2026-04-20T15:14:14.283Z</time></trkpt><trkpt lat="44.8448949" lon="10.4249357"><ele>31.166666666666668</ele><time>2026-04-20T15:14:15.283Z</time></trkpt><trkpt lat="44.8449152" lon="10.4248486"><ele>31.333333333333336</ele><time>2026-04-20T15:14:16.284Z</time></trkpt><trkpt lat="44.8449408" lon="10.4247638"><ele>31.5</ele><time>2026-04-20T15:14:17.283Z</time></trkpt><trkpt lat="44.8449614" lon="10.424668"><ele>31.666666666666664</ele><time>2026-04-20T15:14:18.284Z</time></trkpt><trkpt lat="44.8449787" lon="10.4245791"><ele>31.833333333333332</ele><time>2026-04-20T15:14:19.283Z</time></trkpt><trkpt lat="44.8450078" lon="10.42441"><ele>32.0</ele><time>2026-04-20T15:14:21.283Z</time></trkpt><trkpt lat="44.845031" lon="10.4243257"><ele>31.999999999999996</ele><time>2026-04-20T15:14:22.283Z</time></trkpt><trkpt lat="44.8450752" lon="10.424139"><ele>32.0</ele><time>2026-04-20T15:14:24.284Z</time></trkpt><trkpt lat="44.8450913" lon="10.4240472"><ele>32.0</ele><time>2026-04-20T15:14:25.284Z</time></trkpt><trkpt lat="44.8451143" lon="10.423958"><ele>32.0</ele><time>2026-04-20T15:14:26.284Z</time></trkpt><trkpt lat="44.8451284" lon="10.4238667"><ele>31.999999999999996</ele><time>2026-04-20T15:14:27.283Z</time></trkpt><trkpt lat="44.8451401" lon="10.4237773"><ele>32.0</ele><time>2026-04-20T15:14:28.283Z</time></trkpt><trkpt lat="44.8451628" lon="10.4236878"><ele>31.6</ele><time>2026-04-20T15:14:29.284Z</time></trkpt><trkpt lat="44.845181" lon="10.4236001"><ele>31.200000000000003</ele><time>2026-04-20T15:14:30.284Z</time></trkpt><trkpt lat="44.8452" lon="10.423514"><ele>30.8</ele><time>2026-04-20T15:14:31.284Z</time></trkpt><trkpt lat="44.8452309" lon="10.4233386"><ele>30.4</ele><time>2026-04-20T15:14:33.284Z</time></trkpt><trkpt lat="44.8452479" lon="10.4232435"><ele>30.0</ele><time>2026-04-20T15:14:34.283Z</time></trkpt><trkpt lat="44.8452761" lon="10.4230702"><ele>30.0</ele><time>2026-04-20T15:14:36.283Z</time></trkpt><trkpt lat="44.8452996" lon="10.4229843"><ele>30.0</ele><time>2026-04-20T15:14:37.284Z</time></trkpt><trkpt lat="44.8453269" lon="10.4229038"><ele>30.0</ele><time>2026-04-20T15:14:38.283Z</time></trkpt><trkpt lat="44.8453601" lon="10.4227318"><ele>30.0</ele><time>2026-04-20T15:14:40.284Z</time></trkpt><trkpt lat="44.8453942" lon="10.4225477"><ele>30.0</ele><time>2026-04-20T15:14:42.283Z</time></trkpt><trkpt lat="44.8454154" lon="10.422458"><ele>30.0</ele><time>2026-04-20T15:14:43.283Z</time></trkpt><trkpt lat="44.8454449" lon="10.4222767"><ele>30.0</ele><time>2026-04-20T15:14:45.283Z</time></trkpt><trkpt lat="44.845482" lon="10.4221206"><ele>30.0</ele><time>2026-04-20T15:14:47.284Z</time></trkpt><trkpt lat="44.8455052" lon="10.421966"><ele>30.0</ele><time>2026-04-20T15:14:49.284Z</time></trkpt><trkpt lat="44.8455475" lon="10.4218177"><ele>30.0</ele><time>2026-04-20T15:14:51.284Z</time></trkpt><trkpt lat="44.8455819" lon="10.4216684"><ele>30.0</ele><time>2026-04-20T15:14:53.284Z</time></trkpt><trkpt lat="44.8456018" lon="10.4215009"><ele>30.0</ele><time>2026-04-20T15:14:55.284Z</time></trkpt><trkpt lat="44.8456358" lon="10.4213559"><ele>30.0</ele><time>2026-04-20T15:14:57.284Z</time></trkpt><trkpt lat="44.8456734" lon="10.4212029"><ele>30.2</ele><time>2026-04-20T15:14:59.284Z</time></trkpt><trkpt lat="44.845703" lon="10.4210713"><ele>30.4</ele><time>2026-04-20T15:15:01.284Z</time></trkpt><trkpt lat="44.8457299" lon="10.4209367"><ele>30.6</ele><time>2026-04-20T15:15:03.284Z</time></trkpt><trkpt lat="44.8457526" lon="10.4207837"><ele>30.8</ele><time>2026-04-20T15:15:05.284Z</time></trkpt><trkpt lat="44.8457749" lon="10.4206683"><ele>31.0</ele><time>2026-04-20T15:15:07.283Z</time></trkpt><trkpt lat="44.8457864" lon="10.420436"><ele>31.0</ele><time>2026-04-20T15:15:10.283Z</time></trkpt><trkpt lat="44.8457868" lon="10.4202886"><ele>31.0</ele><time>2026-04-20T15:15:12.284Z</time></trkpt><trkpt lat="44.8457583" lon="10.4201435"><ele>31.0</ele><time>2026-04-20T15:15:14.283Z</time></trkpt><trkpt lat="44.8457221" lon="10.4199989"><ele>31.0</ele><time>2026-04-20T15:15:16.284Z</time></trkpt><trkpt lat="44.8456175" lon="10.41963"><ele>30.8</ele><time>2026-04-20T15:15:22.284Z</time></trkpt><trkpt lat="44.8455779" lon="10.4194537"><ele>30.6</ele><time>2026-04-20T15:15:25.283Z</time></trkpt><trkpt lat="44.8455513" lon="10.4193415"><ele>30.4</ele><time>2026-04-20T15:15:27.283Z</time></trkpt><trkpt lat="44.8455232" lon="10.4192208"><ele>30.2</ele><time>2026-04-20T15:15:29.284Z</time></trkpt><trkpt lat="44.8454916" lon="10.4190885"><ele>30.0</ele><time>2026-04-20T15:15:31.284Z</time></trkpt><trkpt lat="44.8454551" lon="10.4189562"><ele>30.0</ele><time>2026-04-20T15:15:33.284Z</time></trkpt><trkpt lat="44.8454293" lon="10.4188289"><ele>30.0</ele><time>2026-04-20T15:15:35.283Z</time></trkpt><trkpt lat="44.8453944" lon="10.4186977"><ele>30.0</ele><time>2026-04-20T15:15:37.284Z</time></trkpt><trkpt lat="44.8453651" lon="10.4185621"><ele>30.0</ele><time>2026-04-20T15:15:39.283Z</time></trkpt><trkpt lat="44.8453266" lon="10.4184321"><ele>30.0</ele><time>2026-04-20T15:15:41.283Z</time></trkpt><trkpt lat="44.8452839" lon="10.418279"><ele>30.2</ele><time>2026-04-20T15:15:43.283Z</time></trkpt><trkpt lat="44.8452416" lon="10.4181413"><ele>30.4</ele><time>2026-04-20T15:15:45.284Z</time></trkpt><trkpt lat="44.8452125" lon="10.4180076"><ele>30.6</ele><time>2026-04-20T15:15:47.283Z</time></trkpt><trkpt lat="44.8451804" lon="10.4178777"><ele>30.8</ele><time>2026-04-20T15:15:49.283Z</time></trkpt><trkpt lat="44.8451578" lon="10.4177551"><ele>31.0</ele><time>2026-04-20T15:15:51.284Z</time></trkpt><trkpt lat="44.8451261" lon="10.4176285"><ele>31.000000000000004</ele><time>2026-04-20T15:15:53.284Z</time></trkpt><trkpt lat="44.8450967" lon="10.4175133"><ele>31.0</ele><time>2026-04-20T15:15:55.283Z</time></trkpt><trkpt lat="44.8450562" lon="10.4174121"><ele>31.0</ele><time>2026-04-20T15:15:57.284Z</time></trkpt><trkpt lat="44.8450258" lon="10.4172916"><ele>31.0</ele><time>2026-04-20T15:15:59.283Z</time></trkpt><trkpt lat="44.8449958" lon="10.4171385"><ele>31.000000000000004</ele><time>2026-04-20T15:16:01.283Z</time></trkpt><trkpt lat="44.8449753" lon="10.417036"><ele>31.0</ele><time>2026-04-20T15:16:02.284Z</time></trkpt><trkpt lat="44.8449444" lon="10.4168988"><ele>31.0</ele><time>2026-04-20T15:16:04.283Z</time></trkpt><trkpt lat="44.8449076" lon="10.416809"><ele>31.0</ele><time>2026-04-20T15:16:05.284Z</time></trkpt><trkpt lat="44.8448399" lon="10.4166504"><ele>31.0</ele><time>2026-04-20T15:16:07.283Z</time></trkpt><trkpt lat="44.8448183" lon="10.4165089"><ele>31.0</ele><time>2026-04-20T15:16:09.283Z</time></trkpt><trkpt lat="44.8447886" lon="10.416374"><ele>31.0</ele><time>2026-04-20T15:16:11.283Z</time></trkpt><trkpt lat="44.8447483" lon="10.4161591"><ele>30.8</ele><time>2026-04-20T15:16:13.283Z</time></trkpt><trkpt lat="44.8447448" lon="10.4160592"><ele>30.6</ele><time>2026-04-20T15:16:14.284Z</time></trkpt><trkpt lat="44.8447282" lon="10.4159584"><ele>30.4</ele><time>2026-04-20T15:16:15.283Z</time></trkpt><trkpt lat="44.8447195" lon="10.4157931"><ele>30.2</ele><time>2026-04-20T15:16:17.283Z</time></trkpt><trkpt lat="44.8447189" lon="10.4156177"><ele>30.0</ele><time>2026-04-20T15:16:19.283Z</time></trkpt><trkpt lat="44.8447184" lon="10.415519"><ele>29.8</ele><time>2026-04-20T15:16:20.284Z</time></trkpt><trkpt lat="44.8447244" lon="10.4153442"><ele>29.6</ele><time>2026-04-20T15:16:22.284Z</time></trkpt><trkpt lat="44.844721" lon="10.4152524"><ele>29.4</ele><time>2026-04-20T15:16:23.283Z</time></trkpt><trkpt lat="44.8447259" lon="10.415082"><ele>29.2</ele><time>2026-04-20T15:16:25.283Z</time></trkpt><trkpt lat="44.8447308" lon="10.4149141"><ele>29.0</ele><time>2026-04-20T15:16:27.284Z</time></trkpt><trkpt lat="44.8447336" lon="10.4147367"><ele>28.75</ele><time>2026-04-20T15:16:29.283Z</time></trkpt><trkpt lat="44.844731" lon="10.4145579"><ele>28.5</ele><time>2026-04-20T15:16:31.283Z</time></trkpt><trkpt lat="44.8447322" lon="10.414464"><ele>28.25</ele><time>2026-04-20T15:16:32.284Z</time></trkpt><trkpt lat="44.8447291" lon="10.4142019"><ele>28.0</ele><time>2026-04-20T15:16:35.284Z</time></trkpt><trkpt lat="44.8447328" lon="10.4140415"><ele>28.0</ele><time>2026-04-20T15:16:37.284Z</time></trkpt><trkpt lat="44.8447439" lon="10.4138718"><ele>27.999999999999996</ele><time>2026-04-20T15:16:39.284Z</time></trkpt><trkpt lat="44.8447485" lon="10.4136962"><ele>27.999999999999996</ele><time>2026-04-20T15:16:41.284Z</time></trkpt><trkpt lat="44.8447558" lon="10.4135255"><ele>28.0</ele><time>2026-04-20T15:16:43.283Z</time></trkpt><trkpt lat="44.8447685" lon="10.4134238"><ele>28.0</ele><time>2026-04-20T15:16:44.283Z</time></trkpt><trkpt lat="44.8447678" lon="10.4132452"><ele>28.2</ele><time>2026-04-20T15:16:46.283Z</time></trkpt><trkpt lat="44.844766" lon="10.4131501"><ele>28.4</ele><time>2026-04-20T15:16:47.284Z</time></trkpt><trkpt lat="44.844763" lon="10.412995"><ele>28.599999999999998</ele><time>2026-04-20T15:16:49.283Z</time></trkpt><trkpt lat="44.844765" lon="10.4128284"><ele>28.799999999999997</ele><time>2026-04-20T15:16:51.283Z</time></trkpt><trkpt lat="44.8447637" lon="10.4126348"><ele>29.0</ele><time>2026-04-20T15:16:53.284Z</time></trkpt><trkpt lat="44.8447485" lon="10.4124828"><ele>29.25</ele><time>2026-04-20T15:16:55.284Z</time></trkpt><trkpt lat="44.8447471" lon="10.412284"><ele>29.5</ele><time>2026-04-20T15:16:57.283Z</time></trkpt><trkpt lat="44.8447661" lon="10.4121138"><ele>29.75</ele><time>2026-04-20T15:16:59.284Z</time></trkpt><trkpt lat="44.8447793" lon="10.4119503"><ele>30.0</ele><time>2026-04-20T15:17:01.284Z</time></trkpt><trkpt lat="44.8447914" lon="10.4117709"><ele>30.0</ele><time>2026-04-20T15:17:03.284Z</time></trkpt><trkpt lat="44.8447835" lon="10.4115844"><ele>30.0</ele><time>2026-04-20T15:17:05.284Z</time></trkpt><trkpt lat="44.8447794" lon="10.4114767"><ele>30.0</ele><time>2026-04-20T15:17:06.284Z</time></trkpt><trkpt lat="44.8447934" lon="10.4113418"><ele>30.0</ele><time>2026-04-20T15:17:08.283Z</time></trkpt><trkpt lat="44.8447958" lon="10.4111887"><ele>30.0</ele><time>2026-04-20T15:17:10.283Z</time></trkpt><trkpt lat="44.8447991" lon="10.4110734"><ele>30.0</ele><time>2026-04-20T15:17:12.284Z</time></trkpt><trkpt lat="44.8447997" lon="10.4109668"><ele>30.0</ele><time>2026-04-20T15:17:14.284Z</time></trkpt><trkpt lat="44.8448048" lon="10.4108776"><ele>30.0</ele><time>2026-04-20T15:17:16.284Z</time></trkpt><trkpt lat="44.8448082" lon="10.4107736"><ele>30.0</ele><time>2026-04-20T15:17:18.284Z</time></trkpt><trkpt lat="44.8448128" lon="10.4106789"><ele>30.0</ele><time>2026-04-20T15:17:20.284Z</time></trkpt><trkpt lat="44.8448221" lon="10.4105772"><ele>30.0</ele><time>2026-04-20T15:17:23.283Z</time></trkpt><trkpt lat="44.844878" lon="10.4104939"><ele>30.0</ele><time>2026-04-20T15:17:26.283Z</time></trkpt><trkpt lat="44.8449409" lon="10.4105074"><ele>30.5</ele><time>2026-04-20T15:17:29.284Z</time></trkpt><trkpt lat="44.8449611" lon="10.4104121"><ele>31.0</ele><time>2026-04-20T15:17:32.283Z</time></trkpt><trkpt lat="44.8449613" lon="10.4102933"><ele>31.5</ele><time>2026-04-20T15:17:35.284Z</time></trkpt><trkpt lat="44.8448979" lon="10.4102501"><ele>32.0</ele><time>2026-04-20T15:17:37.284Z</time></trkpt><trkpt lat="44.8448168" lon="10.4102202"><ele>32.5</ele><time>2026-04-20T15:17:39.283Z</time></trkpt><trkpt lat="44.8447405" lon="10.4101785"><ele>33.0</ele><time>2026-04-20T15:17:41.283Z</time></trkpt><trkpt lat="44.8446778" lon="10.4101388"><ele>33.0</ele><time>2026-04-20T15:17:43.284Z</time></trkpt><trkpt lat="44.8445873" lon="10.4100951"><ele>33.0</ele><time>2026-04-20T15:17:46.283Z</time></trkpt><trkpt lat="44.844522" lon="10.4100305"><ele>33.0</ele><time>2026-04-20T15:17:48.284Z</time></trkpt><trkpt lat="44.8444631" lon="10.4099508"><ele>33.0</ele><time>2026-04-20T15:17:50.283Z</time></trkpt><trkpt lat="44.8444034" lon="10.4098752"><ele>33.0</ele><time>2026-04-20T15:17:52.284Z</time></trkpt><trkpt lat="44.8443425" lon="10.4097769"><ele>33.0</ele><time>2026-04-20T15:17:54.283Z</time></trkpt><trkpt lat="44.8443043" lon="10.4096479"><ele>33.0</ele><time>2026-04-20T15:17:55.284Z</time></trkpt><trkpt lat="44.8442056" lon="10.4094648"><ele>33.0</ele><time>2026-04-20T15:17:58.283Z</time></trkpt><trkpt lat="44.8441342" lon="10.4093552"><ele>33.0</ele><time>2026-04-20T15:18:00.284Z</time></trkpt><trkpt lat="44.8440592" lon="10.4092518"><ele>33.0</ele><time>2026-04-20T15:18:02.284Z</time></trkpt><trkpt lat="44.8439954" lon="10.4091508"><ele>33.0</ele><time>2026-04-20T15:18:04.284Z</time></trkpt><trkpt lat="44.8439322" lon="10.4090949"><ele>33.0</ele><time>2026-04-20T15:18:05.284Z</time></trkpt><trkpt lat="44.8438438" lon="10.4089858"><ele>33.0</ele><time>2026-04-20T15:18:07.283Z</time></trkpt><trkpt lat="44.8437935" lon="10.4089066"><ele>33.0</ele><time>2026-04-20T15:18:09.284Z</time></trkpt><trkpt lat="44.8437335" lon="10.4088152"><ele>33.0</ele><time>2026-04-20T15:18:11.284Z</time></trkpt><trkpt lat="44.8436129" lon="10.4086764"><ele>33.0</ele><time>2026-04-20T15:18:14.284Z</time></trkpt><trkpt lat="44.8435224" lon="10.4085667"><ele>33.0</ele><time>2026-04-20T15:18:16.283Z</time></trkpt><trkpt lat="44.8434475" lon="10.4084593"><ele>33.0</ele><time>2026-04-20T15:18:18.283Z</time></trkpt><trkpt lat="44.8433335" lon="10.4083317"><ele>33.0</ele><time>2026-04-20T15:18:21.283Z</time></trkpt><trkpt lat="44.8432472" lon="10.4082385"><ele>32.75</ele><time>2026-04-20T15:18:23.283Z</time></trkpt><trkpt lat="44.8431982" lon="10.4081163"><ele>32.5</ele><time>2026-04-20T15:18:25.283Z</time></trkpt><trkpt lat="44.8431154" lon="10.4080017"><ele>32.25</ele><time>2026-04-20T15:18:27.284Z</time></trkpt><trkpt lat="44.8430378" lon="10.4079343"><ele>32.0</ele><time>2026-04-20T15:18:29.283Z</time></trkpt><trkpt lat="44.8429271" lon="10.4077708"><ele>32.0</ele><time>2026-04-20T15:18:32.283Z</time></trkpt><trkpt lat="44.8428501" lon="10.4076511"><ele>32.0</ele><time>2026-04-20T15:18:34.283Z</time></trkpt><trkpt lat="44.8427776" lon="10.4075517"><ele>32.0</ele><time>2026-04-20T15:18:36.284Z</time></trkpt><trkpt lat="44.8426995" lon="10.4074348"><ele>32.0</ele><time>2026-04-20T15:18:38.283Z</time></trkpt><trkpt lat="44.8425845" lon="10.4072727"><ele>32.0</ele><time>2026-04-20T15:18:41.283Z</time></trkpt><trkpt lat="44.8425016" lon="10.4071628"><ele>32.0</ele><time>2026-04-20T15:18:43.284Z</time></trkpt><trkpt lat="44.8424282" lon="10.4070646"><ele>32.0</ele><time>2026-04-20T15:18:45.283Z</time></trkpt><trkpt lat="44.8423597" lon="10.4069734"><ele>32.0</ele><time>2026-04-20T15:18:47.283Z</time></trkpt><trkpt lat="44.842224" lon="10.4067798"><ele>32.0</ele><time>2026-04-20T15:18:50.284Z</time></trkpt><trkpt lat="44.8421435" lon="10.4066784"><ele>32.0</ele><time>2026-04-20T15:18:52.283Z</time></trkpt><trkpt lat="44.8420691" lon="10.4065725"><ele>32.0</ele><time>2026-04-20T15:18:54.283Z</time></trkpt><trkpt lat="44.8419835" lon="10.4064572"><ele>32.0</ele><time>2026-04-20T15:18:56.284Z</time></trkpt><trkpt lat="44.8418719" lon="10.4063139"><ele>32.25</ele><time>2026-04-20T15:18:59.284Z</time></trkpt><trkpt lat="44.8417906" lon="10.406213"><ele>32.5</ele><time>2026-04-20T15:19:01.283Z</time></trkpt><trkpt lat="44.8417118" lon="10.4061084"><ele>32.75</ele><time>2026-04-20T15:19:03.284Z</time></trkpt><trkpt lat="44.8416447" lon="10.406011"><ele>33.0</ele><time>2026-04-20T15:19:05.283Z</time></trkpt><trkpt lat="44.841503" lon="10.4058166"><ele>33.0</ele><time>2026-04-20T15:19:09.283Z</time></trkpt><trkpt lat="44.8414354" lon="10.4057083"><ele>33.0</ele><time>2026-04-20T15:19:11.284Z</time></trkpt><trkpt lat="44.8413566" lon="10.4056102"><ele>33.0</ele><time>2026-04-20T15:19:13.284Z</time></trkpt><trkpt lat="44.8412769" lon="10.4055048"><ele>33.0</ele><time>2026-04-20T15:19:15.283Z</time></trkpt><trkpt lat="44.8411994" lon="10.4053802"><ele>33.0</ele><time>2026-04-20T15:19:17.284Z</time></trkpt><trkpt lat="44.8411176" lon="10.4052577"><ele>32.75</ele><time>2026-04-20T15:19:19.283Z</time></trkpt><trkpt lat="44.841031" lon="10.4051824"><ele>32.5</ele><time>2026-04-20T15:19:21.284Z</time></trkpt><trkpt lat="44.840949" lon="10.405069"><ele>32.25</ele><time>2026-04-20T15:19:23.283Z</time></trkpt><trkpt lat="44.8408622" lon="10.4049557"><ele>32.0</ele><time>2026-04-20T15:19:25.283Z</time></trkpt><trkpt lat="44.8407742" lon="10.4048344"><ele>31.8</ele><time>2026-04-20T15:19:27.284Z</time></trkpt><trkpt lat="44.8406928" lon="10.4047238"><ele>31.6</ele><time>2026-04-20T15:19:29.284Z</time></trkpt><trkpt lat="44.8405911" lon="10.4046996"><ele>31.400000000000002</ele><time>2026-04-20T15:19:31.283Z</time></trkpt><trkpt lat="44.8404952" lon="10.4045733"><ele>31.200000000000003</ele><time>2026-04-20T15:19:33.283Z</time></trkpt><trkpt lat="44.8404257" lon="10.4045123"><ele>31.0</ele><time>2026-04-20T15:19:34.284Z</time></trkpt><trkpt lat="44.8402902" lon="10.4043022"><ele>31.0</ele><time>2026-04-20T15:19:37.284Z</time></trkpt><trkpt lat="44.8402547" lon="10.4042262"><ele>31.0</ele><time>2026-04-20T15:19:38.284Z</time></trkpt><trkpt lat="44.8401733" lon="10.4040869"><ele>31.0</ele><time>2026-04-20T15:19:40.283Z</time></trkpt><trkpt lat="44.840105" lon="10.40396"><ele>31.0</ele><time>2026-04-20T15:19:42.283Z</time></trkpt><trkpt lat="44.8400604" lon="10.4038966"><ele>31.0</ele><time>2026-04-20T15:19:43.284Z</time></trkpt><trkpt lat="44.8399865" lon="10.4038101"><ele>30.500000000000004</ele><time>2026-04-20T15:19:45.283Z</time></trkpt><trkpt lat="44.8399159" lon="10.4036718"><ele>30.0</ele><time>2026-04-20T15:19:47.284Z</time></trkpt><trkpt lat="44.8398704" lon="10.403604"><ele>29.5</ele><time>2026-04-20T15:19:48.283Z</time></trkpt><trkpt lat="44.8397784" lon="10.403483"><ele>29.0</ele><time>2026-04-20T15:19:50.284Z</time></trkpt><trkpt lat="44.839731" lon="10.4034229"><ele>28.500000000000004</ele><time>2026-04-20T15:19:51.284Z</time></trkpt><trkpt lat="44.8396887" lon="10.4033555"><ele>28.0</ele><time>2026-04-20T15:19:52.283Z</time></trkpt><trkpt lat="44.8396062" lon="10.4032438"><ele>28.0</ele><time>2026-04-20T15:19:54.284Z</time></trkpt><trkpt lat="44.8395246" lon="10.4031246"><ele>27.999999999999996</ele><time>2026-04-20T15:19:56.284Z</time></trkpt><trkpt lat="44.8394631" lon="10.4030343"><ele>27.999999999999996</ele><time>2026-04-20T15:19:58.284Z</time></trkpt><trkpt lat="44.8393789" lon="10.4029289"><ele>28.0</ele><time>2026-04-20T15:20:00.284Z</time></trkpt><trkpt lat="44.8392994" lon="10.4028829"><ele>28.0</ele><time>2026-04-20T15:20:02.283Z</time></trkpt><trkpt lat="44.8392023" lon="10.4027724"><ele>28.799999999999997</ele><time>2026-04-20T15:20:04.284Z</time></trkpt><trkpt lat="44.8391219" lon="10.4026501"><ele>29.599999999999998</ele><time>2026-04-20T15:20:06.283Z</time></trkpt><trkpt lat="44.8390607" lon="10.4025917"><ele>30.400000000000002</ele><time>2026-04-20T15:20:07.283Z</time></trkpt><trkpt lat="44.8389627" lon="10.4024213"><ele>31.200000000000003</ele><time>2026-04-20T15:20:09.284Z</time></trkpt><trkpt lat="44.838916" lon="10.4023519"><ele>32.0</ele><time>2026-04-20T15:20:10.283Z</time></trkpt><trkpt lat="44.8387988" lon="10.4021786"><ele>31.0</ele><time>2026-04-20T15:20:13.284Z</time></trkpt><trkpt lat="44.8387149" lon="10.4020637"><ele>30.0</ele><time>2026-04-20T15:20:15.284Z</time></trkpt><trkpt lat="44.8386355" lon="10.4019411"><ele>29.0</ele><time>2026-04-20T15:20:17.284Z</time></trkpt><trkpt lat="44.8385435" lon="10.4018274"><ele>28.0</ele><time>2026-04-20T15:20:19.284Z</time></trkpt><trkpt lat="44.8384833" lon="10.401684"><ele>29.000000000000004</ele><time>2026-04-20T15:20:21.284Z</time></trkpt><trkpt lat="44.8384005" lon="10.4015843"><ele>30.0</ele><time>2026-04-20T15:20:23.284Z</time></trkpt><trkpt lat="44.8383467" lon="10.4015371"><ele>31.0</ele><time>2026-04-20T15:20:24.283Z</time></trkpt><trkpt lat="44.8382693" lon="10.4014392"><ele>32.0</ele><time>2026-04-20T15:20:26.283Z</time></trkpt><trkpt lat="44.8382168" lon="10.4013479"><ele>33.0</ele><time>2026-04-20T15:20:28.284Z</time></trkpt><trkpt lat="44.8381579" lon="10.4012895"><ele>34.0</ele><time>2026-04-20T15:20:29.283Z</time></trkpt><trkpt lat="44.8380654" lon="10.4011631"><ele>34.16666666666667</ele><time>2026-04-20T15:20:31.283Z</time></trkpt><trkpt lat="44.8380181" lon="10.401098"><ele>34.333333333333336</ele><time>2026-04-20T15:20:32.284Z</time></trkpt><trkpt lat="44.8379713" lon="10.4010264"><ele>34.5</ele><time>2026-04-20T15:20:33.284Z</time></trkpt><trkpt lat="44.8378892" lon="10.4009056"><ele>34.666666666666664</ele><time>2026-04-20T15:20:35.283Z</time></trkpt><trkpt lat="44.8378082" lon="10.4007826"><ele>34.83333333333333</ele><time>2026-04-20T15:20:37.283Z</time></trkpt><trkpt lat="44.8377621" lon="10.4007126"><ele>35.0</ele><time>2026-04-20T15:20:38.284Z</time></trkpt><trkpt lat="44.8376761" lon="10.4005999"><ele>34.8</ele><time>2026-04-20T15:20:40.284Z</time></trkpt><trkpt lat="44.8375921" lon="10.4004889"><ele>34.6</ele><time>2026-04-20T15:20:42.284Z</time></trkpt><trkpt lat="44.8375164" lon="10.4003667"><ele>34.4</ele><time>2026-04-20T15:20:44.284Z</time></trkpt><trkpt lat="44.8374226" lon="10.4002683"><ele>34.2</ele><time>2026-04-20T15:20:46.283Z</time></trkpt><trkpt lat="44.8373778" lon="10.4001981"><ele>34.0</ele><time>2026-04-20T15:20:47.284Z</time></trkpt><trkpt lat="44.8372843" lon="10.4000961"><ele>34.0</ele><time>2026-04-20T15:20:49.283Z</time></trkpt><trkpt lat="44.8372049" lon="10.3999797"><ele>34.0</ele><time>2026-04-20T15:20:51.284Z</time></trkpt><trkpt lat="44.8371598" lon="10.3999159"><ele>34.0</ele><time>2026-04-20T15:20:52.283Z</time></trkpt><trkpt lat="44.8370676" lon="10.3997963"><ele>34.0</ele><time>2026-04-20T15:20:54.283Z</time></trkpt><trkpt lat="44.8369882" lon="10.3996778"><ele>34.0</ele><time>2026-04-20T15:20:56.283Z</time></trkpt><trkpt lat="44.8368966" lon="10.3995565"><ele>33.8</ele><time>2026-04-20T15:20:58.283Z</time></trkpt><trkpt lat="44.8368326" lon="10.3995291"><ele>33.599999999999994</ele><time>2026-04-20T15:20:59.284Z</time></trkpt><trkpt lat="44.8367536" lon="10.3993985"><ele>33.4</ele><time>2026-04-20T15:21:01.284Z</time></trkpt><trkpt lat="44.8366813" lon="10.3992852"><ele>33.199999999999996</ele><time>2026-04-20T15:21:03.283Z</time></trkpt><trkpt lat="44.8365991" lon="10.3991667"><ele>33.0</ele><time>2026-04-20T15:21:05.283Z</time></trkpt><trkpt lat="44.8365178" lon="10.3990479"><ele>33.0</ele><time>2026-04-20T15:21:07.284Z</time></trkpt><trkpt lat="44.836439" lon="10.3989448"><ele>33.0</ele><time>2026-04-20T15:21:09.284Z</time></trkpt><trkpt lat="44.8363654" lon="10.3988274"><ele>33.0</ele><time>2026-04-20T15:21:11.283Z</time></trkpt><trkpt lat="44.8362863" lon="10.3987199"><ele>33.0</ele><time>2026-04-20T15:21:13.284Z</time></trkpt><trkpt lat="44.8362011" lon="10.398598"><ele>33.25</ele><time>2026-04-20T15:21:15.283Z</time></trkpt><trkpt lat="44.8361267" lon="10.3984945"><ele>33.5</ele><time>2026-04-20T15:21:17.284Z</time></trkpt><trkpt lat="44.8360519" lon="10.3983942"><ele>33.75</ele><time>2026-04-20T15:21:19.284Z</time></trkpt><trkpt lat="44.8359899" lon="10.3982895"><ele>34.0</ele><time>2026-04-20T15:21:21.283Z</time></trkpt><trkpt lat="44.8358684" lon="10.3981523"><ele>34.0</ele><time>2026-04-20T15:21:24.284Z</time></trkpt><trkpt lat="44.8357847" lon="10.3980377"><ele>34.0</ele><time>2026-04-20T15:21:27.283Z</time></trkpt><trkpt lat="44.8357172" lon="10.397959"><ele>34.0</ele><time>2026-04-20T15:21:29.283Z</time></trkpt><trkpt lat="44.835651" lon="10.397915"><ele>34.0</ele><time>2026-04-20T15:21:31.283Z</time></trkpt><trkpt lat="44.8355634" lon="10.3978659"><ele>34.0</ele><time>2026-04-20T15:21:33.283Z</time></trkpt><trkpt lat="44.8354699" lon="10.3978191"><ele>34.0</ele><time>2026-04-20T15:21:35.284Z</time></trkpt><trkpt lat="44.8353837" lon="10.3977592"><ele>34.0</ele><time>2026-04-20T15:21:37.284Z</time></trkpt><trkpt lat="44.8353026" lon="10.3977227"><ele>34.0</ele><time>2026-04-20T15:21:39.284Z</time></trkpt><trkpt lat="44.835215" lon="10.3976838"><ele>34.0</ele><time>2026-04-20T15:21:41.283Z</time></trkpt><trkpt lat="44.8351297" lon="10.3976586"><ele>34.0</ele><time>2026-04-20T15:21:43.283Z</time></trkpt><trkpt lat="44.8350466" lon="10.3976172"><ele>34.0</ele><time>2026-04-20T15:21:45.284Z</time></trkpt><trkpt lat="44.8349681" lon="10.3975798"><ele>34.0</ele><time>2026-04-20T15:21:47.284Z</time></trkpt><trkpt lat="44.834879" lon="10.397538"><ele>34.0</ele><time>2026-04-20T15:21:49.283Z</time></trkpt><trkpt lat="44.8347937" lon="10.3974969"><ele>34.0</ele><time>2026-04-20T15:21:51.284Z</time></trkpt><trkpt lat="44.834701" lon="10.3974526"><ele>34.0</ele><time>2026-04-20T15:21:53.283Z</time></trkpt><trkpt lat="44.834614" lon="10.3974053"><ele>34.0</ele><time>2026-04-20T15:21:55.284Z</time></trkpt><trkpt lat="44.8345232" lon="10.3973608"><ele>34.0</ele><time>2026-04-20T15:21:57.283Z</time></trkpt><trkpt lat="44.8344432" lon="10.3973258"><ele>34.0</ele><time>2026-04-20T15:21:59.284Z</time></trkpt><trkpt lat="44.8343747" lon="10.3972675"><ele>34.0</ele><time>2026-04-20T15:22:01.284Z</time></trkpt><trkpt lat="44.8342903" lon="10.397225"><ele>34.0</ele><time>2026-04-20T15:22:03.284Z</time></trkpt><trkpt lat="44.8342042" lon="10.3971882"><ele>34.0</ele><time>2026-04-20T15:22:05.284Z</time></trkpt><trkpt lat="44.8341344" lon="10.3971678"><ele>34.0</ele><time>2026-04-20T15:22:07.284Z</time></trkpt><trkpt lat="44.8340681" lon="10.3971323"><ele>34.5</ele><time>2026-04-20T15:22:09.283Z</time></trkpt><trkpt lat="44.8339979" lon="10.3970816"><ele>35.0</ele><time>2026-04-20T15:22:11.283Z</time></trkpt><trkpt lat="44.8339122" lon="10.3970397"><ele>35.5</ele><time>2026-04-20T15:22:13.283Z</time></trkpt><trkpt lat="44.8338326" lon="10.3970014"><ele>36.0</ele><time>2026-04-20T15:22:15.284Z</time></trkpt><trkpt lat="44.833754" lon="10.3969564"><ele>36.5</ele><time>2026-04-20T15:22:17.284Z</time></trkpt><trkpt lat="44.833674" lon="10.396921"><ele>37.0</ele><time>2026-04-20T15:22:19.283Z</time></trkpt><trkpt lat="44.8335864" lon="10.3968838"><ele>37.0</ele><time>2026-04-20T15:22:21.283Z</time></trkpt><trkpt lat="44.8334886" lon="10.3968425"><ele>37.0</ele><time>2026-04-20T15:22:23.284Z</time></trkpt><trkpt lat="44.8333928" lon="10.3968106"><ele>37.0</ele><time>2026-04-20T15:22:25.284Z</time></trkpt><trkpt lat="44.8333088" lon="10.3967583"><ele>37.0</ele><time>2026-04-20T15:22:27.284Z</time></trkpt><trkpt lat="44.8332103" lon="10.396714"><ele>37.0</ele><time>2026-04-20T15:22:29.283Z</time></trkpt><trkpt lat="44.8331175" lon="10.3966676"><ele>37.0</ele><time>2026-04-20T15:22:31.283Z</time></trkpt><trkpt lat="44.8330235" lon="10.3966207"><ele>37.0</ele><time>2026-04-20T15:22:33.283Z</time></trkpt><trkpt lat="44.8329317" lon="10.3965822"><ele>37.0</ele><time>2026-04-20T15:22:35.284Z</time></trkpt><trkpt lat="44.8328461" lon="10.3965284"><ele>37.0</ele><time>2026-04-20T15:22:37.283Z</time></trkpt><trkpt lat="44.8327556" lon="10.3964723"><ele>37.0</ele><time>2026-04-20T15:22:39.283Z</time></trkpt><trkpt lat="44.8326725" lon="10.396427"><ele>37.0</ele><time>2026-04-20T15:22:41.284Z</time></trkpt><trkpt lat="44.8326006" lon="10.396398"><ele>37.0</ele><time>2026-04-20T15:22:43.283Z</time></trkpt><trkpt lat="44.8325127" lon="10.3963471"><ele>37.0</ele><time>2026-04-20T15:22:45.284Z</time></trkpt><trkpt lat="44.8324372" lon="10.3963055"><ele>37.0</ele><time>2026-04-20T15:22:47.284Z</time></trkpt><trkpt lat="44.8323575" lon="10.3962725"><ele>37.0</ele><time>2026-04-20T15:22:49.283Z</time></trkpt><trkpt lat="44.8322747" lon="10.3962326"><ele>37.0</ele><time>2026-04-20T15:22:51.283Z</time></trkpt><trkpt lat="44.832208" lon="10.3962122"><ele>36.714285714285715</ele><time>2026-04-20T15:22:53.283Z</time></trkpt><trkpt lat="44.8321399" lon="10.3961902"><ele>36.42857142857143</ele><time>2026-04-20T15:22:55.284Z</time></trkpt><trkpt lat="44.8320716" lon="10.3961746"><ele>36.14285714285714</ele><time>2026-04-20T15:22:57.283Z</time></trkpt><trkpt lat="44.8319996" lon="10.3961411"><ele>35.85714285714286</ele><time>2026-04-20T15:22:59.283Z</time></trkpt><trkpt lat="44.8319318" lon="10.3961074"><ele>35.57142857142857</ele><time>2026-04-20T15:23:01.284Z</time></trkpt><trkpt lat="44.8318593" lon="10.3960709"><ele>35.285714285714285</ele><time>2026-04-20T15:23:03.283Z</time></trkpt><trkpt lat="44.8317802" lon="10.3960247"><ele>35.0</ele><time>2026-04-20T15:23:05.283Z</time></trkpt><trkpt lat="44.8316964" lon="10.3959775"><ele>35.0</ele><time>2026-04-20T15:23:07.284Z</time></trkpt><trkpt lat="44.8316136" lon="10.3959383"><ele>35.0</ele><time>2026-04-20T15:23:09.283Z</time></trkpt><trkpt lat="44.8315339" lon="10.3959008"><ele>35.0</ele><time>2026-04-20T15:23:11.283Z</time></trkpt><trkpt lat="44.8314591" lon="10.3958731"><ele>35.0</ele><time>2026-04-20T15:23:13.284Z</time></trkpt><trkpt lat="44.8313869" lon="10.3958401"><ele>35.0</ele><time>2026-04-20T15:23:15.284Z</time></trkpt><trkpt lat="44.8313499" lon="10.395747"><ele>35.0</ele><time>2026-04-20T15:23:18.284Z</time></trkpt><trkpt lat="44.8313577" lon="10.3956328"><ele>35.0</ele><time>2026-04-20T15:23:22.284Z</time></trkpt><trkpt lat="44.8313476" lon="10.3955144"><ele>35.0</ele><time>2026-04-20T15:23:25.284Z</time></trkpt><trkpt lat="44.831372" lon="10.3954273"><ele>35.0</ele><time>2026-04-20T15:23:27.284Z</time></trkpt><trkpt lat="44.8314036" lon="10.3953326"><ele>35.0</ele><time>2026-04-20T15:23:29.283Z</time></trkpt><trkpt lat="44.8314314" lon="10.3952237"><ele>35.0</ele><time>2026-04-20T15:23:31.284Z</time></trkpt><trkpt lat="44.8314533" lon="10.3951068"><ele>35.0</ele><time>2026-04-20T15:23:33.283Z</time></trkpt><trkpt lat="44.8314762" lon="10.3949959"><ele>34.83333333333333</ele><time>2026-04-20T15:23:35.284Z</time></trkpt><trkpt lat="44.8315029" lon="10.3948941"><ele>34.666666666666664</ele><time>2026-04-20T15:23:37.283Z</time></trkpt><trkpt lat="44.8315293" lon="10.3947829"><ele>34.5</ele><time>2026-04-20T15:23:39.284Z</time></trkpt><trkpt lat="44.8315573" lon="10.3946709"><ele>34.333333333333336</ele><time>2026-04-20T15:23:41.284Z</time></trkpt><trkpt lat="44.831588" lon="10.3945568"><ele>34.16666666666667</ele><time>2026-04-20T15:23:43.283Z</time></trkpt><trkpt lat="44.8316148" lon="10.3944436"><ele>34.0</ele><time>2026-04-20T15:23:45.283Z</time></trkpt><trkpt lat="44.8316406" lon="10.3943297"><ele>34.285714285714285</ele><time>2026-04-20T15:23:47.284Z</time></trkpt><trkpt lat="44.8316754" lon="10.3942063"><ele>34.57142857142857</ele><time>2026-04-20T15:23:49.283Z</time></trkpt><trkpt lat="44.8316631" lon="10.3941092"><ele>34.85714285714286</ele><time>2026-04-20T15:23:51.283Z</time></trkpt><trkpt lat="44.8316051" lon="10.3940569"><ele>35.14285714285714</ele><time>2026-04-20T15:23:53.283Z</time></trkpt><trkpt lat="44.8315476" lon="10.3940164"><ele>35.42857142857143</ele><time>2026-04-20T15:23:55.283Z</time></trkpt><trkpt lat="44.831599" lon="10.394078"><ele>35.714285714285715</ele><time>2026-04-20T15:24:03.283Z</time></trkpt><trkpt lat="44.8316756" lon="10.3940676"><ele>36.0</ele><time>2026-04-20T15:24:06.283Z</time></trkpt><trkpt lat="44.8317271" lon="10.393961"><ele>36.00000000000001</ele><time>2026-04-20T15:24:09.284Z</time></trkpt><trkpt lat="44.8317392" lon="10.393866"><ele>36.0</ele><time>2026-04-20T15:24:11.284Z</time></trkpt><trkpt lat="44.8317603" lon="10.3937444"><ele>36.0</ele><time>2026-04-20T15:24:14.283Z</time></trkpt><trkpt lat="44.8317494" lon="10.393653"><ele>36.0</ele><time>2026-04-20T15:24:17.284Z</time></trkpt><trkpt lat="44.8316823" lon="10.3936296"><ele>36.0</ele><time>2026-04-20T15:24:20.284Z</time></trkpt><trkpt lat="44.8316198" lon="10.3936028"><ele>36.00000000000001</ele><time>2026-04-20T15:24:22.284Z</time></trkpt><trkpt lat="44.8315552" lon="10.3935745"><ele>36.0</ele><time>2026-04-20T15:24:24.283Z</time></trkpt><trkpt lat="44.8314861" lon="10.3935486"><ele>36.166666666666664</ele><time>2026-04-20T15:24:26.283Z</time></trkpt><trkpt lat="44.8313992" lon="10.3935121"><ele>36.333333333333336</ele><time>2026-04-20T15:24:29.283Z</time></trkpt><trkpt lat="44.8313338" lon="10.3934868"><ele>36.5</ele><time>2026-04-20T15:24:31.284Z</time></trkpt><trkpt lat="44.8312462" lon="10.3934528"><ele>36.66666666666667</ele><time>2026-04-20T15:24:34.284Z</time></trkpt><trkpt lat="44.831157" lon="10.393409"><ele>36.833333333333336</ele><time>2026-04-20T15:24:37.284Z</time></trkpt><trkpt lat="44.8310739" lon="10.3933824"><ele>37.0</ele><time>2026-04-20T15:24:41.284Z</time></trkpt><trkpt lat="44.8310144" lon="10.3933448"><ele>37.0</ele><time>2026-04-20T15:24:43.284Z</time></trkpt><trkpt lat="44.8309534" lon="10.3932946"><ele>35.0</ele><time>2026-04-20T15:24:45.284Z</time></trkpt><trkpt lat="44.8308948" lon="10.3932457"><ele>35.0</ele><time>2026-04-20T15:24:47.283Z</time></trkpt><trkpt lat="44.8308133" lon="10.3931975"><ele>35.0</ele><time>2026-04-20T15:24:50.283Z</time></trkpt><trkpt lat="44.8307636" lon="10.3931377"><ele>35.0</ele><time>2026-04-20T15:24:54.283Z</time></trkpt></trkseg><trkseg><trkpt lat="44.830711" lon="10.393196"><ele>35.0</ele><time>2026-04-20T15:36:25.274Z</time></trkpt><trkpt lat="44.8306457" lon="10.3931611"><ele>35.0</ele><time>2026-04-20T15:36:29.273Z</time></trkpt><trkpt lat="44.8305879" lon="10.3931224"><ele>35.0</ele><time>2026-04-20T15:36:32.274Z</time></trkpt><trkpt lat="44.8305106" lon="10.3930895"><ele>35.0</ele><time>2026-04-20T15:36:36.274Z</time></trkpt><trkpt lat="44.8304471" lon="10.3930563"><ele>35.0</ele><time>2026-04-20T15:36:39.274Z</time></trkpt><trkpt lat="44.8303688" lon="10.3930256"><ele>35.0</ele><time>2026-04-20T15:36:42.273Z</time></trkpt><trkpt lat="44.8302877" lon="10.3929768"><ele>35.142857142857146</ele><time>2026-04-20T15:36:45.273Z</time></trkpt><trkpt lat="44.8301995" lon="10.3929312"><ele>35.285714285714285</ele><time>2026-04-20T15:36:48.274Z</time></trkpt><trkpt lat="44.8301394" lon="10.3928993"><ele>35.42857142857143</ele><time>2026-04-20T15:36:50.273Z</time></trkpt><trkpt lat="44.830076" lon="10.3928704"><ele>35.57142857142857</ele><time>2026-04-20T15:36:52.274Z</time></trkpt><trkpt lat="44.8300078" lon="10.3928424"><ele>35.714285714285715</ele><time>2026-04-20T15:36:54.273Z</time></trkpt><trkpt lat="44.8299381" lon="10.3928109"><ele>35.85714285714286</ele><time>2026-04-20T15:36:56.274Z</time></trkpt><trkpt lat="44.8298685" lon="10.392777"><ele>36.0</ele><time>2026-04-20T15:36:58.273Z</time></trkpt><trkpt lat="44.8298057" lon="10.3927512"><ele>36.0</ele><time>2026-04-20T15:37:00.274Z</time></trkpt><trkpt lat="44.8297442" lon="10.3927272"><ele>36.0</ele><time>2026-04-20T15:37:02.274Z</time></trkpt><trkpt lat="44.8296569" lon="10.3926873"><ele>36.0</ele><time>2026-04-20T15:37:05.274Z</time></trkpt><trkpt lat="44.8295773" lon="10.3926547"><ele>36.0</ele><time>2026-04-20T15:37:08.274Z</time></trkpt><trkpt lat="44.8295011" lon="10.3926313"><ele>36.0</ele><time>2026-04-20T15:37:11.274Z</time></trkpt><trkpt lat="44.8294541" lon="10.3925421"><ele>36.0</ele><time>2026-04-20T15:37:15.274Z</time></trkpt><trkpt lat="44.8294828" lon="10.3924267"><ele>36.0</ele><time>2026-04-20T15:37:18.273Z</time></trkpt><trkpt lat="44.8294527" lon="10.3923439"><ele>36.0</ele><time>2026-04-20T15:37:21.274Z</time></trkpt><trkpt lat="44.8293878" lon="10.3922894"><ele>36.0</ele><time>2026-04-20T15:37:24.274Z</time></trkpt><trkpt lat="44.8293102" lon="10.3922566"><ele>36.0</ele><time>2026-04-20T15:37:27.273Z</time></trkpt><trkpt lat="44.8292372" lon="10.3922242"><ele>36.0</ele><time>2026-04-20T15:37:30.273Z</time></trkpt><trkpt lat="44.8291723" lon="10.3921997"><ele>36.0</ele><time>2026-04-20T15:37:33.273Z</time></trkpt><trkpt lat="44.8290924" lon="10.3921596"><ele>36.00000000000001</ele><time>2026-04-20T15:37:36.273Z</time></trkpt><trkpt lat="44.8290243" lon="10.3921335"><ele>36.0</ele><time>2026-04-20T15:37:39.274Z</time></trkpt><trkpt lat="44.8289592" lon="10.3921096"><ele>36.0</ele><time>2026-04-20T15:37:42.274Z</time></trkpt><trkpt lat="44.8288918" lon="10.3920956"><ele>36.0</ele><time>2026-04-20T15:37:44.274Z</time></trkpt><trkpt lat="44.828797" lon="10.3921006"><ele>36.0</ele><time>2026-04-20T15:37:47.274Z</time></trkpt><trkpt lat="44.8287214" lon="10.39206"><ele>36.00000000000001</ele><time>2026-04-20T15:37:51.273Z</time></trkpt><trkpt lat="44.8286703" lon="10.3919989"><ele>36.0</ele><time>2026-04-20T15:37:54.273Z</time></trkpt><trkpt lat="44.8285979" lon="10.3919091"><ele>36.00000000000001</ele><time>2026-04-20T15:37:57.273Z</time></trkpt><trkpt lat="44.8285244" lon="10.3918608"><ele>36.0</ele><time>2026-04-20T15:37:59.273Z</time></trkpt><trkpt lat="44.8284615" lon="10.3918302"><ele>36.0</ele><time>2026-04-20T15:38:01.273Z</time></trkpt><trkpt lat="44.8283883" lon="10.3917863"><ele>36.0</ele><time>2026-04-20T15:38:04.274Z</time></trkpt><trkpt lat="44.8283138" lon="10.3917548"><ele>36.0</ele><time>2026-04-20T15:38:07.274Z</time></trkpt><trkpt lat="44.8282462" lon="10.3917259"><ele>36.00000000000001</ele><time>2026-04-20T15:38:10.274Z</time></trkpt><trkpt lat="44.8281809" lon="10.3917131"><ele>36.0</ele><time>2026-04-20T15:38:17.274Z</time></trkpt><trkpt lat="44.8281452" lon="10.3918147"><ele>36.4</ele><time>2026-04-20T15:38:21.274Z</time></trkpt><trkpt lat="44.8281279" lon="10.3919353"><ele>36.8</ele><time>2026-04-20T15:38:23.273Z</time></trkpt><trkpt lat="44.8280902" lon="10.3920819"><ele>37.199999999999996</ele><time>2026-04-20T15:38:25.274Z</time></trkpt><trkpt lat="44.8280577" lon="10.3921998"><ele>37.6</ele><time>2026-04-20T15:38:27.273Z</time></trkpt><trkpt lat="44.8280323" lon="10.3923424"><ele>38.0</ele><time>2026-04-20T15:38:29.274Z</time></trkpt><trkpt lat="44.8280072" lon="10.3924463"><ele>38.0</ele><time>2026-04-20T15:38:31.273Z</time></trkpt><trkpt lat="44.8279821" lon="10.3925439"><ele>38.0</ele><time>2026-04-20T15:38:33.273Z</time></trkpt><trkpt lat="44.8279592" lon="10.3927085"><ele>38.0</ele><time>2026-04-20T15:38:36.273Z</time></trkpt><trkpt lat="44.82791" lon="10.3927779"><ele>38.0</ele><time>2026-04-20T15:38:41.274Z</time></trkpt><trkpt lat="44.8278403" lon="10.3927751"><ele>38.0</ele><time>2026-04-20T15:38:45.273Z</time></trkpt><trkpt lat="44.8278057" lon="10.3926719"><ele>38.0</ele><time>2026-04-20T15:38:48.273Z</time></trkpt><trkpt lat="44.8277864" lon="10.3924627"><ele>38.0</ele><time>2026-04-20T15:38:50.273Z</time></trkpt><trkpt lat="44.8277286" lon="10.3924121"><ele>38.0</ele><time>2026-04-20T15:38:51.273Z</time></trkpt><trkpt lat="44.8276804" lon="10.3923135"><ele>38.0</ele><time>2026-04-20T15:38:53.273Z</time></trkpt><trkpt lat="44.8276147" lon="10.3921833"><ele>38.0</ele><time>2026-04-20T15:38:55.274Z</time></trkpt><trkpt lat="44.8275606" lon="10.3920645"><ele>38.0</ele><time>2026-04-20T15:38:57.273Z</time></trkpt><trkpt lat="44.827521" lon="10.3919527"><ele>38.0</ele><time>2026-04-20T15:38:59.274Z</time></trkpt><trkpt lat="44.827465" lon="10.391811"><ele>38.0</ele><time>2026-04-20T15:39:01.274Z</time></trkpt><trkpt lat="44.8274173" lon="10.3916871"><ele>38.0</ele><time>2026-04-20T15:39:03.274Z</time></trkpt><trkpt lat="44.8273557" lon="10.3915511"><ele>38.0</ele><time>2026-04-20T15:39:05.273Z</time></trkpt><trkpt lat="44.8272995" lon="10.3914192"><ele>38.0</ele><time>2026-04-20T15:39:07.273Z</time></trkpt><trkpt lat="44.8272479" lon="10.3912949"><ele>38.0</ele><time>2026-04-20T15:39:09.274Z</time></trkpt><trkpt lat="44.8271979" lon="10.391168"><ele>38.0</ele><time>2026-04-20T15:39:11.273Z</time></trkpt><trkpt lat="44.8271507" lon="10.3910407"><ele>38.0</ele><time>2026-04-20T15:39:13.274Z</time></trkpt><trkpt lat="44.8270993" lon="10.3909181"><ele>38.0</ele><time>2026-04-20T15:39:15.273Z</time></trkpt><trkpt lat="44.8270402" lon="10.3908073"><ele>38.0</ele><time>2026-04-20T15:39:17.273Z</time></trkpt><trkpt lat="44.8270016" lon="10.3906774"><ele>38.0</ele><time>2026-04-20T15:39:19.273Z</time></trkpt><trkpt lat="44.8269491" lon="10.3905805"><ele>38.0</ele><time>2026-04-20T15:39:21.273Z</time></trkpt><trkpt lat="44.8268883" lon="10.3904558"><ele>38.0</ele><time>2026-04-20T15:39:23.274Z</time></trkpt><trkpt lat="44.8268502" lon="10.390385"><ele>38.0</ele><time>2026-04-20T15:39:24.274Z</time></trkpt><trkpt lat="44.8267956" lon="10.3902774"><ele>38.0</ele><time>2026-04-20T15:39:26.273Z</time></trkpt><trkpt lat="44.8267563" lon="10.3901552"><ele>38.0</ele><time>2026-04-20T15:39:28.273Z</time></trkpt><trkpt lat="44.8267068" lon="10.3900396"><ele>37.83333333333333</ele><time>2026-04-20T15:39:31.274Z</time></trkpt><trkpt lat="44.8266579" lon="10.3899388"><ele>37.666666666666664</ele><time>2026-04-20T15:39:33.274Z</time></trkpt><trkpt lat="44.8266207" lon="10.3898234"><ele>37.5</ele><time>2026-04-20T15:39:35.274Z</time></trkpt><trkpt lat="44.8265931" lon="10.3897254"><ele>37.333333333333336</ele><time>2026-04-20T15:39:37.273Z</time></trkpt><trkpt lat="44.8265542" lon="10.3896385"><ele>37.16666666666667</ele><time>2026-04-20T15:39:39.274Z</time></trkpt><trkpt lat="44.826508" lon="10.389543"><ele>37.0</ele><time>2026-04-20T15:39:41.273Z</time></trkpt><trkpt lat="44.8264632" lon="10.3894365"><ele>37.0</ele><time>2026-04-20T15:39:44.274Z</time></trkpt><trkpt lat="44.8264337" lon="10.3893518"><ele>37.0</ele><time>2026-04-20T15:39:46.274Z</time></trkpt><trkpt lat="44.8263979" lon="10.3892594"><ele>37.0</ele><time>2026-04-20T15:39:48.273Z</time></trkpt><trkpt lat="44.8263631" lon="10.389176"><ele>37.0</ele><time>2026-04-20T15:39:50.273Z</time></trkpt><trkpt lat="44.8263193" lon="10.3890926"><ele>37.0</ele><time>2026-04-20T15:39:52.273Z</time></trkpt><trkpt lat="44.8262737" lon="10.3890069"><ele>37.0</ele><time>2026-04-20T15:39:54.273Z</time></trkpt><trkpt lat="44.8262433" lon="10.3889155"><ele>37.0</ele><time>2026-04-20T15:39:56.273Z</time></trkpt><trkpt lat="44.8262582" lon="10.3888121"><ele>36.85714285714286</ele><time>2026-04-20T15:39:58.274Z</time></trkpt><trkpt lat="44.8263202" lon="10.388733"><ele>36.714285714285715</ele><time>2026-04-20T15:40:00.274Z</time></trkpt><trkpt lat="44.8263915" lon="10.3887019"><ele>36.57142857142857</ele><time>2026-04-20T15:40:02.273Z</time></trkpt><trkpt lat="44.8264555" lon="10.3886827"><ele>36.42857142857143</ele><time>2026-04-20T15:40:04.274Z</time></trkpt><trkpt lat="44.8264873" lon="10.3885711"><ele>36.285714285714285</ele><time>2026-04-20T15:40:06.274Z</time></trkpt><trkpt lat="44.8264899" lon="10.3884677"><ele>36.142857142857146</ele><time>2026-04-20T15:40:08.274Z</time></trkpt><trkpt lat="44.8264897" lon="10.3883764"><ele>36.0</ele><time>2026-04-20T15:40:10.273Z</time></trkpt><trkpt lat="44.826554" lon="10.3883031"><ele>36.0</ele><time>2026-04-20T15:40:12.274Z</time></trkpt><trkpt lat="44.8266339" lon="10.388241"><ele>36.0</ele><time>2026-04-20T15:40:14.273Z</time></trkpt><trkpt lat="44.8267083" lon="10.3881838"><ele>36.0</ele><time>2026-04-20T15:40:16.274Z</time></trkpt><trkpt lat="44.8267793" lon="10.3881243"><ele>36.0</ele><time>2026-04-20T15:40:18.274Z</time></trkpt><trkpt lat="44.8268221" lon="10.3880364"><ele>36.0</ele><time>2026-04-20T15:40:20.273Z</time></trkpt><trkpt lat="44.8267506" lon="10.3879452"><ele>36.0</ele><time>2026-04-20T15:40:23.273Z</time></trkpt><trkpt lat="44.8266943" lon="10.3878794"><ele>36.2</ele><time>2026-04-20T15:40:25.273Z</time></trkpt><trkpt lat="44.826636" lon="10.3877947"><ele>36.400000000000006</ele><time>2026-04-20T15:40:27.273Z</time></trkpt><trkpt lat="44.8265336" lon="10.3877502"><ele>36.6</ele><time>2026-04-20T15:40:29.274Z</time></trkpt><trkpt lat="44.8264491" lon="10.387768"><ele>36.800000000000004</ele><time>2026-04-20T15:40:31.273Z</time></trkpt><trkpt lat="44.8263633" lon="10.3878726"><ele>37.0</ele><time>2026-04-20T15:40:33.274Z</time></trkpt><trkpt lat="44.8262639" lon="10.3879187"><ele>37.0</ele><time>2026-04-20T15:40:35.273Z</time></trkpt><trkpt lat="44.8261953" lon="10.3879772"><ele>37.0</ele><time>2026-04-20T15:40:37.273Z</time></trkpt><trkpt lat="44.8260988" lon="10.3880357"><ele>37.0</ele><time>2026-04-20T15:40:39.274Z</time></trkpt><trkpt lat="44.826025" lon="10.3880968"><ele>37.0</ele><time>2026-04-20T15:40:41.273Z</time></trkpt><trkpt lat="44.8259441" lon="10.3880981"><ele>37.0</ele><time>2026-04-20T15:40:43.274Z</time></trkpt><trkpt lat="44.8258657" lon="10.3880447"><ele>37.0</ele><time>2026-04-20T15:40:45.273Z</time></trkpt><trkpt lat="44.8257813" lon="10.3879382"><ele>37.4</ele><time>2026-04-20T15:40:47.274Z</time></trkpt><trkpt lat="44.8257337" lon="10.3878339"><ele>37.800000000000004</ele><time>2026-04-20T15:40:49.274Z</time></trkpt><trkpt lat="44.8257107" lon="10.3877376"><ele>38.2</ele><time>2026-04-20T15:40:50.274Z</time></trkpt><trkpt lat="44.825653" lon="10.3875853"><ele>38.6</ele><time>2026-04-20T15:40:52.273Z</time></trkpt><trkpt lat="44.8255941" lon="10.3874762"><ele>39.0</ele><time>2026-04-20T15:40:54.274Z</time></trkpt><trkpt lat="44.8255458" lon="10.3873215"><ele>39.0</ele><time>2026-04-20T15:40:56.274Z</time></trkpt><trkpt lat="44.8254938" lon="10.3871848"><ele>39.0</ele><time>2026-04-20T15:40:58.274Z</time></trkpt><trkpt lat="44.8253939" lon="10.3869045"><ele>39.0</ele><time>2026-04-20T15:41:02.273Z</time></trkpt><trkpt lat="44.8253606" lon="10.3868183"><ele>39.0</ele><time>2026-04-20T15:41:03.274Z</time></trkpt><trkpt lat="44.8253057" lon="10.3866815"><ele>38.8</ele><time>2026-04-20T15:41:05.274Z</time></trkpt><trkpt lat="44.8252496" lon="10.3865343"><ele>38.599999999999994</ele><time>2026-04-20T15:41:07.274Z</time></trkpt><trkpt lat="44.8251822" lon="10.3863835"><ele>38.4</ele><time>2026-04-20T15:41:09.274Z</time></trkpt><trkpt lat="44.8251408" lon="10.3862869"><ele>38.199999999999996</ele><time>2026-04-20T15:41:11.274Z</time></trkpt><trkpt lat="44.8250783" lon="10.3861743"><ele>38.0</ele><time>2026-04-20T15:41:13.273Z</time></trkpt><trkpt lat="44.8250262" lon="10.3860577"><ele>38.4</ele><time>2026-04-20T15:41:15.274Z</time></trkpt><trkpt lat="44.8250011" lon="10.3859103"><ele>38.8</ele><time>2026-04-20T15:41:17.274Z</time></trkpt><trkpt lat="44.8249475" lon="10.3858315"><ele>39.2</ele><time>2026-04-20T15:41:18.273Z</time></trkpt><trkpt lat="44.8248731" lon="10.3857068"><ele>39.6</ele><time>2026-04-20T15:41:20.273Z</time></trkpt><trkpt lat="44.8248164" lon="10.3856413"><ele>40.0</ele><time>2026-04-20T15:41:21.273Z</time></trkpt><trkpt lat="44.8247641" lon="10.3855068"><ele>40.6</ele><time>2026-04-20T15:41:23.273Z</time></trkpt><trkpt lat="44.8246802" lon="10.3854632"><ele>41.2</ele><time>2026-04-20T15:41:25.274Z</time></trkpt><trkpt lat="44.8246233" lon="10.3853681"><ele>41.8</ele><time>2026-04-20T15:41:27.274Z</time></trkpt><trkpt lat="44.8245954" lon="10.385255"><ele>42.4</ele><time>2026-04-20T15:41:28.273Z</time></trkpt><trkpt lat="44.8245523" lon="10.3851263"><ele>43.0</ele><time>2026-04-20T15:41:30.273Z</time></trkpt><trkpt lat="44.8244981" lon="10.3849835"><ele>43.0</ele><time>2026-04-20T15:41:32.274Z</time></trkpt><trkpt lat="44.8244655" lon="10.3848744"><ele>43.0</ele><time>2026-04-20T15:41:33.274Z</time></trkpt><trkpt lat="44.824432" lon="10.384791"><ele>43.0</ele><time>2026-04-20T15:41:34.274Z</time></trkpt><trkpt lat="44.824401" lon="10.3846446"><ele>43.0</ele><time>2026-04-20T15:41:35.274Z</time></trkpt><trkpt lat="44.8243641" lon="10.3845558"><ele>43.0</ele><time>2026-04-20T15:41:36.273Z</time></trkpt><trkpt lat="44.8243021" lon="10.3843437"><ele>41.8</ele><time>2026-04-20T15:41:38.273Z</time></trkpt><trkpt lat="44.8242593" lon="10.3842405"><ele>40.599999999999994</ele><time>2026-04-20T15:41:39.273Z</time></trkpt><trkpt lat="44.8241894" lon="10.3840828"><ele>39.400000000000006</ele><time>2026-04-20T15:41:41.274Z</time></trkpt><trkpt lat="44.8241334" lon="10.3839602"><ele>38.2</ele><time>2026-04-20T15:41:43.273Z</time></trkpt><trkpt lat="44.8241111" lon="10.3837817"><ele>37.0</ele><time>2026-04-20T15:41:46.273Z</time></trkpt><trkpt lat="44.8240969" lon="10.3836533"><ele>36.75</ele><time>2026-04-20T15:41:48.274Z</time></trkpt><trkpt lat="44.8240435" lon="10.3835255"><ele>36.5</ele><time>2026-04-20T15:41:50.273Z</time></trkpt><trkpt lat="44.8239771" lon="10.3833699"><ele>36.25</ele><time>2026-04-20T15:41:52.274Z</time></trkpt><trkpt lat="44.8239208" lon="10.3832254"><ele>36.0</ele><time>2026-04-20T15:41:54.273Z</time></trkpt><trkpt lat="44.8238607" lon="10.3830854"><ele>37.0</ele><time>2026-04-20T15:41:56.274Z</time></trkpt><trkpt lat="44.8237916" lon="10.3829453"><ele>38.0</ele><time>2026-04-20T15:41:58.274Z</time></trkpt><trkpt lat="44.8237455" lon="10.3828126"><ele>39.0</ele><time>2026-04-20T15:42:00.273Z</time></trkpt><trkpt lat="44.8236802" lon="10.3827055"><ele>40.0</ele><time>2026-04-20T15:42:02.274Z</time></trkpt><trkpt lat="44.8236332" lon="10.3825672"><ele>41.0</ele><time>2026-04-20T15:42:04.274Z</time></trkpt><trkpt lat="44.8235766" lon="10.3824171"><ele>41.0</ele><time>2026-04-20T15:42:06.273Z</time></trkpt><trkpt lat="44.8235118" lon="10.3822749"><ele>41.0</ele><time>2026-04-20T15:42:08.274Z</time></trkpt><trkpt lat="44.8234786" lon="10.3821894"><ele>41.0</ele><time>2026-04-20T15:42:09.273Z</time></trkpt><trkpt lat="44.823409" lon="10.3820269"><ele>41.0</ele><time>2026-04-20T15:42:11.274Z</time></trkpt><trkpt lat="44.8233266" lon="10.3819025"><ele>41.0</ele><time>2026-04-20T15:42:13.273Z</time></trkpt><trkpt lat="44.823292" lon="10.3818267"><ele>40.599999999999994</ele><time>2026-04-20T15:42:14.273Z</time></trkpt><trkpt lat="44.8232432" lon="10.3816971"><ele>40.199999999999996</ele><time>2026-04-20T15:42:16.274Z</time></trkpt><trkpt lat="44.8231929" lon="10.3815464"><ele>39.8</ele><time>2026-04-20T15:42:18.273Z</time></trkpt><trkpt lat="44.8231369" lon="10.3814089"><ele>39.4</ele><time>2026-04-20T15:42:20.274Z</time></trkpt><trkpt lat="44.8230971" lon="10.3813258"><ele>39.0</ele><time>2026-04-20T15:42:21.273Z</time></trkpt><trkpt lat="44.823052" lon="10.3811699"><ele>39.0</ele><time>2026-04-20T15:42:23.273Z</time></trkpt><trkpt lat="44.8230168" lon="10.3810189"><ele>39.0</ele><time>2026-04-20T15:42:25.273Z</time></trkpt><trkpt lat="44.8229688" lon="10.3808692"><ele>39.0</ele><time>2026-04-20T15:42:27.274Z</time></trkpt><trkpt lat="44.8229035" lon="10.3807375"><ele>39.0</ele><time>2026-04-20T15:42:29.274Z</time></trkpt><trkpt lat="44.8228186" lon="10.3806498"><ele>39.0</ele><time>2026-04-20T15:42:31.274Z</time></trkpt><trkpt lat="44.822758" lon="10.3805227"><ele>39.2</ele><time>2026-04-20T15:42:33.273Z</time></trkpt><trkpt lat="44.8227027" lon="10.3804018"><ele>39.4</ele><time>2026-04-20T15:42:35.274Z</time></trkpt><trkpt lat="44.8226947" lon="10.3802765"><ele>39.6</ele><time>2026-04-20T15:42:37.273Z</time></trkpt><trkpt lat="44.8227407" lon="10.380143"><ele>39.8</ele><time>2026-04-20T15:42:39.273Z</time></trkpt><trkpt lat="44.8228086" lon="10.3800139"><ele>40.0</ele><time>2026-04-20T15:42:41.273Z</time></trkpt><trkpt lat="44.8228536" lon="10.3799409"><ele>40.0</ele><time>2026-04-20T15:42:42.274Z</time></trkpt><trkpt lat="44.8228886" lon="10.3797872"><ele>40.0</ele><time>2026-04-20T15:42:44.273Z</time></trkpt><trkpt lat="44.8229349" lon="10.3796353"><ele>40.0</ele><time>2026-04-20T15:42:46.273Z</time></trkpt><trkpt lat="44.8229599" lon="10.37947"><ele>40.0</ele><time>2026-04-20T15:42:48.273Z</time></trkpt><trkpt lat="44.8229441" lon="10.3792967"><ele>40.0</ele><time>2026-04-20T15:42:50.274Z</time></trkpt><trkpt lat="44.822894" lon="10.3791491"><ele>40.0</ele><time>2026-04-20T15:42:52.273Z</time></trkpt><trkpt lat="44.8228063" lon="10.3790518"><ele>40.0</ele><time>2026-04-20T15:42:54.274Z</time></trkpt><trkpt lat="44.8226914" lon="10.3789633"><ele>40.0</ele><time>2026-04-20T15:42:57.274Z</time></trkpt><trkpt lat="44.8226317" lon="10.3789272"><ele>40.0</ele><time>2026-04-20T15:42:59.273Z</time></trkpt><trkpt lat="44.8225716" lon="10.3788716"><ele>40.333333333333336</ele><time>2026-04-20T15:43:01.274Z</time></trkpt><trkpt lat="44.8225074" lon="10.3788108"><ele>40.66666666666667</ele><time>2026-04-20T15:43:03.273Z</time></trkpt><trkpt lat="44.8224327" lon="10.3787694"><ele>41.0</ele><time>2026-04-20T15:43:05.273Z</time></trkpt><trkpt lat="44.8223795" lon="10.378705"><ele>41.333333333333336</ele><time>2026-04-20T15:43:07.274Z</time></trkpt><trkpt lat="44.8223104" lon="10.3786251"><ele>41.666666666666664</ele><time>2026-04-20T15:43:10.274Z</time></trkpt><trkpt lat="44.8222593" lon="10.3785479"><ele>42.0</ele><time>2026-04-20T15:43:12.274Z</time></trkpt><trkpt lat="44.822202" lon="10.3784396"><ele>42.0</ele><time>2026-04-20T15:43:14.273Z</time></trkpt><trkpt lat="44.8221663" lon="10.3783484"><ele>42.0</ele><time>2026-04-20T15:43:16.274Z</time></trkpt><trkpt lat="44.82211" lon="10.3782289"><ele>42.0</ele><time>2026-04-20T15:43:18.273Z</time></trkpt><trkpt lat="44.8220439" lon="10.3780706"><ele>42.0</ele><time>2026-04-20T15:43:20.274Z</time></trkpt><trkpt lat="44.8219814" lon="10.3779509"><ele>42.0</ele><time>2026-04-20T15:43:22.274Z</time></trkpt><trkpt lat="44.8219491" lon="10.3778729"><ele>42.400000000000006</ele><time>2026-04-20T15:43:23.273Z</time></trkpt><trkpt lat="44.8218883" lon="10.3777197"><ele>42.800000000000004</ele><time>2026-04-20T15:43:25.274Z</time></trkpt><trkpt lat="44.8218353" lon="10.3775791"><ele>43.2</ele><time>2026-04-20T15:43:27.273Z</time></trkpt><trkpt lat="44.8218022" lon="10.3774993"><ele>43.6</ele><time>2026-04-20T15:43:28.273Z</time></trkpt><trkpt lat="44.8217708" lon="10.3774086"><ele>44.0</ele><time>2026-04-20T15:43:29.273Z</time></trkpt><trkpt lat="44.8217304" lon="10.3772837"><ele>43.25</ele><time>2026-04-20T15:43:31.273Z</time></trkpt><trkpt lat="44.8216722" lon="10.3771361"><ele>42.5</ele><time>2026-04-20T15:43:33.273Z</time></trkpt><trkpt lat="44.8216304" lon="10.376992"><ele>41.75</ele><time>2026-04-20T15:43:35.273Z</time></trkpt><trkpt lat="44.821567" lon="10.3768488"><ele>41.0</ele><time>2026-04-20T15:43:37.273Z</time></trkpt><trkpt lat="44.8215201" lon="10.3766871"><ele>41.0</ele><time>2026-04-20T15:43:39.274Z</time></trkpt><trkpt lat="44.8214769" lon="10.3765333"><ele>41.0</ele><time>2026-04-20T15:43:41.273Z</time></trkpt><trkpt lat="44.8214281" lon="10.3763738"><ele>41.0</ele><time>2026-04-20T15:43:43.274Z</time></trkpt><trkpt lat="44.821368" lon="10.3762249"><ele>41.0</ele><time>2026-04-20T15:43:45.274Z</time></trkpt><trkpt lat="44.8213306" lon="10.376082"><ele>41.4</ele><time>2026-04-20T15:43:47.274Z</time></trkpt><trkpt lat="44.8213285" lon="10.3759547"><ele>41.8</ele><time>2026-04-20T15:43:49.274Z</time></trkpt><trkpt lat="44.8213109" lon="10.375808"><ele>42.199999999999996</ele><time>2026-04-20T15:43:51.274Z</time></trkpt><trkpt lat="44.8213024" lon="10.3756588"><ele>42.599999999999994</ele><time>2026-04-20T15:43:53.273Z</time></trkpt><trkpt lat="44.8212942" lon="10.3755581"><ele>43.0</ele><time>2026-04-20T15:43:54.274Z</time></trkpt><trkpt lat="44.8211995" lon="10.3754658"><ele>42.25</ele><time>2026-04-20T15:43:56.274Z</time></trkpt><trkpt lat="44.8211124" lon="10.3753417"><ele>41.5</ele><time>2026-04-20T15:43:58.274Z</time></trkpt><trkpt lat="44.8210268" lon="10.3752022"><ele>40.75</ele><time>2026-04-20T15:44:00.273Z</time></trkpt><trkpt lat="44.8209912" lon="10.3751128"><ele>40.0</ele><time>2026-04-20T15:44:01.274Z</time></trkpt><trkpt lat="44.8209428" lon="10.3749345"><ele>40.0</ele><time>2026-04-20T15:44:03.273Z</time></trkpt><trkpt lat="44.8209085" lon="10.3747692"><ele>40.0</ele><time>2026-04-20T15:44:05.274Z</time></trkpt><trkpt lat="44.820887" lon="10.3745924"><ele>40.0</ele><time>2026-04-20T15:44:07.274Z</time></trkpt><trkpt lat="44.8208615" lon="10.3744466"><ele>40.0</ele><time>2026-04-20T15:44:09.274Z</time></trkpt><trkpt lat="44.820839" lon="10.3743564"><ele>40.0</ele><time>2026-04-20T15:44:10.273Z</time></trkpt><trkpt lat="44.820817" lon="10.3742136"><ele>40.0</ele><time>2026-04-20T15:44:12.273Z</time></trkpt><trkpt lat="44.8207891" lon="10.3740589"><ele>40.0</ele><time>2026-04-20T15:44:14.274Z</time></trkpt><trkpt lat="44.8207402" lon="10.3739052"><ele>40.0</ele><time>2026-04-20T15:44:16.273Z</time></trkpt><trkpt lat="44.8206845" lon="10.3737518"><ele>40.0</ele><time>2026-04-20T15:44:18.274Z</time></trkpt><trkpt lat="44.8206551" lon="10.3736705"><ele>40.0</ele><time>2026-04-20T15:44:19.273Z</time></trkpt><trkpt lat="44.8205971" lon="10.3735071"><ele>40.0</ele><time>2026-04-20T15:44:21.273Z</time></trkpt><trkpt lat="44.8205593" lon="10.3733549"><ele>40.0</ele><time>2026-04-20T15:44:23.274Z</time></trkpt><trkpt lat="44.8205428" lon="10.3732608"><ele>40.0</ele><time>2026-04-20T15:44:24.274Z</time></trkpt><trkpt lat="44.8205154" lon="10.3730854"><ele>40.0</ele><time>2026-04-20T15:44:26.274Z</time></trkpt><trkpt lat="44.8204965" lon="10.3729986"><ele>40.0</ele><time>2026-04-20T15:44:27.274Z</time></trkpt><trkpt lat="44.8204668" lon="10.3728544"><ele>40.0</ele><time>2026-04-20T15:44:29.274Z</time></trkpt><trkpt lat="44.8204512" lon="10.3727123"><ele>40.0</ele><time>2026-04-20T15:44:31.274Z</time></trkpt><trkpt lat="44.820424" lon="10.3725491"><ele>40.0</ele><time>2026-04-20T15:44:33.273Z</time></trkpt><trkpt lat="44.8203987" lon="10.3723907"><ele>40.0</ele><time>2026-04-20T15:44:35.274Z</time></trkpt><trkpt lat="44.8203883" lon="10.3723026"><ele>40.0</ele><time>2026-04-20T15:44:36.273Z</time></trkpt><trkpt lat="44.8203705" lon="10.3721193"><ele>40.0</ele><time>2026-04-20T15:44:38.274Z</time></trkpt><trkpt lat="44.820363" lon="10.371971"><ele>40.0</ele><time>2026-04-20T15:44:40.274Z</time></trkpt><trkpt lat="44.8203663" lon="10.3718505"><ele>40.0</ele><time>2026-04-20T15:44:42.274Z</time></trkpt><trkpt lat="44.8203689" lon="10.3717237"><ele>40.0</ele><time>2026-04-20T15:44:44.274Z</time></trkpt><trkpt lat="44.8203725" lon="10.3715706"><ele>40.0</ele><time>2026-04-20T15:44:46.274Z</time></trkpt><trkpt lat="44.8203515" lon="10.3714831"><ele>39.4</ele><time>2026-04-20T15:44:47.273Z</time></trkpt><trkpt lat="44.8203409" lon="10.3713413"><ele>38.8</ele><time>2026-04-20T15:44:49.273Z</time></trkpt><trkpt lat="44.8203263" lon="10.3712539"><ele>38.2</ele><time>2026-04-20T15:44:50.274Z</time></trkpt><trkpt lat="44.8202759" lon="10.3710779"><ele>37.6</ele><time>2026-04-20T15:44:53.274Z</time></trkpt><trkpt lat="44.8202595" lon="10.3709569"><ele>37.0</ele><time>2026-04-20T15:44:55.273Z</time></trkpt><trkpt lat="44.8202431" lon="10.3708192"><ele>37.0</ele><time>2026-04-20T15:44:57.274Z</time></trkpt><trkpt lat="44.8202165" lon="10.3706913"><ele>37.0</ele><time>2026-04-20T15:44:59.273Z</time></trkpt><trkpt lat="44.8201524" lon="10.3705803"><ele>37.0</ele><time>2026-04-20T15:45:01.273Z</time></trkpt><trkpt lat="44.8201282" lon="10.3704404"><ele>37.0</ele><time>2026-04-20T15:45:03.274Z</time></trkpt><trkpt lat="44.8200999" lon="10.3703092"><ele>37.0</ele><time>2026-04-20T15:45:05.274Z</time></trkpt><trkpt lat="44.8200758" lon="10.3701563"><ele>37.4</ele><time>2026-04-20T15:45:07.274Z</time></trkpt><trkpt lat="44.8200719" lon="10.3700144"><ele>37.800000000000004</ele><time>2026-04-20T15:45:09.273Z</time></trkpt><trkpt lat="44.8200518" lon="10.3698671"><ele>38.2</ele><time>2026-04-20T15:45:11.273Z</time></trkpt><trkpt lat="44.8200352" lon="10.3697139"><ele>38.6</ele><time>2026-04-20T15:45:13.274Z</time></trkpt><trkpt lat="44.8200171" lon="10.3695694"><ele>39.0</ele><time>2026-04-20T15:45:15.273Z</time></trkpt><trkpt lat="44.820005" lon="10.3694061"><ele>39.0</ele><time>2026-04-20T15:45:17.273Z</time></trkpt><trkpt lat="44.8199919" lon="10.36926"><ele>39.0</ele><time>2026-04-20T15:45:19.274Z</time></trkpt><trkpt lat="44.8199914" lon="10.3690959"><ele>39.0</ele><time>2026-04-20T15:45:21.274Z</time></trkpt><trkpt lat="44.8199721" lon="10.3689807"><ele>39.0</ele><time>2026-04-20T15:45:23.273Z</time></trkpt><trkpt lat="44.8199493" lon="10.3688349"><ele>39.0</ele><time>2026-04-20T15:45:25.273Z</time></trkpt><trkpt lat="44.819941" lon="10.3686967"><ele>39.2</ele><time>2026-04-20T15:45:27.273Z</time></trkpt><trkpt lat="44.8199295" lon="10.3685409"><ele>39.4</ele><time>2026-04-20T15:45:29.274Z</time></trkpt><trkpt lat="44.8199102" lon="10.368376"><ele>39.6</ele><time>2026-04-20T15:45:31.273Z</time></trkpt><trkpt lat="44.8199176" lon="10.3682091"><ele>39.8</ele><time>2026-04-20T15:45:33.273Z</time></trkpt><trkpt lat="44.8199217" lon="10.3681122"><ele>40.0</ele><time>2026-04-20T15:45:34.274Z</time></trkpt><trkpt lat="44.8199306" lon="10.367959"><ele>40.0</ele><time>2026-04-20T15:45:36.273Z</time></trkpt><trkpt lat="44.8199222" lon="10.3677855"><ele>40.0</ele><time>2026-04-20T15:45:38.273Z</time></trkpt><trkpt lat="44.8199413" lon="10.3676514"><ele>40.0</ele><time>2026-04-20T15:45:40.274Z</time></trkpt><trkpt lat="44.8199525" lon="10.3675316"><ele>40.0</ele><time>2026-04-20T15:45:41.273Z</time></trkpt><trkpt lat="44.8199537" lon="10.3673692"><ele>40.0</ele><time>2026-04-20T15:45:43.273Z</time></trkpt><trkpt lat="44.8200115" lon="10.3672858"><ele>40.2</ele><time>2026-04-20T15:45:46.273Z</time></trkpt><trkpt lat="44.8200249" lon="10.3671939"><ele>40.4</ele><time>2026-04-20T15:45:47.273Z</time></trkpt><trkpt lat="44.8200325" lon="10.3670194"><ele>40.599999999999994</ele><time>2026-04-20T15:45:49.274Z</time></trkpt><trkpt lat="44.8200736" lon="10.366884"><ele>40.8</ele><time>2026-04-20T15:45:51.274Z</time></trkpt><trkpt lat="44.8200916" lon="10.3667058"><ele>41.0</ele><time>2026-04-20T15:45:53.273Z</time></trkpt><trkpt lat="44.82011" lon="10.3665562"><ele>41.0</ele><time>2026-04-20T15:45:55.274Z</time></trkpt><trkpt lat="44.8201169" lon="10.3664637"><ele>41.0</ele><time>2026-04-20T15:45:56.273Z</time></trkpt><trkpt lat="44.8201355" lon="10.3662895"><ele>41.0</ele><time>2026-04-20T15:45:58.273Z</time></trkpt><trkpt lat="44.8201479" lon="10.3661996"><ele>41.0</ele><time>2026-04-20T15:45:59.273Z</time></trkpt><trkpt lat="44.8201636" lon="10.3660421"><ele>41.0</ele><time>2026-04-20T15:46:01.274Z</time></trkpt><trkpt lat="44.8201755" lon="10.3659358"><ele>41.0</ele><time>2026-04-20T15:46:02.274Z</time></trkpt><trkpt lat="44.8201997" lon="10.3657668"><ele>40.5</ele><time>2026-04-20T15:46:04.273Z</time></trkpt><trkpt lat="44.8202051" lon="10.3656151"><ele>40.0</ele><time>2026-04-20T15:46:06.273Z</time></trkpt><trkpt lat="44.8202188" lon="10.3654617"><ele>39.5</ele><time>2026-04-20T15:46:08.274Z</time></trkpt><trkpt lat="44.8202302" lon="10.3653727"><ele>39.0</ele><time>2026-04-20T15:46:09.274Z</time></trkpt><trkpt lat="44.8202497" lon="10.3652878"><ele>38.5</ele><time>2026-04-20T15:46:10.273Z</time></trkpt><trkpt lat="44.8202564" lon="10.3651916"><ele>38.0</ele><time>2026-04-20T15:46:11.274Z</time></trkpt><trkpt lat="44.8202735" lon="10.3650481"><ele>38.0</ele><time>2026-04-20T15:46:13.273Z</time></trkpt><trkpt lat="44.8202926" lon="10.3648948"><ele>38.0</ele><time>2026-04-20T15:46:15.274Z</time></trkpt><trkpt lat="44.8202802" lon="10.3647663"><ele>38.0</ele><time>2026-04-20T15:46:17.273Z</time></trkpt><trkpt lat="44.8202799" lon="10.3646369"><ele>38.0</ele><time>2026-04-20T15:46:19.274Z</time></trkpt><trkpt lat="44.8203215" lon="10.364468"><ele>38.0</ele><time>2026-04-20T15:46:22.274Z</time></trkpt><trkpt lat="44.8203731" lon="10.3644094"><ele>38.0</ele><time>2026-04-20T15:46:24.273Z</time></trkpt><trkpt lat="44.8204334" lon="10.364442"><ele>38.0</ele><time>2026-04-20T15:46:25.274Z</time></trkpt><trkpt lat="44.820541" lon="10.3644598"><ele>38.0</ele><time>2026-04-20T15:46:27.273Z</time></trkpt><trkpt lat="44.8206384" lon="10.364493"><ele>38.0</ele><time>2026-04-20T15:46:29.274Z</time></trkpt><trkpt lat="44.8207215" lon="10.364514"><ele>38.0</ele><time>2026-04-20T15:46:31.273Z</time></trkpt><trkpt lat="44.8207947" lon="10.3644407"><ele>38.0</ele><time>2026-04-20T15:46:33.274Z</time></trkpt><trkpt lat="44.8207797" lon="10.3643426"><ele>38.0</ele><time>2026-04-20T15:46:35.273Z</time></trkpt><trkpt lat="44.8207064" lon="10.3642796"><ele>38.0</ele><time>2026-04-20T15:46:37.273Z</time></trkpt><trkpt lat="44.8206031" lon="10.3642381"><ele>38.0</ele><time>2026-04-20T15:46:39.273Z</time></trkpt><trkpt lat="44.820408" lon="10.3641537"><ele>38.0</ele><time>2026-04-20T15:46:42.274Z</time></trkpt><trkpt lat="44.8203447" lon="10.3641375"><ele>38.0</ele><time>2026-04-20T15:46:43.274Z</time></trkpt><trkpt lat="44.8202719" lon="10.3640979"><ele>38.0</ele><time>2026-04-20T15:46:44.273Z</time></trkpt><trkpt lat="44.8202069" lon="10.3640659"><ele>38.0</ele><time>2026-04-20T15:46:45.273Z</time></trkpt><trkpt lat="44.8201427" lon="10.3640429"><ele>38.0</ele><time>2026-04-20T15:46:46.274Z</time></trkpt><trkpt lat="44.8200705" lon="10.3640144"><ele>38.0</ele><time>2026-04-20T15:46:47.273Z</time></trkpt><trkpt lat="44.8200058" lon="10.3639945"><ele>38.0</ele><time>2026-04-20T15:46:48.273Z</time></trkpt><trkpt lat="44.8198637" lon="10.3639198"><ele>37.83333333333333</ele><time>2026-04-20T15:46:51.273Z</time></trkpt><trkpt lat="44.8197703" lon="10.3638793"><ele>37.666666666666664</ele><time>2026-04-20T15:46:53.274Z</time></trkpt><trkpt lat="44.8196886" lon="10.3638674"><ele>37.5</ele><time>2026-04-20T15:46:55.273Z</time></trkpt><trkpt lat="44.8196032" lon="10.3638338"><ele>37.333333333333336</ele><time>2026-04-20T15:46:57.273Z</time></trkpt><trkpt lat="44.8195147" lon="10.3638003"><ele>37.16666666666667</ele><time>2026-04-20T15:46:59.274Z</time></trkpt><trkpt lat="44.819448" lon="10.363775"><ele>37.0</ele><time>2026-04-20T15:47:01.273Z</time></trkpt><trkpt lat="44.8193505" lon="10.3637625"><ele>37.66666666666667</ele><time>2026-04-20T15:47:03.274Z</time></trkpt><trkpt lat="44.8192526" lon="10.3637211"><ele>38.333333333333336</ele><time>2026-04-20T15:47:05.273Z</time></trkpt><trkpt lat="44.8191678" lon="10.3636744"><ele>39.0</ele><time>2026-04-20T15:47:07.273Z</time></trkpt><trkpt lat="44.8191186" lon="10.3635898"><ele>39.666666666666664</ele><time>2026-04-20T15:47:09.273Z</time></trkpt><trkpt lat="44.819102" lon="10.3634797"><ele>40.33333333333333</ele><time>2026-04-20T15:47:11.273Z</time></trkpt><trkpt lat="44.8190741" lon="10.3633575"><ele>41.0</ele><time>2026-04-20T15:47:13.273Z</time></trkpt><trkpt lat="44.8190476" lon="10.3632288"><ele>40.75</ele><time>2026-04-20T15:47:15.274Z</time></trkpt><trkpt lat="44.8190353" lon="10.3630042"><ele>40.5</ele><time>2026-04-20T15:47:18.273Z</time></trkpt><trkpt lat="44.8190221" lon="10.3628662"><ele>40.25</ele><time>2026-04-20T15:47:20.273Z</time></trkpt><trkpt lat="44.819006" lon="10.362726"><ele>40.0</ele><time>2026-04-20T15:47:22.274Z</time></trkpt><trkpt lat="44.8189895" lon="10.3625912"><ele>40.0</ele><time>2026-04-20T15:47:24.274Z</time></trkpt><trkpt lat="44.8189758" lon="10.3624656"><ele>40.0</ele><time>2026-04-20T15:47:26.274Z</time></trkpt><trkpt lat="44.8189738" lon="10.3623493"><ele>40.0</ele><time>2026-04-20T15:47:28.273Z</time></trkpt><trkpt lat="44.8189786" lon="10.3622469"><ele>40.0</ele><time>2026-04-20T15:47:30.274Z</time></trkpt><trkpt lat="44.8190174" lon="10.3621544"><ele>40.0</ele><time>2026-04-20T15:47:32.274Z</time></trkpt><trkpt lat="44.8190698" lon="10.3620979"><ele>40.0</ele><time>2026-04-20T15:47:34.274Z</time></trkpt><trkpt lat="44.8191437" lon="10.3620509"><ele>39.57142857142857</ele><time>2026-04-20T15:47:37.274Z</time></trkpt><trkpt lat="44.8192014" lon="10.3619684"><ele>39.142857142857146</ele><time>2026-04-20T15:47:40.274Z</time></trkpt><trkpt lat="44.8192081" lon="10.3618753"><ele>38.714285714285715</ele><time>2026-04-20T15:47:42.274Z</time></trkpt><trkpt lat="44.8192012" lon="10.3617702"><ele>38.285714285714285</ele><time>2026-04-20T15:47:44.273Z</time></trkpt><trkpt lat="44.8191495" lon="10.3617041"><ele>37.857142857142854</ele><time>2026-04-20T15:47:46.274Z</time></trkpt><trkpt lat="44.8190867" lon="10.3616513"><ele>37.42857142857143</ele><time>2026-04-20T15:47:48.274Z</time></trkpt><trkpt lat="44.8190351" lon="10.3615936"><ele>37.0</ele><time>2026-04-20T15:47:50.273Z</time></trkpt><trkpt lat="44.8189804" lon="10.3615272"><ele>37.0</ele><time>2026-04-20T15:47:52.273Z</time></trkpt><trkpt lat="44.8188948" lon="10.3614786"><ele>37.0</ele><time>2026-04-20T15:47:55.273Z</time></trkpt><trkpt lat="44.8188231" lon="10.361409"><ele>37.0</ele><time>2026-04-20T15:47:58.273Z</time></trkpt><trkpt lat="44.8187904" lon="10.3613219"><ele>37.0</ele><time>2026-04-20T15:48:00.273Z</time></trkpt><trkpt lat="44.8187676" lon="10.3612143"><ele>37.0</ele><time>2026-04-20T15:48:02.273Z</time></trkpt><trkpt lat="44.8187472" lon="10.3611068"><ele>37.0</ele><time>2026-04-20T15:48:04.273Z</time></trkpt><trkpt lat="44.8187192" lon="10.3609951"><ele>36.833333333333336</ele><time>2026-04-20T15:48:06.273Z</time></trkpt><trkpt lat="44.818692" lon="10.3608804"><ele>36.66666666666667</ele><time>2026-04-20T15:48:08.273Z</time></trkpt><trkpt lat="44.8186676" lon="10.3607753"><ele>36.5</ele><time>2026-04-20T15:48:10.273Z</time></trkpt><trkpt lat="44.8186561" lon="10.3605973"><ele>36.333333333333336</ele><time>2026-04-20T15:48:12.273Z</time></trkpt><trkpt lat="44.8186434" lon="10.3604916"><ele>36.166666666666664</ele><time>2026-04-20T15:48:14.274Z</time></trkpt><trkpt lat="44.8186351" lon="10.3603889"><ele>36.0</ele><time>2026-04-20T15:48:16.274Z</time></trkpt><trkpt lat="44.818574" lon="10.3602505"><ele>36.666666666666664</ele><time>2026-04-20T15:48:20.274Z</time></trkpt><trkpt lat="44.8185585" lon="10.3601415"><ele>37.333333333333336</ele><time>2026-04-20T15:48:22.273Z</time></trkpt><trkpt lat="44.8185476" lon="10.3600349"><ele>38.0</ele><time>2026-04-20T15:48:24.273Z</time></trkpt><trkpt lat="44.8185327" lon="10.3599265"><ele>38.66666666666667</ele><time>2026-04-20T15:48:26.274Z</time></trkpt><trkpt lat="44.8185171" lon="10.3598231"><ele>39.333333333333336</ele><time>2026-04-20T15:48:28.274Z</time></trkpt><trkpt lat="44.8184981" lon="10.3597269"><ele>40.0</ele><time>2026-04-20T15:48:30.273Z</time></trkpt><trkpt lat="44.8184824" lon="10.359627"><ele>40.5</ele><time>2026-04-20T15:48:32.273Z</time></trkpt><trkpt lat="44.8184671" lon="10.3595222"><ele>41.0</ele><time>2026-04-20T15:48:34.274Z</time></trkpt><trkpt lat="44.8184525" lon="10.3594216"><ele>41.5</ele><time>2026-04-20T15:48:36.273Z</time></trkpt><trkpt lat="44.8184328" lon="10.359314"><ele>42.0</ele><time>2026-04-20T15:48:38.273Z</time></trkpt><trkpt lat="44.8184078" lon="10.3592025"><ele>42.5</ele><time>2026-04-20T15:48:40.274Z</time></trkpt><trkpt lat="44.8183924" lon="10.3590487"><ele>43.0</ele><time>2026-04-20T15:48:42.274Z</time></trkpt><trkpt lat="44.8183514" lon="10.358906"><ele>42.5</ele><time>2026-04-20T15:48:44.274Z</time></trkpt><trkpt lat="44.8182968" lon="10.3587961"><ele>42.0</ele><time>2026-04-20T15:48:46.273Z</time></trkpt><trkpt lat="44.8182781" lon="10.3587111"><ele>41.5</ele><time>2026-04-20T15:48:47.274Z</time></trkpt><trkpt lat="44.8182441" lon="10.3585631"><ele>41.0</ele><time>2026-04-20T15:48:49.274Z</time></trkpt><trkpt lat="44.8182487" lon="10.3584647"><ele>40.5</ele><time>2026-04-20T15:48:50.273Z</time></trkpt><trkpt lat="44.8182209" lon="10.3583708"><ele>40.0</ele><time>2026-04-20T15:48:51.274Z</time></trkpt><trkpt lat="44.8182051" lon="10.3582804"><ele>40.0</ele><time>2026-04-20T15:48:52.274Z</time></trkpt><trkpt lat="44.818187" lon="10.3581358"><ele>40.0</ele><time>2026-04-20T15:48:54.273Z</time></trkpt><trkpt lat="44.8181685" lon="10.3580495"><ele>40.0</ele><time>2026-04-20T15:48:55.274Z</time></trkpt><trkpt lat="44.8181287" lon="10.3578867"><ele>40.0</ele><time>2026-04-20T15:48:57.274Z</time></trkpt><trkpt lat="44.8181183" lon="10.3577863"><ele>40.0</ele><time>2026-04-20T15:48:58.274Z</time></trkpt><trkpt lat="44.8180957" lon="10.357693"><ele>40.0</ele><time>2026-04-20T15:48:59.273Z</time></trkpt><trkpt lat="44.8180879" lon="10.357584"><ele>40.0</ele><time>2026-04-20T15:49:00.274Z</time></trkpt><trkpt lat="44.818047" lon="10.3574224"><ele>40.0</ele><time>2026-04-20T15:49:02.274Z</time></trkpt><trkpt lat="44.8180358" lon="10.3573281"><ele>40.0</ele><time>2026-04-20T15:49:03.273Z</time></trkpt><trkpt lat="44.8180325" lon="10.3572372"><ele>40.0</ele><time>2026-04-20T15:49:04.274Z</time></trkpt><trkpt lat="44.8180248" lon="10.3570731"><ele>40.0</ele><time>2026-04-20T15:49:06.274Z</time></trkpt><trkpt lat="44.8180137" lon="10.3569834"><ele>40.0</ele><time>2026-04-20T15:49:07.274Z</time></trkpt><trkpt lat="44.818001" lon="10.3568936"><ele>40.2</ele><time>2026-04-20T15:49:08.273Z</time></trkpt><trkpt lat="44.8179692" lon="10.3567281"><ele>40.4</ele><time>2026-04-20T15:49:10.274Z</time></trkpt><trkpt lat="44.8179512" lon="10.356642"><ele>40.599999999999994</ele><time>2026-04-20T15:49:11.273Z</time></trkpt><trkpt lat="44.8179342" lon="10.3565533"><ele>40.8</ele><time>2026-04-20T15:49:12.273Z</time></trkpt><trkpt lat="44.8179039" lon="10.3563882"><ele>41.0</ele><time>2026-04-20T15:49:14.274Z</time></trkpt><trkpt lat="44.8178742" lon="10.3562458"><ele>41.33333333333333</ele><time>2026-04-20T15:49:16.273Z</time></trkpt><trkpt lat="44.8178575" lon="10.356149"><ele>41.666666666666664</ele><time>2026-04-20T15:49:17.274Z</time></trkpt><trkpt lat="44.8178358" lon="10.3560587"><ele>42.0</ele><time>2026-04-20T15:49:18.274Z</time></trkpt><trkpt lat="44.817819" lon="10.3559704"><ele>42.333333333333336</ele><time>2026-04-20T15:49:19.273Z</time></trkpt><trkpt lat="44.8178058" lon="10.3558621"><ele>42.66666666666667</ele><time>2026-04-20T15:49:20.274Z</time></trkpt><trkpt lat="44.8177723" lon="10.355715"><ele>43.0</ele><time>2026-04-20T15:49:22.274Z</time></trkpt><trkpt lat="44.8177493" lon="10.3555501"><ele>42.75</ele><time>2026-04-20T15:49:24.273Z</time></trkpt><trkpt lat="44.8177225" lon="10.3553626"><ele>42.5</ele><time>2026-04-20T15:49:26.274Z</time></trkpt><trkpt lat="44.8177311" lon="10.3551856"><ele>42.25</ele><time>2026-04-20T15:49:28.273Z</time></trkpt><trkpt lat="44.8177767" lon="10.3550482"><ele>42.0</ele><time>2026-04-20T15:49:30.274Z</time></trkpt><trkpt lat="44.8178579" lon="10.3549943"><ele>42.0</ele><time>2026-04-20T15:49:32.273Z</time></trkpt><trkpt lat="44.8179322" lon="10.3549608"><ele>42.0</ele><time>2026-04-20T15:49:34.273Z</time></trkpt><trkpt lat="44.8179499" lon="10.3548595"><ele>42.0</ele><time>2026-04-20T15:49:37.273Z</time></trkpt><trkpt lat="44.8179237" lon="10.3547052"><ele>42.0</ele><time>2026-04-20T15:49:40.274Z</time></trkpt><trkpt lat="44.8178257" lon="10.3546332"><ele>42.0</ele><time>2026-04-20T15:49:42.274Z</time></trkpt><trkpt lat="44.8177131" lon="10.3546022"><ele>42.2</ele><time>2026-04-20T15:49:44.273Z</time></trkpt><trkpt lat="44.8176271" lon="10.3545335"><ele>42.400000000000006</ele><time>2026-04-20T15:49:46.273Z</time></trkpt><trkpt lat="44.817554" lon="10.3544227"><ele>42.599999999999994</ele><time>2026-04-20T15:49:48.274Z</time></trkpt><trkpt lat="44.8175167" lon="10.3542716"><ele>42.8</ele><time>2026-04-20T15:49:50.273Z</time></trkpt><trkpt lat="44.8174898" lon="10.3541223"><ele>43.0</ele><time>2026-04-20T15:49:52.274Z</time></trkpt><trkpt lat="44.8174496" lon="10.3539616"><ele>43.0</ele><time>2026-04-20T15:49:54.274Z</time></trkpt><trkpt lat="44.8174414" lon="10.3538722"><ele>43.0</ele><time>2026-04-20T15:49:55.273Z</time></trkpt><trkpt lat="44.8174162" lon="10.353704"><ele>43.0</ele><time>2026-04-20T15:49:57.274Z</time></trkpt><trkpt lat="44.8174094" lon="10.3535467"><ele>43.0</ele><time>2026-04-20T15:49:59.274Z</time></trkpt><trkpt lat="44.8173609" lon="10.3534421"><ele>43.0</ele><time>2026-04-20T15:50:00.273Z</time></trkpt><trkpt lat="44.8173276" lon="10.3532884"><ele>43.0</ele><time>2026-04-20T15:50:02.273Z</time></trkpt><trkpt lat="44.8173045" lon="10.3531337"><ele>43.0</ele><time>2026-04-20T15:50:04.274Z</time></trkpt><trkpt lat="44.8172709" lon="10.3529896"><ele>43.0</ele><time>2026-04-20T15:50:06.273Z</time></trkpt><trkpt lat="44.8172345" lon="10.3528235"><ele>43.0</ele><time>2026-04-20T15:50:08.273Z</time></trkpt><trkpt lat="44.8172118" lon="10.3527379"><ele>43.0</ele><time>2026-04-20T15:50:09.273Z</time></trkpt><trkpt lat="44.8171606" lon="10.3525863"><ele>43.0</ele><time>2026-04-20T15:50:11.273Z</time></trkpt><trkpt lat="44.81712" lon="10.3524958"><ele>43.0</ele><time>2026-04-20T15:50:12.274Z</time></trkpt><trkpt lat="44.8170974" lon="10.3524084"><ele>43.0</ele><time>2026-04-20T15:50:13.274Z</time></trkpt><trkpt lat="44.8170563" lon="10.3522723"><ele>43.0</ele><time>2026-04-20T15:50:15.274Z</time></trkpt><trkpt lat="44.8170097" lon="10.3521371"><ele>43.0</ele><time>2026-04-20T15:50:17.273Z</time></trkpt><trkpt lat="44.8169818" lon="10.352037"><ele>43.0</ele><time>2026-04-20T15:50:18.274Z</time></trkpt><trkpt lat="44.8169541" lon="10.3519398"><ele>43.0</ele><time>2026-04-20T15:50:19.273Z</time></trkpt><trkpt lat="44.816927" lon="10.3518553"><ele>43.0</ele><time>2026-04-20T15:50:20.273Z</time></trkpt><trkpt lat="44.8168913" lon="10.3517667"><ele>43.0</ele><time>2026-04-20T15:50:21.274Z</time></trkpt><trkpt lat="44.8168647" lon="10.3516829"><ele>43.0</ele><time>2026-04-20T15:50:22.273Z</time></trkpt><trkpt lat="44.8168083" lon="10.3515179"><ele>43.0</ele><time>2026-04-20T15:50:24.273Z</time></trkpt><trkpt lat="44.8167763" lon="10.3514375"><ele>43.0</ele><time>2026-04-20T15:50:25.273Z</time></trkpt><trkpt lat="44.8167223" lon="10.3512723"><ele>43.0</ele><time>2026-04-20T15:50:27.273Z</time></trkpt><trkpt lat="44.8166918" lon="10.3511832"><ele>43.0</ele><time>2026-04-20T15:50:28.273Z</time></trkpt><trkpt lat="44.8166665" lon="10.3511015"><ele>43.0</ele><time>2026-04-20T15:50:29.274Z</time></trkpt><trkpt lat="44.8166356" lon="10.3510146"><ele>43.0</ele><time>2026-04-20T15:50:30.274Z</time></trkpt><trkpt lat="44.8165834" lon="10.3508516"><ele>43.0</ele><time>2026-04-20T15:50:32.274Z</time></trkpt><trkpt lat="44.8165309" lon="10.350715"><ele>43.0</ele><time>2026-04-20T15:50:34.274Z</time></trkpt><trkpt lat="44.8164813" lon="10.3505776"><ele>43.0</ele><time>2026-04-20T15:50:36.274Z</time></trkpt><trkpt lat="44.816433" lon="10.3504355"><ele>43.0</ele><time>2026-04-20T15:50:38.273Z</time></trkpt><trkpt lat="44.8163883" lon="10.3502986"><ele>43.0</ele><time>2026-04-20T15:50:40.273Z</time></trkpt><trkpt lat="44.8163443" lon="10.3502304"><ele>43.0</ele><time>2026-04-20T15:50:41.273Z</time></trkpt><trkpt lat="44.8163312" lon="10.3501329"><ele>43.0</ele><time>2026-04-20T15:50:42.273Z</time></trkpt><trkpt lat="44.8162941" lon="10.35005"><ele>43.0</ele><time>2026-04-20T15:50:43.274Z</time></trkpt><trkpt lat="44.8162628" lon="10.3499655"><ele>43.0</ele><time>2026-04-20T15:50:44.274Z</time></trkpt><trkpt lat="44.8162234" lon="10.3498869"><ele>43.0</ele><time>2026-04-20T15:50:45.274Z</time></trkpt><trkpt lat="44.8161467" lon="10.3497691"><ele>43.0</ele><time>2026-04-20T15:50:47.274Z</time></trkpt><trkpt lat="44.8161244" lon="10.3496691"><ele>43.0</ele><time>2026-04-20T15:50:48.274Z</time></trkpt><trkpt lat="44.8160712" lon="10.3495454"><ele>43.0</ele><time>2026-04-20T15:50:50.273Z</time></trkpt><trkpt lat="44.816043" lon="10.3494601"><ele>43.0</ele><time>2026-04-20T15:50:51.273Z</time></trkpt><trkpt lat="44.8160117" lon="10.3493738"><ele>43.0</ele><time>2026-04-20T15:50:52.273Z</time></trkpt><trkpt lat="44.8159501" lon="10.3492189"><ele>43.0</ele><time>2026-04-20T15:50:54.274Z</time></trkpt><trkpt lat="44.8159204" lon="10.3491207"><ele>43.0</ele><time>2026-04-20T15:50:55.273Z</time></trkpt><trkpt lat="44.815853" lon="10.3489901"><ele>43.0</ele><time>2026-04-20T15:50:57.274Z</time></trkpt><trkpt lat="44.8157696" lon="10.3488756"><ele>43.0</ele><time>2026-04-20T15:50:59.274Z</time></trkpt><trkpt lat="44.8157205" lon="10.3488067"><ele>43.4</ele><time>2026-04-20T15:51:00.273Z</time></trkpt><trkpt lat="44.815673" lon="10.3487181"><ele>43.8</ele><time>2026-04-20T15:51:01.273Z</time></trkpt><trkpt lat="44.8156142" lon="10.3485834"><ele>44.2</ele><time>2026-04-20T15:51:03.273Z</time></trkpt><trkpt lat="44.815568" lon="10.3485071"><ele>44.6</ele><time>2026-04-20T15:51:04.273Z</time></trkpt><trkpt lat="44.8155073" lon="10.3483829"><ele>45.0</ele><time>2026-04-20T15:51:06.274Z</time></trkpt><trkpt lat="44.8154344" lon="10.348248"><ele>45.0</ele><time>2026-04-20T15:51:08.273Z</time></trkpt><trkpt lat="44.8153544" lon="10.3481402"><ele>45.0</ele><time>2026-04-20T15:51:10.274Z</time></trkpt><trkpt lat="44.8152666" lon="10.3480063"><ele>45.0</ele><time>2026-04-20T15:51:12.274Z</time></trkpt><trkpt lat="44.8152184" lon="10.3479427"><ele>45.0</ele><time>2026-04-20T15:51:13.273Z</time></trkpt><trkpt lat="44.8151638" lon="10.3478928"><ele>45.0</ele><time>2026-04-20T15:51:14.274Z</time></trkpt><trkpt lat="44.8150685" lon="10.3477867"><ele>45.6</ele><time>2026-04-20T15:51:16.274Z</time></trkpt><trkpt lat="44.8150101" lon="10.347711"><ele>46.2</ele><time>2026-04-20T15:51:17.274Z</time></trkpt><trkpt lat="44.814922" lon="10.3476165"><ele>46.8</ele><time>2026-04-20T15:51:19.274Z</time></trkpt><trkpt lat="44.814826" lon="10.3475008"><ele>47.4</ele><time>2026-04-20T15:51:21.273Z</time></trkpt><trkpt lat="44.8147673" lon="10.3474554"><ele>48.0</ele><time>2026-04-20T15:51:22.273Z</time></trkpt><trkpt lat="44.8147078" lon="10.3474075"><ele>48.0</ele><time>2026-04-20T15:51:23.274Z</time></trkpt><trkpt lat="44.8146167" lon="10.3473874"><ele>48.0</ele><time>2026-04-20T15:51:25.274Z</time></trkpt><trkpt lat="44.8145557" lon="10.3473547"><ele>48.0</ele><time>2026-04-20T15:51:26.274Z</time></trkpt><trkpt lat="44.8144939" lon="10.347317"><ele>48.0</ele><time>2026-04-20T15:51:27.273Z</time></trkpt><trkpt lat="44.8144251" lon="10.3472975"><ele>48.0</ele><time>2026-04-20T15:51:28.273Z</time></trkpt><trkpt lat="44.8143567" lon="10.3472625"><ele>48.0</ele><time>2026-04-20T15:51:29.273Z</time></trkpt><trkpt lat="44.8142338" lon="10.3472406"><ele>47.25</ele><time>2026-04-20T15:51:31.273Z</time></trkpt><trkpt lat="44.8141171" lon="10.3472192"><ele>46.5</ele><time>2026-04-20T15:51:33.274Z</time></trkpt><trkpt lat="44.8140024" lon="10.3472416"><ele>45.75</ele><time>2026-04-20T15:51:35.273Z</time></trkpt><trkpt lat="44.8138833" lon="10.3472368"><ele>45.0</ele><time>2026-04-20T15:51:37.273Z</time></trkpt><trkpt lat="44.8137763" lon="10.3472587"><ele>45.0</ele><time>2026-04-20T15:51:39.274Z</time></trkpt><trkpt lat="44.8137093" lon="10.3472524"><ele>45.0</ele><time>2026-04-20T15:51:40.274Z</time></trkpt><trkpt lat="44.813628" lon="10.3472211"><ele>45.0</ele><time>2026-04-20T15:51:42.274Z</time></trkpt><trkpt lat="44.8135155" lon="10.3472059"><ele>45.0</ele><time>2026-04-20T15:51:44.274Z</time></trkpt><trkpt lat="44.8134235" lon="10.3471884"><ele>45.0</ele><time>2026-04-20T15:51:46.273Z</time></trkpt><trkpt lat="44.8132601" lon="10.3471704"><ele>45.2</ele><time>2026-04-20T15:51:49.273Z</time></trkpt><trkpt lat="44.8131402" lon="10.3471543"><ele>45.4</ele><time>2026-04-20T15:51:51.273Z</time></trkpt><trkpt lat="44.8130397" lon="10.3471296"><ele>45.599999999999994</ele><time>2026-04-20T15:51:53.273Z</time></trkpt><trkpt lat="44.8129736" lon="10.3471391"><ele>45.8</ele><time>2026-04-20T15:51:54.273Z</time></trkpt><trkpt lat="44.8128864" lon="10.3471216"><ele>46.0</ele><time>2026-04-20T15:51:56.274Z</time></trkpt><trkpt lat="44.8127895" lon="10.3471237"><ele>46.0</ele><time>2026-04-20T15:51:58.274Z</time></trkpt><trkpt lat="44.8126968" lon="10.3471144"><ele>46.0</ele><time>2026-04-20T15:52:00.273Z</time></trkpt><trkpt lat="44.8126042" lon="10.3470924"><ele>46.0</ele><time>2026-04-20T15:52:02.273Z</time></trkpt><trkpt lat="44.8125097" lon="10.3470737"><ele>46.0</ele><time>2026-04-20T15:52:04.272Z</time></trkpt><trkpt lat="44.8124119" lon="10.3470565"><ele>46.0</ele><time>2026-04-20T15:52:07.274Z</time></trkpt><trkpt lat="44.8123285" lon="10.3471061"><ele>45.66666666666667</ele><time>2026-04-20T15:52:09.273Z</time></trkpt><trkpt lat="44.8122735" lon="10.3471738"><ele>45.333333333333336</ele><time>2026-04-20T15:52:11.273Z</time></trkpt><trkpt lat="44.8121856" lon="10.347172"><ele>45.0</ele><time>2026-04-20T15:52:13.274Z</time></trkpt><trkpt lat="44.8121458" lon="10.3469958"><ele>44.666666666666664</ele><time>2026-04-20T15:52:17.274Z</time></trkpt><trkpt lat="44.8121458" lon="10.3468915"><ele>44.33333333333333</ele><time>2026-04-20T15:52:19.273Z</time></trkpt><trkpt lat="44.8121514" lon="10.3467834"><ele>44.0</ele><time>2026-04-20T15:52:20.273Z</time></trkpt><trkpt lat="44.8121601" lon="10.346695"><ele>44.0</ele><time>2026-04-20T15:52:21.273Z</time></trkpt><trkpt lat="44.8121712" lon="10.3465738"><ele>44.0</ele><time>2026-04-20T15:52:23.273Z</time></trkpt><trkpt lat="44.8122222" lon="10.3463928"><ele>44.0</ele><time>2026-04-20T15:52:26.274Z</time></trkpt><trkpt lat="44.8122367" lon="10.3462409"><ele>44.0</ele><time>2026-04-20T15:52:28.273Z</time></trkpt><trkpt lat="44.8122654" lon="10.3461283"><ele>44.0</ele><time>2026-04-20T15:52:30.274Z</time></trkpt><trkpt lat="44.8123461" lon="10.3459462"><ele>44.0</ele><time>2026-04-20T15:52:33.273Z</time></trkpt><trkpt lat="44.8123731" lon="10.3457612"><ele>44.0</ele><time>2026-04-20T15:52:36.273Z</time></trkpt><trkpt lat="44.8124004" lon="10.3456623"><ele>44.0</ele><time>2026-04-20T15:52:39.274Z</time></trkpt><trkpt lat="44.8123918" lon="10.3455693"><ele>44.0</ele><time>2026-04-20T15:52:58.274Z</time></trkpt><trkpt lat="44.8123867" lon="10.3454683"><ele>44.0</ele><time>2026-04-20T15:53:01.273Z</time></trkpt><trkpt lat="44.8123458" lon="10.3453983"><ele>44.0</ele><time>2026-04-20T15:53:03.274Z</time></trkpt><trkpt lat="44.8122877" lon="10.3453367"><ele>44.0</ele><time>2026-04-20T15:53:05.273Z</time></trkpt><trkpt lat="44.8122295" lon="10.3452744"><ele>44.0</ele><time>2026-04-20T15:53:07.274Z</time></trkpt><trkpt lat="44.8121701" lon="10.3452006"><ele>44.0</ele><time>2026-04-20T15:53:09.273Z</time></trkpt><trkpt lat="44.8121113" lon="10.3451243"><ele>44.0</ele><time>2026-04-20T15:53:11.274Z</time></trkpt><trkpt lat="44.812059" lon="10.3450534"><ele>44.0</ele><time>2026-04-20T15:53:13.273Z</time></trkpt><trkpt lat="44.8120038" lon="10.3449741"><ele>44.0</ele><time>2026-04-20T15:53:15.274Z</time></trkpt><trkpt lat="44.8119481" lon="10.3449064"><ele>44.0</ele><time>2026-04-20T15:53:17.274Z</time></trkpt><trkpt lat="44.8118819" lon="10.3448345"><ele>44.0</ele><time>2026-04-20T15:53:20.274Z</time></trkpt><trkpt lat="44.811828" lon="10.3447599"><ele>44.0</ele><time>2026-04-20T15:53:22.273Z</time></trkpt><trkpt lat="44.8117768" lon="10.3446841"><ele>44.0</ele><time>2026-04-20T15:53:24.273Z</time></trkpt><trkpt lat="44.8117396" lon="10.3446107"><ele>44.0</ele><time>2026-04-20T15:53:26.273Z</time></trkpt><trkpt lat="44.8116926" lon="10.3445317"><ele>44.0</ele><time>2026-04-20T15:53:28.273Z</time></trkpt><trkpt lat="44.8116402" lon="10.3444628"><ele>44.0</ele><time>2026-04-20T15:53:30.274Z</time></trkpt><trkpt lat="44.8115945" lon="10.344401"><ele>44.666666666666664</ele><time>2026-04-20T15:53:32.274Z</time></trkpt><trkpt lat="44.8115638" lon="10.3442979"><ele>45.33333333333333</ele><time>2026-04-20T15:53:35.273Z</time></trkpt><trkpt lat="44.8115633" lon="10.344185"><ele>46.0</ele><time>2026-04-20T15:53:37.274Z</time></trkpt><trkpt lat="44.8115797" lon="10.3440794"><ele>46.666666666666664</ele><time>2026-04-20T15:53:39.273Z</time></trkpt><trkpt lat="44.8116021" lon="10.3439634"><ele>47.333333333333336</ele><time>2026-04-20T15:53:41.273Z</time></trkpt><trkpt lat="44.8116228" lon="10.3438382"><ele>48.0</ele><time>2026-04-20T15:53:43.273Z</time></trkpt><trkpt lat="44.8116385" lon="10.343709"><ele>48.0</ele><time>2026-04-20T15:53:45.273Z</time></trkpt><trkpt lat="44.8116506" lon="10.3435856"><ele>48.0</ele><time>2026-04-20T15:53:47.274Z</time></trkpt><trkpt lat="44.8116677" lon="10.3434678"><ele>48.0</ele><time>2026-04-20T15:53:49.273Z</time></trkpt><trkpt lat="44.8116909" lon="10.3433526"><ele>48.0</ele><time>2026-04-20T15:53:51.274Z</time></trkpt><trkpt lat="44.8117096" lon="10.3432162"><ele>48.0</ele><time>2026-04-20T15:53:53.274Z</time></trkpt><trkpt lat="44.8117219" lon="10.3430846"><ele>48.4</ele><time>2026-04-20T15:53:55.273Z</time></trkpt><trkpt lat="44.8117494" lon="10.342956"><ele>48.8</ele><time>2026-04-20T15:53:57.273Z</time></trkpt><trkpt lat="44.8117797" lon="10.3428343"><ele>49.2</ele><time>2026-04-20T15:54:00.274Z</time></trkpt><trkpt lat="44.8117971" lon="10.3426932"><ele>49.6</ele><time>2026-04-20T15:54:02.274Z</time></trkpt><trkpt lat="44.8118213" lon="10.3425553"><ele>50.0</ele><time>2026-04-20T15:54:04.273Z</time></trkpt><trkpt lat="44.8118421" lon="10.3424096"><ele>50.0</ele><time>2026-04-20T15:54:06.274Z</time></trkpt><trkpt lat="44.8118581" lon="10.3422796"><ele>50.0</ele><time>2026-04-20T15:54:08.273Z</time></trkpt><trkpt lat="44.8118728" lon="10.3421411"><ele>50.0</ele><time>2026-04-20T15:54:10.273Z</time></trkpt><trkpt lat="44.8118887" lon="10.3420551"><ele>50.0</ele><time>2026-04-20T15:54:11.273Z</time></trkpt><trkpt lat="44.8119002" lon="10.3419047"><ele>50.0</ele><time>2026-04-20T15:54:13.273Z</time></trkpt><trkpt lat="44.811915" lon="10.3417672"><ele>50.00000000000001</ele><time>2026-04-20T15:54:15.274Z</time></trkpt><trkpt lat="44.8119386" lon="10.3416403"><ele>50.0</ele><time>2026-04-20T15:54:17.273Z</time></trkpt><trkpt lat="44.8119424" lon="10.3415223"><ele>50.0</ele><time>2026-04-20T15:54:19.273Z</time></trkpt><trkpt lat="44.8119591" lon="10.3414049"><ele>50.0</ele><time>2026-04-20T15:54:21.273Z</time></trkpt><trkpt lat="44.8119964" lon="10.3413097"><ele>50.00000000000001</ele><time>2026-04-20T15:54:24.273Z</time></trkpt><trkpt lat="44.812059" lon="10.341245"><ele>50.0</ele><time>2026-04-20T15:54:33.274Z</time></trkpt><trkpt lat="44.8120191" lon="10.3411339"><ele>49.50000000000001</ele><time>2026-04-20T15:54:36.273Z</time></trkpt><trkpt lat="44.8120459" lon="10.3410207"><ele>49.0</ele><time>2026-04-20T15:54:38.274Z</time></trkpt><trkpt lat="44.8120748" lon="10.3409063"><ele>48.5</ele><time>2026-04-20T15:54:40.274Z</time></trkpt><trkpt lat="44.8121006" lon="10.3407844"><ele>48.0</ele><time>2026-04-20T15:54:42.274Z</time></trkpt><trkpt lat="44.8121417" lon="10.3406599"><ele>47.5</ele><time>2026-04-20T15:54:44.273Z</time></trkpt><trkpt lat="44.8121568" lon="10.3405441"><ele>47.0</ele><time>2026-04-20T15:54:46.273Z</time></trkpt><trkpt lat="44.8121825" lon="10.3404409"><ele>47.0</ele><time>2026-04-20T15:54:48.273Z</time></trkpt><trkpt lat="44.8122033" lon="10.3403353"><ele>47.0</ele><time>2026-04-20T15:54:50.274Z</time></trkpt><trkpt lat="44.8122341" lon="10.3402218"><ele>47.0</ele><time>2026-04-20T15:54:52.274Z</time></trkpt><trkpt lat="44.8122588" lon="10.3400761"><ele>47.0</ele><time>2026-04-20T15:54:54.273Z</time></trkpt><trkpt lat="44.8122694" lon="10.3399205"><ele>47.0</ele><time>2026-04-20T15:54:56.273Z</time></trkpt><trkpt lat="44.8123015" lon="10.3397915"><ele>47.33333333333333</ele><time>2026-04-20T15:54:58.274Z</time></trkpt><trkpt lat="44.8123328" lon="10.3396694"><ele>47.666666666666664</ele><time>2026-04-20T15:55:00.273Z</time></trkpt><trkpt lat="44.8123574" lon="10.3395378"><ele>48.0</ele><time>2026-04-20T15:55:02.274Z</time></trkpt><trkpt lat="44.8123899" lon="10.3394522"><ele>48.33333333333333</ele><time>2026-04-20T15:55:04.273Z</time></trkpt><trkpt lat="44.8124161" lon="10.3393623"><ele>48.666666666666664</ele><time>2026-04-20T15:55:06.273Z</time></trkpt><trkpt lat="44.8124327" lon="10.3392069"><ele>49.0</ele><time>2026-04-20T15:55:09.273Z</time></trkpt><trkpt lat="44.8124443" lon="10.3391132"><ele>48.99999999999999</ele><time>2026-04-20T15:55:11.273Z</time></trkpt><trkpt lat="44.8124631" lon="10.3389867"><ele>49.0</ele><time>2026-04-20T15:55:13.274Z</time></trkpt><trkpt lat="44.8124998" lon="10.3388789"><ele>49.0</ele><time>2026-04-20T15:55:15.273Z</time></trkpt><trkpt lat="44.8125484" lon="10.3387721"><ele>49.0</ele><time>2026-04-20T15:55:17.273Z</time></trkpt><trkpt lat="44.8125716" lon="10.3386608"><ele>48.99999999999999</ele><time>2026-04-20T15:55:19.274Z</time></trkpt><trkpt lat="44.8125986" lon="10.3385616"><ele>49.0</ele><time>2026-04-20T15:55:23.274Z</time></trkpt><trkpt lat="44.8126298" lon="10.3384597"><ele>49.166666666666664</ele><time>2026-04-20T15:55:26.274Z</time></trkpt><trkpt lat="44.8126528" lon="10.3383767"><ele>49.33333333333333</ele><time>2026-04-20T15:55:28.273Z</time></trkpt><trkpt lat="44.8126912" lon="10.3382519"><ele>49.5</ele><time>2026-04-20T15:55:31.273Z</time></trkpt><trkpt lat="44.8127177" lon="10.3381446"><ele>49.66666666666667</ele><time>2026-04-20T15:55:33.274Z</time></trkpt><trkpt lat="44.8127521" lon="10.3380526"><ele>49.833333333333336</ele><time>2026-04-20T15:55:35.273Z</time></trkpt><trkpt lat="44.8127941" lon="10.3379698"><ele>50.0</ele><time>2026-04-20T15:55:37.274Z</time></trkpt><trkpt lat="44.812825" lon="10.3378056"><ele>50.0</ele><time>2026-04-20T15:55:39.273Z</time></trkpt><trkpt lat="44.8128531" lon="10.3376799"><ele>50.0</ele><time>2026-04-20T15:55:41.273Z</time></trkpt><trkpt lat="44.8128739" lon="10.3375581"><ele>50.0</ele><time>2026-04-20T15:55:43.274Z</time></trkpt><trkpt lat="44.8129073" lon="10.3374497"><ele>50.0</ele><time>2026-04-20T15:55:45.273Z</time></trkpt><trkpt lat="44.8129635" lon="10.3373598"><ele>50.0</ele><time>2026-04-20T15:55:47.273Z</time></trkpt><trkpt lat="44.8130143" lon="10.3372352"><ele>50.333333333333336</ele><time>2026-04-20T15:55:49.273Z</time></trkpt><trkpt lat="44.8130427" lon="10.337125"><ele>50.66666666666667</ele><time>2026-04-20T15:55:53.273Z</time></trkpt><trkpt lat="44.8130534" lon="10.3370332"><ele>51.0</ele><time>2026-04-20T15:55:57.273Z</time></trkpt><trkpt lat="44.8129846" lon="10.3369801"><ele>51.33333333333333</ele><time>2026-04-20T15:56:00.273Z</time></trkpt><trkpt lat="44.8129495" lon="10.3368736"><ele>51.666666666666664</ele><time>2026-04-20T15:56:03.273Z</time></trkpt><trkpt lat="44.8129714" lon="10.3367836"><ele>52.0</ele><time>2026-04-20T15:56:05.274Z</time></trkpt><trkpt lat="44.8130037" lon="10.3366845"><ele>52.0</ele><time>2026-04-20T15:56:07.273Z</time></trkpt><trkpt lat="44.8130354" lon="10.3365395"><ele>52.0</ele><time>2026-04-20T15:56:09.274Z</time></trkpt><trkpt lat="44.813072" lon="10.3364223"><ele>52.0</ele><time>2026-04-20T15:56:11.273Z</time></trkpt><trkpt lat="44.8130981" lon="10.3363039"><ele>52.0</ele><time>2026-04-20T15:56:13.274Z</time></trkpt><trkpt lat="44.8131248" lon="10.3361839"><ele>52.0</ele><time>2026-04-20T15:56:15.273Z</time></trkpt><trkpt lat="44.8131512" lon="10.3360735"><ele>51.8</ele><time>2026-04-20T15:56:17.274Z</time></trkpt><trkpt lat="44.8131735" lon="10.335942"><ele>51.6</ele><time>2026-04-20T15:56:19.274Z</time></trkpt><trkpt lat="44.8132016" lon="10.335829"><ele>51.4</ele><time>2026-04-20T15:56:21.274Z</time></trkpt><trkpt lat="44.8132269" lon="10.3356827"><ele>51.199999999999996</ele><time>2026-04-20T15:56:23.273Z</time></trkpt><trkpt lat="44.8132605" lon="10.3355658"><ele>51.0</ele><time>2026-04-20T15:56:25.274Z</time></trkpt><trkpt lat="44.8132815" lon="10.3354142"><ele>51.0</ele><time>2026-04-20T15:56:27.273Z</time></trkpt><trkpt lat="44.8133076" lon="10.3352713"><ele>51.0</ele><time>2026-04-20T15:56:29.273Z</time></trkpt><trkpt lat="44.8133414" lon="10.335138"><ele>51.0</ele><time>2026-04-20T15:56:31.274Z</time></trkpt><trkpt lat="44.813371" lon="10.3350007"><ele>51.0</ele><time>2026-04-20T15:56:33.274Z</time></trkpt><trkpt lat="44.8133693" lon="10.3349002"><ele>51.0</ele><time>2026-04-20T15:56:34.274Z</time></trkpt><trkpt lat="44.8133964" lon="10.3347814"><ele>51.0</ele><time>2026-04-20T15:56:36.274Z</time></trkpt><trkpt lat="44.8134354" lon="10.3346485"><ele>51.0</ele><time>2026-04-20T15:56:38.273Z</time></trkpt><trkpt lat="44.8134587" lon="10.3345011"><ele>51.0</ele><time>2026-04-20T15:56:40.274Z</time></trkpt><trkpt lat="44.8134877" lon="10.3343847"><ele>51.0</ele><time>2026-04-20T15:56:42.274Z</time></trkpt><trkpt lat="44.8135135" lon="10.3342674"><ele>51.0</ele><time>2026-04-20T15:56:44.273Z</time></trkpt><trkpt lat="44.8135373" lon="10.3341174"><ele>51.199999999999996</ele><time>2026-04-20T15:56:46.273Z</time></trkpt><trkpt lat="44.8135563" lon="10.3339606"><ele>51.4</ele><time>2026-04-20T15:56:48.273Z</time></trkpt><trkpt lat="44.8135775" lon="10.3338338"><ele>51.6</ele><time>2026-04-20T15:56:50.274Z</time></trkpt><trkpt lat="44.8136035" lon="10.3337319"><ele>51.8</ele><time>2026-04-20T15:56:52.273Z</time></trkpt><trkpt lat="44.8136238" lon="10.3336223"><ele>52.0</ele><time>2026-04-20T15:56:54.273Z</time></trkpt><trkpt lat="44.8136486" lon="10.3334328"><ele>52.25</ele><time>2026-04-20T15:56:57.273Z</time></trkpt><trkpt lat="44.8136752" lon="10.3332909"><ele>52.5</ele><time>2026-04-20T15:56:59.273Z</time></trkpt><trkpt lat="44.8136995" lon="10.333156"><ele>52.75</ele><time>2026-04-20T15:57:01.273Z</time></trkpt><trkpt lat="44.8137392" lon="10.3330114"><ele>53.0</ele><time>2026-04-20T15:57:03.274Z</time></trkpt><trkpt lat="44.8137793" lon="10.3328103"><ele>53.0</ele><time>2026-04-20T15:57:06.273Z</time></trkpt><trkpt lat="44.8138104" lon="10.332668"><ele>53.0</ele><time>2026-04-20T15:57:08.273Z</time></trkpt><trkpt lat="44.8138244" lon="10.3325169"><ele>53.0</ele><time>2026-04-20T15:57:10.273Z</time></trkpt><trkpt lat="44.8138431" lon="10.3323734"><ele>53.0</ele><time>2026-04-20T15:57:12.274Z</time></trkpt><trkpt lat="44.8138561" lon="10.3322508"><ele>53.0</ele><time>2026-04-20T15:57:14.274Z</time></trkpt><trkpt lat="44.8138809" lon="10.332128"><ele>53.00000000000001</ele><time>2026-04-20T15:57:16.274Z</time></trkpt><trkpt lat="44.8138996" lon="10.332017"><ele>53.0</ele><time>2026-04-20T15:57:18.274Z</time></trkpt><trkpt lat="44.8139492" lon="10.3319551"><ele>53.0</ele><time>2026-04-20T15:57:20.273Z</time></trkpt><trkpt lat="44.8139539" lon="10.3318504"><ele>53.0</ele><time>2026-04-20T15:57:22.274Z</time></trkpt><trkpt lat="44.8139943" lon="10.3317596"><ele>53.00000000000001</ele><time>2026-04-20T15:57:24.274Z</time></trkpt><trkpt lat="44.8140171" lon="10.3316459"><ele>53.0</ele><time>2026-04-20T15:57:26.274Z</time></trkpt><trkpt lat="44.8140384" lon="10.331525"><ele>53.00000000000001</ele><time>2026-04-20T15:57:28.274Z</time></trkpt><trkpt lat="44.8140598" lon="10.3314163"><ele>53.0</ele><time>2026-04-20T15:57:30.273Z</time></trkpt><trkpt lat="44.8140661" lon="10.3313125"><ele>53.0</ele><time>2026-04-20T15:57:33.274Z</time></trkpt><trkpt lat="44.8140148" lon="10.3312597"><ele>53.0</ele><time>2026-04-20T15:57:36.274Z</time></trkpt><trkpt lat="44.8139339" lon="10.3312143"><ele>53.00000000000001</ele><time>2026-04-20T15:57:39.274Z</time></trkpt><trkpt lat="44.8138525" lon="10.3311712"><ele>53.0</ele><time>2026-04-20T15:57:42.273Z</time></trkpt><trkpt lat="44.8137682" lon="10.331162"><ele>53.0</ele><time>2026-04-20T15:57:44.274Z</time></trkpt><trkpt lat="44.813669" lon="10.3311422"><ele>53.0</ele><time>2026-04-20T15:57:46.273Z</time></trkpt><trkpt lat="44.8135771" lon="10.3311247"><ele>53.0</ele><time>2026-04-20T15:57:48.273Z</time></trkpt><trkpt lat="44.8134896" lon="10.3311099"><ele>53.0</ele><time>2026-04-20T15:57:50.274Z</time></trkpt><trkpt lat="44.8134009" lon="10.3310991"><ele>53.0</ele><time>2026-04-20T15:57:52.273Z</time></trkpt><trkpt lat="44.8132942" lon="10.3310506"><ele>53.599999999999994</ele><time>2026-04-20T15:57:55.273Z</time></trkpt><trkpt lat="44.8131927" lon="10.3309995"><ele>54.199999999999996</ele><time>2026-04-20T15:58:01.274Z</time></trkpt><trkpt lat="44.8131177" lon="10.3309826"><ele>54.8</ele><time>2026-04-20T15:58:03.274Z</time></trkpt><trkpt lat="44.813002" lon="10.3309151"><ele>55.4</ele><time>2026-04-20T15:58:05.274Z</time></trkpt><trkpt lat="44.8129199" lon="10.3309171"><ele>56.0</ele><time>2026-04-20T15:58:07.274Z</time></trkpt><trkpt lat="44.8128524" lon="10.330925"><ele>56.00000000000001</ele><time>2026-04-20T15:58:09.273Z</time></trkpt><trkpt lat="44.8127565" lon="10.3309204"><ele>56.0</ele><time>2026-04-20T15:58:11.274Z</time></trkpt><trkpt lat="44.8126824" lon="10.3309253"><ele>56.0</ele><time>2026-04-20T15:58:13.273Z</time></trkpt><trkpt lat="44.8125969" lon="10.33093"><ele>56.0</ele><time>2026-04-20T15:58:15.273Z</time></trkpt><trkpt lat="44.8125203" lon="10.330925"><ele>56.00000000000001</ele><time>2026-04-20T15:58:17.274Z</time></trkpt><trkpt lat="44.8124541" lon="10.330911"><ele>56.0</ele><time>2026-04-20T15:58:19.273Z</time></trkpt><trkpt lat="44.8123836" lon="10.3308937"><ele>55.833333333333336</ele><time>2026-04-20T15:58:21.274Z</time></trkpt><trkpt lat="44.8122968" lon="10.3308946"><ele>55.66666666666667</ele><time>2026-04-20T15:58:24.273Z</time></trkpt><trkpt lat="44.8122296" lon="10.3308922"><ele>55.5</ele><time>2026-04-20T15:58:28.273Z</time></trkpt><trkpt lat="44.8121363" lon="10.3308644"><ele>55.33333333333333</ele><time>2026-04-20T15:58:31.273Z</time></trkpt><trkpt lat="44.8120615" lon="10.3308581"><ele>55.166666666666664</ele><time>2026-04-20T15:58:33.273Z</time></trkpt><trkpt lat="44.8119797" lon="10.3308443"><ele>55.0</ele><time>2026-04-20T15:58:35.274Z</time></trkpt><trkpt lat="44.8118967" lon="10.3308305"><ele>54.666666666666664</ele><time>2026-04-20T15:58:37.273Z</time></trkpt><trkpt lat="44.8118204" lon="10.3308188"><ele>54.33333333333333</ele><time>2026-04-20T15:58:39.274Z</time></trkpt><trkpt lat="44.8117303" lon="10.3307931"><ele>54.0</ele><time>2026-04-20T15:58:41.274Z</time></trkpt><trkpt lat="44.8116476" lon="10.330776"><ele>53.66666666666667</ele><time>2026-04-20T15:58:43.273Z</time></trkpt><trkpt lat="44.8115278" lon="10.3307559"><ele>53.333333333333336</ele><time>2026-04-20T15:58:46.274Z</time></trkpt><trkpt lat="44.8114604" lon="10.3307417"><ele>53.0</ele><time>2026-04-20T15:58:48.274Z</time></trkpt><trkpt lat="44.8113926" lon="10.3307183"><ele>53.0</ele><time>2026-04-20T15:58:50.274Z</time></trkpt><trkpt lat="44.811307" lon="10.3306909"><ele>53.0</ele><time>2026-04-20T15:58:52.274Z</time></trkpt><trkpt lat="44.8111956" lon="10.3306438"><ele>53.0</ele><time>2026-04-20T15:58:55.274Z</time></trkpt><trkpt lat="44.8110979" lon="10.3306198"><ele>53.0</ele><time>2026-04-20T15:58:57.274Z</time></trkpt><trkpt lat="44.8109972" lon="10.3305908"><ele>53.0</ele><time>2026-04-20T15:58:59.274Z</time></trkpt><trkpt lat="44.8108967" lon="10.3305736"><ele>53.599999999999994</ele><time>2026-04-20T15:59:01.273Z</time></trkpt><trkpt lat="44.8107459" lon="10.3305274"><ele>54.199999999999996</ele><time>2026-04-20T15:59:04.273Z</time></trkpt><trkpt lat="44.8106615" lon="10.3305058"><ele>54.8</ele><time>2026-04-20T15:59:06.274Z</time></trkpt><trkpt lat="44.8105737" lon="10.3304983"><ele>55.4</ele><time>2026-04-20T15:59:08.274Z</time></trkpt><trkpt lat="44.8104757" lon="10.3304766"><ele>56.0</ele><time>2026-04-20T15:59:10.274Z</time></trkpt><trkpt lat="44.8103468" lon="10.330451"><ele>56.00000000000001</ele><time>2026-04-20T15:59:13.274Z</time></trkpt><trkpt lat="44.8102708" lon="10.3304162"><ele>56.0</ele><time>2026-04-20T15:59:15.274Z</time></trkpt><trkpt lat="44.8101982" lon="10.3304256"><ele>56.0</ele><time>2026-04-20T15:59:17.274Z</time></trkpt><trkpt lat="44.8101059" lon="10.3304145"><ele>56.0</ele><time>2026-04-20T15:59:20.274Z</time></trkpt><trkpt lat="44.8100258" lon="10.3304174"><ele>56.00000000000001</ele><time>2026-04-20T15:59:22.274Z</time></trkpt><trkpt lat="44.8099527" lon="10.3303929"><ele>56.0</ele><time>2026-04-20T15:59:24.274Z</time></trkpt><trkpt lat="44.8098808" lon="10.3303649"><ele>56.00000000000001</ele><time>2026-04-20T15:59:26.273Z</time></trkpt><trkpt lat="44.8098077" lon="10.3303386"><ele>56.0</ele><time>2026-04-20T15:59:28.273Z</time></trkpt><trkpt lat="44.8097299" lon="10.330319"><ele>56.0</ele><time>2026-04-20T15:59:30.274Z</time></trkpt><trkpt lat="44.8096452" lon="10.3303304"><ele>56.0</ele><time>2026-04-20T15:59:31.274Z</time></trkpt><trkpt lat="44.8095669" lon="10.3303185"><ele>56.00000000000001</ele><time>2026-04-20T15:59:32.273Z</time></trkpt><trkpt lat="44.809455" lon="10.3302478"><ele>56.0</ele><time>2026-04-20T15:59:34.273Z</time></trkpt><trkpt lat="44.8093927" lon="10.3302051"><ele>57.199999999999996</ele><time>2026-04-20T15:59:36.274Z</time></trkpt><trkpt lat="44.809321" lon="10.3301674"><ele>58.39999999999999</ele><time>2026-04-20T15:59:38.273Z</time></trkpt><trkpt lat="44.8092925" lon="10.3300613"><ele>59.6</ele><time>2026-04-20T15:59:42.274Z</time></trkpt><trkpt lat="44.8092265" lon="10.330099"><ele>60.8</ele><time>2026-04-20T15:59:48.274Z</time></trkpt><trkpt lat="44.8091365" lon="10.3300845"><ele>62.0</ele><time>2026-04-20T15:59:50.274Z</time></trkpt><trkpt lat="44.8090262" lon="10.3299508"><ele>62.00000000000001</ele><time>2026-04-20T15:59:51.273Z</time></trkpt><trkpt lat="44.808918" lon="10.3299154"><ele>62.0</ele><time>2026-04-20T15:59:53.273Z</time></trkpt><trkpt lat="44.808832" lon="10.3298813"><ele>62.0</ele><time>2026-04-20T15:59:55.273Z</time></trkpt><trkpt lat="44.8087321" lon="10.3298656"><ele>62.0</ele><time>2026-04-20T15:59:57.273Z</time></trkpt><trkpt lat="44.8086543" lon="10.3298354"><ele>62.00000000000001</ele><time>2026-04-20T15:59:59.273Z</time></trkpt><trkpt lat="44.8086412" lon="10.3297461"><ele>62.0</ele><time>2026-04-20T16:00:02.273Z</time></trkpt><trkpt lat="44.8086797" lon="10.3296501"><ele>61.8</ele><time>2026-04-20T16:00:07.273Z</time></trkpt><trkpt lat="44.8086802" lon="10.3295397"><ele>61.6</ele><time>2026-04-20T16:00:10.273Z</time></trkpt><trkpt lat="44.8087631" lon="10.3295018"><ele>61.39999999999999</ele><time>2026-04-20T16:00:13.274Z</time></trkpt><trkpt lat="44.8088434" lon="10.3293543"><ele>61.199999999999996</ele><time>2026-04-20T16:00:17.274Z</time></trkpt><trkpt lat="44.808847" lon="10.3292191"><ele>61.0</ele><time>2026-04-20T16:00:19.274Z</time></trkpt><trkpt lat="44.8088286" lon="10.329113"><ele>60.99999999999999</ele><time>2026-04-20T16:00:21.273Z</time></trkpt><trkpt lat="44.8087943" lon="10.3290103"><ele>61.0</ele><time>2026-04-20T16:00:23.274Z</time></trkpt><trkpt lat="44.8087645" lon="10.3288753"><ele>61.0</ele><time>2026-04-20T16:00:25.273Z</time></trkpt><trkpt lat="44.8087462" lon="10.3287846"><ele>61.0</ele><time>2026-04-20T16:00:28.273Z</time></trkpt><trkpt lat="44.8087021" lon="10.3286979"><ele>60.99999999999999</ele><time>2026-04-20T16:00:33.273Z</time></trkpt><trkpt lat="44.8086338" lon="10.3286572"><ele>61.0</ele><time>2026-04-20T16:00:36.274Z</time></trkpt><trkpt lat="44.8085908" lon="10.3285653"><ele>60.83333333333333</ele><time>2026-04-20T16:00:42.273Z</time></trkpt><trkpt lat="44.808596" lon="10.3284596"><ele>60.666666666666664</ele><time>2026-04-20T16:00:45.273Z</time></trkpt><trkpt lat="44.8086393" lon="10.3283785"><ele>60.5</ele><time>2026-04-20T16:00:49.273Z</time></trkpt><trkpt lat="44.8086537" lon="10.3282745"><ele>60.33333333333333</ele><time>2026-04-20T16:00:51.273Z</time></trkpt><trkpt lat="44.808672" lon="10.328159"><ele>60.166666666666664</ele><time>2026-04-20T16:00:53.273Z</time></trkpt><trkpt lat="44.8086856" lon="10.3280539"><ele>60.0</ele><time>2026-04-20T16:00:55.274Z</time></trkpt><trkpt lat="44.8086952" lon="10.327936"><ele>60.0</ele><time>2026-04-20T16:00:57.273Z</time></trkpt><trkpt lat="44.8087064" lon="10.3277798"><ele>60.0</ele><time>2026-04-20T16:01:00.274Z</time></trkpt><trkpt lat="44.8087072" lon="10.3276849"><ele>60.0</ele><time>2026-04-20T16:01:02.274Z</time></trkpt><trkpt lat="44.8086802" lon="10.3276039"><ele>60.0</ele><time>2026-04-20T16:01:05.274Z</time></trkpt><trkpt lat="44.808612" lon="10.3275584"><ele>60.0</ele><time>2026-04-20T16:01:07.274Z</time></trkpt><trkpt lat="44.8085383" lon="10.3275013"><ele>60.0</ele><time>2026-04-20T16:01:09.273Z</time></trkpt><trkpt lat="44.808459" lon="10.327416"><ele>60.166666666666664</ele><time>2026-04-20T16:01:11.274Z</time></trkpt><trkpt lat="44.8084071" lon="10.3273276"><ele>60.33333333333333</ele><time>2026-04-20T16:01:12.274Z</time></trkpt><trkpt lat="44.8083274" lon="10.3272879"><ele>60.5</ele><time>2026-04-20T16:01:14.273Z</time></trkpt><trkpt lat="44.8082483" lon="10.3271968"><ele>60.666666666666664</ele><time>2026-04-20T16:01:16.273Z</time></trkpt><trkpt lat="44.8081851" lon="10.3271518"><ele>60.83333333333333</ele><time>2026-04-20T16:01:17.273Z</time></trkpt><trkpt lat="44.8081017" lon="10.3271002"><ele>61.0</ele><time>2026-04-20T16:01:19.274Z</time></trkpt><trkpt lat="44.8079945" lon="10.3270638"><ele>60.99999999999999</ele><time>2026-04-20T16:01:21.273Z</time></trkpt><trkpt lat="44.8079046" lon="10.326997"><ele>61.0</ele><time>2026-04-20T16:01:23.273Z</time></trkpt><trkpt lat="44.8078423" lon="10.3269569"><ele>61.0</ele><time>2026-04-20T16:01:24.273Z</time></trkpt><trkpt lat="44.8077244" lon="10.3268653"><ele>61.0</ele><time>2026-04-20T16:01:26.273Z</time></trkpt><trkpt lat="44.8076663" lon="10.3268278"><ele>60.99999999999999</ele><time>2026-04-20T16:01:27.273Z</time></trkpt><trkpt lat="44.8075985" lon="10.3267828"><ele>61.0</ele><time>2026-04-20T16:01:28.274Z</time></trkpt><trkpt lat="44.8074958" lon="10.3267287"><ele>61.166666666666664</ele><time>2026-04-20T16:01:29.274Z</time></trkpt><trkpt lat="44.8074346" lon="10.3267061"><ele>61.33333333333333</ele><time>2026-04-20T16:01:31.274Z</time></trkpt><trkpt lat="44.8073675" lon="10.3266479"><ele>61.5</ele><time>2026-04-20T16:01:33.273Z</time></trkpt><trkpt lat="44.8072666" lon="10.3265797"><ele>61.66666666666667</ele><time>2026-04-20T16:01:35.273Z</time></trkpt><trkpt lat="44.8071808" lon="10.3265405"><ele>61.833333333333336</ele><time>2026-04-20T16:01:37.273Z</time></trkpt><trkpt lat="44.8071066" lon="10.3264727"><ele>62.0</ele><time>2026-04-20T16:01:39.273Z</time></trkpt><trkpt lat="44.8070073" lon="10.3264218"><ele>61.333333333333336</ele><time>2026-04-20T16:01:41.273Z</time></trkpt><trkpt lat="44.806953" lon="10.326368"><ele>60.66666666666667</ele><time>2026-04-20T16:01:42.274Z</time></trkpt><trkpt lat="44.8068775" lon="10.326302"><ele>60.0</ele><time>2026-04-20T16:01:44.273Z</time></trkpt><trkpt lat="44.8067725" lon="10.3262649"><ele>59.33333333333333</ele><time>2026-04-20T16:01:46.274Z</time></trkpt><trkpt lat="44.8067072" lon="10.3262422"><ele>58.666666666666664</ele><time>2026-04-20T16:01:47.273Z</time></trkpt><trkpt lat="44.8066127" lon="10.3261994"><ele>58.0</ele><time>2026-04-20T16:01:49.273Z</time></trkpt><trkpt lat="44.8064743" lon="10.326141"><ele>58.0</ele><time>2026-04-20T16:01:52.274Z</time></trkpt><trkpt lat="44.8063972" lon="10.3260891"><ele>58.0</ele><time>2026-04-20T16:01:54.274Z</time></trkpt><trkpt lat="44.8063098" lon="10.3260634"><ele>58.0</ele><time>2026-04-20T16:01:56.273Z</time></trkpt><trkpt lat="44.8062192" lon="10.3260039"><ele>58.0</ele><time>2026-04-20T16:01:58.273Z</time></trkpt><trkpt lat="44.8060892" lon="10.3259128"><ele>58.0</ele><time>2026-04-20T16:02:01.274Z</time></trkpt><trkpt lat="44.8060245" lon="10.3258932"><ele>58.33333333333333</ele><time>2026-04-20T16:02:03.274Z</time></trkpt><trkpt lat="44.8059602" lon="10.3258484"><ele>58.666666666666664</ele><time>2026-04-20T16:02:05.273Z</time></trkpt><trkpt lat="44.8058723" lon="10.3258168"><ele>59.0</ele><time>2026-04-20T16:02:08.274Z</time></trkpt><trkpt lat="44.8057975" lon="10.325764"><ele>59.33333333333333</ele><time>2026-04-20T16:02:11.273Z</time></trkpt><trkpt lat="44.8057969" lon="10.3256734"><ele>59.666666666666664</ele><time>2026-04-20T16:02:15.273Z</time></trkpt><trkpt lat="44.8057931" lon="10.3255677"><ele>60.0</ele><time>2026-04-20T16:02:20.273Z</time></trkpt><trkpt lat="44.8056919" lon="10.3254825"><ele>59.166666666666664</ele><time>2026-04-20T16:02:22.273Z</time></trkpt><trkpt lat="44.8056287" lon="10.3254472"><ele>58.33333333333333</ele><time>2026-04-20T16:02:23.273Z</time></trkpt><trkpt lat="44.8055168" lon="10.3253753"><ele>57.5</ele><time>2026-04-20T16:02:25.274Z</time></trkpt><trkpt lat="44.8054037" lon="10.3253203"><ele>56.666666666666664</ele><time>2026-04-20T16:02:27.274Z</time></trkpt><trkpt lat="44.8053451" lon="10.3252784"><ele>55.83333333333333</ele><time>2026-04-20T16:02:28.274Z</time></trkpt><trkpt lat="44.8052854" lon="10.3252393"><ele>55.0</ele><time>2026-04-20T16:02:29.273Z</time></trkpt><trkpt lat="44.8052251" lon="10.3251377"><ele>55.0</ele><time>2026-04-20T16:02:31.273Z</time></trkpt><trkpt lat="44.8052739" lon="10.325046"><ele>55.0</ele><time>2026-04-20T16:02:32.273Z</time></trkpt><trkpt lat="44.8053262" lon="10.3248987"><ele>55.0</ele><time>2026-04-20T16:02:34.274Z</time></trkpt><trkpt lat="44.8053886" lon="10.3247462"><ele>55.0</ele><time>2026-04-20T16:02:36.274Z</time></trkpt><trkpt lat="44.8054208" lon="10.3246678"><ele>55.0</ele><time>2026-04-20T16:02:37.274Z</time></trkpt><trkpt lat="44.8054757" lon="10.3245284"><ele>55.8</ele><time>2026-04-20T16:02:39.274Z</time></trkpt><trkpt lat="44.8055406" lon="10.3243789"><ele>56.6</ele><time>2026-04-20T16:02:41.274Z</time></trkpt><trkpt lat="44.8055878" lon="10.3242311"><ele>57.400000000000006</ele><time>2026-04-20T16:02:43.273Z</time></trkpt><trkpt lat="44.8056438" lon="10.3240944"><ele>58.2</ele><time>2026-04-20T16:02:45.273Z</time></trkpt><trkpt lat="44.8056835" lon="10.3239827"><ele>59.0</ele><time>2026-04-20T16:02:47.274Z</time></trkpt><trkpt lat="44.8057026" lon="10.323891"><ele>60.400000000000006</ele><time>2026-04-20T16:02:50.274Z</time></trkpt><trkpt lat="44.8057329" lon="10.3237909"><ele>61.800000000000004</ele><time>2026-04-20T16:02:54.273Z</time></trkpt><trkpt lat="44.8057849" lon="10.3236844"><ele>63.199999999999996</ele><time>2026-04-20T16:02:56.274Z</time></trkpt><trkpt lat="44.8058569" lon="10.3235611"><ele>64.6</ele><time>2026-04-20T16:02:58.274Z</time></trkpt><trkpt lat="44.8059205" lon="10.3234214"><ele>66.0</ele><time>2026-04-20T16:03:00.274Z</time></trkpt><trkpt lat="44.8059852" lon="10.323243"><ele>65.2</ele><time>2026-04-20T16:03:02.274Z</time></trkpt><trkpt lat="44.8060559" lon="10.3230731"><ele>64.39999999999999</ele><time>2026-04-20T16:03:04.273Z</time></trkpt><trkpt lat="44.8060812" lon="10.3229768"><ele>63.6</ele><time>2026-04-20T16:03:05.273Z</time></trkpt><trkpt lat="44.8061184" lon="10.3228846"><ele>62.8</ele><time>2026-04-20T16:03:06.273Z</time></trkpt><trkpt lat="44.8061656" lon="10.3227237"><ele>62.0</ele><time>2026-04-20T16:03:08.273Z</time></trkpt><trkpt lat="44.8061998" lon="10.3225898"><ele>61.8</ele><time>2026-04-20T16:03:10.274Z</time></trkpt><trkpt lat="44.8062244" lon="10.3224788"><ele>61.6</ele><time>2026-04-20T16:03:12.274Z</time></trkpt><trkpt lat="44.8062652" lon="10.3223422"><ele>61.39999999999999</ele><time>2026-04-20T16:03:15.274Z</time></trkpt><trkpt lat="44.8062813" lon="10.3221532"><ele>61.199999999999996</ele><time>2026-04-20T16:03:17.273Z</time></trkpt><trkpt lat="44.8062857" lon="10.3220448"><ele>61.0</ele><time>2026-04-20T16:03:18.274Z</time></trkpt><trkpt lat="44.8062755" lon="10.3219223"><ele>60.99999999999999</ele><time>2026-04-20T16:03:19.274Z</time></trkpt><trkpt lat="44.8062847" lon="10.3218265"><ele>61.0</ele><time>2026-04-20T16:03:20.274Z</time></trkpt><trkpt lat="44.8062758" lon="10.3217339"><ele>61.0</ele><time>2026-04-20T16:03:21.273Z</time></trkpt><trkpt lat="44.8062572" lon="10.3216136"><ele>61.0</ele><time>2026-04-20T16:03:22.274Z</time></trkpt><trkpt lat="44.8062453" lon="10.3215091"><ele>60.99999999999999</ele><time>2026-04-20T16:03:23.273Z</time></trkpt><trkpt lat="44.8062356" lon="10.3214153"><ele>61.0</ele><time>2026-04-20T16:03:24.273Z</time></trkpt><trkpt lat="44.8062334" lon="10.3212624"><ele>61.0</ele><time>2026-04-20T16:03:26.273Z</time></trkpt><trkpt lat="44.8062277" lon="10.3211637"><ele>60.99999999999999</ele><time>2026-04-20T16:03:27.274Z</time></trkpt><trkpt lat="44.8062198" lon="10.3210615"><ele>60.99999999999999</ele><time>2026-04-20T16:03:28.274Z</time></trkpt><trkpt lat="44.8062273" lon="10.32088"><ele>61.0</ele><time>2026-04-20T16:03:30.273Z</time></trkpt><trkpt lat="44.8062175" lon="10.3207528"><ele>61.0</ele><time>2026-04-20T16:03:31.273Z</time></trkpt><trkpt lat="44.8062024" lon="10.3205512"><ele>60.99999999999999</ele><time>2026-04-20T16:03:33.273Z</time></trkpt><trkpt lat="44.8061952" lon="10.3203959"><ele>61.0</ele><time>2026-04-20T16:03:35.273Z</time></trkpt><trkpt lat="44.8061782" lon="10.3203064"><ele>61.0</ele><time>2026-04-20T16:03:36.274Z</time></trkpt><trkpt lat="44.8061865" lon="10.3201863"><ele>61.0</ele><time>2026-04-20T16:03:38.274Z</time></trkpt><trkpt lat="44.8061823" lon="10.3200773"><ele>60.99999999999999</ele><time>2026-04-20T16:03:40.274Z</time></trkpt><trkpt lat="44.8061916" lon="10.3199823"><ele>61.0</ele><time>2026-04-20T16:03:42.274Z</time></trkpt><trkpt lat="44.8062063" lon="10.3198873"><ele>60.99999999999999</ele><time>2026-04-20T16:03:44.273Z</time></trkpt><trkpt lat="44.8062082" lon="10.3197576"><ele>61.0</ele><time>2026-04-20T16:03:46.273Z</time></trkpt><trkpt lat="44.8061781" lon="10.3196273"><ele>61.0</ele><time>2026-04-20T16:03:48.273Z</time></trkpt><trkpt lat="44.8061335" lon="10.3195257"><ele>61.0</ele><time>2026-04-20T16:03:49.274Z</time></trkpt><trkpt lat="44.8060741" lon="10.3194528"><ele>60.99999999999999</ele><time>2026-04-20T16:03:50.274Z</time></trkpt><trkpt lat="44.8060266" lon="10.3193782"><ele>61.0</ele><time>2026-04-20T16:03:51.273Z</time></trkpt><trkpt lat="44.8059615" lon="10.3193684"><ele>61.166666666666664</ele><time>2026-04-20T16:03:52.273Z</time></trkpt><trkpt lat="44.8058934" lon="10.3193185"><ele>61.33333333333333</ele><time>2026-04-20T16:03:53.274Z</time></trkpt><trkpt lat="44.8058224" lon="10.3193354"><ele>61.5</ele><time>2026-04-20T16:03:54.273Z</time></trkpt><trkpt lat="44.8057605" lon="10.319314"><ele>61.66666666666667</ele><time>2026-04-20T16:03:55.274Z</time></trkpt><trkpt lat="44.8056564" lon="10.3193154"><ele>61.833333333333336</ele><time>2026-04-20T16:03:57.274Z</time></trkpt><trkpt lat="44.8055834" lon="10.3193306"><ele>62.0</ele><time>2026-04-20T16:03:59.273Z</time></trkpt><trkpt lat="44.8054788" lon="10.3193043"><ele>62.0</ele><time>2026-04-20T16:04:01.273Z</time></trkpt><trkpt lat="44.8054182" lon="10.3192793"><ele>62.0</ele><time>2026-04-20T16:04:03.274Z</time></trkpt><trkpt lat="44.8053438" lon="10.3192887"><ele>62.0</ele><time>2026-04-20T16:04:05.274Z</time></trkpt><trkpt lat="44.8052577" lon="10.3192931"><ele>62.0</ele><time>2026-04-20T16:04:07.273Z</time></trkpt><trkpt lat="44.8051598" lon="10.3192892"><ele>62.0</ele><time>2026-04-20T16:04:09.274Z</time></trkpt><trkpt lat="44.8050337" lon="10.3192539"><ele>61.66666666666667</ele><time>2026-04-20T16:04:11.273Z</time></trkpt><trkpt lat="44.8049703" lon="10.319231"><ele>61.333333333333336</ele><time>2026-04-20T16:04:12.274Z</time></trkpt><trkpt lat="44.8050146" lon="10.319096"><ele>61.0</ele><time>2026-04-20T16:04:14.273Z</time></trkpt><trkpt lat="44.8050022" lon="10.3190007"><ele>60.66666666666667</ele><time>2026-04-20T16:04:15.274Z</time></trkpt><trkpt lat="44.8049739" lon="10.3189153"><ele>60.333333333333336</ele><time>2026-04-20T16:04:16.274Z</time></trkpt><trkpt lat="44.8049889" lon="10.3188119"><ele>60.0</ele><time>2026-04-20T16:04:18.274Z</time></trkpt><trkpt lat="44.8050103" lon="10.3186348"><ele>60.0</ele><time>2026-04-20T16:04:20.273Z</time></trkpt><trkpt lat="44.8050065" lon="10.3184728"><ele>60.0</ele><time>2026-04-20T16:04:22.273Z</time></trkpt><trkpt lat="44.8050003" lon="10.3183343"><ele>60.0</ele><time>2026-04-20T16:04:24.274Z</time></trkpt><trkpt lat="44.8050113" lon="10.3182"><ele>60.0</ele><time>2026-04-20T16:04:26.274Z</time></trkpt><trkpt lat="44.8050133" lon="10.3181042"><ele>60.0</ele><time>2026-04-20T16:04:27.274Z</time></trkpt><trkpt lat="44.8050323" lon="10.3179568"><ele>60.6</ele><time>2026-04-20T16:04:29.273Z</time></trkpt><trkpt lat="44.8050487" lon="10.317807"><ele>61.2</ele><time>2026-04-20T16:04:31.273Z</time></trkpt><trkpt lat="44.8050737" lon="10.3176772"><ele>61.8</ele><time>2026-04-20T16:04:33.274Z</time></trkpt><trkpt lat="44.8050796" lon="10.3175846"><ele>62.4</ele><time>2026-04-20T16:04:34.274Z</time></trkpt><trkpt lat="44.805089" lon="10.3174198"><ele>63.0</ele><time>2026-04-20T16:04:36.273Z</time></trkpt><trkpt lat="44.8050887" lon="10.3173294"><ele>62.599999999999994</ele><time>2026-04-20T16:04:37.273Z</time></trkpt><trkpt lat="44.8050845" lon="10.3171852"><ele>62.199999999999996</ele><time>2026-04-20T16:04:39.274Z</time></trkpt><trkpt lat="44.8050759" lon="10.3170824"><ele>61.8</ele><time>2026-04-20T16:04:40.274Z</time></trkpt><trkpt lat="44.8050599" lon="10.3169106"><ele>61.4</ele><time>2026-04-20T16:04:42.273Z</time></trkpt><trkpt lat="44.8050541" lon="10.316738"><ele>61.0</ele><time>2026-04-20T16:04:44.273Z</time></trkpt><trkpt lat="44.8050769" lon="10.3165699"><ele>61.0</ele><time>2026-04-20T16:04:46.274Z</time></trkpt><trkpt lat="44.8050919" lon="10.3164065"><ele>60.99999999999999</ele><time>2026-04-20T16:04:48.274Z</time></trkpt><trkpt lat="44.8050972" lon="10.3162639"><ele>60.99999999999999</ele><time>2026-04-20T16:04:50.274Z</time></trkpt><trkpt lat="44.8050817" lon="10.3161687"><ele>61.0</ele><time>2026-04-20T16:04:51.273Z</time></trkpt><trkpt lat="44.8051038" lon="10.3160321"><ele>61.0</ele><time>2026-04-20T16:04:53.274Z</time></trkpt><trkpt lat="44.8051102" lon="10.3158624"><ele>61.0</ele><time>2026-04-20T16:04:55.273Z</time></trkpt><trkpt lat="44.8051273" lon="10.3157259"><ele>61.0</ele><time>2026-04-20T16:04:57.274Z</time></trkpt><trkpt lat="44.8051427" lon="10.3155845"><ele>61.0</ele><time>2026-04-20T16:04:59.274Z</time></trkpt><trkpt lat="44.805133" lon="10.3153933"><ele>61.0</ele><time>2026-04-20T16:05:01.274Z</time></trkpt><trkpt lat="44.8051129" lon="10.3152171"><ele>60.83333333333333</ele><time>2026-04-20T16:05:03.273Z</time></trkpt><trkpt lat="44.8050884" lon="10.3150871"><ele>60.666666666666664</ele><time>2026-04-20T16:05:05.274Z</time></trkpt><trkpt lat="44.8050387" lon="10.3150173"><ele>60.5</ele><time>2026-04-20T16:05:07.274Z</time></trkpt><trkpt lat="44.8049655" lon="10.3150071"><ele>60.33333333333333</ele><time>2026-04-20T16:05:10.273Z</time></trkpt><trkpt lat="44.8048979" lon="10.3149667"><ele>60.166666666666664</ele><time>2026-04-20T16:05:12.274Z</time></trkpt><trkpt lat="44.8048305" lon="10.3148924"><ele>60.0</ele><time>2026-04-20T16:05:14.273Z</time></trkpt><trkpt lat="44.8047486" lon="10.3148296"><ele>60.0</ele><time>2026-04-20T16:05:16.273Z</time></trkpt><trkpt lat="44.8046688" lon="10.3147891"><ele>60.0</ele><time>2026-04-20T16:05:18.274Z</time></trkpt><trkpt lat="44.8045851" lon="10.3147489"><ele>60.0</ele><time>2026-04-20T16:05:20.273Z</time></trkpt><trkpt lat="44.8045121" lon="10.3147099"><ele>60.0</ele><time>2026-04-20T16:05:22.274Z</time></trkpt><trkpt lat="44.8044371" lon="10.3146745"><ele>60.0</ele><time>2026-04-20T16:05:24.273Z</time></trkpt><trkpt lat="44.8043636" lon="10.3146926"><ele>60.0</ele><time>2026-04-20T16:05:26.274Z</time></trkpt><trkpt lat="44.80429" lon="10.3147263"><ele>59.833333333333336</ele><time>2026-04-20T16:05:28.274Z</time></trkpt><trkpt lat="44.8042101" lon="10.3147294"><ele>59.66666666666667</ele><time>2026-04-20T16:05:31.273Z</time></trkpt><trkpt lat="44.8041411" lon="10.31471"><ele>59.5</ele><time>2026-04-20T16:05:34.273Z</time></trkpt><trkpt lat="44.8040705" lon="10.3146738"><ele>59.333333333333336</ele><time>2026-04-20T16:05:36.274Z</time></trkpt><trkpt lat="44.8040096" lon="10.314598"><ele>59.16666666666667</ele><time>2026-04-20T16:05:38.273Z</time></trkpt><trkpt lat="44.803972" lon="10.3144987"><ele>59.0</ele><time>2026-04-20T16:05:40.273Z</time></trkpt><trkpt lat="44.8039469" lon="10.3143689"><ele>59.0</ele><time>2026-04-20T16:05:42.273Z</time></trkpt><trkpt lat="44.8038806" lon="10.3142859"><ele>59.00000000000001</ele><time>2026-04-20T16:05:44.273Z</time></trkpt><trkpt lat="44.8037846" lon="10.3142446"><ele>59.00000000000001</ele><time>2026-04-20T16:05:46.273Z</time></trkpt><trkpt lat="44.8036957" lon="10.314198"><ele>59.0</ele><time>2026-04-20T16:05:48.274Z</time></trkpt><trkpt lat="44.8036101" lon="10.3141767"><ele>59.0</ele><time>2026-04-20T16:05:50.274Z</time></trkpt><trkpt lat="44.8035225" lon="10.3141571"><ele>59.2</ele><time>2026-04-20T16:05:52.273Z</time></trkpt><trkpt lat="44.8034387" lon="10.3141078"><ele>59.400000000000006</ele><time>2026-04-20T16:05:54.274Z</time></trkpt><trkpt lat="44.8033269" lon="10.3140525"><ele>59.6</ele><time>2026-04-20T16:05:56.273Z</time></trkpt><trkpt lat="44.8032275" lon="10.314009"><ele>59.8</ele><time>2026-04-20T16:05:58.273Z</time></trkpt><trkpt lat="44.803126" lon="10.3139826"><ele>60.0</ele><time>2026-04-20T16:06:01.273Z</time></trkpt><trkpt lat="44.8030386" lon="10.3139624"><ele>60.0</ele><time>2026-04-20T16:06:03.273Z</time></trkpt><trkpt lat="44.8029483" lon="10.3139047"><ele>60.0</ele><time>2026-04-20T16:06:05.274Z</time></trkpt><trkpt lat="44.8028733" lon="10.3138748"><ele>60.0</ele><time>2026-04-20T16:06:06.274Z</time></trkpt><trkpt lat="44.8027635" lon="10.3138161"><ele>60.0</ele><time>2026-04-20T16:06:08.273Z</time></trkpt><trkpt lat="44.8026676" lon="10.3137896"><ele>60.0</ele><time>2026-04-20T16:06:10.274Z</time></trkpt><trkpt lat="44.802563" lon="10.3137695"><ele>60.2</ele><time>2026-04-20T16:06:12.274Z</time></trkpt><trkpt lat="44.8024515" lon="10.3137469"><ele>60.4</ele><time>2026-04-20T16:06:14.274Z</time></trkpt><trkpt lat="44.8023788" lon="10.3136735"><ele>60.599999999999994</ele><time>2026-04-20T16:06:15.273Z</time></trkpt><trkpt lat="44.8022582" lon="10.3136392"><ele>60.8</ele><time>2026-04-20T16:06:17.274Z</time></trkpt><trkpt lat="44.8021532" lon="10.3136525"><ele>61.0</ele><time>2026-04-20T16:06:19.274Z</time></trkpt><trkpt lat="44.8020786" lon="10.31366"><ele>61.0</ele><time>2026-04-20T16:06:21.273Z</time></trkpt><trkpt lat="44.8019628" lon="10.3136086"><ele>60.99999999999999</ele><time>2026-04-20T16:06:23.274Z</time></trkpt><trkpt lat="44.8018675" lon="10.313562"><ele>60.99999999999999</ele><time>2026-04-20T16:06:25.273Z</time></trkpt><trkpt lat="44.8017634" lon="10.3135232"><ele>61.0</ele><time>2026-04-20T16:06:27.274Z</time></trkpt><trkpt lat="44.8016991" lon="10.3134995"><ele>61.0</ele><time>2026-04-20T16:06:28.274Z</time></trkpt><trkpt lat="44.80159" lon="10.313477"><ele>61.199999999999996</ele><time>2026-04-20T16:06:30.274Z</time></trkpt><trkpt lat="44.8015228" lon="10.3134642"><ele>61.39999999999999</ele><time>2026-04-20T16:06:31.273Z</time></trkpt><trkpt lat="44.801459" lon="10.313434"><ele>61.6</ele><time>2026-04-20T16:06:32.274Z</time></trkpt><trkpt lat="44.8013733" lon="10.3133955"><ele>61.8</ele><time>2026-04-20T16:06:33.273Z</time></trkpt><trkpt lat="44.801259" lon="10.3133548"><ele>62.0</ele><time>2026-04-20T16:06:35.274Z</time></trkpt><trkpt lat="44.8011398" lon="10.3133236"><ele>62.0</ele><time>2026-04-20T16:06:37.274Z</time></trkpt><trkpt lat="44.8010526" lon="10.313379"><ele>62.0</ele><time>2026-04-20T16:06:39.274Z</time></trkpt><trkpt lat="44.8009546" lon="10.3134167"><ele>62.0</ele><time>2026-04-20T16:06:41.274Z</time></trkpt><trkpt lat="44.8008411" lon="10.3134663"><ele>62.0</ele><time>2026-04-20T16:06:43.273Z</time></trkpt><trkpt lat="44.8007697" lon="10.3135229"><ele>62.0</ele><time>2026-04-20T16:06:44.273Z</time></trkpt><trkpt lat="44.8007009" lon="10.3135875"><ele>62.16666666666667</ele><time>2026-04-20T16:06:45.274Z</time></trkpt><trkpt lat="44.8006378" lon="10.3136297"><ele>62.333333333333336</ele><time>2026-04-20T16:06:46.274Z</time></trkpt><trkpt lat="44.8005733" lon="10.3137074"><ele>62.5</ele><time>2026-04-20T16:06:47.274Z</time></trkpt><trkpt lat="44.8004927" lon="10.3137413"><ele>62.66666666666667</ele><time>2026-04-20T16:06:48.273Z</time></trkpt><trkpt lat="44.8004624" lon="10.3138194"><ele>62.833333333333336</ele><time>2026-04-20T16:06:51.273Z</time></trkpt><trkpt lat="44.8003696" lon="10.3138465"><ele>63.0</ele><time>2026-04-20T16:07:33.274Z</time></trkpt><trkpt lat="44.80029" lon="10.3138472"><ele>63.0</ele><time>2026-04-20T16:07:36.274Z</time></trkpt><trkpt lat="44.8002107" lon="10.3138344"><ele>63.0</ele><time>2026-04-20T16:07:39.273Z</time></trkpt><trkpt lat="44.8001436" lon="10.3138365"><ele>63.0</ele><time>2026-04-20T16:07:41.274Z</time></trkpt><trkpt lat="44.8000552" lon="10.3138554"><ele>63.0</ele><time>2026-04-20T16:07:44.273Z</time></trkpt><trkpt lat="44.7999879" lon="10.3138761"><ele>63.0</ele><time>2026-04-20T16:07:47.274Z</time></trkpt><trkpt lat="44.7999201" lon="10.3138814"><ele>63.0</ele><time>2026-04-20T16:07:49.274Z</time></trkpt><trkpt lat="44.7998356" lon="10.3138378"><ele>62.599999999999994</ele><time>2026-04-20T16:07:51.274Z</time></trkpt><trkpt lat="44.7997149" lon="10.3137075"><ele>62.199999999999996</ele><time>2026-04-20T16:07:53.273Z</time></trkpt><trkpt lat="44.7996689" lon="10.3136304"><ele>61.8</ele><time>2026-04-20T16:07:55.274Z</time></trkpt><trkpt lat="44.7996122" lon="10.3135333"><ele>61.4</ele><time>2026-04-20T16:07:57.274Z</time></trkpt><trkpt lat="44.7995422" lon="10.3134642"><ele>61.0</ele><time>2026-04-20T16:08:00.274Z</time></trkpt><trkpt lat="44.7994318" lon="10.3134279"><ele>60.99999999999999</ele><time>2026-04-20T16:08:02.274Z</time></trkpt><trkpt lat="44.7993384" lon="10.3134398"><ele>61.0</ele><time>2026-04-20T16:08:04.273Z</time></trkpt><trkpt lat="44.7992684" lon="10.313429"><ele>60.99999999999999</ele><time>2026-04-20T16:08:06.273Z</time></trkpt><trkpt lat="44.7992025" lon="10.3134132"><ele>60.99999999999999</ele><time>2026-04-20T16:08:08.274Z</time></trkpt><trkpt lat="44.7991354" lon="10.3134156"><ele>61.0</ele><time>2026-04-20T16:08:11.274Z</time></trkpt><trkpt lat="44.7990644" lon="10.3134036"><ele>60.99999999999999</ele><time>2026-04-20T16:08:15.274Z</time></trkpt><trkpt lat="44.7989973" lon="10.3133932"><ele>60.99999999999999</ele><time>2026-04-20T16:08:17.274Z</time></trkpt><trkpt lat="44.798851" lon="10.3134245"><ele>61.166666666666664</ele><time>2026-04-20T16:08:19.273Z</time></trkpt><trkpt lat="44.7987468" lon="10.3134405"><ele>61.33333333333333</ele><time>2026-04-20T16:08:21.273Z</time></trkpt><trkpt lat="44.7986764" lon="10.3134001"><ele>61.5</ele><time>2026-04-20T16:08:23.274Z</time></trkpt><trkpt lat="44.7985954" lon="10.3133998"><ele>61.66666666666667</ele><time>2026-04-20T16:08:25.273Z</time></trkpt><trkpt lat="44.7985197" lon="10.3134135"><ele>61.833333333333336</ele><time>2026-04-20T16:08:27.274Z</time></trkpt><trkpt lat="44.7984411" lon="10.3134219"><ele>62.0</ele><time>2026-04-20T16:08:29.274Z</time></trkpt><trkpt lat="44.7983501" lon="10.3134067"><ele>62.0</ele><time>2026-04-20T16:08:31.273Z</time></trkpt><trkpt lat="44.7982567" lon="10.3133998"><ele>62.0</ele><time>2026-04-20T16:08:33.273Z</time></trkpt><trkpt lat="44.7981891" lon="10.3133858"><ele>62.0</ele><time>2026-04-20T16:08:36.273Z</time></trkpt><trkpt lat="44.7981149" lon="10.3134014"><ele>62.0</ele><time>2026-04-20T16:08:45.273Z</time></trkpt></trkseg></trk></gpx>